<?xml version='1.0' encoding='UTF-8'?><gpx version="1.1" creator="JPX - https://github.com/jenetics/jpx" xmlns="http://www.topografix.com/GPX/1/1"><trk><trkseg><trkpt lat="40.9550378" lon="14.3042029"><ele>28.0</ele><time>2026-04-18T07:27:45.161Z</time></trkpt><trkpt lat="40.9549839" lon="14.3041591"><ele>27.999999999999996</ele><time>2026-04-18T07:28:05.169Z</time></trkpt><trkpt lat="40.9550883" lon="14.3042167"><ele>27.999999999999996</ele><time>2026-04-18T07:29:29.099Z</time></trkpt><trkpt lat="40.9551833" lon="14.3042533"><ele>28.0</ele><time>2026-04-18T07:29:31.1Z</time></trkpt><trkpt lat="40.9552983" lon="14.3042967"><ele>28.0</ele><time>2026-04-18T07:29:33.099Z</time></trkpt><trkpt lat="40.955425" lon="14.3043067"><ele>28.000000000000004</ele><time>2026-04-18T07:29:35.099Z</time></trkpt><trkpt lat="40.9554967" lon="14.3042433"><ele>28.0</ele><time>2026-04-18T07:29:37.099Z</time></trkpt><trkpt lat="40.9555633" lon="14.3041367"><ele>28.0</ele><time>2026-04-18T07:29:39.099Z</time></trkpt><trkpt lat="40.95562" lon="14.3040417"><ele>28.0</ele><time>2026-04-18T07:29:40.099Z</time></trkpt><trkpt lat="40.9556583" lon="14.30395"><ele>28.000000000000004</ele><time>2026-04-18T07:29:41.099Z</time></trkpt><trkpt lat="40.955695" lon="14.3038567"><ele>28.0</ele><time>2026-04-18T07:29:42.099Z</time></trkpt><trkpt lat="40.95573" lon="14.3037567"><ele>28.142857142857142</ele><time>2026-04-18T07:29:43.099Z</time></trkpt><trkpt lat="40.9557617" lon="14.30367"><ele>28.285714285714285</ele><time>2026-04-18T07:29:44.099Z</time></trkpt><trkpt lat="40.955785" lon="14.303575"><ele>28.42857142857143</ele><time>2026-04-18T07:29:45.099Z</time></trkpt><trkpt lat="40.9558133" lon="14.3034867"><ele>28.571428571428573</ele><time>2026-04-18T07:29:46.099Z</time></trkpt><trkpt lat="40.9558417" lon="14.3034"><ele>28.714285714285715</ele><time>2026-04-18T07:29:47.099Z</time></trkpt><trkpt lat="40.9558733" lon="14.30332"><ele>28.85714285714286</ele><time>2026-04-18T07:29:48.099Z</time></trkpt><trkpt lat="40.9558983" lon="14.3032317"><ele>29.000000000000004</ele><time>2026-04-18T07:29:49.099Z</time></trkpt><trkpt lat="40.9559183" lon="14.3031483"><ele>28.75</ele><time>2026-04-18T07:29:50.099Z</time></trkpt><trkpt lat="40.9559467" lon="14.3029967"><ele>28.5</ele><time>2026-04-18T07:29:52.099Z</time></trkpt><trkpt lat="40.9559717" lon="14.3028767"><ele>28.25</ele><time>2026-04-18T07:29:54.099Z</time></trkpt><trkpt lat="40.9560383" lon="14.3027783"><ele>28.0</ele><time>2026-04-18T07:29:56.099Z</time></trkpt><trkpt lat="40.9560633" lon="14.302595"><ele>28.0</ele><time>2026-04-18T07:30:50.099Z</time></trkpt><trkpt lat="40.9560333" lon="14.302745"><ele>28.0</ele><time>2026-04-18T07:31:07.099Z</time></trkpt><trkpt lat="40.9560956" lon="14.3027834"><ele>28.0</ele><time>2026-04-18T07:31:46.495Z</time></trkpt><trkpt lat="40.955965" lon="14.30261"><ele>28.0</ele><time>2026-04-18T07:32:52.101Z</time></trkpt><trkpt lat="40.95602" lon="14.3027033"><ele>28.0</ele><time>2026-04-18T07:32:54.104Z</time></trkpt><trkpt lat="40.9561833" lon="14.3027017"><ele>27.999999999999996</ele><time>2026-04-18T07:34:18.102Z</time></trkpt><trkpt lat="40.9561117" lon="14.3027783"><ele>27.999999999999996</ele><time>2026-04-18T07:34:20.102Z</time></trkpt><trkpt lat="40.9560367" lon="14.3027467"><ele>28.0</ele><time>2026-04-18T07:34:24.103Z</time></trkpt><trkpt lat="40.9559917" lon="14.3026683"><ele>28.0</ele><time>2026-04-18T07:34:28.102Z</time></trkpt><trkpt lat="40.9561392" lon="14.3024098"><ele>28.0</ele><time>2026-04-18T07:35:11.103Z</time></trkpt><trkpt lat="40.9562379" lon="14.3021079"><ele>28.0</ele><time>2026-04-18T07:35:12.102Z</time></trkpt><trkpt lat="40.9562847" lon="14.3019274"><ele>28.0</ele><time>2026-04-18T07:35:13.102Z</time></trkpt><trkpt lat="40.9563095" lon="14.3018007"><ele>28.000000000000004</ele><time>2026-04-18T07:35:14.102Z</time></trkpt><trkpt lat="40.9563248" lon="14.3017075"><ele>28.0</ele><time>2026-04-18T07:35:15.102Z</time></trkpt><trkpt lat="40.956335" lon="14.3016"><ele>28.0</ele><time>2026-04-18T07:35:17.103Z</time></trkpt><trkpt lat="40.9563467" lon="14.3015017"><ele>28.0</ele><time>2026-04-18T07:35:20.102Z</time></trkpt><trkpt lat="40.9564333" lon="14.3015"><ele>28.000000000000004</ele><time>2026-04-18T07:35:22.102Z</time></trkpt><trkpt lat="40.9565517" lon="14.3015683"><ele>28.0</ele><time>2026-04-18T07:35:24.102Z</time></trkpt><trkpt lat="40.9566233" lon="14.3015933"><ele>28.0</ele><time>2026-04-18T07:35:25.103Z</time></trkpt><trkpt lat="40.9566883" lon="14.3016083"><ele>27.999999999999996</ele><time>2026-04-18T07:35:26.102Z</time></trkpt><trkpt lat="40.9567983" lon="14.3016067"><ele>27.999999999999996</ele><time>2026-04-18T07:35:28.102Z</time></trkpt><trkpt lat="40.9568867" lon="14.3015533"><ele>28.0</ele><time>2026-04-18T07:35:30.102Z</time></trkpt><trkpt lat="40.95693" lon="14.3014733"><ele>28.0</ele><time>2026-04-18T07:35:32.102Z</time></trkpt><trkpt lat="40.9569433" lon="14.3013383"><ele>27.833333333333336</ele><time>2026-04-18T07:35:34.102Z</time></trkpt><trkpt lat="40.956945" lon="14.301245"><ele>27.666666666666668</ele><time>2026-04-18T07:35:35.102Z</time></trkpt><trkpt lat="40.9569467" lon="14.3011517"><ele>27.5</ele><time>2026-04-18T07:35:36.102Z</time></trkpt><trkpt lat="40.9569483" lon="14.30106"><ele>27.333333333333336</ele><time>2026-04-18T07:35:37.102Z</time></trkpt><trkpt lat="40.95696" lon="14.30091"><ele>27.166666666666668</ele><time>2026-04-18T07:35:39.102Z</time></trkpt><trkpt lat="40.9569683" lon="14.300765"><ele>27.0</ele><time>2026-04-18T07:35:41.102Z</time></trkpt><trkpt lat="40.9570067" lon="14.3006733"><ele>27.0</ele><time>2026-04-18T07:35:43.102Z</time></trkpt><trkpt lat="40.9570767" lon="14.3006067"><ele>27.000000000000004</ele><time>2026-04-18T07:35:45.102Z</time></trkpt><trkpt lat="40.957205" lon="14.3005917"><ele>27.000000000000004</ele><time>2026-04-18T07:35:47.102Z</time></trkpt><trkpt lat="40.957285" lon="14.3005983"><ele>27.0</ele><time>2026-04-18T07:35:48.102Z</time></trkpt><trkpt lat="40.9573683" lon="14.3005933"><ele>27.0</ele><time>2026-04-18T07:35:49.103Z</time></trkpt><trkpt lat="40.957455" lon="14.3005767"><ele>27.166666666666668</ele><time>2026-04-18T07:35:50.102Z</time></trkpt><trkpt lat="40.957545" lon="14.3005633"><ele>27.333333333333336</ele><time>2026-04-18T07:35:51.102Z</time></trkpt><trkpt lat="40.9576333" lon="14.3005333"><ele>27.5</ele><time>2026-04-18T07:35:52.102Z</time></trkpt><trkpt lat="40.957715" lon="14.3004933"><ele>27.666666666666668</ele><time>2026-04-18T07:35:53.102Z</time></trkpt><trkpt lat="40.9577883" lon="14.3004383"><ele>27.833333333333336</ele><time>2026-04-18T07:35:54.102Z</time></trkpt><trkpt lat="40.95785" lon="14.3003783"><ele>28.0</ele><time>2026-04-18T07:35:55.102Z</time></trkpt><trkpt lat="40.9579417" lon="14.3002667"><ele>28.0</ele><time>2026-04-18T07:35:57.102Z</time></trkpt><trkpt lat="40.9579867" lon="14.3002067"><ele>28.0</ele><time>2026-04-18T07:35:58.102Z</time></trkpt><trkpt lat="40.9580333" lon="14.30014"><ele>28.0</ele><time>2026-04-18T07:35:59.102Z</time></trkpt><trkpt lat="40.9580833" lon="14.3000783"><ele>28.0</ele><time>2026-04-18T07:36:00.102Z</time></trkpt><trkpt lat="40.958125" lon="14.3000083"><ele>28.0</ele><time>2026-04-18T07:36:01.102Z</time></trkpt><trkpt lat="40.9581717" lon="14.299945"><ele>28.0</ele><time>2026-04-18T07:36:02.102Z</time></trkpt><trkpt lat="40.9582317" lon="14.2999083"><ele>28.0</ele><time>2026-04-18T07:36:03.103Z</time></trkpt><trkpt lat="40.9583483" lon="14.29985"><ele>28.0</ele><time>2026-04-18T07:36:05.102Z</time></trkpt><trkpt lat="40.9584633" lon="14.2998167"><ele>28.0</ele><time>2026-04-18T07:36:07.102Z</time></trkpt><trkpt lat="40.9585817" lon="14.2998"><ele>28.0</ele><time>2026-04-18T07:36:09.102Z</time></trkpt><trkpt lat="40.9586767" lon="14.29977"><ele>28.0</ele><time>2026-04-18T07:36:11.102Z</time></trkpt><trkpt lat="40.9587867" lon="14.2997233"><ele>28.000000000000004</ele><time>2026-04-18T07:36:13.102Z</time></trkpt><trkpt lat="40.95891" lon="14.29968"><ele>28.0</ele><time>2026-04-18T07:36:15.102Z</time></trkpt><trkpt lat="40.9589783" lon="14.2996667"><ele>28.0</ele><time>2026-04-18T07:36:16.102Z</time></trkpt><trkpt lat="40.9590467" lon="14.2996533"><ele>28.0</ele><time>2026-04-18T07:36:17.102Z</time></trkpt><trkpt lat="40.9591417" lon="14.2996217"><ele>28.000000000000004</ele><time>2026-04-18T07:36:19.102Z</time></trkpt><trkpt lat="40.9592167" lon="14.2995783"><ele>28.0</ele><time>2026-04-18T07:36:24.102Z</time></trkpt><trkpt lat="40.9592517" lon="14.2995067"><ele>28.2</ele><time>2026-04-18T07:36:26.102Z</time></trkpt><trkpt lat="40.9593017" lon="14.2993367"><ele>28.4</ele><time>2026-04-18T07:36:28.102Z</time></trkpt><trkpt lat="40.9593383" lon="14.2992183"><ele>28.599999999999998</ele><time>2026-04-18T07:36:29.102Z</time></trkpt><trkpt lat="40.9593633" lon="14.2991033"><ele>28.799999999999997</ele><time>2026-04-18T07:36:30.102Z</time></trkpt><trkpt lat="40.9593867" lon="14.298965"><ele>29.0</ele><time>2026-04-18T07:36:31.102Z</time></trkpt><trkpt lat="40.959405" lon="14.2988317"><ele>28.5</ele><time>2026-04-18T07:36:32.102Z</time></trkpt><trkpt lat="40.9594183" lon="14.2986817"><ele>28.0</ele><time>2026-04-18T07:36:33.102Z</time></trkpt><trkpt lat="40.9594217" lon="14.2985117"><ele>27.5</ele><time>2026-04-18T07:36:34.102Z</time></trkpt><trkpt lat="40.9594233" lon="14.2983483"><ele>27.0</ele><time>2026-04-18T07:36:35.102Z</time></trkpt><trkpt lat="40.959425" lon="14.29818"><ele>27.5</ele><time>2026-04-18T07:36:36.102Z</time></trkpt><trkpt lat="40.9594283" lon="14.2980217"><ele>28.0</ele><time>2026-04-18T07:36:37.102Z</time></trkpt><trkpt lat="40.9594333" lon="14.2978533"><ele>28.5</ele><time>2026-04-18T07:36:38.102Z</time></trkpt><trkpt lat="40.9594433" lon="14.2976817"><ele>29.0</ele><time>2026-04-18T07:36:39.102Z</time></trkpt><trkpt lat="40.9594583" lon="14.2975033"><ele>29.0</ele><time>2026-04-18T07:36:40.102Z</time></trkpt><trkpt lat="40.9594633" lon="14.2973317"><ele>29.0</ele><time>2026-04-18T07:36:41.103Z</time></trkpt><trkpt lat="40.959465" lon="14.297155"><ele>29.0</ele><time>2026-04-18T07:36:42.102Z</time></trkpt><trkpt lat="40.9594717" lon="14.2969733"><ele>29.0</ele><time>2026-04-18T07:36:43.102Z</time></trkpt><trkpt lat="40.9594833" lon="14.296785"><ele>29.0</ele><time>2026-04-18T07:36:44.102Z</time></trkpt><trkpt lat="40.9594983" lon="14.2966067"><ele>29.0</ele><time>2026-04-18T07:36:45.102Z</time></trkpt><trkpt lat="40.9595033" lon="14.29643"><ele>29.0</ele><time>2026-04-18T07:36:46.102Z</time></trkpt><trkpt lat="40.959515" lon="14.296245"><ele>29.0</ele><time>2026-04-18T07:36:47.103Z</time></trkpt><trkpt lat="40.9595333" lon="14.2960517"><ele>29.25</ele><time>2026-04-18T07:36:48.102Z</time></trkpt><trkpt lat="40.95955" lon="14.2958583"><ele>29.5</ele><time>2026-04-18T07:36:49.102Z</time></trkpt><trkpt lat="40.9595733" lon="14.2956733"><ele>29.75</ele><time>2026-04-18T07:36:50.102Z</time></trkpt><trkpt lat="40.95959" lon="14.2954933"><ele>30.0</ele><time>2026-04-18T07:36:51.102Z</time></trkpt><trkpt lat="40.9595983" lon="14.295335"><ele>30.0</ele><time>2026-04-18T07:36:52.102Z</time></trkpt><trkpt lat="40.9596017" lon="14.295205"><ele>30.0</ele><time>2026-04-18T07:36:53.102Z</time></trkpt><trkpt lat="40.9596117" lon="14.295105"><ele>30.0</ele><time>2026-04-18T07:36:54.102Z</time></trkpt><trkpt lat="40.9596333" lon="14.2949983"><ele>30.0</ele><time>2026-04-18T07:36:56.102Z</time></trkpt><trkpt lat="40.9596633" lon="14.2948583"><ele>30.0</ele><time>2026-04-18T07:36:59.102Z</time></trkpt><trkpt lat="40.959675" lon="14.2947717"><ele>30.0</ele><time>2026-04-18T07:37:00.102Z</time></trkpt><trkpt lat="40.9596717" lon="14.29467"><ele>30.2</ele><time>2026-04-18T07:37:01.102Z</time></trkpt><trkpt lat="40.9596583" lon="14.2945633"><ele>30.4</ele><time>2026-04-18T07:37:02.102Z</time></trkpt><trkpt lat="40.959645" lon="14.2944333"><ele>30.6</ele><time>2026-04-18T07:37:03.102Z</time></trkpt><trkpt lat="40.9596467" lon="14.2942883"><ele>30.8</ele><time>2026-04-18T07:37:04.102Z</time></trkpt><trkpt lat="40.95966" lon="14.294135"><ele>31.0</ele><time>2026-04-18T07:37:05.102Z</time></trkpt><trkpt lat="40.9596683" lon="14.293985"><ele>30.6</ele><time>2026-04-18T07:37:06.102Z</time></trkpt><trkpt lat="40.9596783" lon="14.2938383"><ele>30.200000000000003</ele><time>2026-04-18T07:37:07.102Z</time></trkpt><trkpt lat="40.9596867" lon="14.2937033"><ele>29.799999999999997</ele><time>2026-04-18T07:37:08.102Z</time></trkpt><trkpt lat="40.9597017" lon="14.2935867"><ele>29.4</ele><time>2026-04-18T07:37:09.102Z</time></trkpt><trkpt lat="40.9597067" lon="14.29347"><ele>29.0</ele><time>2026-04-18T07:37:10.102Z</time></trkpt><trkpt lat="40.9597067" lon="14.29335"><ele>28.999999999999996</ele><time>2026-04-18T07:37:11.102Z</time></trkpt><trkpt lat="40.9597117" lon="14.2932083"><ele>29.0</ele><time>2026-04-18T07:37:12.102Z</time></trkpt><trkpt lat="40.9597233" lon="14.2930767"><ele>29.0</ele><time>2026-04-18T07:37:13.102Z</time></trkpt><trkpt lat="40.9597333" lon="14.2929567"><ele>29.0</ele><time>2026-04-18T07:37:14.102Z</time></trkpt><trkpt lat="40.9597383" lon="14.292855"><ele>28.999999999999996</ele><time>2026-04-18T07:37:15.102Z</time></trkpt><trkpt lat="40.959745" lon="14.2927683"><ele>29.0</ele><time>2026-04-18T07:37:16.102Z</time></trkpt><trkpt lat="40.9597533" lon="14.2926017"><ele>29.0</ele><time>2026-04-18T07:37:18.102Z</time></trkpt><trkpt lat="40.9597717" lon="14.2924583"><ele>29.0</ele><time>2026-04-18T07:37:20.102Z</time></trkpt><trkpt lat="40.9597633" lon="14.2923333"><ele>29.0</ele><time>2026-04-18T07:37:23.102Z</time></trkpt><trkpt lat="40.9597683" lon="14.2921983"><ele>29.0</ele><time>2026-04-18T07:37:25.102Z</time></trkpt><trkpt lat="40.959775" lon="14.2920817"><ele>29.0</ele><time>2026-04-18T07:37:26.102Z</time></trkpt><trkpt lat="40.9597817" lon="14.2919417"><ele>29.0</ele><time>2026-04-18T07:37:27.102Z</time></trkpt><trkpt lat="40.95979" lon="14.2917867"><ele>29.0</ele><time>2026-04-18T07:37:28.102Z</time></trkpt><trkpt lat="40.9598" lon="14.2916433"><ele>29.0</ele><time>2026-04-18T07:37:29.102Z</time></trkpt><trkpt lat="40.9598167" lon="14.291495"><ele>29.0</ele><time>2026-04-18T07:37:30.102Z</time></trkpt><trkpt lat="40.9598283" lon="14.2913417"><ele>29.0</ele><time>2026-04-18T07:37:31.102Z</time></trkpt><trkpt lat="40.959835" lon="14.2911767"><ele>29.0</ele><time>2026-04-18T07:37:32.102Z</time></trkpt><trkpt lat="40.9598333" lon="14.2910133"><ele>29.0</ele><time>2026-04-18T07:37:33.102Z</time></trkpt><trkpt lat="40.9598467" lon="14.2908533"><ele>29.0</ele><time>2026-04-18T07:37:34.102Z</time></trkpt><trkpt lat="40.959855" lon="14.2906583"><ele>29.333333333333332</ele><time>2026-04-18T07:37:35.102Z</time></trkpt><trkpt lat="40.9598667" lon="14.2904517"><ele>29.666666666666664</ele><time>2026-04-18T07:37:36.102Z</time></trkpt><trkpt lat="40.95988" lon="14.2902283"><ele>30.0</ele><time>2026-04-18T07:37:37.102Z</time></trkpt><trkpt lat="40.9598967" lon="14.2900133"><ele>30.0</ele><time>2026-04-18T07:37:38.102Z</time></trkpt><trkpt lat="40.959905" lon="14.28982"><ele>30.0</ele><time>2026-04-18T07:37:39.102Z</time></trkpt><trkpt lat="40.9599133" lon="14.2896483"><ele>30.0</ele><time>2026-04-18T07:37:40.102Z</time></trkpt><trkpt lat="40.959915" lon="14.2895"><ele>30.0</ele><time>2026-04-18T07:37:41.102Z</time></trkpt><trkpt lat="40.9599167" lon="14.2893633"><ele>29.5</ele><time>2026-04-18T07:37:42.102Z</time></trkpt><trkpt lat="40.9599167" lon="14.28922"><ele>29.0</ele><time>2026-04-18T07:37:43.102Z</time></trkpt><trkpt lat="40.9599267" lon="14.2890533"><ele>28.5</ele><time>2026-04-18T07:37:44.102Z</time></trkpt><trkpt lat="40.959945" lon="14.2888767"><ele>28.0</ele><time>2026-04-18T07:37:45.102Z</time></trkpt><trkpt lat="40.9599583" lon="14.2886817"><ele>28.0</ele><time>2026-04-18T07:37:46.102Z</time></trkpt><trkpt lat="40.959975" lon="14.2884567"><ele>28.0</ele><time>2026-04-18T07:37:47.102Z</time></trkpt><trkpt lat="40.9599967" lon="14.288215"><ele>28.0</ele><time>2026-04-18T07:37:48.102Z</time></trkpt><trkpt lat="40.9600083" lon="14.2879867"><ele>28.333333333333336</ele><time>2026-04-18T07:37:49.102Z</time></trkpt><trkpt lat="40.960025" lon="14.2877583"><ele>28.666666666666664</ele><time>2026-04-18T07:37:50.103Z</time></trkpt><trkpt lat="40.9600433" lon="14.2875117"><ele>29.0</ele><time>2026-04-18T07:37:51.102Z</time></trkpt><trkpt lat="40.9600583" lon="14.2872733"><ele>29.333333333333332</ele><time>2026-04-18T07:37:52.102Z</time></trkpt><trkpt lat="40.96007" lon="14.2870317"><ele>29.666666666666664</ele><time>2026-04-18T07:37:53.102Z</time></trkpt><trkpt lat="40.9600883" lon="14.286775"><ele>30.0</ele><time>2026-04-18T07:37:54.102Z</time></trkpt><trkpt lat="40.960105" lon="14.28652"><ele>30.333333333333336</ele><time>2026-04-18T07:37:55.102Z</time></trkpt><trkpt lat="40.96012" lon="14.286275"><ele>30.666666666666668</ele><time>2026-04-18T07:37:56.102Z</time></trkpt><trkpt lat="40.9601267" lon="14.2860567"><ele>31.0</ele><time>2026-04-18T07:37:57.102Z</time></trkpt><trkpt lat="40.9601317" lon="14.2858683"><ele>31.0</ele><time>2026-04-18T07:37:58.102Z</time></trkpt><trkpt lat="40.9601333" lon="14.2856933"><ele>31.0</ele><time>2026-04-18T07:37:59.102Z</time></trkpt><trkpt lat="40.96014" lon="14.285535"><ele>31.0</ele><time>2026-04-18T07:38:00.102Z</time></trkpt><trkpt lat="40.9601517" lon="14.285395"><ele>31.0</ele><time>2026-04-18T07:38:01.102Z</time></trkpt><trkpt lat="40.9601583" lon="14.2852683"><ele>31.25</ele><time>2026-04-18T07:38:02.103Z</time></trkpt><trkpt lat="40.9601683" lon="14.2851517"><ele>31.5</ele><time>2026-04-18T07:38:03.102Z</time></trkpt><trkpt lat="40.9601733" lon="14.2850117"><ele>31.75</ele><time>2026-04-18T07:38:04.103Z</time></trkpt><trkpt lat="40.9601817" lon="14.2848433"><ele>32.0</ele><time>2026-04-18T07:38:05.102Z</time></trkpt><trkpt lat="40.9601967" lon="14.28465"><ele>32.0</ele><time>2026-04-18T07:38:06.102Z</time></trkpt><trkpt lat="40.960215" lon="14.2844267"><ele>32.0</ele><time>2026-04-18T07:38:07.102Z</time></trkpt><trkpt lat="40.9602283" lon="14.2841867"><ele>32.0</ele><time>2026-04-18T07:38:08.102Z</time></trkpt><trkpt lat="40.9602383" lon="14.283955"><ele>31.666666666666664</ele><time>2026-04-18T07:38:09.102Z</time></trkpt><trkpt lat="40.9602567" lon="14.2837333"><ele>31.333333333333336</ele><time>2026-04-18T07:38:10.102Z</time></trkpt><trkpt lat="40.96027" lon="14.2835317"><ele>31.0</ele><time>2026-04-18T07:38:11.102Z</time></trkpt><trkpt lat="40.960285" lon="14.283325"><ele>31.0</ele><time>2026-04-18T07:38:12.103Z</time></trkpt><trkpt lat="40.960295" lon="14.28313"><ele>31.0</ele><time>2026-04-18T07:38:13.102Z</time></trkpt><trkpt lat="40.96031" lon="14.2829567"><ele>31.0</ele><time>2026-04-18T07:38:14.102Z</time></trkpt><trkpt lat="40.9603217" lon="14.282805"><ele>31.0</ele><time>2026-04-18T07:38:15.102Z</time></trkpt><trkpt lat="40.9603317" lon="14.2826433"><ele>31.0</ele><time>2026-04-18T07:38:16.102Z</time></trkpt><trkpt lat="40.9603383" lon="14.282485"><ele>31.0</ele><time>2026-04-18T07:38:17.102Z</time></trkpt><trkpt lat="40.9603467" lon="14.2823133"><ele>31.0</ele><time>2026-04-18T07:38:18.102Z</time></trkpt><trkpt lat="40.9603567" lon="14.2821367"><ele>31.0</ele><time>2026-04-18T07:38:19.102Z</time></trkpt><trkpt lat="40.9603667" lon="14.2819633"><ele>31.25</ele><time>2026-04-18T07:38:20.102Z</time></trkpt><trkpt lat="40.9603717" lon="14.2817967"><ele>31.5</ele><time>2026-04-18T07:38:21.102Z</time></trkpt><trkpt lat="40.9603783" lon="14.28163"><ele>31.75</ele><time>2026-04-18T07:38:22.102Z</time></trkpt><trkpt lat="40.9603867" lon="14.28146"><ele>32.0</ele><time>2026-04-18T07:38:23.102Z</time></trkpt><trkpt lat="40.960395" lon="14.2813017"><ele>32.0</ele><time>2026-04-18T07:38:24.102Z</time></trkpt><trkpt lat="40.9604083" lon="14.2811433"><ele>32.0</ele><time>2026-04-18T07:38:25.102Z</time></trkpt><trkpt lat="40.960415" lon="14.280995"><ele>32.0</ele><time>2026-04-18T07:38:26.102Z</time></trkpt><trkpt lat="40.96042" lon="14.2808467"><ele>32.0</ele><time>2026-04-18T07:38:27.102Z</time></trkpt><trkpt lat="40.9604283" lon="14.2806967"><ele>32.0</ele><time>2026-04-18T07:38:28.102Z</time></trkpt><trkpt lat="40.9604367" lon="14.28055"><ele>32.0</ele><time>2026-04-18T07:38:29.103Z</time></trkpt><trkpt lat="40.96044" lon="14.2804017"><ele>32.0</ele><time>2026-04-18T07:38:30.102Z</time></trkpt><trkpt lat="40.960445" lon="14.2802533"><ele>32.0</ele><time>2026-04-18T07:38:31.103Z</time></trkpt><trkpt lat="40.9604433" lon="14.2801183"><ele>32.0</ele><time>2026-04-18T07:38:32.102Z</time></trkpt><trkpt lat="40.960455" lon="14.2799717"><ele>32.0</ele><time>2026-04-18T07:38:33.102Z</time></trkpt><trkpt lat="40.9604633" lon="14.2798367"><ele>32.0</ele><time>2026-04-18T07:38:34.102Z</time></trkpt><trkpt lat="40.9604767" lon="14.2797067"><ele>32.0</ele><time>2026-04-18T07:38:35.102Z</time></trkpt><trkpt lat="40.9604883" lon="14.2795933"><ele>32.0</ele><time>2026-04-18T07:38:36.102Z</time></trkpt><trkpt lat="40.960495" lon="14.279475"><ele>32.0</ele><time>2026-04-18T07:38:37.102Z</time></trkpt><trkpt lat="40.960495" lon="14.2793617"><ele>32.166666666666664</ele><time>2026-04-18T07:38:38.102Z</time></trkpt><trkpt lat="40.9604983" lon="14.2792433"><ele>32.33333333333333</ele><time>2026-04-18T07:38:39.102Z</time></trkpt><trkpt lat="40.9605033" lon="14.27912"><ele>32.5</ele><time>2026-04-18T07:38:40.102Z</time></trkpt><trkpt lat="40.96051" lon="14.2790017"><ele>32.666666666666664</ele><time>2026-04-18T07:38:41.102Z</time></trkpt><trkpt lat="40.960515" lon="14.27889"><ele>32.833333333333336</ele><time>2026-04-18T07:38:42.102Z</time></trkpt><trkpt lat="40.96052" lon="14.27878"><ele>33.0</ele><time>2026-04-18T07:38:43.102Z</time></trkpt><trkpt lat="40.960525" lon="14.27868"><ele>33.199999999999996</ele><time>2026-04-18T07:38:44.102Z</time></trkpt><trkpt lat="40.9605317" lon="14.2785133"><ele>33.4</ele><time>2026-04-18T07:38:46.103Z</time></trkpt><trkpt lat="40.9605333" lon="14.2784267"><ele>33.599999999999994</ele><time>2026-04-18T07:38:47.102Z</time></trkpt><trkpt lat="40.9605433" lon="14.2782867"><ele>33.8</ele><time>2026-04-18T07:38:49.103Z</time></trkpt><trkpt lat="40.9605533" lon="14.2781733"><ele>34.0</ele><time>2026-04-18T07:38:51.102Z</time></trkpt><trkpt lat="40.9605933" lon="14.27808"><ele>34.333333333333336</ele><time>2026-04-18T07:38:54.102Z</time></trkpt><trkpt lat="40.9606533" lon="14.2779917"><ele>34.66666666666667</ele><time>2026-04-18T07:38:56.102Z</time></trkpt><trkpt lat="40.9607133" lon="14.2779333"><ele>35.0</ele><time>2026-04-18T07:38:57.102Z</time></trkpt><trkpt lat="40.9607883" lon="14.277865"><ele>35.333333333333336</ele><time>2026-04-18T07:38:58.102Z</time></trkpt><trkpt lat="40.960865" lon="14.2778"><ele>35.666666666666664</ele><time>2026-04-18T07:38:59.102Z</time></trkpt><trkpt lat="40.960945" lon="14.27774"><ele>36.0</ele><time>2026-04-18T07:39:00.102Z</time></trkpt><trkpt lat="40.961025" lon="14.2776733"><ele>36.0</ele><time>2026-04-18T07:39:01.102Z</time></trkpt><trkpt lat="40.9611067" lon="14.2776033"><ele>36.0</ele><time>2026-04-18T07:39:02.102Z</time></trkpt><trkpt lat="40.9611883" lon="14.2775417"><ele>36.0</ele><time>2026-04-18T07:39:03.102Z</time></trkpt><trkpt lat="40.9612683" lon="14.2774867"><ele>36.0</ele><time>2026-04-18T07:39:04.102Z</time></trkpt><trkpt lat="40.96135" lon="14.2774267"><ele>36.0</ele><time>2026-04-18T07:39:05.102Z</time></trkpt><trkpt lat="40.9614267" lon="14.2773633"><ele>36.0</ele><time>2026-04-18T07:39:06.102Z</time></trkpt><trkpt lat="40.9615033" lon="14.2773083"><ele>36.0</ele><time>2026-04-18T07:39:07.102Z</time></trkpt><trkpt lat="40.9615717" lon="14.2772483"><ele>36.0</ele><time>2026-04-18T07:39:08.103Z</time></trkpt><trkpt lat="40.9616317" lon="14.2771967"><ele>36.0</ele><time>2026-04-18T07:39:09.102Z</time></trkpt><trkpt lat="40.9617267" lon="14.277125"><ele>36.0</ele><time>2026-04-18T07:39:11.102Z</time></trkpt><trkpt lat="40.9618133" lon="14.27705"><ele>35.8</ele><time>2026-04-18T07:39:13.102Z</time></trkpt><trkpt lat="40.9619033" lon="14.276985"><ele>35.6</ele><time>2026-04-18T07:39:15.102Z</time></trkpt><trkpt lat="40.9620067" lon="14.276915"><ele>35.4</ele><time>2026-04-18T07:39:17.102Z</time></trkpt><trkpt lat="40.96209" lon="14.276855"><ele>35.2</ele><time>2026-04-18T07:39:19.102Z</time></trkpt><trkpt lat="40.962155" lon="14.2768017"><ele>35.0</ele><time>2026-04-18T07:39:21.102Z</time></trkpt><trkpt lat="40.962225" lon="14.276745"><ele>35.0</ele><time>2026-04-18T07:39:23.102Z</time></trkpt><trkpt lat="40.9622917" lon="14.2766683"><ele>35.0</ele><time>2026-04-18T07:39:25.102Z</time></trkpt><trkpt lat="40.9623833" lon="14.2765983"><ele>35.0</ele><time>2026-04-18T07:39:27.102Z</time></trkpt><trkpt lat="40.9624917" lon="14.27651"><ele>35.0</ele><time>2026-04-18T07:39:29.102Z</time></trkpt><trkpt lat="40.9625933" lon="14.2764367"><ele>35.0</ele><time>2026-04-18T07:39:31.102Z</time></trkpt><trkpt lat="40.9626983" lon="14.2763683"><ele>34.666666666666664</ele><time>2026-04-18T07:39:33.102Z</time></trkpt><trkpt lat="40.9627883" lon="14.2762933"><ele>34.33333333333333</ele><time>2026-04-18T07:39:35.102Z</time></trkpt><trkpt lat="40.962865" lon="14.2762217"><ele>34.0</ele><time>2026-04-18T07:39:37.102Z</time></trkpt><trkpt lat="40.962925" lon="14.2761633"><ele>33.666666666666664</ele><time>2026-04-18T07:39:39.102Z</time></trkpt><trkpt lat="40.96299" lon="14.2761067"><ele>33.333333333333336</ele><time>2026-04-18T07:39:44.102Z</time></trkpt><trkpt lat="40.9630667" lon="14.2760567"><ele>33.0</ele><time>2026-04-18T07:39:47.102Z</time></trkpt><trkpt lat="40.9631417" lon="14.2760733"><ele>33.0</ele><time>2026-04-18T07:39:49.102Z</time></trkpt><trkpt lat="40.963235" lon="14.2761633"><ele>33.0</ele><time>2026-04-18T07:39:51.102Z</time></trkpt><trkpt lat="40.9632933" lon="14.27623"><ele>33.0</ele><time>2026-04-18T07:39:52.102Z</time></trkpt><trkpt lat="40.96335" lon="14.2763067"><ele>33.0</ele><time>2026-04-18T07:39:53.102Z</time></trkpt><trkpt lat="40.9634" lon="14.2763767"><ele>33.0</ele><time>2026-04-18T07:39:54.102Z</time></trkpt><trkpt lat="40.9634567" lon="14.276445"><ele>33.0</ele><time>2026-04-18T07:39:55.102Z</time></trkpt><trkpt lat="40.9635233" lon="14.2765067"><ele>33.0</ele><time>2026-04-18T07:39:56.102Z</time></trkpt><trkpt lat="40.963595" lon="14.2765567"><ele>33.0</ele><time>2026-04-18T07:39:57.102Z</time></trkpt><trkpt lat="40.96367" lon="14.2765933"><ele>33.0</ele><time>2026-04-18T07:39:58.102Z</time></trkpt><trkpt lat="40.9637383" lon="14.2766117"><ele>33.0</ele><time>2026-04-18T07:39:59.102Z</time></trkpt><trkpt lat="40.9638117" lon="14.2766067"><ele>33.0</ele><time>2026-04-18T07:40:00.102Z</time></trkpt><trkpt lat="40.9638817" lon="14.2765817"><ele>33.0</ele><time>2026-04-18T07:40:01.102Z</time></trkpt><trkpt lat="40.96395" lon="14.2765333"><ele>33.0</ele><time>2026-04-18T07:40:02.102Z</time></trkpt><trkpt lat="40.9640167" lon="14.27648"><ele>33.0</ele><time>2026-04-18T07:40:03.102Z</time></trkpt><trkpt lat="40.964085" lon="14.2764283"><ele>33.0</ele><time>2026-04-18T07:40:04.102Z</time></trkpt><trkpt lat="40.96415" lon="14.2763833"><ele>33.0</ele><time>2026-04-18T07:40:05.102Z</time></trkpt><trkpt lat="40.964255" lon="14.2763017"><ele>33.0</ele><time>2026-04-18T07:40:07.102Z</time></trkpt><trkpt lat="40.964315" lon="14.2762617"><ele>33.0</ele><time>2026-04-18T07:40:08.102Z</time></trkpt><trkpt lat="40.964375" lon="14.2762167"><ele>33.0</ele><time>2026-04-18T07:40:09.102Z</time></trkpt><trkpt lat="40.9644383" lon="14.2761767"><ele>33.0</ele><time>2026-04-18T07:40:10.102Z</time></trkpt><trkpt lat="40.964505" lon="14.27613"><ele>33.0</ele><time>2026-04-18T07:40:11.102Z</time></trkpt><trkpt lat="40.9645683" lon="14.2760817"><ele>33.0</ele><time>2026-04-18T07:40:12.102Z</time></trkpt><trkpt lat="40.9646267" lon="14.2760383"><ele>33.0</ele><time>2026-04-18T07:40:13.102Z</time></trkpt><trkpt lat="40.9647217" lon="14.2759633"><ele>33.0</ele><time>2026-04-18T07:40:15.103Z</time></trkpt><trkpt lat="40.9648067" lon="14.27591"><ele>33.0</ele><time>2026-04-18T07:40:17.102Z</time></trkpt><trkpt lat="40.9649117" lon="14.2758383"><ele>33.0</ele><time>2026-04-18T07:40:19.102Z</time></trkpt><trkpt lat="40.9649667" lon="14.275795"><ele>33.0</ele><time>2026-04-18T07:40:20.102Z</time></trkpt><trkpt lat="40.9650683" lon="14.2757267"><ele>33.0</ele><time>2026-04-18T07:40:22.102Z</time></trkpt><trkpt lat="40.965145" lon="14.2756767"><ele>33.0</ele><time>2026-04-18T07:40:24.102Z</time></trkpt><trkpt lat="40.9652183" lon="14.275615"><ele>33.0</ele><time>2026-04-18T07:40:26.102Z</time></trkpt><trkpt lat="40.9653017" lon="14.275545"><ele>33.0</ele><time>2026-04-18T07:40:28.102Z</time></trkpt><trkpt lat="40.9654083" lon="14.2754767"><ele>33.0</ele><time>2026-04-18T07:40:30.102Z</time></trkpt><trkpt lat="40.9654683" lon="14.27543"><ele>33.0</ele><time>2026-04-18T07:40:31.102Z</time></trkpt><trkpt lat="40.9655717" lon="14.2753517"><ele>33.0</ele><time>2026-04-18T07:40:33.102Z</time></trkpt><trkpt lat="40.9656283" lon="14.275305"><ele>33.0</ele><time>2026-04-18T07:40:34.102Z</time></trkpt><trkpt lat="40.9656917" lon="14.2752567"><ele>33.0</ele><time>2026-04-18T07:40:35.102Z</time></trkpt><trkpt lat="40.9657517" lon="14.2752067"><ele>33.0</ele><time>2026-04-18T07:40:36.102Z</time></trkpt><trkpt lat="40.9658083" lon="14.2751583"><ele>33.0</ele><time>2026-04-18T07:40:37.102Z</time></trkpt><trkpt lat="40.965895" lon="14.275065"><ele>33.0</ele><time>2026-04-18T07:40:39.102Z</time></trkpt><trkpt lat="40.96596" lon="14.2749767"><ele>33.0</ele><time>2026-04-18T07:40:41.102Z</time></trkpt><trkpt lat="40.9660283" lon="14.2748883"><ele>33.0</ele><time>2026-04-18T07:40:43.102Z</time></trkpt><trkpt lat="40.9661367" lon="14.2747383"><ele>33.0</ele><time>2026-04-18T07:41:02.102Z</time></trkpt><trkpt lat="40.96619" lon="14.2746517"><ele>33.0</ele><time>2026-04-18T07:41:10.102Z</time></trkpt><trkpt lat="40.9662567" lon="14.274575"><ele>33.0</ele><time>2026-04-18T07:41:14.102Z</time></trkpt><trkpt lat="40.96632" lon="14.2745033"><ele>33.0</ele><time>2026-04-18T07:41:17.102Z</time></trkpt><trkpt lat="40.9663633" lon="14.27444"><ele>33.0</ele><time>2026-04-18T07:41:19.102Z</time></trkpt><trkpt lat="40.9664217" lon="14.2743767"><ele>33.0</ele><time>2026-04-18T07:41:23.102Z</time></trkpt><trkpt lat="40.966485" lon="14.2742817"><ele>33.0</ele><time>2026-04-18T07:41:26.102Z</time></trkpt><trkpt lat="40.96656" lon="14.2741683"><ele>33.0</ele><time>2026-04-18T07:41:28.102Z</time></trkpt><trkpt lat="40.9666433" lon="14.2740617"><ele>33.0</ele><time>2026-04-18T07:41:30.102Z</time></trkpt><trkpt lat="40.96672" lon="14.273975"><ele>32.5</ele><time>2026-04-18T07:41:32.102Z</time></trkpt><trkpt lat="40.9668067" lon="14.2738683"><ele>32.0</ele><time>2026-04-18T07:41:34.102Z</time></trkpt><trkpt lat="40.9668483" lon="14.2738"><ele>31.5</ele><time>2026-04-18T07:41:35.102Z</time></trkpt><trkpt lat="40.9668983" lon="14.2737283"><ele>31.0</ele><time>2026-04-18T07:41:36.102Z</time></trkpt><trkpt lat="40.96696" lon="14.27365"><ele>30.5</ele><time>2026-04-18T07:41:37.102Z</time></trkpt><trkpt lat="40.9670233" lon="14.2735667"><ele>30.0</ele><time>2026-04-18T07:41:38.102Z</time></trkpt><trkpt lat="40.96708" lon="14.2734867"><ele>30.0</ele><time>2026-04-18T07:41:39.102Z</time></trkpt><trkpt lat="40.9671383" lon="14.2734083"><ele>30.0</ele><time>2026-04-18T07:41:40.102Z</time></trkpt><trkpt lat="40.9671783" lon="14.2733417"><ele>30.0</ele><time>2026-04-18T07:41:41.102Z</time></trkpt><trkpt lat="40.9672517" lon="14.273215"><ele>30.0</ele><time>2026-04-18T07:41:43.102Z</time></trkpt><trkpt lat="40.96732" lon="14.27309"><ele>30.0</ele><time>2026-04-18T07:41:45.102Z</time></trkpt><trkpt lat="40.9673967" lon="14.27296"><ele>30.0</ele><time>2026-04-18T07:41:47.102Z</time></trkpt><trkpt lat="40.9674433" lon="14.272885"><ele>30.0</ele><time>2026-04-18T07:41:48.102Z</time></trkpt><trkpt lat="40.9674867" lon="14.2728133"><ele>30.0</ele><time>2026-04-18T07:41:49.102Z</time></trkpt><trkpt lat="40.9675367" lon="14.2727433"><ele>30.0</ele><time>2026-04-18T07:41:50.102Z</time></trkpt><trkpt lat="40.9675833" lon="14.2726617"><ele>30.0</ele><time>2026-04-18T07:41:51.102Z</time></trkpt><trkpt lat="40.96763" lon="14.272575"><ele>30.0</ele><time>2026-04-18T07:41:52.102Z</time></trkpt><trkpt lat="40.9676767" lon="14.272485"><ele>30.0</ele><time>2026-04-18T07:41:53.103Z</time></trkpt><trkpt lat="40.9677217" lon="14.2724067"><ele>30.0</ele><time>2026-04-18T07:41:54.102Z</time></trkpt><trkpt lat="40.9678" lon="14.2723"><ele>30.0</ele><time>2026-04-18T07:41:56.103Z</time></trkpt><trkpt lat="40.9678717" lon="14.2722283"><ele>30.0</ele><time>2026-04-18T07:41:58.103Z</time></trkpt><trkpt lat="40.9679583" lon="14.2721383"><ele>30.0</ele><time>2026-04-18T07:42:00.102Z</time></trkpt><trkpt lat="40.9680383" lon="14.272045"><ele>30.0</ele><time>2026-04-18T07:42:02.103Z</time></trkpt><trkpt lat="40.9681283" lon="14.2719467"><ele>30.0</ele><time>2026-04-18T07:42:04.102Z</time></trkpt><trkpt lat="40.9682183" lon="14.2718617"><ele>30.0</ele><time>2026-04-18T07:42:06.102Z</time></trkpt><trkpt lat="40.9683017" lon="14.2717917"><ele>30.0</ele><time>2026-04-18T07:42:08.102Z</time></trkpt><trkpt lat="40.9683683" lon="14.2717383"><ele>30.0</ele><time>2026-04-18T07:42:10.102Z</time></trkpt><trkpt lat="40.96844" lon="14.2716567"><ele>30.0</ele><time>2026-04-18T07:42:12.102Z</time></trkpt><trkpt lat="40.9684867" lon="14.2715617"><ele>30.0</ele><time>2026-04-18T07:42:14.103Z</time></trkpt><trkpt lat="40.9685567" lon="14.271435"><ele>30.0</ele><time>2026-04-18T07:42:16.102Z</time></trkpt><trkpt lat="40.9686267" lon="14.2713083"><ele>30.0</ele><time>2026-04-18T07:42:18.102Z</time></trkpt><trkpt lat="40.9686717" lon="14.271235"><ele>30.0</ele><time>2026-04-18T07:42:19.102Z</time></trkpt><trkpt lat="40.9687183" lon="14.2711533"><ele>30.0</ele><time>2026-04-18T07:42:20.102Z</time></trkpt><trkpt lat="40.96877" lon="14.2710733"><ele>30.0</ele><time>2026-04-18T07:42:21.102Z</time></trkpt><trkpt lat="40.9688233" lon="14.2709683"><ele>30.0</ele><time>2026-04-18T07:42:22.102Z</time></trkpt><trkpt lat="40.9688733" lon="14.2708683"><ele>30.0</ele><time>2026-04-18T07:42:23.102Z</time></trkpt><trkpt lat="40.9689267" lon="14.2707667"><ele>30.0</ele><time>2026-04-18T07:42:24.102Z</time></trkpt><trkpt lat="40.968975" lon="14.270665"><ele>30.4</ele><time>2026-04-18T07:42:25.102Z</time></trkpt><trkpt lat="40.9690233" lon="14.2705733"><ele>30.8</ele><time>2026-04-18T07:42:26.102Z</time></trkpt><trkpt lat="40.9690783" lon="14.2704783"><ele>31.200000000000003</ele><time>2026-04-18T07:42:27.102Z</time></trkpt><trkpt lat="40.9691517" lon="14.2703883"><ele>31.6</ele><time>2026-04-18T07:42:28.102Z</time></trkpt><trkpt lat="40.9692367" lon="14.2703067"><ele>32.0</ele><time>2026-04-18T07:42:29.102Z</time></trkpt><trkpt lat="40.9693267" lon="14.270225"><ele>31.0</ele><time>2026-04-18T07:42:30.103Z</time></trkpt><trkpt lat="40.9694083" lon="14.2701467"><ele>30.000000000000004</ele><time>2026-04-18T07:42:31.102Z</time></trkpt><trkpt lat="40.969485" lon="14.2700617"><ele>29.000000000000004</ele><time>2026-04-18T07:42:32.102Z</time></trkpt><trkpt lat="40.969565" lon="14.2699783"><ele>28.0</ele><time>2026-04-18T07:42:33.102Z</time></trkpt><trkpt lat="40.969645" lon="14.2698867"><ele>27.0</ele><time>2026-04-18T07:42:34.102Z</time></trkpt><trkpt lat="40.9697217" lon="14.2697867"><ele>27.75</ele><time>2026-04-18T07:42:35.102Z</time></trkpt><trkpt lat="40.9697883" lon="14.2696683"><ele>28.5</ele><time>2026-04-18T07:42:36.102Z</time></trkpt><trkpt lat="40.9698483" lon="14.2695333"><ele>29.25</ele><time>2026-04-18T07:42:37.102Z</time></trkpt><trkpt lat="40.969915" lon="14.269385"><ele>30.0</ele><time>2026-04-18T07:42:38.102Z</time></trkpt><trkpt lat="40.9699933" lon="14.2692533"><ele>29.75</ele><time>2026-04-18T07:42:39.102Z</time></trkpt><trkpt lat="40.9700717" lon="14.2691233"><ele>29.5</ele><time>2026-04-18T07:42:40.102Z</time></trkpt><trkpt lat="40.9701367" lon="14.2689883"><ele>29.25</ele><time>2026-04-18T07:42:41.102Z</time></trkpt><trkpt lat="40.9701967" lon="14.268855"><ele>29.0</ele><time>2026-04-18T07:42:42.102Z</time></trkpt><trkpt lat="40.97026" lon="14.2687233"><ele>28.75</ele><time>2026-04-18T07:42:43.102Z</time></trkpt><trkpt lat="40.970315" lon="14.2685867"><ele>28.5</ele><time>2026-04-18T07:42:44.102Z</time></trkpt><trkpt lat="40.970385" lon="14.268455"><ele>28.25</ele><time>2026-04-18T07:42:45.102Z</time></trkpt><trkpt lat="40.9704517" lon="14.268325"><ele>28.0</ele><time>2026-04-18T07:42:46.102Z</time></trkpt><trkpt lat="40.9705117" lon="14.268195"><ele>28.333333333333336</ele><time>2026-04-18T07:42:47.102Z</time></trkpt><trkpt lat="40.97056" lon="14.26809"><ele>28.666666666666668</ele><time>2026-04-18T07:42:48.102Z</time></trkpt><trkpt lat="40.97061" lon="14.267985"><ele>29.0</ele><time>2026-04-18T07:42:49.102Z</time></trkpt><trkpt lat="40.9706567" lon="14.267885"><ele>29.333333333333336</ele><time>2026-04-18T07:42:50.102Z</time></trkpt><trkpt lat="40.9707067" lon="14.2677967"><ele>29.666666666666668</ele><time>2026-04-18T07:42:51.102Z</time></trkpt><trkpt lat="40.9707433" lon="14.2676967"><ele>30.0</ele><time>2026-04-18T07:42:52.103Z</time></trkpt><trkpt lat="40.97079" lon="14.26761"><ele>30.0</ele><time>2026-04-18T07:42:53.102Z</time></trkpt><trkpt lat="40.9708383" lon="14.2675167"><ele>30.0</ele><time>2026-04-18T07:42:54.102Z</time></trkpt><trkpt lat="40.9708867" lon="14.26741"><ele>30.0</ele><time>2026-04-18T07:42:55.102Z</time></trkpt><trkpt lat="40.9709383" lon="14.2672967"><ele>30.0</ele><time>2026-04-18T07:42:56.102Z</time></trkpt><trkpt lat="40.97099" lon="14.2671733"><ele>30.0</ele><time>2026-04-18T07:42:57.102Z</time></trkpt><trkpt lat="40.971055" lon="14.2670483"><ele>29.8</ele><time>2026-04-18T07:42:58.102Z</time></trkpt><trkpt lat="40.9711167" lon="14.2669133"><ele>29.6</ele><time>2026-04-18T07:42:59.102Z</time></trkpt><trkpt lat="40.971175" lon="14.2667767"><ele>29.4</ele><time>2026-04-18T07:43:00.102Z</time></trkpt><trkpt lat="40.971225" lon="14.2666633"><ele>29.2</ele><time>2026-04-18T07:43:01.102Z</time></trkpt><trkpt lat="40.9712733" lon="14.2665817"><ele>29.0</ele><time>2026-04-18T07:43:02.102Z</time></trkpt><trkpt lat="40.9713467" lon="14.2664533"><ele>29.4</ele><time>2026-04-18T07:43:04.102Z</time></trkpt><trkpt lat="40.9713983" lon="14.266345"><ele>29.799999999999997</ele><time>2026-04-18T07:43:06.102Z</time></trkpt><trkpt lat="40.9714733" lon="14.266205"><ele>30.200000000000003</ele><time>2026-04-18T07:43:08.102Z</time></trkpt><trkpt lat="40.9715167" lon="14.2661067"><ele>30.6</ele><time>2026-04-18T07:43:09.102Z</time></trkpt><trkpt lat="40.971555" lon="14.2659867"><ele>31.0</ele><time>2026-04-18T07:43:10.102Z</time></trkpt><trkpt lat="40.9716167" lon="14.2658583"><ele>31.000000000000004</ele><time>2026-04-18T07:43:11.102Z</time></trkpt><trkpt lat="40.9716783" lon="14.2657433"><ele>31.0</ele><time>2026-04-18T07:43:12.102Z</time></trkpt><trkpt lat="40.9717333" lon="14.26563"><ele>31.0</ele><time>2026-04-18T07:43:13.103Z</time></trkpt><trkpt lat="40.9717767" lon="14.26554"><ele>31.0</ele><time>2026-04-18T07:43:14.102Z</time></trkpt><trkpt lat="40.97181" lon="14.2654683"><ele>31.000000000000004</ele><time>2026-04-18T07:43:15.102Z</time></trkpt><trkpt lat="40.9718483" lon="14.2653733"><ele>31.0</ele><time>2026-04-18T07:43:18.102Z</time></trkpt><trkpt lat="40.971895" lon="14.265285"><ele>30.333333333333336</ele><time>2026-04-18T07:43:22.103Z</time></trkpt><trkpt lat="40.9719433" lon="14.2652017"><ele>29.666666666666668</ele><time>2026-04-18T07:43:27.103Z</time></trkpt><trkpt lat="40.9720283" lon="14.2652"><ele>29.0</ele><time>2026-04-18T07:43:34.102Z</time></trkpt><trkpt lat="40.9721317" lon="14.2652767"><ele>28.333333333333336</ele><time>2026-04-18T07:43:36.102Z</time></trkpt><trkpt lat="40.9722" lon="14.2653283"><ele>27.666666666666668</ele><time>2026-04-18T07:43:37.102Z</time></trkpt><trkpt lat="40.9722667" lon="14.2653917"><ele>27.0</ele><time>2026-04-18T07:43:38.102Z</time></trkpt><trkpt lat="40.9723317" lon="14.26546"><ele>27.0</ele><time>2026-04-18T07:43:39.102Z</time></trkpt><trkpt lat="40.9723967" lon="14.26553"><ele>27.0</ele><time>2026-04-18T07:43:40.102Z</time></trkpt><trkpt lat="40.97246" lon="14.2655917"><ele>27.0</ele><time>2026-04-18T07:43:41.102Z</time></trkpt><trkpt lat="40.97252" lon="14.2656483"><ele>27.0</ele><time>2026-04-18T07:43:42.102Z</time></trkpt><trkpt lat="40.9725717" lon="14.2656967"><ele>27.0</ele><time>2026-04-18T07:43:43.102Z</time></trkpt><trkpt lat="40.9726817" lon="14.26579"><ele>27.0</ele><time>2026-04-18T07:43:45.102Z</time></trkpt><trkpt lat="40.9727383" lon="14.26585"><ele>27.285714285714285</ele><time>2026-04-18T07:43:46.102Z</time></trkpt><trkpt lat="40.9727983" lon="14.2659"><ele>27.57142857142857</ele><time>2026-04-18T07:43:47.102Z</time></trkpt><trkpt lat="40.9728533" lon="14.2659517"><ele>27.85714285714286</ele><time>2026-04-18T07:43:48.102Z</time></trkpt><trkpt lat="40.97291" lon="14.266005"><ele>28.142857142857146</ele><time>2026-04-18T07:43:49.103Z</time></trkpt><trkpt lat="40.9729717" lon="14.2660583"><ele>28.42857142857143</ele><time>2026-04-18T07:43:50.102Z</time></trkpt><trkpt lat="40.9730317" lon="14.2661183"><ele>28.71428571428572</ele><time>2026-04-18T07:43:51.102Z</time></trkpt><trkpt lat="40.9730917" lon="14.2661733"><ele>29.000000000000004</ele><time>2026-04-18T07:43:52.102Z</time></trkpt><trkpt lat="40.9731483" lon="14.266225"><ele>28.999999999999996</ele><time>2026-04-18T07:43:53.103Z</time></trkpt><trkpt lat="40.9731967" lon="14.2662883"><ele>29.0</ele><time>2026-04-18T07:43:54.102Z</time></trkpt><trkpt lat="40.9732433" lon="14.26635"><ele>29.0</ele><time>2026-04-18T07:43:55.102Z</time></trkpt><trkpt lat="40.9733283" lon="14.2664367"><ele>29.0</ele><time>2026-04-18T07:43:57.102Z</time></trkpt><trkpt lat="40.973405" lon="14.266505"><ele>28.999999999999996</ele><time>2026-04-18T07:43:59.102Z</time></trkpt><trkpt lat="40.9734867" lon="14.2665617"><ele>29.0</ele><time>2026-04-18T07:44:01.102Z</time></trkpt><trkpt lat="40.9735533" lon="14.2666217"><ele>28.799999999999997</ele><time>2026-04-18T07:44:03.102Z</time></trkpt><trkpt lat="40.9736317" lon="14.2666867"><ele>28.599999999999998</ele><time>2026-04-18T07:44:05.102Z</time></trkpt><trkpt lat="40.9737183" lon="14.2667667"><ele>28.4</ele><time>2026-04-18T07:44:07.102Z</time></trkpt><trkpt lat="40.973815" lon="14.266865"><ele>28.2</ele><time>2026-04-18T07:44:09.102Z</time></trkpt><trkpt lat="40.9738667" lon="14.26692"><ele>28.0</ele><time>2026-04-18T07:44:10.102Z</time></trkpt><trkpt lat="40.97392" lon="14.2669767"><ele>28.0</ele><time>2026-04-18T07:44:11.102Z</time></trkpt><trkpt lat="40.973975" lon="14.2670267"><ele>28.0</ele><time>2026-04-18T07:44:12.102Z</time></trkpt><trkpt lat="40.9740283" lon="14.2670767"><ele>28.0</ele><time>2026-04-18T07:44:13.103Z</time></trkpt><trkpt lat="40.9740833" lon="14.2671283"><ele>28.0</ele><time>2026-04-18T07:44:14.103Z</time></trkpt><trkpt lat="40.97414" lon="14.2671833"><ele>28.0</ele><time>2026-04-18T07:44:15.102Z</time></trkpt><trkpt lat="40.9741933" lon="14.2672383"><ele>28.0</ele><time>2026-04-18T07:44:16.102Z</time></trkpt><trkpt lat="40.97425" lon="14.2672867"><ele>28.0</ele><time>2026-04-18T07:44:17.102Z</time></trkpt><trkpt lat="40.9743467" lon="14.2673617"><ele>28.000000000000004</ele><time>2026-04-18T07:44:19.102Z</time></trkpt><trkpt lat="40.9744" lon="14.26741"><ele>28.0</ele><time>2026-04-18T07:44:20.102Z</time></trkpt><trkpt lat="40.9744567" lon="14.2674617"><ele>28.0</ele><time>2026-04-18T07:44:21.103Z</time></trkpt><trkpt lat="40.9745267" lon="14.2675083"><ele>28.0</ele><time>2026-04-18T07:44:22.102Z</time></trkpt><trkpt lat="40.974605" lon="14.2675567"><ele>28.000000000000004</ele><time>2026-04-18T07:44:23.102Z</time></trkpt><trkpt lat="40.9746867" lon="14.2676"><ele>28.0</ele><time>2026-04-18T07:44:24.102Z</time></trkpt><trkpt lat="40.9747717" lon="14.26765"><ele>28.0</ele><time>2026-04-18T07:44:25.102Z</time></trkpt><trkpt lat="40.9748567" lon="14.2677167"><ele>27.999999999999996</ele><time>2026-04-18T07:44:26.102Z</time></trkpt><trkpt lat="40.97494" lon="14.2677783"><ele>27.999999999999996</ele><time>2026-04-18T07:44:27.103Z</time></trkpt><trkpt lat="40.975025" lon="14.2678317"><ele>28.0</ele><time>2026-04-18T07:44:28.102Z</time></trkpt><trkpt lat="40.975105" lon="14.2678967"><ele>28.0</ele><time>2026-04-18T07:44:29.102Z</time></trkpt><trkpt lat="40.9751917" lon="14.2679717"><ele>27.500000000000004</ele><time>2026-04-18T07:44:30.102Z</time></trkpt><trkpt lat="40.9752733" lon="14.2680333"><ele>27.0</ele><time>2026-04-18T07:44:31.102Z</time></trkpt><trkpt lat="40.975335" lon="14.268105"><ele>26.5</ele><time>2026-04-18T07:44:32.102Z</time></trkpt><trkpt lat="40.975405" lon="14.2681667"><ele>26.0</ele><time>2026-04-18T07:44:33.102Z</time></trkpt><trkpt lat="40.9754783" lon="14.2682417"><ele>25.500000000000004</ele><time>2026-04-18T07:44:34.102Z</time></trkpt><trkpt lat="40.97555" lon="14.2683067"><ele>25.0</ele><time>2026-04-18T07:44:35.102Z</time></trkpt><trkpt lat="40.9756233" lon="14.2683667"><ele>25.0</ele><time>2026-04-18T07:44:36.102Z</time></trkpt><trkpt lat="40.9756967" lon="14.2684217"><ele>25.0</ele><time>2026-04-18T07:44:37.102Z</time></trkpt><trkpt lat="40.9757617" lon="14.2684733"><ele>25.0</ele><time>2026-04-18T07:44:38.102Z</time></trkpt><trkpt lat="40.975815" lon="14.26853"><ele>25.0</ele><time>2026-04-18T07:44:39.102Z</time></trkpt><trkpt lat="40.9759117" lon="14.2686233"><ele>25.0</ele><time>2026-04-18T07:44:41.102Z</time></trkpt><trkpt lat="40.9760333" lon="14.2687"><ele>25.0</ele><time>2026-04-18T07:44:43.102Z</time></trkpt><trkpt lat="40.976115" lon="14.26877"><ele>25.0</ele><time>2026-04-18T07:44:44.102Z</time></trkpt><trkpt lat="40.9762083" lon="14.2688533"><ele>25.0</ele><time>2026-04-18T07:44:45.102Z</time></trkpt><trkpt lat="40.976325" lon="14.2689533"><ele>25.0</ele><time>2026-04-18T07:44:46.103Z</time></trkpt><trkpt lat="40.976445" lon="14.2690667"><ele>25.0</ele><time>2026-04-18T07:44:47.102Z</time></trkpt><trkpt lat="40.97657" lon="14.2691817"><ele>25.0</ele><time>2026-04-18T07:44:48.102Z</time></trkpt><trkpt lat="40.976695" lon="14.26929"><ele>25.0</ele><time>2026-04-18T07:44:49.102Z</time></trkpt><trkpt lat="40.9768183" lon="14.269405"><ele>24.666666666666668</ele><time>2026-04-18T07:44:50.102Z</time></trkpt><trkpt lat="40.9769467" lon="14.2695183"><ele>24.333333333333336</ele><time>2026-04-18T07:44:51.102Z</time></trkpt><trkpt lat="40.9770717" lon="14.26963"><ele>24.0</ele><time>2026-04-18T07:44:52.102Z</time></trkpt><trkpt lat="40.97719" lon="14.26974"><ele>24.0</ele><time>2026-04-18T07:44:53.102Z</time></trkpt><trkpt lat="40.9773067" lon="14.26985"><ele>24.0</ele><time>2026-04-18T07:44:54.102Z</time></trkpt><trkpt lat="40.9774233" lon="14.26995"><ele>24.0</ele><time>2026-04-18T07:44:55.102Z</time></trkpt><trkpt lat="40.9775367" lon="14.270055"><ele>24.0</ele><time>2026-04-18T07:44:56.102Z</time></trkpt><trkpt lat="40.9776483" lon="14.2701617"><ele>23.25</ele><time>2026-04-18T07:44:57.102Z</time></trkpt><trkpt lat="40.9777733" lon="14.27027"><ele>22.5</ele><time>2026-04-18T07:44:58.102Z</time></trkpt><trkpt lat="40.977885" lon="14.270385"><ele>21.75</ele><time>2026-04-18T07:44:59.102Z</time></trkpt><trkpt lat="40.9779967" lon="14.2704883"><ele>21.0</ele><time>2026-04-18T07:45:00.102Z</time></trkpt><trkpt lat="40.9781033" lon="14.2705833"><ele>21.75</ele><time>2026-04-18T07:45:01.102Z</time></trkpt><trkpt lat="40.9782067" lon="14.27068"><ele>22.5</ele><time>2026-04-18T07:45:02.103Z</time></trkpt><trkpt lat="40.9783167" lon="14.2707817"><ele>23.25</ele><time>2026-04-18T07:45:03.102Z</time></trkpt><trkpt lat="40.9784283" lon="14.2708867"><ele>24.0</ele><time>2026-04-18T07:45:04.102Z</time></trkpt><trkpt lat="40.9785467" lon="14.2709983"><ele>24.0</ele><time>2026-04-18T07:45:05.102Z</time></trkpt><trkpt lat="40.978675" lon="14.2711067"><ele>24.0</ele><time>2026-04-18T07:45:06.102Z</time></trkpt><trkpt lat="40.9788183" lon="14.2712167"><ele>24.0</ele><time>2026-04-18T07:45:07.102Z</time></trkpt><trkpt lat="40.9789583" lon="14.27133"><ele>24.0</ele><time>2026-04-18T07:45:08.102Z</time></trkpt><trkpt lat="40.9791" lon="14.2714583"><ele>24.0</ele><time>2026-04-18T07:45:09.102Z</time></trkpt><trkpt lat="40.9792483" lon="14.2715733"><ele>24.0</ele><time>2026-04-18T07:45:10.102Z</time></trkpt><trkpt lat="40.979395" lon="14.2717017"><ele>24.0</ele><time>2026-04-18T07:45:11.102Z</time></trkpt><trkpt lat="40.9795383" lon="14.2718283"><ele>24.0</ele><time>2026-04-18T07:45:12.102Z</time></trkpt><trkpt lat="40.97968" lon="14.2719533"><ele>24.0</ele><time>2026-04-18T07:45:13.102Z</time></trkpt><trkpt lat="40.9798233" lon="14.2720733"><ele>24.0</ele><time>2026-04-18T07:45:14.103Z</time></trkpt><trkpt lat="40.9799633" lon="14.272195"><ele>24.0</ele><time>2026-04-18T07:45:15.102Z</time></trkpt><trkpt lat="40.980105" lon="14.2723117"><ele>24.0</ele><time>2026-04-18T07:45:16.102Z</time></trkpt><trkpt lat="40.9802483" lon="14.2724333"><ele>23.666666666666668</ele><time>2026-04-18T07:45:17.102Z</time></trkpt><trkpt lat="40.98039" lon="14.272545"><ele>23.333333333333336</ele><time>2026-04-18T07:45:18.102Z</time></trkpt><trkpt lat="40.98053" lon="14.2726617"><ele>23.0</ele><time>2026-04-18T07:45:19.102Z</time></trkpt><trkpt lat="40.98066" lon="14.2727833"><ele>23.0</ele><time>2026-04-18T07:45:20.102Z</time></trkpt><trkpt lat="40.980795" lon="14.2728967"><ele>23.0</ele><time>2026-04-18T07:45:21.102Z</time></trkpt><trkpt lat="40.980935" lon="14.2730167"><ele>23.0</ele><time>2026-04-18T07:45:22.102Z</time></trkpt><trkpt lat="40.981075" lon="14.2731417"><ele>22.666666666666668</ele><time>2026-04-18T07:45:23.102Z</time></trkpt><trkpt lat="40.9812283" lon="14.273265"><ele>22.333333333333332</ele><time>2026-04-18T07:45:24.102Z</time></trkpt><trkpt lat="40.98139" lon="14.2733917"><ele>22.0</ele><time>2026-04-18T07:45:25.102Z</time></trkpt><trkpt lat="40.9815583" lon="14.2735267"><ele>22.0</ele><time>2026-04-18T07:45:26.103Z</time></trkpt><trkpt lat="40.9817433" lon="14.27368"><ele>22.0</ele><time>2026-04-18T07:45:27.102Z</time></trkpt><trkpt lat="40.9819383" lon="14.2738417"><ele>22.0</ele><time>2026-04-18T07:45:28.102Z</time></trkpt><trkpt lat="40.98214" lon="14.27401"><ele>22.0</ele><time>2026-04-18T07:45:29.102Z</time></trkpt><trkpt lat="40.98235" lon="14.2741867"><ele>22.0</ele><time>2026-04-18T07:45:30.102Z</time></trkpt><trkpt lat="40.9825533" lon="14.2743583"><ele>22.0</ele><time>2026-04-18T07:45:31.102Z</time></trkpt><trkpt lat="40.9827417" lon="14.2745317"><ele>22.0</ele><time>2026-04-18T07:45:32.102Z</time></trkpt><trkpt lat="40.98293" lon="14.27469"><ele>22.0</ele><time>2026-04-18T07:45:33.102Z</time></trkpt><trkpt lat="40.9831117" lon="14.2748433"><ele>22.0</ele><time>2026-04-18T07:45:34.102Z</time></trkpt><trkpt lat="40.983285" lon="14.274995"><ele>22.0</ele><time>2026-04-18T07:45:35.102Z</time></trkpt><trkpt lat="40.9834533" lon="14.2751433"><ele>21.666666666666664</ele><time>2026-04-18T07:45:36.102Z</time></trkpt><trkpt lat="40.983615" lon="14.2752817"><ele>21.333333333333332</ele><time>2026-04-18T07:45:37.102Z</time></trkpt><trkpt lat="40.9837717" lon="14.27541"><ele>21.0</ele><time>2026-04-18T07:45:38.102Z</time></trkpt><trkpt lat="40.9839217" lon="14.2755367"><ele>21.0</ele><time>2026-04-18T07:45:39.102Z</time></trkpt><trkpt lat="40.9840633" lon="14.2756567"><ele>21.0</ele><time>2026-04-18T07:45:40.102Z</time></trkpt><trkpt lat="40.9842017" lon="14.2757767"><ele>21.0</ele><time>2026-04-18T07:45:41.102Z</time></trkpt><trkpt lat="40.9843467" lon="14.27589"><ele>21.0</ele><time>2026-04-18T07:45:42.102Z</time></trkpt><trkpt lat="40.9845" lon="14.276015"><ele>21.0</ele><time>2026-04-18T07:45:43.102Z</time></trkpt><trkpt lat="40.984665" lon="14.276145"><ele>21.0</ele><time>2026-04-18T07:45:44.103Z</time></trkpt><trkpt lat="40.984825" lon="14.2762867"><ele>21.0</ele><time>2026-04-18T07:45:45.102Z</time></trkpt><trkpt lat="40.9849933" lon="14.2764383"><ele>21.0</ele><time>2026-04-18T07:45:46.102Z</time></trkpt><trkpt lat="40.9851667" lon="14.2765967"><ele>21.0</ele><time>2026-04-18T07:45:47.102Z</time></trkpt><trkpt lat="40.98534" lon="14.27675"><ele>21.0</ele><time>2026-04-18T07:45:48.102Z</time></trkpt><trkpt lat="40.9855133" lon="14.2768917"><ele>21.0</ele><time>2026-04-18T07:45:49.102Z</time></trkpt><trkpt lat="40.98568" lon="14.2770367"><ele>21.0</ele><time>2026-04-18T07:45:50.102Z</time></trkpt><trkpt lat="40.9858517" lon="14.2771833"><ele>21.0</ele><time>2026-04-18T07:45:51.102Z</time></trkpt><trkpt lat="40.9860233" lon="14.2773317"><ele>21.0</ele><time>2026-04-18T07:45:52.102Z</time></trkpt><trkpt lat="40.9861917" lon="14.2774683"><ele>21.0</ele><time>2026-04-18T07:45:53.102Z</time></trkpt><trkpt lat="40.986355" lon="14.27761"><ele>21.0</ele><time>2026-04-18T07:45:54.102Z</time></trkpt><trkpt lat="40.98652" lon="14.27775"><ele>21.0</ele><time>2026-04-18T07:45:55.102Z</time></trkpt><trkpt lat="40.9866833" lon="14.2778883"><ele>21.0</ele><time>2026-04-18T07:45:56.102Z</time></trkpt><trkpt lat="40.98685" lon="14.278025"><ele>21.333333333333332</ele><time>2026-04-18T07:45:57.103Z</time></trkpt><trkpt lat="40.987005" lon="14.2781533"><ele>21.666666666666664</ele><time>2026-04-18T07:45:58.102Z</time></trkpt><trkpt lat="40.98715" lon="14.2782833"><ele>22.0</ele><time>2026-04-18T07:45:59.102Z</time></trkpt><trkpt lat="40.9872917" lon="14.2784"><ele>22.0</ele><time>2026-04-18T07:46:00.102Z</time></trkpt><trkpt lat="40.9874217" lon="14.27851"><ele>22.0</ele><time>2026-04-18T07:46:01.102Z</time></trkpt><trkpt lat="40.98755" lon="14.27862"><ele>22.0</ele><time>2026-04-18T07:46:02.103Z</time></trkpt><trkpt lat="40.98768" lon="14.2787267"><ele>21.0</ele><time>2026-04-18T07:46:03.102Z</time></trkpt><trkpt lat="40.9878133" lon="14.2788333"><ele>20.0</ele><time>2026-04-18T07:46:04.102Z</time></trkpt><trkpt lat="40.9879483" lon="14.2789483"><ele>19.0</ele><time>2026-04-18T07:46:05.102Z</time></trkpt><trkpt lat="40.9880833" lon="14.2790617"><ele>18.666666666666664</ele><time>2026-04-18T07:46:06.102Z</time></trkpt><trkpt lat="40.9882083" lon="14.27917"><ele>18.333333333333332</ele><time>2026-04-18T07:46:07.102Z</time></trkpt><trkpt lat="40.988335" lon="14.27928"><ele>18.0</ele><time>2026-04-18T07:46:08.102Z</time></trkpt><trkpt lat="40.9884633" lon="14.2793883"><ele>18.666666666666668</ele><time>2026-04-18T07:46:09.103Z</time></trkpt><trkpt lat="40.9885933" lon="14.2795017"><ele>19.333333333333336</ele><time>2026-04-18T07:46:10.102Z</time></trkpt><trkpt lat="40.9887317" lon="14.2796183"><ele>20.0</ele><time>2026-04-18T07:46:11.102Z</time></trkpt><trkpt lat="40.9888867" lon="14.27974"><ele>20.0</ele><time>2026-04-18T07:46:12.102Z</time></trkpt><trkpt lat="40.989055" lon="14.2798833"><ele>20.0</ele><time>2026-04-18T07:46:13.102Z</time></trkpt><trkpt lat="40.9892417" lon="14.280035"><ele>20.0</ele><time>2026-04-18T07:46:14.102Z</time></trkpt><trkpt lat="40.9894467" lon="14.2802017"><ele>19.5</ele><time>2026-04-18T07:46:15.102Z</time></trkpt><trkpt lat="40.9896533" lon="14.2803617"><ele>19.0</ele><time>2026-04-18T07:46:16.103Z</time></trkpt><trkpt lat="40.9898567" lon="14.280545"><ele>19.0</ele><time>2026-04-18T07:46:17.102Z</time></trkpt><trkpt lat="40.9900583" lon="14.28072"><ele>19.0</ele><time>2026-04-18T07:46:18.102Z</time></trkpt><trkpt lat="40.99025" lon="14.2808917"><ele>19.0</ele><time>2026-04-18T07:46:19.102Z</time></trkpt><trkpt lat="40.9904367" lon="14.28105"><ele>19.0</ele><time>2026-04-18T07:46:20.102Z</time></trkpt><trkpt lat="40.9906033" lon="14.2812033"><ele>19.0</ele><time>2026-04-18T07:46:21.102Z</time></trkpt><trkpt lat="40.990765" lon="14.2813467"><ele>19.333333333333332</ele><time>2026-04-18T07:46:22.102Z</time></trkpt><trkpt lat="40.9909133" lon="14.281475"><ele>19.666666666666668</ele><time>2026-04-18T07:46:23.102Z</time></trkpt><trkpt lat="40.9910533" lon="14.2815983"><ele>20.0</ele><time>2026-04-18T07:46:24.102Z</time></trkpt><trkpt lat="40.9911833" lon="14.2817117"><ele>20.0</ele><time>2026-04-18T07:46:25.102Z</time></trkpt><trkpt lat="40.9912967" lon="14.2818067"><ele>20.0</ele><time>2026-04-18T07:46:26.102Z</time></trkpt><trkpt lat="40.991395" lon="14.2818867"><ele>20.0</ele><time>2026-04-18T07:46:27.102Z</time></trkpt><trkpt lat="40.9914767" lon="14.281955"><ele>20.0</ele><time>2026-04-18T07:46:28.102Z</time></trkpt><trkpt lat="40.9915417" lon="14.2820133"><ele>20.0</ele><time>2026-04-18T07:46:29.102Z</time></trkpt><trkpt lat="40.99164" lon="14.282105"><ele>20.0</ele><time>2026-04-18T07:46:31.102Z</time></trkpt><trkpt lat="40.9916933" lon="14.282155"><ele>20.0</ele><time>2026-04-18T07:46:32.102Z</time></trkpt><trkpt lat="40.9917667" lon="14.2822167"><ele>20.0</ele><time>2026-04-18T07:46:33.102Z</time></trkpt><trkpt lat="40.9918667" lon="14.282295"><ele>20.0</ele><time>2026-04-18T07:46:34.102Z</time></trkpt><trkpt lat="40.991985" lon="14.2823917"><ele>20.0</ele><time>2026-04-18T07:46:35.102Z</time></trkpt><trkpt lat="40.99212" lon="14.282505"><ele>20.0</ele><time>2026-04-18T07:46:36.102Z</time></trkpt><trkpt lat="40.9922683" lon="14.2826333"><ele>20.0</ele><time>2026-04-18T07:46:37.102Z</time></trkpt><trkpt lat="40.9924333" lon="14.28277"><ele>20.0</ele><time>2026-04-18T07:46:38.102Z</time></trkpt><trkpt lat="40.9926" lon="14.2829067"><ele>19.666666666666668</ele><time>2026-04-18T07:46:39.102Z</time></trkpt><trkpt lat="40.9927633" lon="14.283045"><ele>19.333333333333332</ele><time>2026-04-18T07:46:40.102Z</time></trkpt><trkpt lat="40.9929317" lon="14.2831833"><ele>19.0</ele><time>2026-04-18T07:46:41.102Z</time></trkpt><trkpt lat="40.9931017" lon="14.2833217"><ele>19.0</ele><time>2026-04-18T07:46:42.102Z</time></trkpt><trkpt lat="40.9932733" lon="14.2834633"><ele>19.0</ele><time>2026-04-18T07:46:43.102Z</time></trkpt><trkpt lat="40.9934433" lon="14.28361"><ele>19.0</ele><time>2026-04-18T07:46:44.102Z</time></trkpt><trkpt lat="40.99361" lon="14.2837533"><ele>19.0</ele><time>2026-04-18T07:46:45.102Z</time></trkpt><trkpt lat="40.9937817" lon="14.2838967"><ele>19.0</ele><time>2026-04-18T07:46:46.102Z</time></trkpt><trkpt lat="40.9939467" lon="14.284035"><ele>19.0</ele><time>2026-04-18T07:46:47.102Z</time></trkpt><trkpt lat="40.9941167" lon="14.2841717"><ele>18.333333333333332</ele><time>2026-04-18T07:46:48.102Z</time></trkpt><trkpt lat="40.9942817" lon="14.2843133"><ele>17.666666666666668</ele><time>2026-04-18T07:46:49.102Z</time></trkpt><trkpt lat="40.9944483" lon="14.2844567"><ele>17.0</ele><time>2026-04-18T07:46:50.102Z</time></trkpt><trkpt lat="40.994615" lon="14.2846067"><ele>17.0</ele><time>2026-04-18T07:46:51.102Z</time></trkpt><trkpt lat="40.994785" lon="14.284745"><ele>17.0</ele><time>2026-04-18T07:46:52.103Z</time></trkpt><trkpt lat="40.9949383" lon="14.2848767"><ele>17.0</ele><time>2026-04-18T07:46:53.102Z</time></trkpt><trkpt lat="40.99509" lon="14.2850083"><ele>17.0</ele><time>2026-04-18T07:46:54.102Z</time></trkpt><trkpt lat="40.99524" lon="14.285135"><ele>17.0</ele><time>2026-04-18T07:46:55.102Z</time></trkpt><trkpt lat="40.9953867" lon="14.2852583"><ele>17.0</ele><time>2026-04-18T07:46:56.102Z</time></trkpt><trkpt lat="40.9955333" lon="14.2853867"><ele>17.0</ele><time>2026-04-18T07:46:57.102Z</time></trkpt><trkpt lat="40.9956783" lon="14.2855083"><ele>17.0</ele><time>2026-04-18T07:46:58.102Z</time></trkpt><trkpt lat="40.9958233" lon="14.2856333"><ele>17.0</ele><time>2026-04-18T07:46:59.102Z</time></trkpt><trkpt lat="40.9959667" lon="14.2857533"><ele>17.333333333333336</ele><time>2026-04-18T07:47:00.102Z</time></trkpt><trkpt lat="40.9961033" lon="14.2858733"><ele>17.666666666666668</ele><time>2026-04-18T07:47:01.102Z</time></trkpt><trkpt lat="40.9962467" lon="14.2859983"><ele>18.0</ele><time>2026-04-18T07:47:02.102Z</time></trkpt><trkpt lat="40.9963917" lon="14.2861217"><ele>18.0</ele><time>2026-04-18T07:47:03.103Z</time></trkpt><trkpt lat="40.9965333" lon="14.2862333"><ele>18.0</ele><time>2026-04-18T07:47:04.102Z</time></trkpt><trkpt lat="40.996675" lon="14.286355"><ele>18.0</ele><time>2026-04-18T07:47:05.102Z</time></trkpt><trkpt lat="40.9968233" lon="14.2864767"><ele>18.666666666666668</ele><time>2026-04-18T07:47:06.102Z</time></trkpt><trkpt lat="40.99697" lon="14.2866017"><ele>19.333333333333336</ele><time>2026-04-18T07:47:07.102Z</time></trkpt><trkpt lat="40.9971117" lon="14.2867283"><ele>20.0</ele><time>2026-04-18T07:47:08.102Z</time></trkpt><trkpt lat="40.9972667" lon="14.2868517"><ele>20.0</ele><time>2026-04-18T07:47:09.102Z</time></trkpt><trkpt lat="40.99743" lon="14.2869833"><ele>20.0</ele><time>2026-04-18T07:47:10.102Z</time></trkpt><trkpt lat="40.99761" lon="14.2871283"><ele>20.0</ele><time>2026-04-18T07:47:11.102Z</time></trkpt><trkpt lat="40.997795" lon="14.2872883"><ele>19.5</ele><time>2026-04-18T07:47:12.102Z</time></trkpt><trkpt lat="40.997985" lon="14.2874483"><ele>19.0</ele><time>2026-04-18T07:47:13.102Z</time></trkpt><trkpt lat="40.9981867" lon="14.2876217"><ele>19.5</ele><time>2026-04-18T07:47:14.102Z</time></trkpt><trkpt lat="40.9983883" lon="14.2878"><ele>20.0</ele><time>2026-04-18T07:47:15.102Z</time></trkpt><trkpt lat="40.9985833" lon="14.2879667"><ele>19.333333333333336</ele><time>2026-04-18T07:47:16.102Z</time></trkpt><trkpt lat="40.9987667" lon="14.28812"><ele>18.666666666666668</ele><time>2026-04-18T07:47:17.102Z</time></trkpt><trkpt lat="40.9989417" lon="14.2882667"><ele>18.0</ele><time>2026-04-18T07:47:18.102Z</time></trkpt><trkpt lat="40.99912" lon="14.2884167"><ele>17.666666666666668</ele><time>2026-04-18T07:47:19.102Z</time></trkpt><trkpt lat="40.999295" lon="14.2885583"><ele>17.333333333333336</ele><time>2026-04-18T07:47:20.102Z</time></trkpt><trkpt lat="40.9994633" lon="14.2887017"><ele>17.0</ele><time>2026-04-18T07:47:21.102Z</time></trkpt><trkpt lat="40.9996283" lon="14.2888367"><ele>17.333333333333336</ele><time>2026-04-18T07:47:22.102Z</time></trkpt><trkpt lat="40.9997883" lon="14.28898"><ele>17.666666666666668</ele><time>2026-04-18T07:47:23.102Z</time></trkpt><trkpt lat="40.999955" lon="14.2891167"><ele>18.0</ele><time>2026-04-18T07:47:24.102Z</time></trkpt><trkpt lat="41.000115" lon="14.2892617"><ele>18.0</ele><time>2026-04-18T07:47:25.102Z</time></trkpt><trkpt lat="41.000275" lon="14.2894017"><ele>18.0</ele><time>2026-04-18T07:47:26.102Z</time></trkpt><trkpt lat="41.000435" lon="14.2895333"><ele>18.0</ele><time>2026-04-18T07:47:27.102Z</time></trkpt><trkpt lat="41.0006017" lon="14.2896517"><ele>17.666666666666668</ele><time>2026-04-18T07:47:28.102Z</time></trkpt><trkpt lat="41.000765" lon="14.28976"><ele>17.333333333333336</ele><time>2026-04-18T07:47:29.102Z</time></trkpt><trkpt lat="41.0009433" lon="14.2898383"><ele>17.0</ele><time>2026-04-18T07:47:30.102Z</time></trkpt><trkpt lat="41.0011083" lon="14.289905"><ele>16.333333333333336</ele><time>2026-04-18T07:47:31.102Z</time></trkpt><trkpt lat="41.0012683" lon="14.2899717"><ele>15.666666666666668</ele><time>2026-04-18T07:47:32.102Z</time></trkpt><trkpt lat="41.0014283" lon="14.2900433"><ele>15.0</ele><time>2026-04-18T07:47:33.102Z</time></trkpt><trkpt lat="41.0015867" lon="14.2901133"><ele>15.0</ele><time>2026-04-18T07:47:34.102Z</time></trkpt><trkpt lat="41.0017433" lon="14.290175"><ele>15.0</ele><time>2026-04-18T07:47:35.102Z</time></trkpt><trkpt lat="41.0019083" lon="14.2902083"><ele>15.0</ele><time>2026-04-18T07:47:36.102Z</time></trkpt><trkpt lat="41.002085" lon="14.2902267"><ele>15.0</ele><time>2026-04-18T07:47:37.102Z</time></trkpt><trkpt lat="41.0022617" lon="14.2902283"><ele>15.0</ele><time>2026-04-18T07:47:38.102Z</time></trkpt><trkpt lat="41.002435" lon="14.29023"><ele>15.0</ele><time>2026-04-18T07:47:39.102Z</time></trkpt><trkpt lat="41.0025983" lon="14.2902433"><ele>15.5</ele><time>2026-04-18T07:47:40.102Z</time></trkpt><trkpt lat="41.0027483" lon="14.290245"><ele>16.0</ele><time>2026-04-18T07:47:41.102Z</time></trkpt><trkpt lat="41.0028983" lon="14.2902433"><ele>16.5</ele><time>2026-04-18T07:47:42.102Z</time></trkpt><trkpt lat="41.0030333" lon="14.2902417"><ele>17.0</ele><time>2026-04-18T07:47:43.102Z</time></trkpt><trkpt lat="41.0031583" lon="14.2902467"><ele>17.0</ele><time>2026-04-18T07:47:44.102Z</time></trkpt><trkpt lat="41.00327" lon="14.290255"><ele>17.0</ele><time>2026-04-18T07:47:45.102Z</time></trkpt><trkpt lat="41.003365" lon="14.290275"><ele>17.0</ele><time>2026-04-18T07:47:46.102Z</time></trkpt><trkpt lat="41.0034433" lon="14.2903183"><ele>17.0</ele><time>2026-04-18T07:47:47.102Z</time></trkpt><trkpt lat="41.00352" lon="14.2903783"><ele>17.0</ele><time>2026-04-18T07:47:48.102Z</time></trkpt><trkpt lat="41.0036033" lon="14.29047"><ele>17.25</ele><time>2026-04-18T07:47:49.102Z</time></trkpt><trkpt lat="41.003675" lon="14.290565"><ele>17.5</ele><time>2026-04-18T07:47:50.102Z</time></trkpt><trkpt lat="41.0037767" lon="14.2906317"><ele>17.75</ele><time>2026-04-18T07:47:51.102Z</time></trkpt><trkpt lat="41.0038917" lon="14.2906817"><ele>18.0</ele><time>2026-04-18T07:47:52.102Z</time></trkpt><trkpt lat="41.0040383" lon="14.2907017"><ele>18.333333333333332</ele><time>2026-04-18T07:47:53.102Z</time></trkpt><trkpt lat="41.0041967" lon="14.290705"><ele>18.666666666666664</ele><time>2026-04-18T07:47:54.102Z</time></trkpt><trkpt lat="41.004365" lon="14.2907083"><ele>19.0</ele><time>2026-04-18T07:47:55.102Z</time></trkpt><trkpt lat="41.0045483" lon="14.2907133"><ele>19.0</ele><time>2026-04-18T07:47:56.102Z</time></trkpt><trkpt lat="41.004745" lon="14.2907233"><ele>19.0</ele><time>2026-04-18T07:47:57.102Z</time></trkpt><trkpt lat="41.0049467" lon="14.2907283"><ele>19.0</ele><time>2026-04-18T07:47:58.102Z</time></trkpt><trkpt lat="41.0051383" lon="14.290735"><ele>19.333333333333332</ele><time>2026-04-18T07:47:59.102Z</time></trkpt><trkpt lat="41.0053367" lon="14.2907367"><ele>19.666666666666668</ele><time>2026-04-18T07:48:00.102Z</time></trkpt><trkpt lat="41.0055283" lon="14.2907433"><ele>20.0</ele><time>2026-04-18T07:48:01.102Z</time></trkpt><trkpt lat="41.0057217" lon="14.2907533"><ele>20.0</ele><time>2026-04-18T07:48:02.103Z</time></trkpt><trkpt lat="41.005915" lon="14.2907617"><ele>20.0</ele><time>2026-04-18T07:48:03.102Z</time></trkpt><trkpt lat="41.0061117" lon="14.29077"><ele>20.0</ele><time>2026-04-18T07:48:04.102Z</time></trkpt><trkpt lat="41.0063083" lon="14.290775"><ele>20.0</ele><time>2026-04-18T07:48:05.102Z</time></trkpt><trkpt lat="41.0065067" lon="14.2907817"><ele>20.0</ele><time>2026-04-18T07:48:06.102Z</time></trkpt><trkpt lat="41.0067" lon="14.290785"><ele>20.0</ele><time>2026-04-18T07:48:07.102Z</time></trkpt><trkpt lat="41.00689" lon="14.2907883"><ele>19.666666666666668</ele><time>2026-04-18T07:48:08.102Z</time></trkpt><trkpt lat="41.00707" lon="14.2907933"><ele>19.333333333333332</ele><time>2026-04-18T07:48:09.102Z</time></trkpt><trkpt lat="41.0072417" lon="14.2907983"><ele>19.0</ele><time>2026-04-18T07:48:10.102Z</time></trkpt><trkpt lat="41.0074067" lon="14.2908017"><ele>19.666666666666664</ele><time>2026-04-18T07:48:11.102Z</time></trkpt><trkpt lat="41.0075617" lon="14.290795"><ele>20.333333333333332</ele><time>2026-04-18T07:48:12.102Z</time></trkpt><trkpt lat="41.0077183" lon="14.290785"><ele>21.0</ele><time>2026-04-18T07:48:13.102Z</time></trkpt><trkpt lat="41.0078717" lon="14.29078"><ele>21.0</ele><time>2026-04-18T07:48:14.102Z</time></trkpt><trkpt lat="41.0080267" lon="14.2907683"><ele>21.0</ele><time>2026-04-18T07:48:15.102Z</time></trkpt><trkpt lat="41.0081883" lon="14.2907383"><ele>21.0</ele><time>2026-04-18T07:48:16.102Z</time></trkpt><trkpt lat="41.008345" lon="14.2907133"><ele>21.0</ele><time>2026-04-18T07:48:17.103Z</time></trkpt><trkpt lat="41.0085183" lon="14.2906833"><ele>21.0</ele><time>2026-04-18T07:48:18.102Z</time></trkpt><trkpt lat="41.0086867" lon="14.29067"><ele>21.0</ele><time>2026-04-18T07:48:19.102Z</time></trkpt><trkpt lat="41.0088583" lon="14.29066"><ele>21.0</ele><time>2026-04-18T07:48:20.102Z</time></trkpt><trkpt lat="41.009035" lon="14.290655"><ele>21.0</ele><time>2026-04-18T07:48:21.102Z</time></trkpt><trkpt lat="41.009215" lon="14.2906583"><ele>21.0</ele><time>2026-04-18T07:48:22.102Z</time></trkpt><trkpt lat="41.009385" lon="14.2906617"><ele>21.666666666666668</ele><time>2026-04-18T07:48:23.102Z</time></trkpt><trkpt lat="41.00956" lon="14.290655"><ele>22.333333333333336</ele><time>2026-04-18T07:48:24.102Z</time></trkpt><trkpt lat="41.0097383" lon="14.2906633"><ele>23.0</ele><time>2026-04-18T07:48:25.102Z</time></trkpt><trkpt lat="41.0099117" lon="14.2906783"><ele>22.333333333333336</ele><time>2026-04-18T07:48:26.103Z</time></trkpt><trkpt lat="41.0100933" lon="14.2906717"><ele>21.666666666666668</ele><time>2026-04-18T07:48:27.102Z</time></trkpt><trkpt lat="41.0102733" lon="14.29067"><ele>21.0</ele><time>2026-04-18T07:48:28.102Z</time></trkpt><trkpt lat="41.01046" lon="14.290675"><ele>21.0</ele><time>2026-04-18T07:48:29.103Z</time></trkpt><trkpt lat="41.01064" lon="14.2906833"><ele>21.0</ele><time>2026-04-18T07:48:30.102Z</time></trkpt><trkpt lat="41.010805" lon="14.2907133"><ele>21.0</ele><time>2026-04-18T07:48:31.102Z</time></trkpt><trkpt lat="41.0109733" lon="14.2907333"><ele>21.333333333333332</ele><time>2026-04-18T07:48:32.102Z</time></trkpt><trkpt lat="41.0111383" lon="14.290755"><ele>21.666666666666664</ele><time>2026-04-18T07:48:33.102Z</time></trkpt><trkpt lat="41.0112883" lon="14.29077"><ele>22.0</ele><time>2026-04-18T07:48:34.102Z</time></trkpt><trkpt lat="41.011445" lon="14.2907933"><ele>22.0</ele><time>2026-04-18T07:48:35.102Z</time></trkpt><trkpt lat="41.0115967" lon="14.2908033"><ele>22.0</ele><time>2026-04-18T07:48:36.102Z</time></trkpt><trkpt lat="41.01175" lon="14.2908083"><ele>22.0</ele><time>2026-04-18T07:48:37.102Z</time></trkpt><trkpt lat="41.011895" lon="14.290805"><ele>21.0</ele><time>2026-04-18T07:48:38.102Z</time></trkpt><trkpt lat="41.0120433" lon="14.2908133"><ele>20.0</ele><time>2026-04-18T07:48:39.103Z</time></trkpt><trkpt lat="41.0121967" lon="14.2908167"><ele>19.0</ele><time>2026-04-18T07:48:40.102Z</time></trkpt><trkpt lat="41.012345" lon="14.2908167"><ele>19.0</ele><time>2026-04-18T07:48:41.102Z</time></trkpt><trkpt lat="41.0124983" lon="14.290825"><ele>19.0</ele><time>2026-04-18T07:48:42.102Z</time></trkpt><trkpt lat="41.01265" lon="14.2908333"><ele>19.0</ele><time>2026-04-18T07:48:43.103Z</time></trkpt><trkpt lat="41.0128017" lon="14.2908383"><ele>19.0</ele><time>2026-04-18T07:48:44.102Z</time></trkpt><trkpt lat="41.0129533" lon="14.2908417"><ele>19.0</ele><time>2026-04-18T07:48:45.102Z</time></trkpt><trkpt lat="41.0131117" lon="14.2908467"><ele>19.0</ele><time>2026-04-18T07:48:46.102Z</time></trkpt><trkpt lat="41.0132733" lon="14.29085"><ele>19.333333333333332</ele><time>2026-04-18T07:48:47.102Z</time></trkpt><trkpt lat="41.0134433" lon="14.2908517"><ele>19.666666666666668</ele><time>2026-04-18T07:48:48.102Z</time></trkpt><trkpt lat="41.0136017" lon="14.2908567"><ele>20.0</ele><time>2026-04-18T07:48:49.102Z</time></trkpt><trkpt lat="41.0137417" lon="14.290865"><ele>20.0</ele><time>2026-04-18T07:48:50.102Z</time></trkpt><trkpt lat="41.0138717" lon="14.2908683"><ele>20.0</ele><time>2026-04-18T07:48:51.102Z</time></trkpt><trkpt lat="41.0139867" lon="14.2908683"><ele>20.0</ele><time>2026-04-18T07:48:52.102Z</time></trkpt><trkpt lat="41.0140933" lon="14.290875"><ele>20.0</ele><time>2026-04-18T07:48:53.102Z</time></trkpt><trkpt lat="41.0141883" lon="14.2908783"><ele>20.0</ele><time>2026-04-18T07:48:54.102Z</time></trkpt><trkpt lat="41.014265" lon="14.29088"><ele>20.6</ele><time>2026-04-18T07:48:55.102Z</time></trkpt><trkpt lat="41.0143367" lon="14.2908767"><ele>21.2</ele><time>2026-04-18T07:48:56.103Z</time></trkpt><trkpt lat="41.0144583" lon="14.2908667"><ele>21.799999999999997</ele><time>2026-04-18T07:48:58.102Z</time></trkpt><trkpt lat="41.0145733" lon="14.2908583"><ele>22.4</ele><time>2026-04-18T07:49:00.102Z</time></trkpt><trkpt lat="41.0146433" lon="14.2908467"><ele>23.0</ele><time>2026-04-18T07:49:01.102Z</time></trkpt><trkpt lat="41.0147283" lon="14.29083"><ele>23.0</ele><time>2026-04-18T07:49:02.102Z</time></trkpt><trkpt lat="41.01482" lon="14.290815"><ele>23.0</ele><time>2026-04-18T07:49:03.102Z</time></trkpt><trkpt lat="41.0149233" lon="14.290805"><ele>23.0</ele><time>2026-04-18T07:49:04.102Z</time></trkpt><trkpt lat="41.015035" lon="14.2907983"><ele>23.0</ele><time>2026-04-18T07:49:05.102Z</time></trkpt><trkpt lat="41.0151517" lon="14.2907967"><ele>23.0</ele><time>2026-04-18T07:49:06.102Z</time></trkpt><trkpt lat="41.0152717" lon="14.2908"><ele>23.0</ele><time>2026-04-18T07:49:07.103Z</time></trkpt><trkpt lat="41.0153967" lon="14.290805"><ele>23.0</ele><time>2026-04-18T07:49:08.102Z</time></trkpt><trkpt lat="41.0155183" lon="14.2908083"><ele>23.0</ele><time>2026-04-18T07:49:09.102Z</time></trkpt><trkpt lat="41.0156333" lon="14.2908167"><ele>23.0</ele><time>2026-04-18T07:49:10.102Z</time></trkpt><trkpt lat="41.01576" lon="14.2908183"><ele>23.75</ele><time>2026-04-18T07:49:11.102Z</time></trkpt><trkpt lat="41.0158917" lon="14.2908217"><ele>24.5</ele><time>2026-04-18T07:49:12.102Z</time></trkpt><trkpt lat="41.016025" lon="14.2908367"><ele>25.25</ele><time>2026-04-18T07:49:13.102Z</time></trkpt><trkpt lat="41.01617" lon="14.29084"><ele>26.0</ele><time>2026-04-18T07:49:14.102Z</time></trkpt><trkpt lat="41.016305" lon="14.2908383"><ele>26.0</ele><time>2026-04-18T07:49:15.102Z</time></trkpt><trkpt lat="41.016425" lon="14.29084"><ele>26.0</ele><time>2026-04-18T07:49:16.102Z</time></trkpt><trkpt lat="41.0165483" lon="14.290835"><ele>26.0</ele><time>2026-04-18T07:49:17.102Z</time></trkpt><trkpt lat="41.0166817" lon="14.2908283"><ele>26.0</ele><time>2026-04-18T07:49:18.102Z</time></trkpt><trkpt lat="41.0168167" lon="14.2908383"><ele>25.8</ele><time>2026-04-18T07:49:19.102Z</time></trkpt><trkpt lat="41.0169267" lon="14.2908567"><ele>25.6</ele><time>2026-04-18T07:49:20.102Z</time></trkpt><trkpt lat="41.01703" lon="14.290865"><ele>25.4</ele><time>2026-04-18T07:49:21.102Z</time></trkpt><trkpt lat="41.0171283" lon="14.29087"><ele>25.2</ele><time>2026-04-18T07:49:22.102Z</time></trkpt><trkpt lat="41.0172133" lon="14.2908767"><ele>25.0</ele><time>2026-04-18T07:49:23.102Z</time></trkpt><trkpt lat="41.0172917" lon="14.2908717"><ele>25.000000000000004</ele><time>2026-04-18T07:49:24.102Z</time></trkpt><trkpt lat="41.0173683" lon="14.290865"><ele>25.0</ele><time>2026-04-18T07:49:25.102Z</time></trkpt><trkpt lat="41.0174383" lon="14.2908667"><ele>25.0</ele><time>2026-04-18T07:49:26.102Z</time></trkpt><trkpt lat="41.0175133" lon="14.2908633"><ele>25.0</ele><time>2026-04-18T07:49:27.102Z</time></trkpt><trkpt lat="41.0175917" lon="14.2908567"><ele>25.0</ele><time>2026-04-18T07:49:28.102Z</time></trkpt><trkpt lat="41.0176683" lon="14.29086"><ele>25.000000000000004</ele><time>2026-04-18T07:49:29.103Z</time></trkpt><trkpt lat="41.0177333" lon="14.2908617"><ele>25.0</ele><time>2026-04-18T07:49:30.103Z</time></trkpt><trkpt lat="41.0177983" lon="14.2908667"><ele>24.833333333333336</ele><time>2026-04-18T07:49:31.102Z</time></trkpt><trkpt lat="41.0178667" lon="14.2908817"><ele>24.666666666666668</ele><time>2026-04-18T07:49:32.102Z</time></trkpt><trkpt lat="41.0179417" lon="14.29089"><ele>24.5</ele><time>2026-04-18T07:49:33.102Z</time></trkpt><trkpt lat="41.01803" lon="14.29089"><ele>24.333333333333336</ele><time>2026-04-18T07:49:34.102Z</time></trkpt><trkpt lat="41.01813" lon="14.2908883"><ele>24.166666666666668</ele><time>2026-04-18T07:49:35.103Z</time></trkpt><trkpt lat="41.01824" lon="14.2908867"><ele>24.0</ele><time>2026-04-18T07:49:36.102Z</time></trkpt><trkpt lat="41.0183733" lon="14.2908867"><ele>23.333333333333332</ele><time>2026-04-18T07:49:37.102Z</time></trkpt><trkpt lat="41.0185267" lon="14.2908867"><ele>22.666666666666664</ele><time>2026-04-18T07:49:38.102Z</time></trkpt><trkpt lat="41.0187" lon="14.29089"><ele>22.0</ele><time>2026-04-18T07:49:39.102Z</time></trkpt><trkpt lat="41.018875" lon="14.2908967"><ele>22.0</ele><time>2026-04-18T07:49:40.102Z</time></trkpt><trkpt lat="41.0190567" lon="14.2909033"><ele>22.0</ele><time>2026-04-18T07:49:41.102Z</time></trkpt><trkpt lat="41.019235" lon="14.2909117"><ele>22.0</ele><time>2026-04-18T07:49:42.102Z</time></trkpt><trkpt lat="41.01942" lon="14.2909217"><ele>22.333333333333332</ele><time>2026-04-18T07:49:43.102Z</time></trkpt><trkpt lat="41.0196067" lon="14.29093"><ele>22.666666666666668</ele><time>2026-04-18T07:49:44.103Z</time></trkpt><trkpt lat="41.01979" lon="14.29095"><ele>23.0</ele><time>2026-04-18T07:49:45.102Z</time></trkpt><trkpt lat="41.01998" lon="14.290955"><ele>23.333333333333336</ele><time>2026-04-18T07:49:46.103Z</time></trkpt><trkpt lat="41.0201667" lon="14.2909617"><ele>23.666666666666668</ele><time>2026-04-18T07:49:47.102Z</time></trkpt><trkpt lat="41.0203517" lon="14.290965"><ele>24.0</ele><time>2026-04-18T07:49:48.102Z</time></trkpt><trkpt lat="41.0205333" lon="14.2909717"><ele>24.0</ele><time>2026-04-18T07:49:49.102Z</time></trkpt><trkpt lat="41.0207217" lon="14.2909717"><ele>24.0</ele><time>2026-04-18T07:49:50.102Z</time></trkpt><trkpt lat="41.0209" lon="14.29097"><ele>24.0</ele><time>2026-04-18T07:49:51.102Z</time></trkpt><trkpt lat="41.02108" lon="14.2909717"><ele>24.0</ele><time>2026-04-18T07:49:52.102Z</time></trkpt><trkpt lat="41.02126" lon="14.2909833"><ele>24.0</ele><time>2026-04-18T07:49:53.102Z</time></trkpt><trkpt lat="41.021435" lon="14.2909867"><ele>24.0</ele><time>2026-04-18T07:49:54.102Z</time></trkpt><trkpt lat="41.0216017" lon="14.2909917"><ele>24.0</ele><time>2026-04-18T07:49:55.102Z</time></trkpt><trkpt lat="41.0217733" lon="14.2910033"><ele>24.0</ele><time>2026-04-18T07:49:56.102Z</time></trkpt><trkpt lat="41.0219417" lon="14.29101"><ele>24.0</ele><time>2026-04-18T07:49:57.102Z</time></trkpt><trkpt lat="41.0220983" lon="14.29102"><ele>24.0</ele><time>2026-04-18T07:49:58.102Z</time></trkpt><trkpt lat="41.0222533" lon="14.29102"><ele>24.0</ele><time>2026-04-18T07:49:59.102Z</time></trkpt><trkpt lat="41.02241" lon="14.291025"><ele>24.0</ele><time>2026-04-18T07:50:00.102Z</time></trkpt><trkpt lat="41.0225633" lon="14.2910317"><ele>24.25</ele><time>2026-04-18T07:50:01.102Z</time></trkpt><trkpt lat="41.0227117" lon="14.2910317"><ele>24.5</ele><time>2026-04-18T07:50:02.102Z</time></trkpt><trkpt lat="41.0228567" lon="14.291035"><ele>24.75</ele><time>2026-04-18T07:50:03.103Z</time></trkpt><trkpt lat="41.0230017" lon="14.2910483"><ele>25.0</ele><time>2026-04-18T07:50:04.102Z</time></trkpt><trkpt lat="41.0231433" lon="14.2910567"><ele>25.0</ele><time>2026-04-18T07:50:05.102Z</time></trkpt><trkpt lat="41.0232767" lon="14.2910583"><ele>25.0</ele><time>2026-04-18T07:50:06.102Z</time></trkpt><trkpt lat="41.0234083" lon="14.2910617"><ele>25.0</ele><time>2026-04-18T07:50:07.102Z</time></trkpt><trkpt lat="41.0235383" lon="14.2910633"><ele>25.0</ele><time>2026-04-18T07:50:08.102Z</time></trkpt><trkpt lat="41.0236567" lon="14.2910683"><ele>25.166666666666668</ele><time>2026-04-18T07:50:09.102Z</time></trkpt><trkpt lat="41.0237617" lon="14.2910583"><ele>25.333333333333336</ele><time>2026-04-18T07:50:10.102Z</time></trkpt><trkpt lat="41.0238533" lon="14.2910583"><ele>25.5</ele><time>2026-04-18T07:50:11.102Z</time></trkpt><trkpt lat="41.023935" lon="14.291065"><ele>25.666666666666664</ele><time>2026-04-18T07:50:12.102Z</time></trkpt><trkpt lat="41.0240117" lon="14.2910667"><ele>25.833333333333332</ele><time>2026-04-18T07:50:13.102Z</time></trkpt><trkpt lat="41.0240767" lon="14.29107"><ele>26.0</ele><time>2026-04-18T07:50:14.102Z</time></trkpt><trkpt lat="41.0241733" lon="14.2910667"><ele>25.999999999999996</ele><time>2026-04-18T07:50:16.102Z</time></trkpt><trkpt lat="41.0242483" lon="14.2910667"><ele>26.0</ele><time>2026-04-18T07:50:18.102Z</time></trkpt><trkpt lat="41.024325" lon="14.2910717"><ele>26.0</ele><time>2026-04-18T07:50:20.102Z</time></trkpt><trkpt lat="41.0244283" lon="14.2910767"><ele>26.0</ele><time>2026-04-18T07:50:22.102Z</time></trkpt><trkpt lat="41.0244933" lon="14.291075"><ele>25.999999999999996</ele><time>2026-04-18T07:50:23.102Z</time></trkpt><trkpt lat="41.0245583" lon="14.2910767"><ele>26.0</ele><time>2026-04-18T07:50:24.102Z</time></trkpt><trkpt lat="41.02463" lon="14.2910783"><ele>26.0</ele><time>2026-04-18T07:50:25.102Z</time></trkpt><trkpt lat="41.0246983" lon="14.2910917"><ele>26.0</ele><time>2026-04-18T07:50:26.102Z</time></trkpt><trkpt lat="41.0247667" lon="14.2911"><ele>26.0</ele><time>2026-04-18T07:50:27.102Z</time></trkpt><trkpt lat="41.0248317" lon="14.2910983"><ele>26.0</ele><time>2026-04-18T07:50:28.102Z</time></trkpt><trkpt lat="41.0249033" lon="14.2911017"><ele>26.0</ele><time>2026-04-18T07:50:29.102Z</time></trkpt><trkpt lat="41.0249833" lon="14.2911033"><ele>26.0</ele><time>2026-04-18T07:50:30.102Z</time></trkpt><trkpt lat="41.0250767" lon="14.2911083"><ele>26.0</ele><time>2026-04-18T07:50:31.102Z</time></trkpt><trkpt lat="41.025175" lon="14.29112"><ele>26.200000000000003</ele><time>2026-04-18T07:50:32.102Z</time></trkpt><trkpt lat="41.025275" lon="14.2911317"><ele>26.400000000000002</ele><time>2026-04-18T07:50:33.102Z</time></trkpt><trkpt lat="41.0253667" lon="14.2911383"><ele>26.6</ele><time>2026-04-18T07:50:34.102Z</time></trkpt><trkpt lat="41.02548" lon="14.2911483"><ele>26.8</ele><time>2026-04-18T07:50:35.102Z</time></trkpt><trkpt lat="41.0255867" lon="14.29115"><ele>27.0</ele><time>2026-04-18T07:50:36.102Z</time></trkpt><trkpt lat="41.0256983" lon="14.2911533"><ele>27.0</ele><time>2026-04-18T07:50:37.103Z</time></trkpt><trkpt lat="41.02581" lon="14.29115"><ele>27.000000000000004</ele><time>2026-04-18T07:50:38.102Z</time></trkpt><trkpt lat="41.0259167" lon="14.2911467"><ele>27.000000000000004</ele><time>2026-04-18T07:50:39.102Z</time></trkpt><trkpt lat="41.0260167" lon="14.2911517"><ele>27.0</ele><time>2026-04-18T07:50:40.102Z</time></trkpt><trkpt lat="41.0261083" lon="14.2911517"><ele>27.0</ele><time>2026-04-18T07:50:41.102Z</time></trkpt><trkpt lat="41.0261917" lon="14.2911433"><ele>27.0</ele><time>2026-04-18T07:50:42.102Z</time></trkpt><trkpt lat="41.0262583" lon="14.2911483"><ele>27.0</ele><time>2026-04-18T07:50:43.102Z</time></trkpt><trkpt lat="41.0263217" lon="14.2911567"><ele>27.0</ele><time>2026-04-18T07:50:44.102Z</time></trkpt><trkpt lat="41.0264333" lon="14.291185"><ele>27.0</ele><time>2026-04-18T07:50:46.102Z</time></trkpt><trkpt lat="41.026525" lon="14.291215"><ele>27.0</ele><time>2026-04-18T07:50:48.102Z</time></trkpt><trkpt lat="41.0265967" lon="14.2911833"><ele>27.0</ele><time>2026-04-18T07:50:50.102Z</time></trkpt><trkpt lat="41.026625" lon="14.2910633"><ele>27.0</ele><time>2026-04-18T07:50:52.102Z</time></trkpt><trkpt lat="41.026615" lon="14.290975"><ele>27.000000000000004</ele><time>2026-04-18T07:50:53.102Z</time></trkpt><trkpt lat="41.0266" lon="14.2908483"><ele>27.000000000000004</ele><time>2026-04-18T07:50:54.102Z</time></trkpt><trkpt lat="41.02659" lon="14.2907117"><ele>27.0</ele><time>2026-04-18T07:50:55.102Z</time></trkpt><trkpt lat="41.0265867" lon="14.2905683"><ele>27.0</ele><time>2026-04-18T07:50:56.102Z</time></trkpt><trkpt lat="41.02658" lon="14.2904283"><ele>27.0</ele><time>2026-04-18T07:50:57.102Z</time></trkpt><trkpt lat="41.026575" lon="14.2902767"><ele>27.0</ele><time>2026-04-18T07:50:58.102Z</time></trkpt><trkpt lat="41.026575" lon="14.29012"><ele>27.0</ele><time>2026-04-18T07:50:59.102Z</time></trkpt><trkpt lat="41.0265667" lon="14.28996"><ele>27.0</ele><time>2026-04-18T07:51:00.103Z</time></trkpt><trkpt lat="41.0265617" lon="14.2897933"><ele>27.200000000000003</ele><time>2026-04-18T07:51:01.102Z</time></trkpt><trkpt lat="41.0265483" lon="14.289635"><ele>27.400000000000002</ele><time>2026-04-18T07:51:02.103Z</time></trkpt><trkpt lat="41.0265383" lon="14.2894867"><ele>27.599999999999998</ele><time>2026-04-18T07:51:03.103Z</time></trkpt><trkpt lat="41.0265383" lon="14.289335"><ele>27.799999999999997</ele><time>2026-04-18T07:51:04.102Z</time></trkpt><trkpt lat="41.02654" lon="14.28921"><ele>28.0</ele><time>2026-04-18T07:51:05.102Z</time></trkpt><trkpt lat="41.026535" lon="14.28909"><ele>28.0</ele><time>2026-04-18T07:51:06.102Z</time></trkpt><trkpt lat="41.0265333" lon="14.2889967"><ele>27.999999999999996</ele><time>2026-04-18T07:51:07.102Z</time></trkpt><trkpt lat="41.0265333" lon="14.2888383"><ele>27.999999999999996</ele><time>2026-04-18T07:51:09.102Z</time></trkpt><trkpt lat="41.0265283" lon="14.2887033"><ele>28.0</ele><time>2026-04-18T07:51:11.102Z</time></trkpt><trkpt lat="41.02653" lon="14.288565"><ele>28.0</ele><time>2026-04-18T07:51:13.102Z</time></trkpt><trkpt lat="41.0265317" lon="14.2884267"><ele>27.799999999999997</ele><time>2026-04-18T07:51:15.102Z</time></trkpt><trkpt lat="41.026525" lon="14.2882617"><ele>27.599999999999998</ele><time>2026-04-18T07:51:17.102Z</time></trkpt><trkpt lat="41.0265283" lon="14.2881717"><ele>27.400000000000002</ele><time>2026-04-18T07:51:18.103Z</time></trkpt><trkpt lat="41.0265267" lon="14.288085"><ele>27.200000000000003</ele><time>2026-04-18T07:51:19.102Z</time></trkpt><trkpt lat="41.0265183" lon="14.2879167"><ele>27.0</ele><time>2026-04-18T07:51:21.102Z</time></trkpt><trkpt lat="41.0265117" lon="14.28782"><ele>27.0</ele><time>2026-04-18T07:51:22.102Z</time></trkpt><trkpt lat="41.026505" lon="14.287705"><ele>27.000000000000004</ele><time>2026-04-18T07:51:23.102Z</time></trkpt><trkpt lat="41.026505" lon="14.2875767"><ele>27.000000000000004</ele><time>2026-04-18T07:51:24.102Z</time></trkpt><trkpt lat="41.0265117" lon="14.2874417"><ele>27.0</ele><time>2026-04-18T07:51:25.102Z</time></trkpt><trkpt lat="41.02651" lon="14.2872967"><ele>27.0</ele><time>2026-04-18T07:51:26.102Z</time></trkpt><trkpt lat="41.026505" lon="14.2871517"><ele>27.0</ele><time>2026-04-18T07:51:27.102Z</time></trkpt><trkpt lat="41.026505" lon="14.287015"><ele>27.0</ele><time>2026-04-18T07:51:28.103Z</time></trkpt><trkpt lat="41.026505" lon="14.2868717"><ele>27.0</ele><time>2026-04-18T07:51:29.103Z</time></trkpt><trkpt lat="41.0265" lon="14.28672"><ele>27.0</ele><time>2026-04-18T07:51:30.102Z</time></trkpt><trkpt lat="41.0265" lon="14.286555"><ele>27.200000000000003</ele><time>2026-04-18T07:51:31.102Z</time></trkpt><trkpt lat="41.0265" lon="14.2864017"><ele>27.400000000000002</ele><time>2026-04-18T07:51:32.103Z</time></trkpt><trkpt lat="41.0264967" lon="14.2862533"><ele>27.599999999999998</ele><time>2026-04-18T07:51:33.102Z</time></trkpt><trkpt lat="41.0264933" lon="14.2861167"><ele>27.799999999999997</ele><time>2026-04-18T07:51:34.102Z</time></trkpt><trkpt lat="41.0264933" lon="14.2859733"><ele>28.0</ele><time>2026-04-18T07:51:35.102Z</time></trkpt><trkpt lat="41.0265" lon="14.2858433"><ele>28.000000000000004</ele><time>2026-04-18T07:51:36.102Z</time></trkpt><trkpt lat="41.0265167" lon="14.2857233"><ele>28.0</ele><time>2026-04-18T07:51:37.102Z</time></trkpt><trkpt lat="41.02655" lon="14.2856167"><ele>28.0</ele><time>2026-04-18T07:51:38.102Z</time></trkpt><trkpt lat="41.026595" lon="14.2855283"><ele>28.0</ele><time>2026-04-18T07:51:39.102Z</time></trkpt><trkpt lat="41.0266433" lon="14.2854617"><ele>28.000000000000004</ele><time>2026-04-18T07:51:40.102Z</time></trkpt><trkpt lat="41.0266967" lon="14.2854033"><ele>28.0</ele><time>2026-04-18T07:51:41.102Z</time></trkpt><trkpt lat="41.02677" lon="14.2853483"><ele>27.799999999999997</ele><time>2026-04-18T07:51:42.102Z</time></trkpt><trkpt lat="41.02686" lon="14.28529"><ele>27.599999999999998</ele><time>2026-04-18T07:51:43.102Z</time></trkpt><trkpt lat="41.0269567" lon="14.2852317"><ele>27.400000000000002</ele><time>2026-04-18T07:51:44.102Z</time></trkpt><trkpt lat="41.0270517" lon="14.2851667"><ele>27.200000000000003</ele><time>2026-04-18T07:51:45.102Z</time></trkpt><trkpt lat="41.0271467" lon="14.2850983"><ele>27.0</ele><time>2026-04-18T07:51:46.102Z</time></trkpt><trkpt lat="41.02724" lon="14.2850383"><ele>27.0</ele><time>2026-04-18T07:51:47.102Z</time></trkpt><trkpt lat="41.0273333" lon="14.2849733"><ele>27.000000000000004</ele><time>2026-04-18T07:51:48.102Z</time></trkpt><trkpt lat="41.02743" lon="14.284925"><ele>27.000000000000004</ele><time>2026-04-18T07:51:49.102Z</time></trkpt><trkpt lat="41.0275133" lon="14.284865"><ele>27.0</ele><time>2026-04-18T07:51:50.102Z</time></trkpt><trkpt lat="41.0275967" lon="14.2847883"><ele>27.0</ele><time>2026-04-18T07:51:51.102Z</time></trkpt><trkpt lat="41.0276867" lon="14.2847117"><ele>26.8</ele><time>2026-04-18T07:51:52.102Z</time></trkpt><trkpt lat="41.0277833" lon="14.2846433"><ele>26.6</ele><time>2026-04-18T07:51:53.102Z</time></trkpt><trkpt lat="41.0278783" lon="14.2845717"><ele>26.400000000000002</ele><time>2026-04-18T07:51:54.102Z</time></trkpt><trkpt lat="41.0279733" lon="14.2845033"><ele>26.200000000000003</ele><time>2026-04-18T07:51:55.102Z</time></trkpt><trkpt lat="41.0280717" lon="14.2844317"><ele>26.0</ele><time>2026-04-18T07:51:56.102Z</time></trkpt><trkpt lat="41.02817" lon="14.28436"><ele>26.0</ele><time>2026-04-18T07:51:57.102Z</time></trkpt><trkpt lat="41.0282767" lon="14.284285"><ele>26.0</ele><time>2026-04-18T07:51:58.102Z</time></trkpt><trkpt lat="41.0283767" lon="14.2842117"><ele>26.0</ele><time>2026-04-18T07:51:59.102Z</time></trkpt><trkpt lat="41.0284817" lon="14.2841317"><ele>26.0</ele><time>2026-04-18T07:52:00.102Z</time></trkpt><trkpt lat="41.0285983" lon="14.28405"><ele>26.0</ele><time>2026-04-18T07:52:01.102Z</time></trkpt><trkpt lat="41.0287067" lon="14.28397"><ele>26.0</ele><time>2026-04-18T07:52:02.102Z</time></trkpt><trkpt lat="41.0288183" lon="14.2838933"><ele>26.0</ele><time>2026-04-18T07:52:03.102Z</time></trkpt><trkpt lat="41.0289283" lon="14.28382"><ele>26.0</ele><time>2026-04-18T07:52:04.102Z</time></trkpt><trkpt lat="41.02904" lon="14.2837417"><ele>26.25</ele><time>2026-04-18T07:52:05.102Z</time></trkpt><trkpt lat="41.0291483" lon="14.283665"><ele>26.5</ele><time>2026-04-18T07:52:06.102Z</time></trkpt><trkpt lat="41.0292567" lon="14.2835867"><ele>26.75</ele><time>2026-04-18T07:52:07.102Z</time></trkpt><trkpt lat="41.0293667" lon="14.28351"><ele>27.0</ele><time>2026-04-18T07:52:08.102Z</time></trkpt><trkpt lat="41.0294767" lon="14.283435"><ele>27.0</ele><time>2026-04-18T07:52:09.102Z</time></trkpt><trkpt lat="41.029575" lon="14.283355"><ele>27.0</ele><time>2026-04-18T07:52:10.102Z</time></trkpt><trkpt lat="41.02968" lon="14.2832733"><ele>27.0</ele><time>2026-04-18T07:52:11.102Z</time></trkpt><trkpt lat="41.029785" lon="14.283205"><ele>27.0</ele><time>2026-04-18T07:52:12.102Z</time></trkpt><trkpt lat="41.0298983" lon="14.283145"><ele>26.25</ele><time>2026-04-18T07:52:13.102Z</time></trkpt><trkpt lat="41.0300183" lon="14.2830917"><ele>25.5</ele><time>2026-04-18T07:52:14.102Z</time></trkpt><trkpt lat="41.030135" lon="14.2830433"><ele>24.75</ele><time>2026-04-18T07:52:15.102Z</time></trkpt><trkpt lat="41.030245" lon="14.2830033"><ele>24.0</ele><time>2026-04-18T07:52:16.102Z</time></trkpt><trkpt lat="41.0303517" lon="14.2829733"><ele>24.0</ele><time>2026-04-18T07:52:17.102Z</time></trkpt><trkpt lat="41.030465" lon="14.2829467"><ele>24.0</ele><time>2026-04-18T07:52:18.102Z</time></trkpt><trkpt lat="41.03058" lon="14.282925"><ele>24.0</ele><time>2026-04-18T07:52:19.102Z</time></trkpt><trkpt lat="41.030695" lon="14.2829117"><ele>24.0</ele><time>2026-04-18T07:52:20.102Z</time></trkpt><trkpt lat="41.03081" lon="14.28291"><ele>24.0</ele><time>2026-04-18T07:52:21.102Z</time></trkpt><trkpt lat="41.0309183" lon="14.2829167"><ele>24.0</ele><time>2026-04-18T07:52:22.102Z</time></trkpt><trkpt lat="41.0310233" lon="14.2829183"><ele>24.0</ele><time>2026-04-18T07:52:23.102Z</time></trkpt><trkpt lat="41.03111" lon="14.28292"><ele>24.0</ele><time>2026-04-18T07:52:24.102Z</time></trkpt><trkpt lat="41.03118" lon="14.2829217"><ele>24.0</ele><time>2026-04-18T07:52:25.102Z</time></trkpt><trkpt lat="41.031275" lon="14.2829333"><ele>24.0</ele><time>2026-04-18T07:52:27.102Z</time></trkpt><trkpt lat="41.0313733" lon="14.2829383"><ele>24.0</ele><time>2026-04-18T07:52:30.102Z</time></trkpt><trkpt lat="41.0315017" lon="14.2829283"><ele>24.0</ele><time>2026-04-18T07:52:32.102Z</time></trkpt><trkpt lat="41.03161" lon="14.28292"><ele>24.0</ele><time>2026-04-18T07:52:33.102Z</time></trkpt><trkpt lat="41.0317317" lon="14.282915"><ele>24.25</ele><time>2026-04-18T07:52:34.102Z</time></trkpt><trkpt lat="41.0318633" lon="14.282915"><ele>24.5</ele><time>2026-04-18T07:52:35.102Z</time></trkpt><trkpt lat="41.032005" lon="14.2829133"><ele>24.75</ele><time>2026-04-18T07:52:36.102Z</time></trkpt><trkpt lat="41.032145" lon="14.2829167"><ele>25.0</ele><time>2026-04-18T07:52:37.102Z</time></trkpt><trkpt lat="41.0322767" lon="14.2829183"><ele>25.0</ele><time>2026-04-18T07:52:38.103Z</time></trkpt><trkpt lat="41.0324117" lon="14.2829117"><ele>25.0</ele><time>2026-04-18T07:52:39.102Z</time></trkpt><trkpt lat="41.0325267" lon="14.28291"><ele>25.0</ele><time>2026-04-18T07:52:40.102Z</time></trkpt><trkpt lat="41.0326283" lon="14.28291"><ele>25.0</ele><time>2026-04-18T07:52:41.102Z</time></trkpt><trkpt lat="41.03273" lon="14.28291"><ele>25.2</ele><time>2026-04-18T07:52:42.102Z</time></trkpt><trkpt lat="41.0328333" lon="14.2829033"><ele>25.4</ele><time>2026-04-18T07:52:43.102Z</time></trkpt><trkpt lat="41.032945" lon="14.2828917"><ele>25.6</ele><time>2026-04-18T07:52:44.102Z</time></trkpt><trkpt lat="41.0330583" lon="14.2828933"><ele>25.8</ele><time>2026-04-18T07:52:45.102Z</time></trkpt><trkpt lat="41.03316" lon="14.2828917"><ele>26.0</ele><time>2026-04-18T07:52:46.102Z</time></trkpt><trkpt lat="41.0332583" lon="14.2828917"><ele>26.200000000000003</ele><time>2026-04-18T07:52:47.102Z</time></trkpt><trkpt lat="41.0333517" lon="14.2828883"><ele>26.400000000000002</ele><time>2026-04-18T07:52:48.103Z</time></trkpt><trkpt lat="41.0334483" lon="14.282885"><ele>26.6</ele><time>2026-04-18T07:52:49.102Z</time></trkpt><trkpt lat="41.0335433" lon="14.2828883"><ele>26.8</ele><time>2026-04-18T07:52:50.102Z</time></trkpt><trkpt lat="41.033635" lon="14.2828933"><ele>27.0</ele><time>2026-04-18T07:52:51.103Z</time></trkpt><trkpt lat="41.0337217" lon="14.282895"><ele>27.0</ele><time>2026-04-18T07:52:52.102Z</time></trkpt><trkpt lat="41.0338083" lon="14.282895"><ele>27.0</ele><time>2026-04-18T07:52:53.102Z</time></trkpt><trkpt lat="41.0338967" lon="14.2828983"><ele>27.0</ele><time>2026-04-18T07:52:54.103Z</time></trkpt><trkpt lat="41.033985" lon="14.2829083"><ele>27.0</ele><time>2026-04-18T07:52:55.102Z</time></trkpt><trkpt lat="41.03407" lon="14.282905"><ele>27.0</ele><time>2026-04-18T07:52:56.103Z</time></trkpt><trkpt lat="41.03416" lon="14.2828983"><ele>27.0</ele><time>2026-04-18T07:52:57.102Z</time></trkpt><trkpt lat="41.0342567" lon="14.2828967"><ele>27.0</ele><time>2026-04-18T07:52:58.102Z</time></trkpt><trkpt lat="41.03435" lon="14.282895"><ele>27.000000000000004</ele><time>2026-04-18T07:52:59.102Z</time></trkpt><trkpt lat="41.0344383" lon="14.282895"><ele>27.000000000000004</ele><time>2026-04-18T07:53:00.102Z</time></trkpt><trkpt lat="41.0345317" lon="14.2828967"><ele>27.0</ele><time>2026-04-18T07:53:01.102Z</time></trkpt><trkpt lat="41.0346167" lon="14.2828967"><ele>27.0</ele><time>2026-04-18T07:53:02.102Z</time></trkpt><trkpt lat="41.0347167" lon="14.2829"><ele>27.0</ele><time>2026-04-18T07:53:03.102Z</time></trkpt><trkpt lat="41.0348317" lon="14.2828917"><ele>27.0</ele><time>2026-04-18T07:53:04.102Z</time></trkpt><trkpt lat="41.0349467" lon="14.2828833"><ele>27.0</ele><time>2026-04-18T07:53:05.103Z</time></trkpt><trkpt lat="41.0350683" lon="14.2828883"><ele>27.0</ele><time>2026-04-18T07:53:06.102Z</time></trkpt><trkpt lat="41.0351817" lon="14.2828817"><ele>27.200000000000003</ele><time>2026-04-18T07:53:07.102Z</time></trkpt><trkpt lat="41.0352983" lon="14.282875"><ele>27.400000000000002</ele><time>2026-04-18T07:53:08.102Z</time></trkpt><trkpt lat="41.0354117" lon="14.28287"><ele>27.599999999999998</ele><time>2026-04-18T07:53:09.102Z</time></trkpt><trkpt lat="41.0355083" lon="14.2828717"><ele>27.799999999999997</ele><time>2026-04-18T07:53:10.102Z</time></trkpt><trkpt lat="41.0355967" lon="14.282875"><ele>28.0</ele><time>2026-04-18T07:53:11.102Z</time></trkpt><trkpt lat="41.0356733" lon="14.2828767"><ele>28.000000000000004</ele><time>2026-04-18T07:53:12.102Z</time></trkpt><trkpt lat="41.0357533" lon="14.282875"><ele>28.0</ele><time>2026-04-18T07:53:13.103Z</time></trkpt><trkpt lat="41.03583" lon="14.2828767"><ele>28.0</ele><time>2026-04-18T07:53:14.102Z</time></trkpt><trkpt lat="41.0359017" lon="14.28288"><ele>28.0</ele><time>2026-04-18T07:53:15.102Z</time></trkpt><trkpt lat="41.0359767" lon="14.2828833"><ele>28.000000000000004</ele><time>2026-04-18T07:53:16.102Z</time></trkpt><trkpt lat="41.0360417" lon="14.28289"><ele>28.0</ele><time>2026-04-18T07:53:17.102Z</time></trkpt><trkpt lat="41.03616" lon="14.2829183"><ele>27.833333333333336</ele><time>2026-04-18T07:53:19.102Z</time></trkpt><trkpt lat="41.0362217" lon="14.28294"><ele>27.666666666666668</ele><time>2026-04-18T07:53:20.102Z</time></trkpt><trkpt lat="41.036285" lon="14.2829567"><ele>27.5</ele><time>2026-04-18T07:53:21.102Z</time></trkpt><trkpt lat="41.036395" lon="14.282995"><ele>27.333333333333336</ele><time>2026-04-18T07:53:23.102Z</time></trkpt><trkpt lat="41.03647" lon="14.28302"><ele>27.166666666666668</ele><time>2026-04-18T07:53:25.102Z</time></trkpt><trkpt lat="41.0365317" lon="14.28304"><ele>27.0</ele><time>2026-04-18T07:53:27.102Z</time></trkpt><trkpt lat="41.0366033" lon="14.2830533"><ele>26.833333333333332</ele><time>2026-04-18T07:53:29.102Z</time></trkpt><trkpt lat="41.036675" lon="14.2830733"><ele>26.666666666666664</ele><time>2026-04-18T07:53:31.102Z</time></trkpt><trkpt lat="41.0367417" lon="14.2830967"><ele>26.5</ele><time>2026-04-18T07:53:33.102Z</time></trkpt><trkpt lat="41.0368217" lon="14.2831433"><ele>26.333333333333332</ele><time>2026-04-18T07:53:35.102Z</time></trkpt><trkpt lat="41.0368867" lon="14.2831833"><ele>26.166666666666664</ele><time>2026-04-18T07:53:37.102Z</time></trkpt><trkpt lat="41.036975" lon="14.2832183"><ele>26.0</ele><time>2026-04-18T07:53:40.102Z</time></trkpt><trkpt lat="41.0370433" lon="14.2832233"><ele>25.999999999999996</ele><time>2026-04-18T07:53:42.102Z</time></trkpt><trkpt lat="41.0371233" lon="14.2831967"><ele>26.0</ele><time>2026-04-18T07:53:44.102Z</time></trkpt><trkpt lat="41.037235" lon="14.2831433"><ele>26.0</ele><time>2026-04-18T07:53:46.102Z</time></trkpt><trkpt lat="41.0373017" lon="14.2831117"><ele>26.0</ele><time>2026-04-18T07:53:47.102Z</time></trkpt><trkpt lat="41.037375" lon="14.2830917"><ele>25.999999999999996</ele><time>2026-04-18T07:53:48.102Z</time></trkpt><trkpt lat="41.037455" lon="14.2830767"><ele>26.0</ele><time>2026-04-18T07:53:49.102Z</time></trkpt><trkpt lat="41.037535" lon="14.2830583"><ele>26.333333333333332</ele><time>2026-04-18T07:53:50.102Z</time></trkpt><trkpt lat="41.0376117" lon="14.283045"><ele>26.666666666666664</ele><time>2026-04-18T07:53:51.102Z</time></trkpt><trkpt lat="41.0376783" lon="14.2830267"><ele>27.0</ele><time>2026-04-18T07:53:52.102Z</time></trkpt><trkpt lat="41.0377433" lon="14.28301"><ele>27.333333333333336</ele><time>2026-04-18T07:53:53.102Z</time></trkpt><trkpt lat="41.0378183" lon="14.2829883"><ele>27.666666666666668</ele><time>2026-04-18T07:53:54.102Z</time></trkpt><trkpt lat="41.0378983" lon="14.28296"><ele>28.0</ele><time>2026-04-18T07:53:55.102Z</time></trkpt><trkpt lat="41.03799" lon="14.2829233"><ele>28.0</ele><time>2026-04-18T07:53:56.102Z</time></trkpt><trkpt lat="41.0380883" lon="14.2828983"><ele>27.999999999999996</ele><time>2026-04-18T07:53:57.102Z</time></trkpt><trkpt lat="41.0381933" lon="14.2828833"><ele>27.999999999999996</ele><time>2026-04-18T07:53:58.102Z</time></trkpt><trkpt lat="41.0382917" lon="14.2828767"><ele>28.0</ele><time>2026-04-18T07:53:59.102Z</time></trkpt><trkpt lat="41.0384" lon="14.2828667"><ele>28.0</ele><time>2026-04-18T07:54:00.102Z</time></trkpt><trkpt lat="41.038515" lon="14.2828617"><ele>27.5</ele><time>2026-04-18T07:54:01.102Z</time></trkpt><trkpt lat="41.0386633" lon="14.28286"><ele>27.0</ele><time>2026-04-18T07:54:02.102Z</time></trkpt><trkpt lat="41.0388083" lon="14.2828717"><ele>26.5</ele><time>2026-04-18T07:54:03.102Z</time></trkpt><trkpt lat="41.038955" lon="14.2828717"><ele>26.0</ele><time>2026-04-18T07:54:04.102Z</time></trkpt><trkpt lat="41.0391017" lon="14.28287"><ele>26.0</ele><time>2026-04-18T07:54:05.102Z</time></trkpt><trkpt lat="41.039255" lon="14.2828717"><ele>26.0</ele><time>2026-04-18T07:54:06.102Z</time></trkpt><trkpt lat="41.0394067" lon="14.2828683"><ele>26.0</ele><time>2026-04-18T07:54:07.102Z</time></trkpt><trkpt lat="41.03955" lon="14.2828633"><ele>26.0</ele><time>2026-04-18T07:54:08.103Z</time></trkpt><trkpt lat="41.0396867" lon="14.2828583"><ele>26.0</ele><time>2026-04-18T07:54:09.102Z</time></trkpt><trkpt lat="41.0398217" lon="14.28285"><ele>26.0</ele><time>2026-04-18T07:54:10.102Z</time></trkpt><trkpt lat="41.039955" lon="14.2828483"><ele>26.0</ele><time>2026-04-18T07:54:11.102Z</time></trkpt><trkpt lat="41.0400933" lon="14.28285"><ele>26.0</ele><time>2026-04-18T07:54:12.102Z</time></trkpt><trkpt lat="41.04023" lon="14.2828467"><ele>26.25</ele><time>2026-04-18T07:54:13.102Z</time></trkpt><trkpt lat="41.0403667" lon="14.28285"><ele>26.5</ele><time>2026-04-18T07:54:14.102Z</time></trkpt><trkpt lat="41.0405" lon="14.2828467"><ele>26.75</ele><time>2026-04-18T07:54:15.102Z</time></trkpt><trkpt lat="41.0406333" lon="14.2828433"><ele>27.0</ele><time>2026-04-18T07:54:16.102Z</time></trkpt><trkpt lat="41.0407667" lon="14.2828333"><ele>27.25</ele><time>2026-04-18T07:54:17.102Z</time></trkpt><trkpt lat="41.0408983" lon="14.2828267"><ele>27.5</ele><time>2026-04-18T07:54:18.103Z</time></trkpt><trkpt lat="41.0410333" lon="14.282825"><ele>27.75</ele><time>2026-04-18T07:54:19.102Z</time></trkpt><trkpt lat="41.0411617" lon="14.2828217"><ele>28.0</ele><time>2026-04-18T07:54:20.102Z</time></trkpt><trkpt lat="41.0412933" lon="14.282815"><ele>28.0</ele><time>2026-04-18T07:54:21.102Z</time></trkpt><trkpt lat="41.0414283" lon="14.28281"><ele>28.0</ele><time>2026-04-18T07:54:22.102Z</time></trkpt><trkpt lat="41.041565" lon="14.2828083"><ele>28.0</ele><time>2026-04-18T07:54:23.102Z</time></trkpt><trkpt lat="41.0417033" lon="14.2828083"><ele>28.0</ele><time>2026-04-18T07:54:24.102Z</time></trkpt><trkpt lat="41.04184" lon="14.2828017"><ele>27.75</ele><time>2026-04-18T07:54:25.102Z</time></trkpt><trkpt lat="41.041975" lon="14.2827933"><ele>27.5</ele><time>2026-04-18T07:54:26.102Z</time></trkpt><trkpt lat="41.04211" lon="14.28278"><ele>27.25</ele><time>2026-04-18T07:54:27.102Z</time></trkpt><trkpt lat="41.042255" lon="14.2827683"><ele>27.0</ele><time>2026-04-18T07:54:28.102Z</time></trkpt><trkpt lat="41.0424017" lon="14.2827667"><ele>27.0</ele><time>2026-04-18T07:54:29.102Z</time></trkpt><trkpt lat="41.0425517" lon="14.2827617"><ele>27.0</ele><time>2026-04-18T07:54:30.102Z</time></trkpt><trkpt lat="41.042705" lon="14.2827567"><ele>27.0</ele><time>2026-04-18T07:54:31.102Z</time></trkpt><trkpt lat="41.0428633" lon="14.2827483"><ele>27.0</ele><time>2026-04-18T07:54:32.102Z</time></trkpt><trkpt lat="41.0430083" lon="14.2827433"><ele>27.0</ele><time>2026-04-18T07:54:33.102Z</time></trkpt><trkpt lat="41.04314" lon="14.28274"><ele>27.0</ele><time>2026-04-18T07:54:34.102Z</time></trkpt><trkpt lat="41.0432617" lon="14.2827383"><ele>27.0</ele><time>2026-04-18T07:54:35.102Z</time></trkpt><trkpt lat="41.04338" lon="14.28274"><ele>26.75</ele><time>2026-04-18T07:54:36.102Z</time></trkpt><trkpt lat="41.0435017" lon="14.2827367"><ele>26.5</ele><time>2026-04-18T07:54:37.102Z</time></trkpt><trkpt lat="41.043625" lon="14.282735"><ele>26.25</ele><time>2026-04-18T07:54:38.102Z</time></trkpt><trkpt lat="41.0437517" lon="14.2827333"><ele>26.0</ele><time>2026-04-18T07:54:39.102Z</time></trkpt><trkpt lat="41.0438783" lon="14.2827183"><ele>26.0</ele><time>2026-04-18T07:54:40.102Z</time></trkpt><trkpt lat="41.0440117" lon="14.2827133"><ele>26.0</ele><time>2026-04-18T07:54:41.102Z</time></trkpt><trkpt lat="41.044155" lon="14.282715"><ele>26.0</ele><time>2026-04-18T07:54:42.102Z</time></trkpt><trkpt lat="41.044305" lon="14.2827217"><ele>26.0</ele><time>2026-04-18T07:54:43.102Z</time></trkpt><trkpt lat="41.0444583" lon="14.2827233"><ele>26.333333333333332</ele><time>2026-04-18T07:54:44.102Z</time></trkpt><trkpt lat="41.0446167" lon="14.28273"><ele>26.666666666666664</ele><time>2026-04-18T07:54:45.102Z</time></trkpt><trkpt lat="41.0447767" lon="14.2827333"><ele>27.0</ele><time>2026-04-18T07:54:46.103Z</time></trkpt><trkpt lat="41.0449417" lon="14.2827333"><ele>26.333333333333336</ele><time>2026-04-18T07:54:47.102Z</time></trkpt><trkpt lat="41.0451133" lon="14.282735"><ele>25.666666666666668</ele><time>2026-04-18T07:54:48.103Z</time></trkpt><trkpt lat="41.045285" lon="14.2827383"><ele>25.0</ele><time>2026-04-18T07:54:49.102Z</time></trkpt><trkpt lat="41.0454617" lon="14.2827417"><ele>25.0</ele><time>2026-04-18T07:54:50.102Z</time></trkpt><trkpt lat="41.045635" lon="14.28274"><ele>25.0</ele><time>2026-04-18T07:54:51.102Z</time></trkpt><trkpt lat="41.0458067" lon="14.2827433"><ele>25.0</ele><time>2026-04-18T07:54:52.103Z</time></trkpt><trkpt lat="41.045985" lon="14.282745"><ele>25.333333333333336</ele><time>2026-04-18T07:54:53.102Z</time></trkpt><trkpt lat="41.0461683" lon="14.2827417"><ele>25.666666666666664</ele><time>2026-04-18T07:54:54.102Z</time></trkpt><trkpt lat="41.0463483" lon="14.28274"><ele>26.0</ele><time>2026-04-18T07:54:55.102Z</time></trkpt><trkpt lat="41.0465233" lon="14.2827433"><ele>26.0</ele><time>2026-04-18T07:54:56.102Z</time></trkpt><trkpt lat="41.046705" lon="14.2827483"><ele>26.0</ele><time>2026-04-18T07:54:57.102Z</time></trkpt><trkpt lat="41.046895" lon="14.28276"><ele>26.0</ele><time>2026-04-18T07:54:58.102Z</time></trkpt><trkpt lat="41.0470917" lon="14.282765"><ele>26.0</ele><time>2026-04-18T07:54:59.102Z</time></trkpt><trkpt lat="41.0472733" lon="14.282765"><ele>26.0</ele><time>2026-04-18T07:55:00.102Z</time></trkpt><trkpt lat="41.047445" lon="14.2827683"><ele>26.0</ele><time>2026-04-18T07:55:01.102Z</time></trkpt><trkpt lat="41.0476133" lon="14.2827683"><ele>26.333333333333332</ele><time>2026-04-18T07:55:02.102Z</time></trkpt><trkpt lat="41.047775" lon="14.2827717"><ele>26.666666666666664</ele><time>2026-04-18T07:55:03.102Z</time></trkpt><trkpt lat="41.0479317" lon="14.2827783"><ele>27.0</ele><time>2026-04-18T07:55:04.102Z</time></trkpt><trkpt lat="41.0480867" lon="14.28278"><ele>27.0</ele><time>2026-04-18T07:55:05.102Z</time></trkpt><trkpt lat="41.0482383" lon="14.2827783"><ele>27.0</ele><time>2026-04-18T07:55:06.102Z</time></trkpt><trkpt lat="41.0483883" lon="14.2827733"><ele>27.0</ele><time>2026-04-18T07:55:07.102Z</time></trkpt><trkpt lat="41.0485383" lon="14.2827717"><ele>27.25</ele><time>2026-04-18T07:55:08.102Z</time></trkpt><trkpt lat="41.0486867" lon="14.2827733"><ele>27.5</ele><time>2026-04-18T07:55:09.102Z</time></trkpt><trkpt lat="41.048835" lon="14.2827717"><ele>27.75</ele><time>2026-04-18T07:55:10.102Z</time></trkpt><trkpt lat="41.0489617" lon="14.282775"><ele>28.0</ele><time>2026-04-18T07:55:11.102Z</time></trkpt><trkpt lat="41.0490733" lon="14.282775"><ele>28.333333333333336</ele><time>2026-04-18T07:55:12.102Z</time></trkpt><trkpt lat="41.0491617" lon="14.2827733"><ele>28.666666666666668</ele><time>2026-04-18T07:55:13.102Z</time></trkpt><trkpt lat="41.0492383" lon="14.2827783"><ele>29.0</ele><time>2026-04-18T07:55:14.103Z</time></trkpt><trkpt lat="41.0493067" lon="14.282775"><ele>29.333333333333336</ele><time>2026-04-18T07:55:15.102Z</time></trkpt><trkpt lat="41.04937" lon="14.2827767"><ele>29.666666666666668</ele><time>2026-04-18T07:55:16.102Z</time></trkpt><trkpt lat="41.0494567" lon="14.2827717"><ele>30.0</ele><time>2026-04-18T07:55:18.102Z</time></trkpt><trkpt lat="41.049535" lon="14.2827617"><ele>30.0</ele><time>2026-04-18T07:55:20.102Z</time></trkpt><trkpt lat="41.049625" lon="14.2827667"><ele>30.0</ele><time>2026-04-18T07:55:22.102Z</time></trkpt><trkpt lat="41.0496917" lon="14.282775"><ele>30.0</ele><time>2026-04-18T07:55:24.102Z</time></trkpt><trkpt lat="41.0497733" lon="14.2827717"><ele>30.0</ele><time>2026-04-18T07:55:26.102Z</time></trkpt><trkpt lat="41.0498383" lon="14.2827567"><ele>30.0</ele><time>2026-04-18T07:55:28.102Z</time></trkpt><trkpt lat="41.0499217" lon="14.282755"><ele>30.0</ele><time>2026-04-18T07:55:31.102Z</time></trkpt><trkpt lat="41.049985" lon="14.2827533"><ele>30.0</ele><time>2026-04-18T07:55:33.102Z</time></trkpt><trkpt lat="41.050075" lon="14.282755"><ele>30.0</ele><time>2026-04-18T07:55:35.102Z</time></trkpt><trkpt lat="41.05019" lon="14.2827533"><ele>30.0</ele><time>2026-04-18T07:55:37.102Z</time></trkpt><trkpt lat="41.0503183" lon="14.28275"><ele>30.0</ele><time>2026-04-18T07:55:39.102Z</time></trkpt><trkpt lat="41.05039" lon="14.2827433"><ele>30.0</ele><time>2026-04-18T07:55:40.102Z</time></trkpt><trkpt lat="41.0504667" lon="14.28274"><ele>30.0</ele><time>2026-04-18T07:55:41.102Z</time></trkpt><trkpt lat="41.0505417" lon="14.2827383"><ele>30.0</ele><time>2026-04-18T07:55:42.102Z</time></trkpt><trkpt lat="41.0506217" lon="14.2827333"><ele>30.0</ele><time>2026-04-18T07:55:43.102Z</time></trkpt><trkpt lat="41.0507" lon="14.28273"><ele>30.0</ele><time>2026-04-18T07:55:44.102Z</time></trkpt><trkpt lat="41.0507783" lon="14.28272"><ele>30.0</ele><time>2026-04-18T07:55:45.102Z</time></trkpt><trkpt lat="41.0508567" lon="14.282715"><ele>30.0</ele><time>2026-04-18T07:55:46.102Z</time></trkpt><trkpt lat="41.05094" lon="14.28271"><ele>30.0</ele><time>2026-04-18T07:55:47.102Z</time></trkpt><trkpt lat="41.05102" lon="14.282715"><ele>30.0</ele><time>2026-04-18T07:55:48.102Z</time></trkpt><trkpt lat="41.0510933" lon="14.2827167"><ele>30.0</ele><time>2026-04-18T07:55:49.102Z</time></trkpt><trkpt lat="41.0511567" lon="14.2827167"><ele>30.0</ele><time>2026-04-18T07:55:50.102Z</time></trkpt><trkpt lat="41.051285" lon="14.282715"><ele>30.0</ele><time>2026-04-18T07:55:52.102Z</time></trkpt><trkpt lat="41.05136" lon="14.2827133"><ele>30.0</ele><time>2026-04-18T07:55:53.102Z</time></trkpt><trkpt lat="41.0514383" lon="14.282715"><ele>30.0</ele><time>2026-04-18T07:55:54.102Z</time></trkpt><trkpt lat="41.0515133" lon="14.2827217"><ele>30.0</ele><time>2026-04-18T07:55:55.102Z</time></trkpt><trkpt lat="41.0515783" lon="14.2827183"><ele>30.0</ele><time>2026-04-18T07:55:56.102Z</time></trkpt><trkpt lat="41.0516933" lon="14.2827217"><ele>30.0</ele><time>2026-04-18T07:55:58.102Z</time></trkpt><trkpt lat="41.051805" lon="14.28272"><ele>30.0</ele><time>2026-04-18T07:56:00.103Z</time></trkpt><trkpt lat="41.05192" lon="14.282725"><ele>30.5</ele><time>2026-04-18T07:56:02.102Z</time></trkpt><trkpt lat="41.0520033" lon="14.28273"><ele>31.0</ele><time>2026-04-18T07:56:04.102Z</time></trkpt><trkpt lat="41.0520983" lon="14.28274"><ele>31.5</ele><time>2026-04-18T07:56:06.102Z</time></trkpt><trkpt lat="41.0522117" lon="14.282735"><ele>32.0</ele><time>2026-04-18T07:56:08.102Z</time></trkpt><trkpt lat="41.0522817" lon="14.2827283"><ele>32.5</ele><time>2026-04-18T07:56:09.102Z</time></trkpt><trkpt lat="41.05236" lon="14.28272"><ele>33.0</ele><time>2026-04-18T07:56:10.102Z</time></trkpt><trkpt lat="41.0524483" lon="14.28272"><ele>33.166666666666664</ele><time>2026-04-18T07:56:11.102Z</time></trkpt><trkpt lat="41.052535" lon="14.2827167"><ele>33.333333333333336</ele><time>2026-04-18T07:56:12.102Z</time></trkpt><trkpt lat="41.05262" lon="14.2827117"><ele>33.5</ele><time>2026-04-18T07:56:13.102Z</time></trkpt><trkpt lat="41.0527017" lon="14.28272"><ele>33.66666666666667</ele><time>2026-04-18T07:56:14.102Z</time></trkpt><trkpt lat="41.05278" lon="14.2827067"><ele>33.833333333333336</ele><time>2026-04-18T07:56:15.102Z</time></trkpt><trkpt lat="41.0528633" lon="14.2827067"><ele>34.0</ele><time>2026-04-18T07:56:16.103Z</time></trkpt><trkpt lat="41.052945" lon="14.282705"><ele>34.0</ele><time>2026-04-18T07:56:17.102Z</time></trkpt><trkpt lat="41.05303" lon="14.2827033"><ele>34.0</ele><time>2026-04-18T07:56:18.102Z</time></trkpt><trkpt lat="41.0531183" lon="14.28271"><ele>34.0</ele><time>2026-04-18T07:56:19.102Z</time></trkpt><trkpt lat="41.0532117" lon="14.2827167"><ele>34.0</ele><time>2026-04-18T07:56:20.102Z</time></trkpt><trkpt lat="41.0533" lon="14.28272"><ele>34.0</ele><time>2026-04-18T07:56:21.102Z</time></trkpt><trkpt lat="41.0533883" lon="14.28271"><ele>34.0</ele><time>2026-04-18T07:56:22.102Z</time></trkpt><trkpt lat="41.0534867" lon="14.2827133"><ele>34.0</ele><time>2026-04-18T07:56:23.102Z</time></trkpt><trkpt lat="41.0535867" lon="14.2827133"><ele>34.0</ele><time>2026-04-18T07:56:24.102Z</time></trkpt><trkpt lat="41.0536767" lon="14.2827217"><ele>34.0</ele><time>2026-04-18T07:56:25.102Z</time></trkpt><trkpt lat="41.0537617" lon="14.282725"><ele>34.0</ele><time>2026-04-18T07:56:26.102Z</time></trkpt><trkpt lat="41.0538283" lon="14.2827283"><ele>34.0</ele><time>2026-04-18T07:56:27.102Z</time></trkpt><trkpt lat="41.05394" lon="14.28273"><ele>34.0</ele><time>2026-04-18T07:56:29.102Z</time></trkpt><trkpt lat="41.0540583" lon="14.2827233"><ele>34.0</ele><time>2026-04-18T07:56:31.102Z</time></trkpt><trkpt lat="41.05414" lon="14.2827"><ele>34.0</ele><time>2026-04-18T07:56:32.102Z</time></trkpt><trkpt lat="41.0542233" lon="14.2826833"><ele>34.0</ele><time>2026-04-18T07:56:33.102Z</time></trkpt><trkpt lat="41.05431" lon="14.28267"><ele>34.0</ele><time>2026-04-18T07:56:34.102Z</time></trkpt><trkpt lat="41.0543983" lon="14.2826817"><ele>34.16666666666667</ele><time>2026-04-18T07:56:35.102Z</time></trkpt><trkpt lat="41.0544883" lon="14.2826833"><ele>34.333333333333336</ele><time>2026-04-18T07:56:36.102Z</time></trkpt><trkpt lat="41.0545733" lon="14.2826883"><ele>34.5</ele><time>2026-04-18T07:56:37.102Z</time></trkpt><trkpt lat="41.0546533" lon="14.2826933"><ele>34.666666666666664</ele><time>2026-04-18T07:56:38.103Z</time></trkpt><trkpt lat="41.0547383" lon="14.2827"><ele>34.83333333333333</ele><time>2026-04-18T07:56:39.102Z</time></trkpt><trkpt lat="41.0548167" lon="14.2827"><ele>35.0</ele><time>2026-04-18T07:56:40.102Z</time></trkpt><trkpt lat="41.0548867" lon="14.2827067"><ele>35.0</ele><time>2026-04-18T07:56:41.102Z</time></trkpt><trkpt lat="41.0549533" lon="14.2827083"><ele>35.0</ele><time>2026-04-18T07:56:42.102Z</time></trkpt><trkpt lat="41.0550267" lon="14.2827133"><ele>35.0</ele><time>2026-04-18T07:56:43.102Z</time></trkpt><trkpt lat="41.0551017" lon="14.2827083"><ele>35.0</ele><time>2026-04-18T07:56:44.102Z</time></trkpt><trkpt lat="41.0551767" lon="14.28271"><ele>35.0</ele><time>2026-04-18T07:56:45.102Z</time></trkpt><trkpt lat="41.0552533" lon="14.2827117"><ele>35.0</ele><time>2026-04-18T07:56:46.102Z</time></trkpt><trkpt lat="41.055335" lon="14.2827167"><ele>35.0</ele><time>2026-04-18T07:56:47.103Z</time></trkpt><trkpt lat="41.0554067" lon="14.2827217"><ele>35.0</ele><time>2026-04-18T07:56:48.102Z</time></trkpt><trkpt lat="41.0554733" lon="14.2827183"><ele>35.0</ele><time>2026-04-18T07:56:49.102Z</time></trkpt><trkpt lat="41.0555783" lon="14.2827167"><ele>35.0</ele><time>2026-04-18T07:56:51.102Z</time></trkpt><trkpt lat="41.0556867" lon="14.2827067"><ele>35.0</ele><time>2026-04-18T07:56:53.102Z</time></trkpt><trkpt lat="41.0557917" lon="14.2827083"><ele>35.0</ele><time>2026-04-18T07:56:55.102Z</time></trkpt><trkpt lat="41.0559017" lon="14.2826933"><ele>35.0</ele><time>2026-04-18T07:56:57.102Z</time></trkpt><trkpt lat="41.0559683" lon="14.2826983"><ele>35.0</ele><time>2026-04-18T07:56:59.102Z</time></trkpt><trkpt lat="41.0560567" lon="14.2826867"><ele>35.0</ele><time>2026-04-18T07:57:02.102Z</time></trkpt><trkpt lat="41.0561333" lon="14.2826383"><ele>35.0</ele><time>2026-04-18T07:57:04.102Z</time></trkpt><trkpt lat="41.0562317" lon="14.2826217"><ele>35.0</ele><time>2026-04-18T07:57:06.102Z</time></trkpt><trkpt lat="41.056295" lon="14.28262"><ele>35.0</ele><time>2026-04-18T07:57:07.102Z</time></trkpt><trkpt lat="41.0563667" lon="14.2826283"><ele>35.0</ele><time>2026-04-18T07:57:08.102Z</time></trkpt><trkpt lat="41.0564517" lon="14.2826317"><ele>35.0</ele><time>2026-04-18T07:57:09.102Z</time></trkpt><trkpt lat="41.05653" lon="14.2826267"><ele>35.0</ele><time>2026-04-18T07:57:10.102Z</time></trkpt><trkpt lat="41.0565967" lon="14.2826133"><ele>35.0</ele><time>2026-04-18T07:57:11.102Z</time></trkpt><trkpt lat="41.0566617" lon="14.2826033"><ele>35.0</ele><time>2026-04-18T07:57:12.102Z</time></trkpt><trkpt lat="41.0567733" lon="14.2825783"><ele>35.0</ele><time>2026-04-18T07:57:14.102Z</time></trkpt><trkpt lat="41.0568767" lon="14.2825967"><ele>34.8</ele><time>2026-04-18T07:57:16.102Z</time></trkpt><trkpt lat="41.0569383" lon="14.2826167"><ele>34.6</ele><time>2026-04-18T07:57:17.103Z</time></trkpt><trkpt lat="41.0570233" lon="14.2826317"><ele>34.4</ele><time>2026-04-18T07:57:19.102Z</time></trkpt><trkpt lat="41.0571817" lon="14.28266"><ele>34.2</ele><time>2026-04-18T07:57:38.102Z</time></trkpt><trkpt lat="41.05727" lon="14.282655"><ele>34.0</ele><time>2026-04-18T07:57:39.102Z</time></trkpt><trkpt lat="41.0573867" lon="14.2826583"><ele>34.2</ele><time>2026-04-18T07:57:40.102Z</time></trkpt><trkpt lat="41.0574867" lon="14.2826667"><ele>34.4</ele><time>2026-04-18T07:57:41.102Z</time></trkpt><trkpt lat="41.057575" lon="14.2826683"><ele>34.6</ele><time>2026-04-18T07:57:42.102Z</time></trkpt><trkpt lat="41.0576617" lon="14.2826717"><ele>34.8</ele><time>2026-04-18T07:57:43.102Z</time></trkpt><trkpt lat="41.0577533" lon="14.2826717"><ele>35.0</ele><time>2026-04-18T07:57:44.102Z</time></trkpt><trkpt lat="41.0578433" lon="14.2826767"><ele>35.0</ele><time>2026-04-18T07:57:45.102Z</time></trkpt><trkpt lat="41.0579217" lon="14.2826733"><ele>35.0</ele><time>2026-04-18T07:57:46.102Z</time></trkpt><trkpt lat="41.0579933" lon="14.2826733"><ele>35.0</ele><time>2026-04-18T07:57:47.102Z</time></trkpt><trkpt lat="41.0580567" lon="14.2826733"><ele>35.0</ele><time>2026-04-18T07:57:48.102Z</time></trkpt><trkpt lat="41.05817" lon="14.2826667"><ele>35.0</ele><time>2026-04-18T07:57:50.102Z</time></trkpt><trkpt lat="41.0582483" lon="14.28266"><ele>35.0</ele><time>2026-04-18T07:57:52.102Z</time></trkpt><trkpt lat="41.0583117" lon="14.2826483"><ele>35.33333333333333</ele><time>2026-04-18T07:57:54.102Z</time></trkpt><trkpt lat="41.0584" lon="14.2826617"><ele>35.666666666666664</ele><time>2026-04-18T07:57:57.102Z</time></trkpt><trkpt lat="41.0584667" lon="14.282665"><ele>36.0</ele><time>2026-04-18T07:57:59.102Z</time></trkpt><trkpt lat="41.0585567" lon="14.2826783"><ele>36.333333333333336</ele><time>2026-04-18T07:58:01.102Z</time></trkpt><trkpt lat="41.0586433" lon="14.2826833"><ele>36.66666666666667</ele><time>2026-04-18T07:58:03.102Z</time></trkpt><trkpt lat="41.0587367" lon="14.28268"><ele>37.0</ele><time>2026-04-18T07:58:05.102Z</time></trkpt><trkpt lat="41.0588533" lon="14.2826767"><ele>37.0</ele><time>2026-04-18T07:58:07.102Z</time></trkpt><trkpt lat="41.0589167" lon="14.2826717"><ele>37.0</ele><time>2026-04-18T07:58:08.102Z</time></trkpt><trkpt lat="41.05898" lon="14.282665"><ele>37.0</ele><time>2026-04-18T07:58:09.102Z</time></trkpt><trkpt lat="41.0590933" lon="14.2826567"><ele>37.0</ele><time>2026-04-18T07:58:11.102Z</time></trkpt><trkpt lat="41.059205" lon="14.2826617"><ele>37.0</ele><time>2026-04-18T07:58:13.102Z</time></trkpt><trkpt lat="41.0593133" lon="14.2826583"><ele>37.0</ele><time>2026-04-18T07:58:15.102Z</time></trkpt><trkpt lat="41.05944" lon="14.282675"><ele>37.0</ele><time>2026-04-18T07:58:17.102Z</time></trkpt><trkpt lat="41.0595133" lon="14.2826733"><ele>37.0</ele><time>2026-04-18T07:58:18.102Z</time></trkpt><trkpt lat="41.0595883" lon="14.2826583"><ele>37.0</ele><time>2026-04-18T07:58:19.102Z</time></trkpt><trkpt lat="41.0596583" lon="14.2826567"><ele>37.0</ele><time>2026-04-18T07:58:20.102Z</time></trkpt><trkpt lat="41.0597867" lon="14.282665"><ele>37.0</ele><time>2026-04-18T07:58:22.102Z</time></trkpt><trkpt lat="41.05991" lon="14.2826783"><ele>37.0</ele><time>2026-04-18T07:58:24.102Z</time></trkpt><trkpt lat="41.0599817" lon="14.282675"><ele>37.0</ele><time>2026-04-18T07:58:25.102Z</time></trkpt><trkpt lat="41.0600567" lon="14.2826733"><ele>37.0</ele><time>2026-04-18T07:58:26.102Z</time></trkpt><trkpt lat="41.0601367" lon="14.2826667"><ele>37.0</ele><time>2026-04-18T07:58:27.102Z</time></trkpt><trkpt lat="41.060215" lon="14.2826633"><ele>37.0</ele><time>2026-04-18T07:58:28.102Z</time></trkpt><trkpt lat="41.0602933" lon="14.28266"><ele>36.6</ele><time>2026-04-18T07:58:29.102Z</time></trkpt><trkpt lat="41.060365" lon="14.2826617"><ele>36.2</ele><time>2026-04-18T07:58:30.102Z</time></trkpt><trkpt lat="41.0604383" lon="14.2826567"><ele>35.8</ele><time>2026-04-18T07:58:31.102Z</time></trkpt><trkpt lat="41.0605617" lon="14.282655"><ele>35.4</ele><time>2026-04-18T07:58:33.102Z</time></trkpt><trkpt lat="41.0606667" lon="14.282655"><ele>35.0</ele><time>2026-04-18T07:58:35.102Z</time></trkpt><trkpt lat="41.06077" lon="14.2826567"><ele>35.6</ele><time>2026-04-18T07:58:37.102Z</time></trkpt><trkpt lat="41.0608933" lon="14.2826483"><ele>36.2</ele><time>2026-04-18T07:58:39.102Z</time></trkpt><trkpt lat="41.0610117" lon="14.282655"><ele>36.8</ele><time>2026-04-18T07:58:41.102Z</time></trkpt><trkpt lat="41.061135" lon="14.2826567"><ele>37.4</ele><time>2026-04-18T07:58:43.102Z</time></trkpt><trkpt lat="41.061205" lon="14.2826583"><ele>38.0</ele><time>2026-04-18T07:58:44.103Z</time></trkpt><trkpt lat="41.061275" lon="14.2826567"><ele>38.0</ele><time>2026-04-18T07:58:45.102Z</time></trkpt><trkpt lat="41.0613383" lon="14.2826567"><ele>38.0</ele><time>2026-04-18T07:58:46.102Z</time></trkpt><trkpt lat="41.061465" lon="14.2826633"><ele>38.0</ele><time>2026-04-18T07:58:48.102Z</time></trkpt><trkpt lat="41.06153" lon="14.2826617"><ele>38.0</ele><time>2026-04-18T07:58:49.102Z</time></trkpt><trkpt lat="41.0616533" lon="14.282655"><ele>38.0</ele><time>2026-04-18T07:58:51.102Z</time></trkpt><trkpt lat="41.0617233" lon="14.28265"><ele>38.0</ele><time>2026-04-18T07:58:52.102Z</time></trkpt><trkpt lat="41.0617933" lon="14.2826417"><ele>38.166666666666664</ele><time>2026-04-18T07:58:53.102Z</time></trkpt><trkpt lat="41.0618583" lon="14.28263"><ele>38.33333333333333</ele><time>2026-04-18T07:58:54.102Z</time></trkpt><trkpt lat="41.0619283" lon="14.2826367"><ele>38.5</ele><time>2026-04-18T07:58:55.102Z</time></trkpt><trkpt lat="41.0619967" lon="14.2826483"><ele>38.666666666666664</ele><time>2026-04-18T07:58:56.102Z</time></trkpt><trkpt lat="41.062065" lon="14.2826567"><ele>38.833333333333336</ele><time>2026-04-18T07:58:57.102Z</time></trkpt><trkpt lat="41.0621783" lon="14.282665"><ele>39.0</ele><time>2026-04-18T07:58:59.102Z</time></trkpt><trkpt lat="41.0622617" lon="14.2826717"><ele>39.0</ele><time>2026-04-18T07:59:01.103Z</time></trkpt><trkpt lat="41.0623617" lon="14.2826683"><ele>39.0</ele><time>2026-04-18T07:59:03.102Z</time></trkpt><trkpt lat="41.0624583" lon="14.2826633"><ele>39.0</ele><time>2026-04-18T07:59:05.102Z</time></trkpt><trkpt lat="41.0625467" lon="14.2826733"><ele>39.0</ele><time>2026-04-18T07:59:07.102Z</time></trkpt><trkpt lat="41.0626367" lon="14.2826733"><ele>39.0</ele><time>2026-04-18T07:59:09.102Z</time></trkpt><trkpt lat="41.0627383" lon="14.2826667"><ele>38.8</ele><time>2026-04-18T07:59:11.102Z</time></trkpt><trkpt lat="41.0628567" lon="14.2826717"><ele>38.599999999999994</ele><time>2026-04-18T07:59:13.102Z</time></trkpt><trkpt lat="41.0629217" lon="14.28267"><ele>38.4</ele><time>2026-04-18T07:59:14.102Z</time></trkpt><trkpt lat="41.063035" lon="14.28267"><ele>38.199999999999996</ele><time>2026-04-18T07:59:16.102Z</time></trkpt><trkpt lat="41.063125" lon="14.2826767"><ele>38.0</ele><time>2026-04-18T07:59:18.102Z</time></trkpt><trkpt lat="41.0632183" lon="14.28267"><ele>38.0</ele><time>2026-04-18T07:59:21.102Z</time></trkpt><trkpt lat="41.0632967" lon="14.2826667"><ele>38.0</ele><time>2026-04-18T07:59:23.102Z</time></trkpt><trkpt lat="41.0633817" lon="14.2826717"><ele>38.0</ele><time>2026-04-18T07:59:25.102Z</time></trkpt><trkpt lat="41.0634783" lon="14.2826783"><ele>38.0</ele><time>2026-04-18T07:59:27.102Z</time></trkpt><trkpt lat="41.063565" lon="14.2826783"><ele>38.0</ele><time>2026-04-18T07:59:29.102Z</time></trkpt><trkpt lat="41.0636333" lon="14.2826833"><ele>38.0</ele><time>2026-04-18T07:59:31.102Z</time></trkpt><trkpt lat="41.063715" lon="14.2826983"><ele>38.0</ele><time>2026-04-18T07:59:34.102Z</time></trkpt><trkpt lat="41.0637917" lon="14.2827"><ele>38.0</ele><time>2026-04-18T07:59:37.102Z</time></trkpt><trkpt lat="41.0638783" lon="14.2827"><ele>38.0</ele><time>2026-04-18T07:59:40.102Z</time></trkpt><trkpt lat="41.0639417" lon="14.2827"><ele>38.0</ele><time>2026-04-18T07:59:42.102Z</time></trkpt><trkpt lat="41.0640133" lon="14.2827017"><ele>38.0</ele><time>2026-04-18T07:59:44.102Z</time></trkpt><trkpt lat="41.0640917" lon="14.2826983"><ele>38.0</ele><time>2026-04-18T07:59:47.102Z</time></trkpt><trkpt lat="41.0641783" lon="14.282705"><ele>38.166666666666664</ele><time>2026-04-18T07:59:50.102Z</time></trkpt><trkpt lat="41.0642433" lon="14.282715"><ele>38.33333333333333</ele><time>2026-04-18T07:59:52.102Z</time></trkpt><trkpt lat="41.064315" lon="14.2827183"><ele>38.5</ele><time>2026-04-18T07:59:54.102Z</time></trkpt><trkpt lat="41.0644367" lon="14.2827033"><ele>38.666666666666664</ele><time>2026-04-18T08:00:10.102Z</time></trkpt><trkpt lat="41.0645317" lon="14.2826983"><ele>38.833333333333336</ele><time>2026-04-18T08:00:12.102Z</time></trkpt><trkpt lat="41.0645983" lon="14.2827067"><ele>39.0</ele><time>2026-04-18T08:00:13.103Z</time></trkpt><trkpt lat="41.0646617" lon="14.28269"><ele>39.0</ele><time>2026-04-18T08:00:14.102Z</time></trkpt><trkpt lat="41.06476" lon="14.282695"><ele>39.0</ele><time>2026-04-18T08:00:16.102Z</time></trkpt><trkpt lat="41.0648733" lon="14.2826883"><ele>39.0</ele><time>2026-04-18T08:00:18.102Z</time></trkpt><trkpt lat="41.0649417" lon="14.2826733"><ele>39.0</ele><time>2026-04-18T08:00:19.102Z</time></trkpt><trkpt lat="41.0650217" lon="14.2826633"><ele>39.0</ele><time>2026-04-18T08:00:20.102Z</time></trkpt><trkpt lat="41.0651033" lon="14.282655"><ele>39.0</ele><time>2026-04-18T08:00:21.102Z</time></trkpt><trkpt lat="41.0651917" lon="14.28265"><ele>39.2</ele><time>2026-04-18T08:00:22.102Z</time></trkpt><trkpt lat="41.0652833" lon="14.2826417"><ele>39.4</ele><time>2026-04-18T08:00:23.102Z</time></trkpt><trkpt lat="41.0653667" lon="14.2826383"><ele>39.6</ele><time>2026-04-18T08:00:24.102Z</time></trkpt><trkpt lat="41.065455" lon="14.282635"><ele>39.8</ele><time>2026-04-18T08:00:25.102Z</time></trkpt><trkpt lat="41.06556" lon="14.282625"><ele>40.0</ele><time>2026-04-18T08:00:26.102Z</time></trkpt><trkpt lat="41.0656667" lon="14.2826083"><ele>40.0</ele><time>2026-04-18T08:00:27.102Z</time></trkpt><trkpt lat="41.0657683" lon="14.2826017"><ele>40.0</ele><time>2026-04-18T08:00:28.102Z</time></trkpt><trkpt lat="41.0658667" lon="14.2826017"><ele>40.0</ele><time>2026-04-18T08:00:29.102Z</time></trkpt><trkpt lat="41.06597" lon="14.2826"><ele>40.0</ele><time>2026-04-18T08:00:30.102Z</time></trkpt><trkpt lat="41.0660733" lon="14.2825917"><ele>40.0</ele><time>2026-04-18T08:00:31.102Z</time></trkpt><trkpt lat="41.06618" lon="14.2825783"><ele>40.0</ele><time>2026-04-18T08:00:32.102Z</time></trkpt><trkpt lat="41.0662733" lon="14.2825733"><ele>40.0</ele><time>2026-04-18T08:00:33.102Z</time></trkpt><trkpt lat="41.0663717" lon="14.2825667"><ele>40.0</ele><time>2026-04-18T08:00:34.102Z</time></trkpt><trkpt lat="41.0664717" lon="14.28256"><ele>40.0</ele><time>2026-04-18T08:00:35.102Z</time></trkpt><trkpt lat="41.0665667" lon="14.282555"><ele>40.0</ele><time>2026-04-18T08:00:36.103Z</time></trkpt><trkpt lat="41.0666617" lon="14.2825483"><ele>40.0</ele><time>2026-04-18T08:00:37.102Z</time></trkpt><trkpt lat="41.0667633" lon="14.28254"><ele>40.0</ele><time>2026-04-18T08:00:38.102Z</time></trkpt><trkpt lat="41.0668683" lon="14.28253"><ele>40.0</ele><time>2026-04-18T08:00:39.102Z</time></trkpt><trkpt lat="41.0669867" lon="14.2825217"><ele>40.0</ele><time>2026-04-18T08:00:40.102Z</time></trkpt><trkpt lat="41.06711" lon="14.28252"><ele>40.0</ele><time>2026-04-18T08:00:41.102Z</time></trkpt><trkpt lat="41.067235" lon="14.28252"><ele>40.0</ele><time>2026-04-18T08:00:42.102Z</time></trkpt><trkpt lat="41.0673617" lon="14.28252"><ele>40.0</ele><time>2026-04-18T08:00:43.102Z</time></trkpt><trkpt lat="41.067485" lon="14.28251"><ele>40.0</ele><time>2026-04-18T08:00:44.102Z</time></trkpt><trkpt lat="41.06761" lon="14.2825067"><ele>40.0</ele><time>2026-04-18T08:00:45.103Z</time></trkpt><trkpt lat="41.067735" lon="14.2825067"><ele>40.0</ele><time>2026-04-18T08:00:46.102Z</time></trkpt><trkpt lat="41.0678583" lon="14.2825083"><ele>40.0</ele><time>2026-04-18T08:00:47.102Z</time></trkpt><trkpt lat="41.0679667" lon="14.2825167"><ele>40.0</ele><time>2026-04-18T08:00:48.102Z</time></trkpt><trkpt lat="41.068075" lon="14.2825133"><ele>40.0</ele><time>2026-04-18T08:00:49.102Z</time></trkpt><trkpt lat="41.0681783" lon="14.282505"><ele>40.0</ele><time>2026-04-18T08:00:50.102Z</time></trkpt><trkpt lat="41.0682783" lon="14.282505"><ele>39.8</ele><time>2026-04-18T08:00:51.102Z</time></trkpt><trkpt lat="41.0683633" lon="14.2825033"><ele>39.6</ele><time>2026-04-18T08:00:52.102Z</time></trkpt><trkpt lat="41.0684483" lon="14.2825117"><ele>39.4</ele><time>2026-04-18T08:00:53.102Z</time></trkpt><trkpt lat="41.0685367" lon="14.2825067"><ele>39.2</ele><time>2026-04-18T08:00:54.102Z</time></trkpt><trkpt lat="41.0686317" lon="14.2825117"><ele>39.0</ele><time>2026-04-18T08:00:55.102Z</time></trkpt><trkpt lat="41.0687317" lon="14.2825117"><ele>39.0</ele><time>2026-04-18T08:00:56.102Z</time></trkpt><trkpt lat="41.0688333" lon="14.2825133"><ele>39.0</ele><time>2026-04-18T08:00:57.102Z</time></trkpt><trkpt lat="41.0689317" lon="14.28253"><ele>39.0</ele><time>2026-04-18T08:00:58.102Z</time></trkpt><trkpt lat="41.069035" lon="14.2825533"><ele>39.0</ele><time>2026-04-18T08:00:59.102Z</time></trkpt><trkpt lat="41.0691383" lon="14.2825817"><ele>39.0</ele><time>2026-04-18T08:01:00.102Z</time></trkpt><trkpt lat="41.0692383" lon="14.28261"><ele>39.2</ele><time>2026-04-18T08:01:01.102Z</time></trkpt><trkpt lat="41.0693383" lon="14.2826267"><ele>39.4</ele><time>2026-04-18T08:01:02.103Z</time></trkpt><trkpt lat="41.069445" lon="14.28264"><ele>39.6</ele><time>2026-04-18T08:01:03.102Z</time></trkpt><trkpt lat="41.0695517" lon="14.2826433"><ele>39.8</ele><time>2026-04-18T08:01:04.102Z</time></trkpt><trkpt lat="41.069665" lon="14.2826383"><ele>40.0</ele><time>2026-04-18T08:01:05.102Z</time></trkpt><trkpt lat="41.0697817" lon="14.2826367"><ele>40.0</ele><time>2026-04-18T08:01:06.103Z</time></trkpt><trkpt lat="41.0699033" lon="14.282635"><ele>40.0</ele><time>2026-04-18T08:01:07.102Z</time></trkpt><trkpt lat="41.0700283" lon="14.2826383"><ele>40.0</ele><time>2026-04-18T08:01:08.102Z</time></trkpt><trkpt lat="41.07015" lon="14.282635"><ele>40.0</ele><time>2026-04-18T08:01:09.102Z</time></trkpt><trkpt lat="41.07026" lon="14.282635"><ele>40.0</ele><time>2026-04-18T08:01:10.102Z</time></trkpt><trkpt lat="41.0703667" lon="14.2826317"><ele>40.0</ele><time>2026-04-18T08:01:11.103Z</time></trkpt><trkpt lat="41.0704733" lon="14.282635"><ele>40.0</ele><time>2026-04-18T08:01:12.102Z</time></trkpt><trkpt lat="41.0705733" lon="14.2826383"><ele>40.0</ele><time>2026-04-18T08:01:13.103Z</time></trkpt><trkpt lat="41.0706783" lon="14.282635"><ele>40.0</ele><time>2026-04-18T08:01:14.102Z</time></trkpt><trkpt lat="41.0707833" lon="14.2826267"><ele>40.0</ele><time>2026-04-18T08:01:15.102Z</time></trkpt><trkpt lat="41.070885" lon="14.2826233"><ele>40.0</ele><time>2026-04-18T08:01:16.102Z</time></trkpt><trkpt lat="41.070995" lon="14.2826217"><ele>40.0</ele><time>2026-04-18T08:01:17.103Z</time></trkpt><trkpt lat="41.0711133" lon="14.2826217"><ele>40.0</ele><time>2026-04-18T08:01:18.102Z</time></trkpt><trkpt lat="41.0712283" lon="14.282625"><ele>40.0</ele><time>2026-04-18T08:01:19.102Z</time></trkpt><trkpt lat="41.0713367" lon="14.2826233"><ele>40.0</ele><time>2026-04-18T08:01:20.102Z</time></trkpt><trkpt lat="41.071435" lon="14.2826217"><ele>40.0</ele><time>2026-04-18T08:01:21.102Z</time></trkpt><trkpt lat="41.0715283" lon="14.2826217"><ele>40.0</ele><time>2026-04-18T08:01:22.102Z</time></trkpt><trkpt lat="41.07161" lon="14.28262"><ele>40.0</ele><time>2026-04-18T08:01:23.102Z</time></trkpt><trkpt lat="41.0716833" lon="14.2826183"><ele>40.0</ele><time>2026-04-18T08:01:24.102Z</time></trkpt><trkpt lat="41.071755" lon="14.28262"><ele>40.0</ele><time>2026-04-18T08:01:25.102Z</time></trkpt><trkpt lat="41.071865" lon="14.2826267"><ele>40.0</ele><time>2026-04-18T08:01:27.102Z</time></trkpt><trkpt lat="41.0719883" lon="14.28262"><ele>40.0</ele><time>2026-04-18T08:01:29.102Z</time></trkpt><trkpt lat="41.07207" lon="14.2825867"><ele>40.0</ele><time>2026-04-18T08:01:30.102Z</time></trkpt><trkpt lat="41.0721617" lon="14.282545"><ele>40.0</ele><time>2026-04-18T08:01:31.102Z</time></trkpt><trkpt lat="41.072265" lon="14.2825217"><ele>40.0</ele><time>2026-04-18T08:01:32.102Z</time></trkpt><trkpt lat="41.072365" lon="14.2825083"><ele>40.2</ele><time>2026-04-18T08:01:33.102Z</time></trkpt><trkpt lat="41.0724683" lon="14.2824983"><ele>40.4</ele><time>2026-04-18T08:01:34.102Z</time></trkpt><trkpt lat="41.0725683" lon="14.2824917"><ele>40.599999999999994</ele><time>2026-04-18T08:01:35.102Z</time></trkpt><trkpt lat="41.0726567" lon="14.2824917"><ele>40.8</ele><time>2026-04-18T08:01:36.102Z</time></trkpt><trkpt lat="41.0727467" lon="14.2824883"><ele>41.0</ele><time>2026-04-18T08:01:37.102Z</time></trkpt><trkpt lat="41.072825" lon="14.2824867"><ele>41.0</ele><time>2026-04-18T08:01:38.103Z</time></trkpt><trkpt lat="41.0729033" lon="14.28248"><ele>41.0</ele><time>2026-04-18T08:01:39.102Z</time></trkpt><trkpt lat="41.0729833" lon="14.2824767"><ele>41.0</ele><time>2026-04-18T08:01:40.102Z</time></trkpt><trkpt lat="41.073065" lon="14.2824683"><ele>41.0</ele><time>2026-04-18T08:01:41.102Z</time></trkpt><trkpt lat="41.0731417" lon="14.282465"><ele>41.0</ele><time>2026-04-18T08:01:42.102Z</time></trkpt><trkpt lat="41.0732183" lon="14.2824617"><ele>41.0</ele><time>2026-04-18T08:01:43.102Z</time></trkpt><trkpt lat="41.0732883" lon="14.28246"><ele>41.0</ele><time>2026-04-18T08:01:44.102Z</time></trkpt><trkpt lat="41.07342" lon="14.2824583"><ele>41.0</ele><time>2026-04-18T08:01:46.101Z</time></trkpt><trkpt lat="41.0734933" lon="14.2824533"><ele>41.0</ele><time>2026-04-18T08:01:47.101Z</time></trkpt><trkpt lat="41.073565" lon="14.28245"><ele>41.0</ele><time>2026-04-18T08:01:48.101Z</time></trkpt><trkpt lat="41.0736317" lon="14.28244"><ele>41.0</ele><time>2026-04-18T08:01:49.101Z</time></trkpt><trkpt lat="41.0737017" lon="14.28244"><ele>41.0</ele><time>2026-04-18T08:01:50.102Z</time></trkpt><trkpt lat="41.07377" lon="14.2824417"><ele>41.0</ele><time>2026-04-18T08:01:51.101Z</time></trkpt><trkpt lat="41.0738383" lon="14.2824433"><ele>41.0</ele><time>2026-04-18T08:01:52.101Z</time></trkpt><trkpt lat="41.0739017" lon="14.2824417"><ele>41.0</ele><time>2026-04-18T08:01:53.101Z</time></trkpt><trkpt lat="41.073965" lon="14.2824367"><ele>41.0</ele><time>2026-04-18T08:01:54.101Z</time></trkpt><trkpt lat="41.0740633" lon="14.282435"><ele>41.0</ele><time>2026-04-18T08:01:56.101Z</time></trkpt><trkpt lat="41.0741517" lon="14.282445"><ele>41.0</ele><time>2026-04-18T08:01:58.101Z</time></trkpt><trkpt lat="41.0742233" lon="14.2824433"><ele>41.166666666666664</ele><time>2026-04-18T08:02:00.102Z</time></trkpt><trkpt lat="41.0743167" lon="14.2824333"><ele>41.33333333333333</ele><time>2026-04-18T08:02:02.101Z</time></trkpt><trkpt lat="41.0744367" lon="14.2824283"><ele>41.5</ele><time>2026-04-18T08:02:04.101Z</time></trkpt><trkpt lat="41.0745067" lon="14.2824317"><ele>41.666666666666664</ele><time>2026-04-18T08:02:05.101Z</time></trkpt><trkpt lat="41.0745833" lon="14.282425"><ele>41.833333333333336</ele><time>2026-04-18T08:02:06.101Z</time></trkpt><trkpt lat="41.0746583" lon="14.2824217"><ele>42.0</ele><time>2026-04-18T08:02:07.101Z</time></trkpt><trkpt lat="41.07474" lon="14.282425"><ele>42.0</ele><time>2026-04-18T08:02:08.101Z</time></trkpt><trkpt lat="41.0748267" lon="14.2824367"><ele>42.0</ele><time>2026-04-18T08:02:09.101Z</time></trkpt><trkpt lat="41.0749083" lon="14.2824467"><ele>42.0</ele><time>2026-04-18T08:02:10.101Z</time></trkpt><trkpt lat="41.0749717" lon="14.2824467"><ele>42.0</ele><time>2026-04-18T08:02:11.101Z</time></trkpt><trkpt lat="41.07504" lon="14.2824417"><ele>42.0</ele><time>2026-04-18T08:02:12.101Z</time></trkpt><trkpt lat="41.07511" lon="14.2824367"><ele>42.0</ele><time>2026-04-18T08:02:13.101Z</time></trkpt><trkpt lat="41.0751867" lon="14.282435"><ele>42.0</ele><time>2026-04-18T08:02:14.101Z</time></trkpt><trkpt lat="41.075265" lon="14.2824283"><ele>42.142857142857146</ele><time>2026-04-18T08:02:15.101Z</time></trkpt><trkpt lat="41.0753383" lon="14.2824217"><ele>42.285714285714285</ele><time>2026-04-18T08:02:16.101Z</time></trkpt><trkpt lat="41.07541" lon="14.2824233"><ele>42.42857142857143</ele><time>2026-04-18T08:02:17.101Z</time></trkpt><trkpt lat="41.0754733" lon="14.28243"><ele>42.57142857142857</ele><time>2026-04-18T08:02:18.101Z</time></trkpt><trkpt lat="41.0755367" lon="14.2824383"><ele>42.714285714285715</ele><time>2026-04-18T08:02:19.101Z</time></trkpt><trkpt lat="41.0756" lon="14.2824567"><ele>42.85714285714286</ele><time>2026-04-18T08:02:20.101Z</time></trkpt><trkpt lat="41.0756633" lon="14.2824667"><ele>43.0</ele><time>2026-04-18T08:02:21.101Z</time></trkpt><trkpt lat="41.0757283" lon="14.2824867"><ele>43.333333333333336</ele><time>2026-04-18T08:02:22.102Z</time></trkpt><trkpt lat="41.0758267" lon="14.2825417"><ele>43.66666666666667</ele><time>2026-04-18T08:02:24.101Z</time></trkpt><trkpt lat="41.0759017" lon="14.282595"><ele>44.0</ele><time>2026-04-18T08:02:26.101Z</time></trkpt><trkpt lat="41.0759617" lon="14.2826283"><ele>44.333333333333336</ele><time>2026-04-18T08:02:29.101Z</time></trkpt><trkpt lat="41.0760217" lon="14.282665"><ele>44.666666666666664</ele><time>2026-04-18T08:02:32.101Z</time></trkpt><trkpt lat="41.0761117" lon="14.28263"><ele>45.0</ele><time>2026-04-18T08:02:40.101Z</time></trkpt><trkpt lat="41.0761683" lon="14.282525"><ele>45.0</ele><time>2026-04-18T08:02:42.101Z</time></trkpt><trkpt lat="41.0762" lon="14.282435"><ele>45.0</ele><time>2026-04-18T08:02:43.101Z</time></trkpt><trkpt lat="41.0762517" lon="14.2823283"><ele>45.0</ele><time>2026-04-18T08:02:44.101Z</time></trkpt><trkpt lat="41.0763133" lon="14.282215"><ele>45.0</ele><time>2026-04-18T08:02:45.101Z</time></trkpt><trkpt lat="41.07637" lon="14.2820967"><ele>45.0</ele><time>2026-04-18T08:02:46.102Z</time></trkpt><trkpt lat="41.07643" lon="14.28198"><ele>45.0</ele><time>2026-04-18T08:02:47.101Z</time></trkpt><trkpt lat="41.0764883" lon="14.281865"><ele>45.0</ele><time>2026-04-18T08:02:48.101Z</time></trkpt><trkpt lat="41.0765383" lon="14.2817567"><ele>45.0</ele><time>2026-04-18T08:02:49.101Z</time></trkpt><trkpt lat="41.0765817" lon="14.281645"><ele>45.0</ele><time>2026-04-18T08:02:50.101Z</time></trkpt><trkpt lat="41.0766267" lon="14.2815433"><ele>45.0</ele><time>2026-04-18T08:02:51.101Z</time></trkpt><trkpt lat="41.0766683" lon="14.2814467"><ele>45.166666666666664</ele><time>2026-04-18T08:02:52.101Z</time></trkpt><trkpt lat="41.0767067" lon="14.2813517"><ele>45.333333333333336</ele><time>2026-04-18T08:02:53.101Z</time></trkpt><trkpt lat="41.0767483" lon="14.2812533"><ele>45.5</ele><time>2026-04-18T08:02:54.101Z</time></trkpt><trkpt lat="41.0767933" lon="14.2811533"><ele>45.66666666666667</ele><time>2026-04-18T08:02:55.101Z</time></trkpt><trkpt lat="41.0768417" lon="14.28105"><ele>45.833333333333336</ele><time>2026-04-18T08:02:56.101Z</time></trkpt><trkpt lat="41.0768917" lon="14.2809383"><ele>46.0</ele><time>2026-04-18T08:02:57.101Z</time></trkpt><trkpt lat="41.0769417" lon="14.2808267"><ele>46.0</ele><time>2026-04-18T08:02:58.102Z</time></trkpt><trkpt lat="41.0769917" lon="14.2807083"><ele>46.0</ele><time>2026-04-18T08:02:59.101Z</time></trkpt><trkpt lat="41.0770483" lon="14.2805883"><ele>46.0</ele><time>2026-04-18T08:03:00.102Z</time></trkpt><trkpt lat="41.0771033" lon="14.2804617"><ele>46.0</ele><time>2026-04-18T08:03:01.101Z</time></trkpt><trkpt lat="41.07717" lon="14.28033"><ele>46.0</ele><time>2026-04-18T08:03:02.101Z</time></trkpt><trkpt lat="41.0772333" lon="14.2801917"><ele>45.75</ele><time>2026-04-18T08:03:03.101Z</time></trkpt><trkpt lat="41.0772967" lon="14.280045"><ele>45.5</ele><time>2026-04-18T08:03:04.101Z</time></trkpt><trkpt lat="41.0773617" lon="14.27988"><ele>45.25</ele><time>2026-04-18T08:03:05.101Z</time></trkpt><trkpt lat="41.0774267" lon="14.279685"><ele>45.0</ele><time>2026-04-18T08:03:06.101Z</time></trkpt><trkpt lat="41.0775067" lon="14.2794817"><ele>44.333333333333336</ele><time>2026-04-18T08:03:07.101Z</time></trkpt><trkpt lat="41.0775933" lon="14.2792967"><ele>43.66666666666667</ele><time>2026-04-18T08:03:08.102Z</time></trkpt><trkpt lat="41.0776783" lon="14.279125"><ele>43.0</ele><time>2026-04-18T08:03:09.101Z</time></trkpt><trkpt lat="41.0777533" lon="14.2789467"><ele>42.5</ele><time>2026-04-18T08:03:10.101Z</time></trkpt><trkpt lat="41.0778217" lon="14.2787883"><ele>42.0</ele><time>2026-04-18T08:03:11.101Z</time></trkpt><trkpt lat="41.077885" lon="14.2786483"><ele>41.5</ele><time>2026-04-18T08:03:12.101Z</time></trkpt><trkpt lat="41.07794" lon="14.278525"><ele>41.0</ele><time>2026-04-18T08:03:13.101Z</time></trkpt><trkpt lat="41.077985" lon="14.2784183"><ele>41.0</ele><time>2026-04-18T08:03:14.101Z</time></trkpt><trkpt lat="41.0780383" lon="14.278305"><ele>41.0</ele><time>2026-04-18T08:03:16.101Z</time></trkpt><trkpt lat="41.0780683" lon="14.27823"><ele>41.0</ele><time>2026-04-18T08:03:20.101Z</time></trkpt><trkpt lat="41.07813" lon="14.2781117"><ele>41.0</ele><time>2026-04-18T08:03:23.101Z</time></trkpt><trkpt lat="41.07816" lon="14.2780333"><ele>41.0</ele><time>2026-04-18T08:03:24.101Z</time></trkpt><trkpt lat="41.0782" lon="14.2779367"><ele>41.0</ele><time>2026-04-18T08:03:25.101Z</time></trkpt><trkpt lat="41.078255" lon="14.2778117"><ele>41.5</ele><time>2026-04-18T08:03:26.101Z</time></trkpt><trkpt lat="41.0783133" lon="14.2776717"><ele>42.0</ele><time>2026-04-18T08:03:27.101Z</time></trkpt><trkpt lat="41.0783717" lon="14.2775233"><ele>42.5</ele><time>2026-04-18T08:03:28.101Z</time></trkpt><trkpt lat="41.0784317" lon="14.2773633"><ele>43.0</ele><time>2026-04-18T08:03:29.102Z</time></trkpt><trkpt lat="41.078505" lon="14.2771967"><ele>43.0</ele><time>2026-04-18T08:03:30.102Z</time></trkpt><trkpt lat="41.0785783" lon="14.2770183"><ele>43.0</ele><time>2026-04-18T08:03:31.101Z</time></trkpt><trkpt lat="41.0786583" lon="14.2768383"><ele>43.0</ele><time>2026-04-18T08:03:32.101Z</time></trkpt><trkpt lat="41.0787417" lon="14.276655"><ele>43.0</ele><time>2026-04-18T08:03:33.101Z</time></trkpt><trkpt lat="41.0788267" lon="14.2764733"><ele>43.0</ele><time>2026-04-18T08:03:34.101Z</time></trkpt><trkpt lat="41.078895" lon="14.2762967"><ele>43.0</ele><time>2026-04-18T08:03:35.101Z</time></trkpt><trkpt lat="41.0789683" lon="14.2761083"><ele>43.25</ele><time>2026-04-18T08:03:36.101Z</time></trkpt><trkpt lat="41.0790417" lon="14.275925"><ele>43.5</ele><time>2026-04-18T08:03:37.101Z</time></trkpt><trkpt lat="41.079115" lon="14.2757483"><ele>43.75</ele><time>2026-04-18T08:03:38.101Z</time></trkpt><trkpt lat="41.0791833" lon="14.275585"><ele>44.0</ele><time>2026-04-18T08:03:39.101Z</time></trkpt><trkpt lat="41.0792433" lon="14.2754317"><ele>44.25</ele><time>2026-04-18T08:03:40.101Z</time></trkpt><trkpt lat="41.079305" lon="14.2752933"><ele>44.5</ele><time>2026-04-18T08:03:41.101Z</time></trkpt><trkpt lat="41.0793567" lon="14.2751617"><ele>44.75</ele><time>2026-04-18T08:03:42.101Z</time></trkpt><trkpt lat="41.07941" lon="14.2750317"><ele>45.0</ele><time>2026-04-18T08:03:43.102Z</time></trkpt><trkpt lat="41.0794667" lon="14.2749083"><ele>45.0</ele><time>2026-04-18T08:03:44.101Z</time></trkpt><trkpt lat="41.0795133" lon="14.2747967"><ele>45.0</ele><time>2026-04-18T08:03:45.101Z</time></trkpt><trkpt lat="41.0795583" lon="14.2747067"><ele>45.0</ele><time>2026-04-18T08:03:46.101Z</time></trkpt><trkpt lat="41.0795933" lon="14.2746267"><ele>45.0</ele><time>2026-04-18T08:03:47.101Z</time></trkpt><trkpt lat="41.079625" lon="14.27455"><ele>45.0</ele><time>2026-04-18T08:03:48.101Z</time></trkpt><trkpt lat="41.0796833" lon="14.2744167"><ele>45.0</ele><time>2026-04-18T08:03:50.101Z</time></trkpt><trkpt lat="41.0797367" lon="14.27427"><ele>44.666666666666664</ele><time>2026-04-18T08:03:52.101Z</time></trkpt><trkpt lat="41.0797667" lon="14.27418"><ele>44.333333333333336</ele><time>2026-04-18T08:03:53.101Z</time></trkpt><trkpt lat="41.0798033" lon="14.2740817"><ele>44.0</ele><time>2026-04-18T08:03:54.101Z</time></trkpt><trkpt lat="41.0798383" lon="14.2739733"><ele>43.66666666666667</ele><time>2026-04-18T08:03:55.101Z</time></trkpt><trkpt lat="41.0798783" lon="14.2738567"><ele>43.333333333333336</ele><time>2026-04-18T08:03:56.101Z</time></trkpt><trkpt lat="41.0799233" lon="14.273745"><ele>43.0</ele><time>2026-04-18T08:03:57.101Z</time></trkpt><trkpt lat="41.0799767" lon="14.2736367"><ele>43.0</ele><time>2026-04-18T08:03:58.101Z</time></trkpt><trkpt lat="41.08002" lon="14.2735233"><ele>43.0</ele><time>2026-04-18T08:03:59.101Z</time></trkpt><trkpt lat="41.0800633" lon="14.27341"><ele>43.0</ele><time>2026-04-18T08:04:00.101Z</time></trkpt><trkpt lat="41.0801167" lon="14.2732967"><ele>43.0</ele><time>2026-04-18T08:04:01.101Z</time></trkpt><trkpt lat="41.0801717" lon="14.273185"><ele>43.0</ele><time>2026-04-18T08:04:02.102Z</time></trkpt><trkpt lat="41.0802133" lon="14.2730733"><ele>42.8</ele><time>2026-04-18T08:04:03.101Z</time></trkpt><trkpt lat="41.0802583" lon="14.2729667"><ele>42.599999999999994</ele><time>2026-04-18T08:04:04.101Z</time></trkpt><trkpt lat="41.0803033" lon="14.272865"><ele>42.400000000000006</ele><time>2026-04-18T08:04:05.101Z</time></trkpt><trkpt lat="41.080345" lon="14.2727617"><ele>42.2</ele><time>2026-04-18T08:04:06.101Z</time></trkpt><trkpt lat="41.0803883" lon="14.2726583"><ele>42.0</ele><time>2026-04-18T08:04:07.101Z</time></trkpt><trkpt lat="41.08044" lon="14.2725533"><ele>42.0</ele><time>2026-04-18T08:04:08.101Z</time></trkpt><trkpt lat="41.0804917" lon="14.2724467"><ele>42.0</ele><time>2026-04-18T08:04:09.101Z</time></trkpt><trkpt lat="41.0805417" lon="14.2723417"><ele>42.0</ele><time>2026-04-18T08:04:10.101Z</time></trkpt><trkpt lat="41.0805883" lon="14.2722383"><ele>42.0</ele><time>2026-04-18T08:04:11.101Z</time></trkpt><trkpt lat="41.080635" lon="14.27213"><ele>42.0</ele><time>2026-04-18T08:04:12.101Z</time></trkpt><trkpt lat="41.0806867" lon="14.2720233"><ele>42.0</ele><time>2026-04-18T08:04:13.102Z</time></trkpt><trkpt lat="41.0807333" lon="14.2719133"><ele>42.0</ele><time>2026-04-18T08:04:14.101Z</time></trkpt><trkpt lat="41.0807767" lon="14.2718017"><ele>42.0</ele><time>2026-04-18T08:04:15.101Z</time></trkpt><trkpt lat="41.0808217" lon="14.2716883"><ele>42.0</ele><time>2026-04-18T08:04:16.101Z</time></trkpt><trkpt lat="41.0808683" lon="14.27157"><ele>42.0</ele><time>2026-04-18T08:04:17.101Z</time></trkpt><trkpt lat="41.0809117" lon="14.2714483"><ele>41.6</ele><time>2026-04-18T08:04:18.101Z</time></trkpt><trkpt lat="41.0809583" lon="14.271335"><ele>41.2</ele><time>2026-04-18T08:04:19.101Z</time></trkpt><trkpt lat="41.08101" lon="14.2712233"><ele>40.8</ele><time>2026-04-18T08:04:20.101Z</time></trkpt><trkpt lat="41.0810583" lon="14.2711133"><ele>40.4</ele><time>2026-04-18T08:04:21.101Z</time></trkpt><trkpt lat="41.0811067" lon="14.27101"><ele>40.0</ele><time>2026-04-18T08:04:22.101Z</time></trkpt><trkpt lat="41.08115" lon="14.2709117"><ele>40.0</ele><time>2026-04-18T08:04:23.102Z</time></trkpt><trkpt lat="41.0811917" lon="14.27082"><ele>40.0</ele><time>2026-04-18T08:04:24.101Z</time></trkpt><trkpt lat="41.0812333" lon="14.2707333"><ele>40.0</ele><time>2026-04-18T08:04:25.101Z</time></trkpt><trkpt lat="41.08127" lon="14.2706483"><ele>40.0</ele><time>2026-04-18T08:04:26.101Z</time></trkpt><trkpt lat="41.08131" lon="14.2705633"><ele>40.0</ele><time>2026-04-18T08:04:27.101Z</time></trkpt><trkpt lat="41.081345" lon="14.27048"><ele>40.0</ele><time>2026-04-18T08:04:28.101Z</time></trkpt><trkpt lat="41.08138" lon="14.2703967"><ele>40.285714285714285</ele><time>2026-04-18T08:04:29.101Z</time></trkpt><trkpt lat="41.081415" lon="14.2703133"><ele>40.57142857142857</ele><time>2026-04-18T08:04:30.101Z</time></trkpt><trkpt lat="41.0814483" lon="14.27023"><ele>40.85714285714286</ele><time>2026-04-18T08:04:31.101Z</time></trkpt><trkpt lat="41.0814817" lon="14.2701483"><ele>41.14285714285714</ele><time>2026-04-18T08:04:32.101Z</time></trkpt><trkpt lat="41.0815133" lon="14.2700717"><ele>41.42857142857143</ele><time>2026-04-18T08:04:33.101Z</time></trkpt><trkpt lat="41.0815433" lon="14.2699917"><ele>41.714285714285715</ele><time>2026-04-18T08:04:34.101Z</time></trkpt><trkpt lat="41.0815717" lon="14.2699083"><ele>42.0</ele><time>2026-04-18T08:04:35.101Z</time></trkpt><trkpt lat="41.081625" lon="14.2697633"><ele>42.666666666666664</ele><time>2026-04-18T08:04:37.101Z</time></trkpt><trkpt lat="41.081695" lon="14.269715"><ele>43.333333333333336</ele><time>2026-04-18T08:04:39.101Z</time></trkpt><trkpt lat="41.0817917" lon="14.2697467"><ele>44.0</ele><time>2026-04-18T08:04:41.101Z</time></trkpt><trkpt lat="41.0818983" lon="14.2697733"><ele>44.66666666666667</ele><time>2026-04-18T08:04:43.102Z</time></trkpt><trkpt lat="41.0819867" lon="14.2697683"><ele>45.333333333333336</ele><time>2026-04-18T08:04:44.101Z</time></trkpt><trkpt lat="41.0820517" lon="14.2697583"><ele>46.0</ele><time>2026-04-18T08:04:45.101Z</time></trkpt><trkpt lat="41.0821583" lon="14.2697033"><ele>46.0</ele><time>2026-04-18T08:04:47.101Z</time></trkpt><trkpt lat="41.0822417" lon="14.2697367"><ele>46.0</ele><time>2026-04-18T08:04:49.101Z</time></trkpt><trkpt lat="41.0822967" lon="14.26978"><ele>46.0</ele><time>2026-04-18T08:04:52.101Z</time></trkpt><trkpt lat="41.0822233" lon="14.26974"><ele>46.0</ele><time>2026-04-18T08:05:09.101Z</time></trkpt><trkpt lat="41.0821" lon="14.2697383"><ele>46.0</ele><time>2026-04-18T08:05:11.101Z</time></trkpt><trkpt lat="41.082025" lon="14.269735"><ele>46.0</ele><time>2026-04-18T08:05:12.101Z</time></trkpt><trkpt lat="41.08195" lon="14.26972"><ele>46.0</ele><time>2026-04-18T08:05:13.101Z</time></trkpt><trkpt lat="41.0818783" lon="14.2697033"><ele>46.0</ele><time>2026-04-18T08:05:14.101Z</time></trkpt><trkpt lat="41.0817733" lon="14.2696667"><ele>46.0</ele><time>2026-04-18T08:05:16.101Z</time></trkpt><trkpt lat="41.0817233" lon="14.269605"><ele>46.0</ele><time>2026-04-18T08:05:19.102Z</time></trkpt><trkpt lat="41.0816767" lon="14.26954"><ele>46.0</ele><time>2026-04-18T08:05:22.101Z</time></trkpt><trkpt lat="41.0816917" lon="14.2694417"><ele>46.0</ele><time>2026-04-18T08:05:24.101Z</time></trkpt><trkpt lat="41.081755" lon="14.269365"><ele>46.0</ele><time>2026-04-18T08:05:26.101Z</time></trkpt><trkpt lat="41.08187" lon="14.2693233"><ele>46.0</ele><time>2026-04-18T08:05:28.102Z</time></trkpt><trkpt lat="41.0819383" lon="14.26929"><ele>46.0</ele><time>2026-04-18T08:05:29.101Z</time></trkpt><trkpt lat="41.0820083" lon="14.2692317"><ele>46.0</ele><time>2026-04-18T08:05:30.101Z</time></trkpt><trkpt lat="41.0820867" lon="14.2691633"><ele>46.0</ele><time>2026-04-18T08:05:31.101Z</time></trkpt><trkpt lat="41.0821667" lon="14.2690683"><ele>46.0</ele><time>2026-04-18T08:05:32.101Z</time></trkpt><trkpt lat="41.0822483" lon="14.2689767"><ele>46.0</ele><time>2026-04-18T08:05:33.101Z</time></trkpt><trkpt lat="41.0823367" lon="14.2688933"><ele>46.0</ele><time>2026-04-18T08:05:34.101Z</time></trkpt><trkpt lat="41.082415" lon="14.2687817"><ele>46.0</ele><time>2026-04-18T08:05:35.102Z</time></trkpt><trkpt lat="41.0824833" lon="14.26867"><ele>46.0</ele><time>2026-04-18T08:05:36.101Z</time></trkpt><trkpt lat="41.0825533" lon="14.26857"><ele>45.199999999999996</ele><time>2026-04-18T08:05:37.101Z</time></trkpt><trkpt lat="41.08262" lon="14.2684783"><ele>44.4</ele><time>2026-04-18T08:05:38.101Z</time></trkpt><trkpt lat="41.0826717" lon="14.26839"><ele>43.6</ele><time>2026-04-18T08:05:39.101Z</time></trkpt><trkpt lat="41.08276" lon="14.2682967"><ele>42.8</ele><time>2026-04-18T08:05:41.101Z</time></trkpt><trkpt lat="41.0828567" lon="14.268285"><ele>42.0</ele><time>2026-04-18T08:05:43.101Z</time></trkpt><trkpt lat="41.0829733" lon="14.2683567"><ele>42.0</ele><time>2026-04-18T08:05:45.101Z</time></trkpt><trkpt lat="41.0830267" lon="14.2684233"><ele>42.0</ele><time>2026-04-18T08:05:46.101Z</time></trkpt><trkpt lat="41.0830867" lon="14.2684967"><ele>42.0</ele><time>2026-04-18T08:05:47.101Z</time></trkpt><trkpt lat="41.08315" lon="14.268575"><ele>42.0</ele><time>2026-04-18T08:05:48.101Z</time></trkpt><trkpt lat="41.0832083" lon="14.268645"><ele>42.0</ele><time>2026-04-18T08:05:49.101Z</time></trkpt><trkpt lat="41.08326" lon="14.2687017"><ele>42.0</ele><time>2026-04-18T08:05:50.101Z</time></trkpt><trkpt lat="41.0833367" lon="14.26879"><ele>42.0</ele><time>2026-04-18T08:05:52.101Z</time></trkpt><trkpt lat="41.0833867" lon="14.2688517"><ele>42.0</ele><time>2026-04-18T08:05:55.101Z</time></trkpt><trkpt lat="41.0834367" lon="14.2689167"><ele>42.0</ele><time>2026-04-18T08:05:58.101Z</time></trkpt><trkpt lat="41.0834717" lon="14.2689867"><ele>42.0</ele><time>2026-04-18T08:06:00.101Z</time></trkpt><trkpt lat="41.08349" lon="14.2690667"><ele>42.0</ele><time>2026-04-18T08:06:02.101Z</time></trkpt><trkpt lat="41.0835517" lon="14.2691533"><ele>42.0</ele><time>2026-04-18T08:06:05.101Z</time></trkpt><trkpt lat="41.0836367" lon="14.2691633"><ele>42.0</ele><time>2026-04-18T08:06:07.101Z</time></trkpt><trkpt lat="41.0837567" lon="14.2691667"><ele>42.0</ele><time>2026-04-18T08:06:09.101Z</time></trkpt><trkpt lat="41.08388" lon="14.2691817"><ele>42.0</ele><time>2026-04-18T08:06:11.101Z</time></trkpt><trkpt lat="41.0839483" lon="14.2691783"><ele>42.0</ele><time>2026-04-18T08:06:12.102Z</time></trkpt><trkpt lat="41.08402" lon="14.2691783"><ele>42.0</ele><time>2026-04-18T08:06:13.101Z</time></trkpt><trkpt lat="41.0840967" lon="14.2691567"><ele>42.0</ele><time>2026-04-18T08:06:14.101Z</time></trkpt><trkpt lat="41.0841767" lon="14.2691283"><ele>42.0</ele><time>2026-04-18T08:06:15.101Z</time></trkpt><trkpt lat="41.084255" lon="14.2690883"><ele>42.0</ele><time>2026-04-18T08:06:16.101Z</time></trkpt><trkpt lat="41.0843333" lon="14.2690467"><ele>42.0</ele><time>2026-04-18T08:06:17.101Z</time></trkpt><trkpt lat="41.08441" lon="14.2690083"><ele>42.0</ele><time>2026-04-18T08:06:18.101Z</time></trkpt><trkpt lat="41.0845" lon="14.2689633"><ele>42.0</ele><time>2026-04-18T08:06:19.101Z</time></trkpt><trkpt lat="41.08459" lon="14.2689217"><ele>42.0</ele><time>2026-04-18T08:06:20.101Z</time></trkpt><trkpt lat="41.084685" lon="14.26888"><ele>41.8</ele><time>2026-04-18T08:06:21.101Z</time></trkpt><trkpt lat="41.0847767" lon="14.268835"><ele>41.6</ele><time>2026-04-18T08:06:22.101Z</time></trkpt><trkpt lat="41.0848683" lon="14.2687883"><ele>41.4</ele><time>2026-04-18T08:06:23.101Z</time></trkpt><trkpt lat="41.084965" lon="14.2687367"><ele>41.199999999999996</ele><time>2026-04-18T08:06:24.101Z</time></trkpt><trkpt lat="41.085055" lon="14.2686883"><ele>41.0</ele><time>2026-04-18T08:06:25.101Z</time></trkpt><trkpt lat="41.0851417" lon="14.26863"><ele>41.0</ele><time>2026-04-18T08:06:26.101Z</time></trkpt><trkpt lat="41.0852367" lon="14.268565"><ele>41.0</ele><time>2026-04-18T08:06:27.101Z</time></trkpt><trkpt lat="41.08533" lon="14.2685"><ele>41.0</ele><time>2026-04-18T08:06:28.101Z</time></trkpt><trkpt lat="41.0854183" lon="14.2684267"><ele>41.0</ele><time>2026-04-18T08:06:29.101Z</time></trkpt><trkpt lat="41.0855067" lon="14.2683533"><ele>41.0</ele><time>2026-04-18T08:06:30.101Z</time></trkpt><trkpt lat="41.0855883" lon="14.2682767"><ele>41.0</ele><time>2026-04-18T08:06:31.101Z</time></trkpt><trkpt lat="41.0856633" lon="14.2681983"><ele>41.0</ele><time>2026-04-18T08:06:32.101Z</time></trkpt><trkpt lat="41.08573" lon="14.2681183"><ele>41.0</ele><time>2026-04-18T08:06:33.101Z</time></trkpt><trkpt lat="41.0857917" lon="14.2680267"><ele>41.0</ele><time>2026-04-18T08:06:34.102Z</time></trkpt><trkpt lat="41.0858483" lon="14.2679317"><ele>41.0</ele><time>2026-04-18T08:06:35.101Z</time></trkpt><trkpt lat="41.0858917" lon="14.2678433"><ele>41.0</ele><time>2026-04-18T08:06:36.101Z</time></trkpt><trkpt lat="41.0859317" lon="14.2677667"><ele>41.0</ele><time>2026-04-18T08:06:37.101Z</time></trkpt><trkpt lat="41.08597" lon="14.2676917"><ele>41.0</ele><time>2026-04-18T08:06:38.101Z</time></trkpt><trkpt lat="41.08601" lon="14.267615"><ele>41.0</ele><time>2026-04-18T08:06:39.101Z</time></trkpt><trkpt lat="41.0860433" lon="14.2675317"><ele>41.0</ele><time>2026-04-18T08:06:40.101Z</time></trkpt><trkpt lat="41.0860883" lon="14.2674367"><ele>41.0</ele><time>2026-04-18T08:06:41.101Z</time></trkpt><trkpt lat="41.0861317" lon="14.26734"><ele>41.0</ele><time>2026-04-18T08:06:42.101Z</time></trkpt><trkpt lat="41.08617" lon="14.2672367"><ele>41.0</ele><time>2026-04-18T08:06:43.101Z</time></trkpt><trkpt lat="41.0862033" lon="14.267135"><ele>41.0</ele><time>2026-04-18T08:06:44.102Z</time></trkpt><trkpt lat="41.0862283" lon="14.2670283"><ele>41.0</ele><time>2026-04-18T08:06:45.101Z</time></trkpt><trkpt lat="41.08626" lon="14.2669233"><ele>41.0</ele><time>2026-04-18T08:06:46.101Z</time></trkpt><trkpt lat="41.0862867" lon="14.2668133"><ele>41.0</ele><time>2026-04-18T08:06:47.101Z</time></trkpt><trkpt lat="41.08631" lon="14.2667117"><ele>41.0</ele><time>2026-04-18T08:06:48.101Z</time></trkpt><trkpt lat="41.08633" lon="14.2666167"><ele>40.99999999999999</ele><time>2026-04-18T08:06:49.101Z</time></trkpt><trkpt lat="41.08635" lon="14.2665267"><ele>41.0</ele><time>2026-04-18T08:06:50.101Z</time></trkpt><trkpt lat="41.08637" lon="14.2664383"><ele>41.0</ele><time>2026-04-18T08:06:51.101Z</time></trkpt><trkpt lat="41.0863867" lon="14.2663533"><ele>41.0</ele><time>2026-04-18T08:06:52.101Z</time></trkpt><trkpt lat="41.0864033" lon="14.266265"><ele>41.0</ele><time>2026-04-18T08:06:53.101Z</time></trkpt><trkpt lat="41.08643" lon="14.2661717"><ele>40.99999999999999</ele><time>2026-04-18T08:06:54.101Z</time></trkpt><trkpt lat="41.0864583" lon="14.2660767"><ele>41.0</ele><time>2026-04-18T08:06:55.101Z</time></trkpt><trkpt lat="41.0864983" lon="14.265975"><ele>41.33333333333333</ele><time>2026-04-18T08:06:56.101Z</time></trkpt><trkpt lat="41.08654" lon="14.2658767"><ele>41.666666666666664</ele><time>2026-04-18T08:06:57.101Z</time></trkpt><trkpt lat="41.086595" lon="14.2657867"><ele>42.0</ele><time>2026-04-18T08:06:58.102Z</time></trkpt><trkpt lat="41.086655" lon="14.2657067"><ele>42.333333333333336</ele><time>2026-04-18T08:06:59.101Z</time></trkpt><trkpt lat="41.086725" lon="14.2656467"><ele>42.66666666666667</ele><time>2026-04-18T08:07:00.101Z</time></trkpt><trkpt lat="41.086805" lon="14.2656017"><ele>43.0</ele><time>2026-04-18T08:07:01.101Z</time></trkpt><trkpt lat="41.086885" lon="14.2655783"><ele>43.333333333333336</ele><time>2026-04-18T08:07:02.101Z</time></trkpt><trkpt lat="41.0869667" lon="14.2655617"><ele>43.66666666666667</ele><time>2026-04-18T08:07:03.101Z</time></trkpt><trkpt lat="41.087045" lon="14.2655467"><ele>44.0</ele><time>2026-04-18T08:07:04.101Z</time></trkpt><trkpt lat="41.0871217" lon="14.2655383"><ele>44.333333333333336</ele><time>2026-04-18T08:07:05.101Z</time></trkpt><trkpt lat="41.0871917" lon="14.2655333"><ele>44.666666666666664</ele><time>2026-04-18T08:07:06.101Z</time></trkpt><trkpt lat="41.0873133" lon="14.2655233"><ele>45.0</ele><time>2026-04-18T08:07:08.101Z</time></trkpt><trkpt lat="41.0873767" lon="14.26551"><ele>44.714285714285715</ele><time>2026-04-18T08:07:09.102Z</time></trkpt><trkpt lat="41.08744" lon="14.2654983"><ele>44.42857142857143</ele><time>2026-04-18T08:07:10.101Z</time></trkpt><trkpt lat="41.0875067" lon="14.2654967"><ele>44.142857142857146</ele><time>2026-04-18T08:07:11.101Z</time></trkpt><trkpt lat="41.0875733" lon="14.2655017"><ele>43.85714285714286</ele><time>2026-04-18T08:07:12.101Z</time></trkpt><trkpt lat="41.0876517" lon="14.2654917"><ele>43.57142857142857</ele><time>2026-04-18T08:07:13.101Z</time></trkpt><trkpt lat="41.0877183" lon="14.2654867"><ele>43.28571428571429</ele><time>2026-04-18T08:07:14.101Z</time></trkpt><trkpt lat="41.087785" lon="14.2654867"><ele>43.0</ele><time>2026-04-18T08:07:15.101Z</time></trkpt><trkpt lat="41.0878517" lon="14.2654917"><ele>43.0</ele><time>2026-04-18T08:07:16.101Z</time></trkpt><trkpt lat="41.0879283" lon="14.2654883"><ele>43.0</ele><time>2026-04-18T08:07:17.101Z</time></trkpt><trkpt lat="41.08801" lon="14.265485"><ele>43.0</ele><time>2026-04-18T08:07:18.101Z</time></trkpt><trkpt lat="41.0880917" lon="14.2654767"><ele>43.0</ele><time>2026-04-18T08:07:19.101Z</time></trkpt><trkpt lat="41.0881783" lon="14.265475"><ele>43.0</ele><time>2026-04-18T08:07:20.101Z</time></trkpt><trkpt lat="41.0882617" lon="14.2654633"><ele>43.0</ele><time>2026-04-18T08:07:21.101Z</time></trkpt><trkpt lat="41.088345" lon="14.26545"><ele>42.42857142857143</ele><time>2026-04-18T08:07:22.101Z</time></trkpt><trkpt lat="41.0884367" lon="14.2654533"><ele>41.85714285714286</ele><time>2026-04-18T08:07:23.101Z</time></trkpt><trkpt lat="41.0885217" lon="14.2654583"><ele>41.28571428571429</ele><time>2026-04-18T08:07:24.101Z</time></trkpt><trkpt lat="41.0885967" lon="14.2654583"><ele>40.714285714285715</ele><time>2026-04-18T08:07:25.101Z</time></trkpt><trkpt lat="41.08866" lon="14.2654583"><ele>40.14285714285714</ele><time>2026-04-18T08:07:26.101Z</time></trkpt><trkpt lat="41.0887233" lon="14.2654533"><ele>39.57142857142858</ele><time>2026-04-18T08:07:27.101Z</time></trkpt><trkpt lat="41.0887917" lon="14.26545"><ele>39.0</ele><time>2026-04-18T08:07:28.101Z</time></trkpt><trkpt lat="41.0888683" lon="14.265445"><ele>39.0</ele><time>2026-04-18T08:07:29.101Z</time></trkpt><trkpt lat="41.08895" lon="14.2654483"><ele>39.0</ele><time>2026-04-18T08:07:30.101Z</time></trkpt><trkpt lat="41.089035" lon="14.2654483"><ele>39.0</ele><time>2026-04-18T08:07:31.101Z</time></trkpt><trkpt lat="41.0891183" lon="14.2654433"><ele>39.0</ele><time>2026-04-18T08:07:32.101Z</time></trkpt><trkpt lat="41.08921" lon="14.2654433"><ele>39.0</ele><time>2026-04-18T08:07:33.101Z</time></trkpt><trkpt lat="41.0893017" lon="14.2654317"><ele>39.0</ele><time>2026-04-18T08:07:34.101Z</time></trkpt><trkpt lat="41.0893917" lon="14.2654233"><ele>39.166666666666664</ele><time>2026-04-18T08:07:35.101Z</time></trkpt><trkpt lat="41.0894783" lon="14.26542"><ele>39.333333333333336</ele><time>2026-04-18T08:07:36.101Z</time></trkpt><trkpt lat="41.089555" lon="14.2654117"><ele>39.5</ele><time>2026-04-18T08:07:37.101Z</time></trkpt><trkpt lat="41.08963" lon="14.2654033"><ele>39.66666666666667</ele><time>2026-04-18T08:07:38.101Z</time></trkpt><trkpt lat="41.08971" lon="14.2653967"><ele>39.833333333333336</ele><time>2026-04-18T08:07:39.101Z</time></trkpt><trkpt lat="41.0897917" lon="14.2654"><ele>40.0</ele><time>2026-04-18T08:07:40.101Z</time></trkpt><trkpt lat="41.0898833" lon="14.265405"><ele>41.0</ele><time>2026-04-18T08:07:41.101Z</time></trkpt><trkpt lat="41.089975" lon="14.2654433"><ele>42.0</ele><time>2026-04-18T08:07:42.101Z</time></trkpt><trkpt lat="41.0900667" lon="14.2654567"><ele>43.0</ele><time>2026-04-18T08:07:43.101Z</time></trkpt><trkpt lat="41.0901583" lon="14.26545"><ele>44.0</ele><time>2026-04-18T08:07:44.101Z</time></trkpt><trkpt lat="41.0902533" lon="14.26545"><ele>45.0</ele><time>2026-04-18T08:07:45.101Z</time></trkpt><trkpt lat="41.0903367" lon="14.2654417"><ele>45.0</ele><time>2026-04-18T08:07:46.101Z</time></trkpt><trkpt lat="41.0904117" lon="14.2654383"><ele>45.0</ele><time>2026-04-18T08:07:47.101Z</time></trkpt><trkpt lat="41.0904817" lon="14.265435"><ele>45.0</ele><time>2026-04-18T08:07:48.101Z</time></trkpt><trkpt lat="41.09061" lon="14.26544"><ele>45.0</ele><time>2026-04-18T08:07:50.101Z</time></trkpt><trkpt lat="41.09074" lon="14.2654433"><ele>45.0</ele><time>2026-04-18T08:07:52.101Z</time></trkpt><trkpt lat="41.0908167" lon="14.2654417"><ele>44.666666666666664</ele><time>2026-04-18T08:07:53.101Z</time></trkpt><trkpt lat="41.0908983" lon="14.265435"><ele>44.333333333333336</ele><time>2026-04-18T08:07:54.101Z</time></trkpt><trkpt lat="41.0909817" lon="14.2654267"><ele>44.0</ele><time>2026-04-18T08:07:55.101Z</time></trkpt><trkpt lat="41.09107" lon="14.2654233"><ele>43.66666666666667</ele><time>2026-04-18T08:07:56.101Z</time></trkpt><trkpt lat="41.0911483" lon="14.2654133"><ele>43.333333333333336</ele><time>2026-04-18T08:07:57.101Z</time></trkpt><trkpt lat="41.09122" lon="14.2654133"><ele>43.0</ele><time>2026-04-18T08:07:58.101Z</time></trkpt><trkpt lat="41.09133" lon="14.2654217"><ele>43.0</ele><time>2026-04-18T08:08:00.101Z</time></trkpt><trkpt lat="41.091455" lon="14.2654083"><ele>43.0</ele><time>2026-04-18T08:08:02.101Z</time></trkpt><trkpt lat="41.0915383" lon="14.2653983"><ele>43.0</ele><time>2026-04-18T08:08:03.101Z</time></trkpt><trkpt lat="41.0916333" lon="14.2653867"><ele>43.0</ele><time>2026-04-18T08:08:04.101Z</time></trkpt><trkpt lat="41.0917367" lon="14.2653733"><ele>43.0</ele><time>2026-04-18T08:08:05.101Z</time></trkpt><trkpt lat="41.09185" lon="14.2653617"><ele>42.5</ele><time>2026-04-18T08:08:06.101Z</time></trkpt><trkpt lat="41.0919783" lon="14.26535"><ele>42.0</ele><time>2026-04-18T08:08:07.101Z</time></trkpt><trkpt lat="41.0921133" lon="14.265335"><ele>41.5</ele><time>2026-04-18T08:08:08.101Z</time></trkpt><trkpt lat="41.0922533" lon="14.2653233"><ele>41.0</ele><time>2026-04-18T08:08:09.101Z</time></trkpt><trkpt lat="41.092395" lon="14.26532"><ele>41.0</ele><time>2026-04-18T08:08:10.101Z</time></trkpt><trkpt lat="41.0925383" lon="14.2653217"><ele>41.0</ele><time>2026-04-18T08:08:11.102Z</time></trkpt><trkpt lat="41.09268" lon="14.2653267"><ele>41.0</ele><time>2026-04-18T08:08:12.101Z</time></trkpt><trkpt lat="41.09281" lon="14.2653367"><ele>41.0</ele><time>2026-04-18T08:08:13.101Z</time></trkpt><trkpt lat="41.0929267" lon="14.26534"><ele>41.0</ele><time>2026-04-18T08:08:14.101Z</time></trkpt><trkpt lat="41.0930333" lon="14.2653433"><ele>41.0</ele><time>2026-04-18T08:08:15.101Z</time></trkpt><trkpt lat="41.0931267" lon="14.2653483"><ele>41.0</ele><time>2026-04-18T08:08:16.101Z</time></trkpt><trkpt lat="41.093225" lon="14.265355"><ele>41.0</ele><time>2026-04-18T08:08:17.101Z</time></trkpt><trkpt lat="41.09333" lon="14.2653633"><ele>41.0</ele><time>2026-04-18T08:08:18.101Z</time></trkpt><trkpt lat="41.093445" lon="14.2653683"><ele>41.199999999999996</ele><time>2026-04-18T08:08:19.101Z</time></trkpt><trkpt lat="41.09356" lon="14.265385"><ele>41.4</ele><time>2026-04-18T08:08:20.101Z</time></trkpt><trkpt lat="41.0936717" lon="14.2653983"><ele>41.6</ele><time>2026-04-18T08:08:21.101Z</time></trkpt><trkpt lat="41.0937767" lon="14.2654083"><ele>41.8</ele><time>2026-04-18T08:08:22.101Z</time></trkpt><trkpt lat="41.0938733" lon="14.2654167"><ele>42.0</ele><time>2026-04-18T08:08:23.101Z</time></trkpt><trkpt lat="41.0939633" lon="14.2654133"><ele>42.0</ele><time>2026-04-18T08:08:24.101Z</time></trkpt><trkpt lat="41.0940367" lon="14.2654133"><ele>42.0</ele><time>2026-04-18T08:08:25.101Z</time></trkpt><trkpt lat="41.0941033" lon="14.265405"><ele>42.0</ele><time>2026-04-18T08:08:26.101Z</time></trkpt><trkpt lat="41.094165" lon="14.2653833"><ele>42.0</ele><time>2026-04-18T08:08:27.101Z</time></trkpt><trkpt lat="41.0942583" lon="14.2653083"><ele>42.0</ele><time>2026-04-18T08:08:29.101Z</time></trkpt><trkpt lat="41.094285" lon="14.2652317"><ele>42.0</ele><time>2026-04-18T08:08:30.102Z</time></trkpt><trkpt lat="41.0943" lon="14.2651317"><ele>42.0</ele><time>2026-04-18T08:08:31.102Z</time></trkpt><trkpt lat="41.0943067" lon="14.2650033"><ele>42.0</ele><time>2026-04-18T08:08:32.101Z</time></trkpt><trkpt lat="41.0943067" lon="14.2648533"><ele>42.0</ele><time>2026-04-18T08:08:33.101Z</time></trkpt><trkpt lat="41.0943017" lon="14.26468"><ele>42.0</ele><time>2026-04-18T08:08:34.101Z</time></trkpt><trkpt lat="41.0943017" lon="14.264515"><ele>42.0</ele><time>2026-04-18T08:08:35.101Z</time></trkpt><trkpt lat="41.0943017" lon="14.2643717"><ele>42.0</ele><time>2026-04-18T08:08:36.101Z</time></trkpt><trkpt lat="41.0943017" lon="14.2642433"><ele>42.0</ele><time>2026-04-18T08:08:37.101Z</time></trkpt><trkpt lat="41.0943" lon="14.26413"><ele>42.0</ele><time>2026-04-18T08:08:38.101Z</time></trkpt><trkpt lat="41.0942983" lon="14.2640217"><ele>42.0</ele><time>2026-04-18T08:08:39.101Z</time></trkpt><trkpt lat="41.0942967" lon="14.263895"><ele>42.0</ele><time>2026-04-18T08:08:40.101Z</time></trkpt><trkpt lat="41.0942983" lon="14.2637533"><ele>42.0</ele><time>2026-04-18T08:08:41.101Z</time></trkpt><trkpt lat="41.0942933" lon="14.2635917"><ele>42.0</ele><time>2026-04-18T08:08:42.102Z</time></trkpt><trkpt lat="41.0942917" lon="14.2634033"><ele>42.0</ele><time>2026-04-18T08:08:43.101Z</time></trkpt><trkpt lat="41.09429" lon="14.2631967"><ele>41.333333333333336</ele><time>2026-04-18T08:08:44.101Z</time></trkpt><trkpt lat="41.0942883" lon="14.2629683"><ele>40.66666666666667</ele><time>2026-04-18T08:08:45.101Z</time></trkpt><trkpt lat="41.0942867" lon="14.2627433"><ele>40.0</ele><time>2026-04-18T08:08:46.101Z</time></trkpt><trkpt lat="41.0942817" lon="14.2625117"><ele>40.0</ele><time>2026-04-18T08:08:47.101Z</time></trkpt><trkpt lat="41.0942817" lon="14.262285"><ele>40.0</ele><time>2026-04-18T08:08:48.101Z</time></trkpt><trkpt lat="41.09428" lon="14.262055"><ele>40.0</ele><time>2026-04-18T08:08:49.101Z</time></trkpt><trkpt lat="41.0942833" lon="14.26184"><ele>39.75</ele><time>2026-04-18T08:08:50.102Z</time></trkpt><trkpt lat="41.0942833" lon="14.26163"><ele>39.5</ele><time>2026-04-18T08:08:51.101Z</time></trkpt><trkpt lat="41.0942883" lon="14.261445"><ele>39.25</ele><time>2026-04-18T08:08:52.102Z</time></trkpt><trkpt lat="41.0942933" lon="14.2612817"><ele>39.0</ele><time>2026-04-18T08:08:53.101Z</time></trkpt><trkpt lat="41.094295" lon="14.26114"><ele>38.833333333333336</ele><time>2026-04-18T08:08:54.101Z</time></trkpt><trkpt lat="41.094295" lon="14.2610167"><ele>38.666666666666664</ele><time>2026-04-18T08:08:55.101Z</time></trkpt><trkpt lat="41.0942967" lon="14.2609133"><ele>38.5</ele><time>2026-04-18T08:08:56.101Z</time></trkpt><trkpt lat="41.0942933" lon="14.2608233"><ele>38.33333333333333</ele><time>2026-04-18T08:08:57.101Z</time></trkpt><trkpt lat="41.09429" lon="14.2607283"><ele>38.166666666666664</ele><time>2026-04-18T08:08:58.102Z</time></trkpt><trkpt lat="41.09429" lon="14.26061"><ele>38.0</ele><time>2026-04-18T08:08:59.101Z</time></trkpt><trkpt lat="41.0942883" lon="14.2604733"><ele>38.0</ele><time>2026-04-18T08:09:00.101Z</time></trkpt><trkpt lat="41.09429" lon="14.2603183"><ele>38.0</ele><time>2026-04-18T08:09:01.101Z</time></trkpt><trkpt lat="41.0942883" lon="14.2601383"><ele>38.0</ele><time>2026-04-18T08:09:02.101Z</time></trkpt><trkpt lat="41.09428" lon="14.25993"><ele>38.0</ele><time>2026-04-18T08:09:03.101Z</time></trkpt><trkpt lat="41.0942783" lon="14.2597167"><ele>38.0</ele><time>2026-04-18T08:09:04.101Z</time></trkpt><trkpt lat="41.0942733" lon="14.259495"><ele>38.0</ele><time>2026-04-18T08:09:05.101Z</time></trkpt><trkpt lat="41.0942733" lon="14.2592617"><ele>38.0</ele><time>2026-04-18T08:09:06.101Z</time></trkpt><trkpt lat="41.0942717" lon="14.25902"><ele>37.666666666666664</ele><time>2026-04-18T08:09:07.101Z</time></trkpt><trkpt lat="41.0942733" lon="14.25879"><ele>37.333333333333336</ele><time>2026-04-18T08:09:08.102Z</time></trkpt><trkpt lat="41.0942717" lon="14.2585817"><ele>37.0</ele><time>2026-04-18T08:09:09.101Z</time></trkpt><trkpt lat="41.0942767" lon="14.2584017"><ele>37.0</ele><time>2026-04-18T08:09:10.101Z</time></trkpt><trkpt lat="41.0942783" lon="14.258235"><ele>37.0</ele><time>2026-04-18T08:09:11.101Z</time></trkpt><trkpt lat="41.0942833" lon="14.2580833"><ele>37.0</ele><time>2026-04-18T08:09:12.101Z</time></trkpt><trkpt lat="41.0942833" lon="14.2579483"><ele>37.0</ele><time>2026-04-18T08:09:13.101Z</time></trkpt><trkpt lat="41.0942867" lon="14.2578367"><ele>37.0</ele><time>2026-04-18T08:09:14.101Z</time></trkpt><trkpt lat="41.0942867" lon="14.257745"><ele>36.800000000000004</ele><time>2026-04-18T08:09:15.101Z</time></trkpt><trkpt lat="41.0942883" lon="14.2575967"><ele>36.6</ele><time>2026-04-18T08:09:17.102Z</time></trkpt><trkpt lat="41.0942883" lon="14.2574317"><ele>36.400000000000006</ele><time>2026-04-18T08:09:19.102Z</time></trkpt><trkpt lat="41.09429" lon="14.257335"><ele>36.2</ele><time>2026-04-18T08:09:20.101Z</time></trkpt><trkpt lat="41.0942967" lon="14.2572417"><ele>36.0</ele><time>2026-04-18T08:09:21.102Z</time></trkpt><trkpt lat="41.09431" lon="14.2571383"><ele>36.0</ele><time>2026-04-18T08:09:22.101Z</time></trkpt><trkpt lat="41.09432" lon="14.25702"><ele>36.0</ele><time>2026-04-18T08:09:23.101Z</time></trkpt><trkpt lat="41.0943133" lon="14.256895"><ele>36.0</ele><time>2026-04-18T08:09:24.101Z</time></trkpt><trkpt lat="41.094305" lon="14.2567567"><ele>36.0</ele><time>2026-04-18T08:09:25.101Z</time></trkpt><trkpt lat="41.0943033" lon="14.2566183"><ele>36.0</ele><time>2026-04-18T08:09:26.101Z</time></trkpt><trkpt lat="41.0943167" lon="14.2564817"><ele>35.833333333333336</ele><time>2026-04-18T08:09:27.101Z</time></trkpt><trkpt lat="41.0943217" lon="14.2563683"><ele>35.666666666666664</ele><time>2026-04-18T08:09:28.101Z</time></trkpt><trkpt lat="41.0943217" lon="14.2562667"><ele>35.5</ele><time>2026-04-18T08:09:29.101Z</time></trkpt><trkpt lat="41.0943283" lon="14.2561633"><ele>35.33333333333333</ele><time>2026-04-18T08:09:30.101Z</time></trkpt><trkpt lat="41.0943333" lon="14.2560433"><ele>35.166666666666664</ele><time>2026-04-18T08:09:31.101Z</time></trkpt><trkpt lat="41.094335" lon="14.2559083"><ele>35.0</ele><time>2026-04-18T08:09:32.101Z</time></trkpt><trkpt lat="41.09434" lon="14.2557567"><ele>35.25</ele><time>2026-04-18T08:09:33.101Z</time></trkpt><trkpt lat="41.0943433" lon="14.2556017"><ele>35.5</ele><time>2026-04-18T08:09:34.101Z</time></trkpt><trkpt lat="41.09435" lon="14.2554483"><ele>35.75</ele><time>2026-04-18T08:09:35.101Z</time></trkpt><trkpt lat="41.0943567" lon="14.25529"><ele>36.0</ele><time>2026-04-18T08:09:36.101Z</time></trkpt><trkpt lat="41.0943633" lon="14.2551233"><ele>36.0</ele><time>2026-04-18T08:09:37.101Z</time></trkpt><trkpt lat="41.0943717" lon="14.254955"><ele>36.0</ele><time>2026-04-18T08:09:38.101Z</time></trkpt><trkpt lat="41.0943733" lon="14.2547833"><ele>36.0</ele><time>2026-04-18T08:09:39.101Z</time></trkpt><trkpt lat="41.09438" lon="14.254615"><ele>36.0</ele><time>2026-04-18T08:09:40.101Z</time></trkpt><trkpt lat="41.0943867" lon="14.2544483"><ele>35.8</ele><time>2026-04-18T08:09:41.101Z</time></trkpt><trkpt lat="41.0943983" lon="14.2542933"><ele>35.6</ele><time>2026-04-18T08:09:42.101Z</time></trkpt><trkpt lat="41.0944083" lon="14.25415"><ele>35.4</ele><time>2026-04-18T08:09:43.101Z</time></trkpt><trkpt lat="41.0944183" lon="14.254015"><ele>35.2</ele><time>2026-04-18T08:09:44.101Z</time></trkpt><trkpt lat="41.094425" lon="14.2538933"><ele>35.0</ele><time>2026-04-18T08:09:45.102Z</time></trkpt><trkpt lat="41.0944333" lon="14.2537783"><ele>34.83333333333333</ele><time>2026-04-18T08:09:46.102Z</time></trkpt><trkpt lat="41.0944333" lon="14.253685"><ele>34.666666666666664</ele><time>2026-04-18T08:09:47.101Z</time></trkpt><trkpt lat="41.0944333" lon="14.2535933"><ele>34.5</ele><time>2026-04-18T08:09:48.101Z</time></trkpt><trkpt lat="41.0944417" lon="14.25344"><ele>34.333333333333336</ele><time>2026-04-18T08:09:50.101Z</time></trkpt><trkpt lat="41.0944583" lon="14.253325"><ele>34.16666666666667</ele><time>2026-04-18T08:09:52.101Z</time></trkpt><trkpt lat="41.09449" lon="14.25322"><ele>34.0</ele><time>2026-04-18T08:09:55.101Z</time></trkpt><trkpt lat="41.0945683" lon="14.2531767"><ele>34.0</ele><time>2026-04-18T08:09:58.101Z</time></trkpt><trkpt lat="41.09467" lon="14.2531467"><ele>34.0</ele><time>2026-04-18T08:10:01.101Z</time></trkpt><trkpt lat="41.09474" lon="14.253125"><ele>34.0</ele><time>2026-04-18T08:10:03.101Z</time></trkpt><trkpt lat="41.094805" lon="14.2531033"><ele>34.0</ele><time>2026-04-18T08:10:05.101Z</time></trkpt><trkpt lat="41.09489" lon="14.2530817"><ele>34.0</ele><time>2026-04-18T08:10:07.101Z</time></trkpt><trkpt lat="41.0949817" lon="14.2530717"><ele>34.0</ele><time>2026-04-18T08:10:09.101Z</time></trkpt><trkpt lat="41.0950933" lon="14.2530583"><ele>33.99999999999999</ele><time>2026-04-18T08:10:11.101Z</time></trkpt><trkpt lat="41.0951583" lon="14.2530467"><ele>34.0</ele><time>2026-04-18T08:10:12.101Z</time></trkpt><trkpt lat="41.0952283" lon="14.2530383"><ele>34.0</ele><time>2026-04-18T08:10:13.101Z</time></trkpt><trkpt lat="41.095295" lon="14.2530317"><ele>34.0</ele><time>2026-04-18T08:10:14.102Z</time></trkpt><trkpt lat="41.0953617" lon="14.253025"><ele>34.0</ele><time>2026-04-18T08:10:15.101Z</time></trkpt><trkpt lat="41.0954317" lon="14.25302"><ele>33.99999999999999</ele><time>2026-04-18T08:10:16.101Z</time></trkpt><trkpt lat="41.0955" lon="14.2530133"><ele>34.0</ele><time>2026-04-18T08:10:17.102Z</time></trkpt><trkpt lat="41.0955733" lon="14.2530067"><ele>34.0</ele><time>2026-04-18T08:10:18.102Z</time></trkpt><trkpt lat="41.0956467" lon="14.2529967"><ele>34.0</ele><time>2026-04-18T08:10:19.101Z</time></trkpt><trkpt lat="41.0957183" lon="14.2529867"><ele>34.0</ele><time>2026-04-18T08:10:20.101Z</time></trkpt><trkpt lat="41.09579" lon="14.2529817"><ele>34.0</ele><time>2026-04-18T08:10:21.101Z</time></trkpt><trkpt lat="41.0958667" lon="14.2529733"><ele>34.0</ele><time>2026-04-18T08:10:22.101Z</time></trkpt><trkpt lat="41.0959533" lon="14.252965"><ele>34.0</ele><time>2026-04-18T08:10:23.101Z</time></trkpt><trkpt lat="41.0960367" lon="14.2529567"><ele>34.0</ele><time>2026-04-18T08:10:24.101Z</time></trkpt><trkpt lat="41.096115" lon="14.2529633"><ele>34.0</ele><time>2026-04-18T08:10:25.101Z</time></trkpt><trkpt lat="41.0962017" lon="14.25297"><ele>34.0</ele><time>2026-04-18T08:10:26.101Z</time></trkpt><trkpt lat="41.096285" lon="14.2529917"><ele>34.0</ele><time>2026-04-18T08:10:27.101Z</time></trkpt><trkpt lat="41.0963667" lon="14.2530183"><ele>34.0</ele><time>2026-04-18T08:10:28.101Z</time></trkpt><trkpt lat="41.0964433" lon="14.2530517"><ele>34.0</ele><time>2026-04-18T08:10:29.101Z</time></trkpt><trkpt lat="41.09651" lon="14.253085"><ele>34.0</ele><time>2026-04-18T08:10:30.101Z</time></trkpt><trkpt lat="41.0966" lon="14.2531567"><ele>34.0</ele><time>2026-04-18T08:10:32.102Z</time></trkpt><trkpt lat="41.096655" lon="14.2532167"><ele>34.0</ele><time>2026-04-18T08:10:34.101Z</time></trkpt><trkpt lat="41.0967017" lon="14.2533133"><ele>34.0</ele><time>2026-04-18T08:10:36.101Z</time></trkpt><trkpt lat="41.0967717" lon="14.2534367"><ele>34.0</ele><time>2026-04-18T08:10:38.101Z</time></trkpt><trkpt lat="41.0968233" lon="14.2534983"><ele>34.0</ele><time>2026-04-18T08:10:39.102Z</time></trkpt><trkpt lat="41.096875" lon="14.2535483"><ele>33.99999999999999</ele><time>2026-04-18T08:10:40.101Z</time></trkpt><trkpt lat="41.096935" lon="14.2535783"><ele>34.0</ele><time>2026-04-18T08:10:41.101Z</time></trkpt><trkpt lat="41.0970033" lon="14.253575"><ele>34.0</ele><time>2026-04-18T08:10:42.101Z</time></trkpt><trkpt lat="41.09707" lon="14.2535433"><ele>34.0</ele><time>2026-04-18T08:10:43.101Z</time></trkpt><trkpt lat="41.0971217" lon="14.25348"><ele>34.0</ele><time>2026-04-18T08:10:44.101Z</time></trkpt><trkpt lat="41.09716" lon="14.2533967"><ele>33.99999999999999</ele><time>2026-04-18T08:10:45.101Z</time></trkpt><trkpt lat="41.0971883" lon="14.2532967"><ele>34.0</ele><time>2026-04-18T08:10:46.101Z</time></trkpt><trkpt lat="41.0972067" lon="14.2532"><ele>34.333333333333336</ele><time>2026-04-18T08:10:47.101Z</time></trkpt><trkpt lat="41.0972317" lon="14.2531133"><ele>34.66666666666667</ele><time>2026-04-18T08:10:48.101Z</time></trkpt><trkpt lat="41.0972667" lon="14.253035"><ele>35.0</ele><time>2026-04-18T08:10:49.101Z</time></trkpt><trkpt lat="41.0973117" lon="14.25296"><ele>35.333333333333336</ele><time>2026-04-18T08:10:50.101Z</time></trkpt><trkpt lat="41.097375" lon="14.252895"><ele>35.666666666666664</ele><time>2026-04-18T08:10:51.101Z</time></trkpt><trkpt lat="41.097445" lon="14.2528417"><ele>36.0</ele><time>2026-04-18T08:10:52.101Z</time></trkpt><trkpt lat="41.09753" lon="14.252805"><ele>36.0</ele><time>2026-04-18T08:10:53.101Z</time></trkpt><trkpt lat="41.0976167" lon="14.2527833"><ele>36.0</ele><time>2026-04-18T08:10:54.101Z</time></trkpt><trkpt lat="41.0977017" lon="14.2527633"><ele>36.0</ele><time>2026-04-18T08:10:55.102Z</time></trkpt><trkpt lat="41.0977883" lon="14.252745"><ele>36.0</ele><time>2026-04-18T08:10:56.101Z</time></trkpt><trkpt lat="41.09787" lon="14.2527283"><ele>36.0</ele><time>2026-04-18T08:10:57.101Z</time></trkpt><trkpt lat="41.0979483" lon="14.2527183"><ele>36.0</ele><time>2026-04-18T08:10:58.101Z</time></trkpt><trkpt lat="41.0980183" lon="14.252715"><ele>36.0</ele><time>2026-04-18T08:10:59.101Z</time></trkpt><trkpt lat="41.0981567" lon="14.2527033"><ele>36.0</ele><time>2026-04-18T08:11:01.101Z</time></trkpt><trkpt lat="41.0982417" lon="14.2526933"><ele>36.0</ele><time>2026-04-18T08:11:02.101Z</time></trkpt><trkpt lat="41.0983283" lon="14.2526817"><ele>36.0</ele><time>2026-04-18T08:11:03.101Z</time></trkpt><trkpt lat="41.0984383" lon="14.2526567"><ele>36.0</ele><time>2026-04-18T08:11:04.101Z</time></trkpt><trkpt lat="41.0985733" lon="14.252635"><ele>35.666666666666664</ele><time>2026-04-18T08:11:05.101Z</time></trkpt><trkpt lat="41.098725" lon="14.25262"><ele>35.33333333333333</ele><time>2026-04-18T08:11:06.101Z</time></trkpt><trkpt lat="41.0988817" lon="14.2526"><ele>35.0</ele><time>2026-04-18T08:11:07.101Z</time></trkpt><trkpt lat="41.0990333" lon="14.2525917"><ele>35.0</ele><time>2026-04-18T08:11:08.101Z</time></trkpt><trkpt lat="41.0991883" lon="14.252585"><ele>35.0</ele><time>2026-04-18T08:11:09.102Z</time></trkpt><trkpt lat="41.09934" lon="14.2525717"><ele>35.0</ele><time>2026-04-18T08:11:10.101Z</time></trkpt><trkpt lat="41.0994983" lon="14.2525583"><ele>35.0</ele><time>2026-04-18T08:11:11.101Z</time></trkpt><trkpt lat="41.099655" lon="14.252545"><ele>35.0</ele><time>2026-04-18T08:11:12.101Z</time></trkpt><trkpt lat="41.0998117" lon="14.2525317"><ele>35.0</ele><time>2026-04-18T08:11:13.101Z</time></trkpt><trkpt lat="41.09997" lon="14.2525117"><ele>34.666666666666664</ele><time>2026-04-18T08:11:14.101Z</time></trkpt><trkpt lat="41.1001267" lon="14.2524883"><ele>34.333333333333336</ele><time>2026-04-18T08:11:15.101Z</time></trkpt><trkpt lat="41.10028" lon="14.2524667"><ele>34.0</ele><time>2026-04-18T08:11:16.101Z</time></trkpt><trkpt lat="41.100435" lon="14.25244"><ele>34.0</ele><time>2026-04-18T08:11:17.101Z</time></trkpt><trkpt lat="41.1005833" lon="14.25242"><ele>34.0</ele><time>2026-04-18T08:11:18.101Z</time></trkpt><trkpt lat="41.10073" lon="14.252405"><ele>34.0</ele><time>2026-04-18T08:11:19.101Z</time></trkpt><trkpt lat="41.1008767" lon="14.2523967"><ele>34.0</ele><time>2026-04-18T08:11:20.101Z</time></trkpt><trkpt lat="41.10102" lon="14.2523883"><ele>34.25</ele><time>2026-04-18T08:11:21.101Z</time></trkpt><trkpt lat="41.1011683" lon="14.252375"><ele>34.5</ele><time>2026-04-18T08:11:22.101Z</time></trkpt><trkpt lat="41.1013167" lon="14.2523567"><ele>34.75</ele><time>2026-04-18T08:11:23.101Z</time></trkpt><trkpt lat="41.1014667" lon="14.2523417"><ele>35.0</ele><time>2026-04-18T08:11:24.101Z</time></trkpt><trkpt lat="41.1016083" lon="14.2523267"><ele>35.25</ele><time>2026-04-18T08:11:25.101Z</time></trkpt><trkpt lat="41.1017567" lon="14.2523067"><ele>35.5</ele><time>2026-04-18T08:11:26.101Z</time></trkpt><trkpt lat="41.1019033" lon="14.2522917"><ele>35.75</ele><time>2026-04-18T08:11:27.101Z</time></trkpt><trkpt lat="41.1020483" lon="14.2522833"><ele>36.0</ele><time>2026-04-18T08:11:28.101Z</time></trkpt><trkpt lat="41.1021967" lon="14.2522667"><ele>35.0</ele><time>2026-04-18T08:11:29.101Z</time></trkpt><trkpt lat="41.1023467" lon="14.2522467"><ele>34.0</ele><time>2026-04-18T08:11:30.101Z</time></trkpt><trkpt lat="41.1025017" lon="14.2522267"><ele>33.0</ele><time>2026-04-18T08:11:31.101Z</time></trkpt><trkpt lat="41.1026583" lon="14.2522117"><ele>33.0</ele><time>2026-04-18T08:11:32.101Z</time></trkpt><trkpt lat="41.1028183" lon="14.252195"><ele>33.0</ele><time>2026-04-18T08:11:33.101Z</time></trkpt><trkpt lat="41.1029867" lon="14.2521767"><ele>33.0</ele><time>2026-04-18T08:11:34.101Z</time></trkpt><trkpt lat="41.10315" lon="14.2521567"><ele>33.666666666666664</ele><time>2026-04-18T08:11:35.101Z</time></trkpt><trkpt lat="41.1033167" lon="14.2521433"><ele>34.33333333333333</ele><time>2026-04-18T08:11:36.102Z</time></trkpt><trkpt lat="41.1034867" lon="14.2521217"><ele>35.0</ele><time>2026-04-18T08:11:37.101Z</time></trkpt><trkpt lat="41.1036533" lon="14.2521067"><ele>35.0</ele><time>2026-04-18T08:11:38.101Z</time></trkpt><trkpt lat="41.1038317" lon="14.252085"><ele>35.0</ele><time>2026-04-18T08:11:39.101Z</time></trkpt><trkpt lat="41.104005" lon="14.25207"><ele>35.0</ele><time>2026-04-18T08:11:40.101Z</time></trkpt><trkpt lat="41.1041783" lon="14.25205"><ele>35.0</ele><time>2026-04-18T08:11:41.101Z</time></trkpt><trkpt lat="41.1043533" lon="14.2520333"><ele>35.0</ele><time>2026-04-18T08:11:42.101Z</time></trkpt><trkpt lat="41.1045283" lon="14.2520117"><ele>35.0</ele><time>2026-04-18T08:11:43.101Z</time></trkpt><trkpt lat="41.1047017" lon="14.2519967"><ele>35.0</ele><time>2026-04-18T08:11:44.101Z</time></trkpt><trkpt lat="41.104875" lon="14.251985"><ele>35.0</ele><time>2026-04-18T08:11:45.101Z</time></trkpt><trkpt lat="41.1050417" lon="14.2519633"><ele>35.0</ele><time>2026-04-18T08:11:46.101Z</time></trkpt><trkpt lat="41.1052017" lon="14.2519417"><ele>34.666666666666664</ele><time>2026-04-18T08:11:47.101Z</time></trkpt><trkpt lat="41.10536" lon="14.2519183"><ele>34.333333333333336</ele><time>2026-04-18T08:11:48.101Z</time></trkpt><trkpt lat="41.105525" lon="14.2519017"><ele>34.0</ele><time>2026-04-18T08:11:49.101Z</time></trkpt><trkpt lat="41.1056883" lon="14.251885"><ele>34.333333333333336</ele><time>2026-04-18T08:11:50.102Z</time></trkpt><trkpt lat="41.1058467" lon="14.2518683"><ele>34.666666666666664</ele><time>2026-04-18T08:11:51.101Z</time></trkpt><trkpt lat="41.1060017" lon="14.2518583"><ele>35.0</ele><time>2026-04-18T08:11:52.101Z</time></trkpt><trkpt lat="41.10616" lon="14.2518417"><ele>35.0</ele><time>2026-04-18T08:11:53.101Z</time></trkpt><trkpt lat="41.1063217" lon="14.2518233"><ele>35.0</ele><time>2026-04-18T08:11:54.101Z</time></trkpt><trkpt lat="41.1064767" lon="14.2518117"><ele>35.0</ele><time>2026-04-18T08:11:55.101Z</time></trkpt><trkpt lat="41.1066333" lon="14.2517917"><ele>35.33333333333333</ele><time>2026-04-18T08:11:56.101Z</time></trkpt><trkpt lat="41.1067867" lon="14.2517767"><ele>35.666666666666664</ele><time>2026-04-18T08:11:57.101Z</time></trkpt><trkpt lat="41.1069367" lon="14.2517667"><ele>36.0</ele><time>2026-04-18T08:11:58.101Z</time></trkpt><trkpt lat="41.1070817" lon="14.25175"><ele>36.0</ele><time>2026-04-18T08:11:59.101Z</time></trkpt><trkpt lat="41.1072283" lon="14.251735"><ele>36.0</ele><time>2026-04-18T08:12:00.101Z</time></trkpt><trkpt lat="41.1073633" lon="14.2517233"><ele>36.0</ele><time>2026-04-18T08:12:01.101Z</time></trkpt><trkpt lat="41.107495" lon="14.2517083"><ele>36.0</ele><time>2026-04-18T08:12:02.101Z</time></trkpt><trkpt lat="41.1076267" lon="14.2516983"><ele>36.25</ele><time>2026-04-18T08:12:03.101Z</time></trkpt><trkpt lat="41.1077667" lon="14.2516833"><ele>36.5</ele><time>2026-04-18T08:12:04.101Z</time></trkpt><trkpt lat="41.10791" lon="14.25167"><ele>36.75</ele><time>2026-04-18T08:12:05.101Z</time></trkpt><trkpt lat="41.10805" lon="14.2516583"><ele>37.0</ele><time>2026-04-18T08:12:06.101Z</time></trkpt><trkpt lat="41.1081867" lon="14.2516467"><ele>37.25</ele><time>2026-04-18T08:12:07.101Z</time></trkpt><trkpt lat="41.10833" lon="14.2516333"><ele>37.5</ele><time>2026-04-18T08:12:08.101Z</time></trkpt><trkpt lat="41.108475" lon="14.251615"><ele>37.75</ele><time>2026-04-18T08:12:09.102Z</time></trkpt><trkpt lat="41.1086183" lon="14.2516033"><ele>38.0</ele><time>2026-04-18T08:12:10.101Z</time></trkpt><trkpt lat="41.10876" lon="14.2515833"><ele>38.0</ele><time>2026-04-18T08:12:11.102Z</time></trkpt><trkpt lat="41.1088933" lon="14.25157"><ele>38.0</ele><time>2026-04-18T08:12:12.101Z</time></trkpt><trkpt lat="41.1090167" lon="14.25156"><ele>38.0</ele><time>2026-04-18T08:12:13.101Z</time></trkpt><trkpt lat="41.1091217" lon="14.2515517"><ele>38.0</ele><time>2026-04-18T08:12:14.101Z</time></trkpt><trkpt lat="41.1092167" lon="14.2515433"><ele>38.0</ele><time>2026-04-18T08:12:15.101Z</time></trkpt><trkpt lat="41.1093067" lon="14.25153"><ele>38.0</ele><time>2026-04-18T08:12:16.101Z</time></trkpt><trkpt lat="41.1094083" lon="14.2515117"><ele>38.0</ele><time>2026-04-18T08:12:17.101Z</time></trkpt><trkpt lat="41.1095167" lon="14.251495"><ele>38.0</ele><time>2026-04-18T08:12:18.101Z</time></trkpt><trkpt lat="41.10962" lon="14.2514717"><ele>38.0</ele><time>2026-04-18T08:12:19.101Z</time></trkpt><trkpt lat="41.1097317" lon="14.2514583"><ele>37.75</ele><time>2026-04-18T08:12:20.102Z</time></trkpt><trkpt lat="41.109845" lon="14.2514433"><ele>37.5</ele><time>2026-04-18T08:12:21.101Z</time></trkpt><trkpt lat="41.1099633" lon="14.2514317"><ele>37.25</ele><time>2026-04-18T08:12:22.101Z</time></trkpt><trkpt lat="41.110085" lon="14.2514267"><ele>37.0</ele><time>2026-04-18T08:12:23.101Z</time></trkpt><trkpt lat="41.1102067" lon="14.2514067"><ele>37.0</ele><time>2026-04-18T08:12:24.101Z</time></trkpt><trkpt lat="41.1103217" lon="14.251405"><ele>37.0</ele><time>2026-04-18T08:12:25.101Z</time></trkpt><trkpt lat="41.1104433" lon="14.25139"><ele>37.0</ele><time>2026-04-18T08:12:26.101Z</time></trkpt><trkpt lat="41.1105733" lon="14.251375"><ele>37.0</ele><time>2026-04-18T08:12:27.101Z</time></trkpt><trkpt lat="41.1107033" lon="14.2513567"><ele>37.25</ele><time>2026-04-18T08:12:28.101Z</time></trkpt><trkpt lat="41.1108267" lon="14.2513333"><ele>37.5</ele><time>2026-04-18T08:12:29.101Z</time></trkpt><trkpt lat="41.1109483" lon="14.2513217"><ele>37.75</ele><time>2026-04-18T08:12:30.101Z</time></trkpt><trkpt lat="41.11107" lon="14.2513183"><ele>38.0</ele><time>2026-04-18T08:12:31.101Z</time></trkpt><trkpt lat="41.1111917" lon="14.251315"><ele>38.0</ele><time>2026-04-18T08:12:32.101Z</time></trkpt><trkpt lat="41.11132" lon="14.251305"><ele>38.0</ele><time>2026-04-18T08:12:33.101Z</time></trkpt><trkpt lat="41.1114433" lon="14.2512917"><ele>38.0</ele><time>2026-04-18T08:12:34.101Z</time></trkpt><trkpt lat="41.1115683" lon="14.2512783"><ele>38.0</ele><time>2026-04-18T08:12:35.101Z</time></trkpt><trkpt lat="41.111685" lon="14.2512667"><ele>38.599999999999994</ele><time>2026-04-18T08:12:36.101Z</time></trkpt><trkpt lat="41.1117967" lon="14.2512517"><ele>39.199999999999996</ele><time>2026-04-18T08:12:37.101Z</time></trkpt><trkpt lat="41.1118967" lon="14.2512417"><ele>39.8</ele><time>2026-04-18T08:12:38.101Z</time></trkpt><trkpt lat="41.1119883" lon="14.251235"><ele>40.4</ele><time>2026-04-18T08:12:39.101Z</time></trkpt><trkpt lat="41.1120633" lon="14.2512217"><ele>41.0</ele><time>2026-04-18T08:12:40.101Z</time></trkpt><trkpt lat="41.112135" lon="14.25121"><ele>41.0</ele><time>2026-04-18T08:12:41.101Z</time></trkpt><trkpt lat="41.1122117" lon="14.2512"><ele>41.0</ele><time>2026-04-18T08:12:42.101Z</time></trkpt><trkpt lat="41.1122933" lon="14.2511983"><ele>41.0</ele><time>2026-04-18T08:12:43.101Z</time></trkpt><trkpt lat="41.1123817" lon="14.25119"><ele>41.0</ele><time>2026-04-18T08:12:44.102Z</time></trkpt><trkpt lat="41.11248" lon="14.2511767"><ele>41.0</ele><time>2026-04-18T08:12:45.102Z</time></trkpt><trkpt lat="41.1125717" lon="14.2511683"><ele>41.0</ele><time>2026-04-18T08:12:46.101Z</time></trkpt><trkpt lat="41.1126717" lon="14.25116"><ele>41.199999999999996</ele><time>2026-04-18T08:12:47.101Z</time></trkpt><trkpt lat="41.1127733" lon="14.25115"><ele>41.4</ele><time>2026-04-18T08:12:48.101Z</time></trkpt><trkpt lat="41.1128817" lon="14.2511367"><ele>41.6</ele><time>2026-04-18T08:12:49.102Z</time></trkpt><trkpt lat="41.112985" lon="14.2511217"><ele>41.8</ele><time>2026-04-18T08:12:50.101Z</time></trkpt><trkpt lat="41.113095" lon="14.2511033"><ele>42.0</ele><time>2026-04-18T08:12:51.101Z</time></trkpt><trkpt lat="41.1132017" lon="14.2510983"><ele>42.2</ele><time>2026-04-18T08:12:52.101Z</time></trkpt><trkpt lat="41.11331" lon="14.25108"><ele>42.400000000000006</ele><time>2026-04-18T08:12:53.101Z</time></trkpt><trkpt lat="41.11342" lon="14.2510617"><ele>42.599999999999994</ele><time>2026-04-18T08:12:54.101Z</time></trkpt><trkpt lat="41.113535" lon="14.251045"><ele>42.8</ele><time>2026-04-18T08:12:55.101Z</time></trkpt><trkpt lat="41.1136483" lon="14.25104"><ele>43.0</ele><time>2026-04-18T08:12:56.101Z</time></trkpt><trkpt lat="41.113755" lon="14.2510267"><ele>43.0</ele><time>2026-04-18T08:12:57.101Z</time></trkpt><trkpt lat="41.1138667" lon="14.251015"><ele>43.0</ele><time>2026-04-18T08:12:58.101Z</time></trkpt><trkpt lat="41.1139867" lon="14.2510033"><ele>43.0</ele><time>2026-04-18T08:12:59.101Z</time></trkpt><trkpt lat="41.114105" lon="14.2509967"><ele>43.0</ele><time>2026-04-18T08:13:00.101Z</time></trkpt><trkpt lat="41.1142217" lon="14.2509833"><ele>43.25</ele><time>2026-04-18T08:13:01.101Z</time></trkpt><trkpt lat="41.1143383" lon="14.2509733"><ele>43.5</ele><time>2026-04-18T08:13:02.101Z</time></trkpt><trkpt lat="41.1144533" lon="14.250955"><ele>43.75</ele><time>2026-04-18T08:13:03.101Z</time></trkpt><trkpt lat="41.11457" lon="14.2509367"><ele>44.0</ele><time>2026-04-18T08:13:04.101Z</time></trkpt><trkpt lat="41.1146767" lon="14.2509217"><ele>44.0</ele><time>2026-04-18T08:13:05.101Z</time></trkpt><trkpt lat="41.1147767" lon="14.25092"><ele>44.0</ele><time>2026-04-18T08:13:06.101Z</time></trkpt><trkpt lat="41.1148683" lon="14.2509083"><ele>44.0</ele><time>2026-04-18T08:13:07.102Z</time></trkpt><trkpt lat="41.1149517" lon="14.250895"><ele>44.0</ele><time>2026-04-18T08:13:08.101Z</time></trkpt><trkpt lat="41.115035" lon="14.2508883"><ele>44.0</ele><time>2026-04-18T08:13:09.101Z</time></trkpt><trkpt lat="41.1151217" lon="14.2508817"><ele>44.0</ele><time>2026-04-18T08:13:10.102Z</time></trkpt><trkpt lat="41.1152117" lon="14.2508683"><ele>44.0</ele><time>2026-04-18T08:13:11.101Z</time></trkpt><trkpt lat="41.1153017" lon="14.2508583"><ele>44.0</ele><time>2026-04-18T08:13:12.101Z</time></trkpt><trkpt lat="41.115395" lon="14.2508517"><ele>44.0</ele><time>2026-04-18T08:13:13.101Z</time></trkpt><trkpt lat="41.1154933" lon="14.2508433"><ele>44.0</ele><time>2026-04-18T08:13:14.101Z</time></trkpt><trkpt lat="41.115585" lon="14.2508317"><ele>44.0</ele><time>2026-04-18T08:13:15.101Z</time></trkpt><trkpt lat="41.1156733" lon="14.25082"><ele>43.800000000000004</ele><time>2026-04-18T08:13:16.101Z</time></trkpt><trkpt lat="41.115745" lon="14.250815"><ele>43.6</ele><time>2026-04-18T08:13:17.101Z</time></trkpt><trkpt lat="41.1158383" lon="14.2508067"><ele>43.4</ele><time>2026-04-18T08:13:19.101Z</time></trkpt><trkpt lat="41.115975" lon="14.2507767"><ele>43.2</ele><time>2026-04-18T08:13:21.101Z</time></trkpt><trkpt lat="41.116075" lon="14.2507583"><ele>43.0</ele><time>2026-04-18T08:13:22.101Z</time></trkpt><trkpt lat="41.11621" lon="14.25074"><ele>43.0</ele><time>2026-04-18T08:13:23.101Z</time></trkpt><trkpt lat="41.1163583" lon="14.2507283"><ele>43.0</ele><time>2026-04-18T08:13:24.101Z</time></trkpt><trkpt lat="41.1165067" lon="14.2507167"><ele>43.0</ele><time>2026-04-18T08:13:25.102Z</time></trkpt><trkpt lat="41.1166533" lon="14.2507017"><ele>43.0</ele><time>2026-04-18T08:13:26.101Z</time></trkpt><trkpt lat="41.1168067" lon="14.2506867"><ele>42.333333333333336</ele><time>2026-04-18T08:13:27.101Z</time></trkpt><trkpt lat="41.1169583" lon="14.25067"><ele>41.666666666666664</ele><time>2026-04-18T08:13:28.101Z</time></trkpt><trkpt lat="41.1171067" lon="14.250655"><ele>41.0</ele><time>2026-04-18T08:13:29.101Z</time></trkpt><trkpt lat="41.1172583" lon="14.250635"><ele>41.0</ele><time>2026-04-18T08:13:30.101Z</time></trkpt><trkpt lat="41.1174" lon="14.2506217"><ele>41.0</ele><time>2026-04-18T08:13:31.101Z</time></trkpt><trkpt lat="41.117545" lon="14.2506017"><ele>41.0</ele><time>2026-04-18T08:13:32.101Z</time></trkpt><trkpt lat="41.117685" lon="14.250585"><ele>41.0</ele><time>2026-04-18T08:13:33.101Z</time></trkpt><trkpt lat="41.1178333" lon="14.2505667"><ele>41.25</ele><time>2026-04-18T08:13:34.101Z</time></trkpt><trkpt lat="41.1179767" lon="14.25055"><ele>41.5</ele><time>2026-04-18T08:13:35.101Z</time></trkpt><trkpt lat="41.1181283" lon="14.2505317"><ele>41.75</ele><time>2026-04-18T08:13:36.101Z</time></trkpt><trkpt lat="41.1182767" lon="14.2505083"><ele>42.0</ele><time>2026-04-18T08:13:37.101Z</time></trkpt><trkpt lat="41.1184117" lon="14.2504967"><ele>42.5</ele><time>2026-04-18T08:13:38.102Z</time></trkpt><trkpt lat="41.1185433" lon="14.25049"><ele>43.0</ele><time>2026-04-18T08:13:39.101Z</time></trkpt><trkpt lat="41.11867" lon="14.2504867"><ele>43.5</ele><time>2026-04-18T08:13:40.102Z</time></trkpt><trkpt lat="41.1187767" lon="14.2504917"><ele>44.0</ele><time>2026-04-18T08:13:41.101Z</time></trkpt><trkpt lat="41.118865" lon="14.2505"><ele>44.0</ele><time>2026-04-18T08:13:42.101Z</time></trkpt><trkpt lat="41.1189483" lon="14.2505033"><ele>44.0</ele><time>2026-04-18T08:13:43.101Z</time></trkpt><trkpt lat="41.119015" lon="14.25052"><ele>44.0</ele><time>2026-04-18T08:13:44.101Z</time></trkpt><trkpt lat="41.1190767" lon="14.2505367"><ele>44.0</ele><time>2026-04-18T08:13:45.101Z</time></trkpt><trkpt lat="41.1191733" lon="14.2505517"><ele>44.0</ele><time>2026-04-18T08:13:47.101Z</time></trkpt><trkpt lat="41.1192717" lon="14.2505567"><ele>44.0</ele><time>2026-04-18T08:13:54.101Z</time></trkpt><trkpt lat="41.1193483" lon="14.2505717"><ele>44.5</ele><time>2026-04-18T08:13:56.102Z</time></trkpt><trkpt lat="41.1194267" lon="14.25059"><ele>45.0</ele><time>2026-04-18T08:13:58.101Z</time></trkpt><trkpt lat="41.1195083" lon="14.2506017"><ele>45.5</ele><time>2026-04-18T08:14:01.101Z</time></trkpt><trkpt lat="41.1195733" lon="14.2505967"><ele>46.0</ele><time>2026-04-18T08:14:05.101Z</time></trkpt><trkpt lat="41.1196133" lon="14.2504833"><ele>46.5</ele><time>2026-04-18T08:14:08.101Z</time></trkpt><trkpt lat="41.1196267" lon="14.250395"><ele>47.0</ele><time>2026-04-18T08:14:09.101Z</time></trkpt><trkpt lat="41.119635" lon="14.2502767"><ele>47.0</ele><time>2026-04-18T08:14:10.101Z</time></trkpt><trkpt lat="41.1196367" lon="14.2501383"><ele>47.0</ele><time>2026-04-18T08:14:11.101Z</time></trkpt><trkpt lat="41.1196367" lon="14.249995"><ele>47.0</ele><time>2026-04-18T08:14:12.101Z</time></trkpt><trkpt lat="41.1196383" lon="14.2498417"><ele>47.0</ele><time>2026-04-18T08:14:13.101Z</time></trkpt><trkpt lat="41.1196367" lon="14.2496883"><ele>47.0</ele><time>2026-04-18T08:14:14.101Z</time></trkpt><trkpt lat="41.1196367" lon="14.2495333"><ele>46.75</ele><time>2026-04-18T08:14:15.101Z</time></trkpt><trkpt lat="41.1196383" lon="14.249385"><ele>46.5</ele><time>2026-04-18T08:14:16.101Z</time></trkpt><trkpt lat="41.1196317" lon="14.2492283"><ele>46.25</ele><time>2026-04-18T08:14:17.101Z</time></trkpt><trkpt lat="41.119625" lon="14.249075"><ele>46.0</ele><time>2026-04-18T08:14:18.101Z</time></trkpt><trkpt lat="41.1196217" lon="14.248925"><ele>45.599999999999994</ele><time>2026-04-18T08:14:19.101Z</time></trkpt><trkpt lat="41.1196183" lon="14.2487767"><ele>45.2</ele><time>2026-04-18T08:14:20.101Z</time></trkpt><trkpt lat="41.1196133" lon="14.2486383"><ele>44.8</ele><time>2026-04-18T08:14:21.101Z</time></trkpt><trkpt lat="41.119605" lon="14.2484967"><ele>44.400000000000006</ele><time>2026-04-18T08:14:22.101Z</time></trkpt><trkpt lat="41.1196017" lon="14.248355"><ele>44.0</ele><time>2026-04-18T08:14:23.101Z</time></trkpt><trkpt lat="41.1196033" lon="14.248205"><ele>43.0</ele><time>2026-04-18T08:14:24.102Z</time></trkpt><trkpt lat="41.11959" lon="14.248055"><ele>42.0</ele><time>2026-04-18T08:14:25.101Z</time></trkpt><trkpt lat="41.119575" lon="14.2478867"><ele>41.0</ele><time>2026-04-18T08:14:26.101Z</time></trkpt><trkpt lat="41.1195517" lon="14.24772"><ele>40.0</ele><time>2026-04-18T08:14:27.101Z</time></trkpt><trkpt lat="41.1195267" lon="14.2475383"><ele>40.0</ele><time>2026-04-18T08:14:28.101Z</time></trkpt><trkpt lat="41.11951" lon="14.2473583"><ele>40.0</ele><time>2026-04-18T08:14:29.101Z</time></trkpt><trkpt lat="41.119485" lon="14.247175"><ele>40.0</ele><time>2026-04-18T08:14:30.101Z</time></trkpt><trkpt lat="41.1194583" lon="14.246995"><ele>40.0</ele><time>2026-04-18T08:14:31.101Z</time></trkpt><trkpt lat="41.11943" lon="14.2468133"><ele>39.75</ele><time>2026-04-18T08:14:32.101Z</time></trkpt><trkpt lat="41.1194033" lon="14.24663"><ele>39.5</ele><time>2026-04-18T08:14:33.101Z</time></trkpt><trkpt lat="41.119375" lon="14.2464517"><ele>39.25</ele><time>2026-04-18T08:14:34.101Z</time></trkpt><trkpt lat="41.119355" lon="14.2462783"><ele>39.0</ele><time>2026-04-18T08:14:35.101Z</time></trkpt><trkpt lat="41.11934" lon="14.24612"><ele>39.0</ele><time>2026-04-18T08:14:36.101Z</time></trkpt><trkpt lat="41.1193167" lon="14.245965"><ele>39.0</ele><time>2026-04-18T08:14:37.102Z</time></trkpt><trkpt lat="41.1192917" lon="14.2458233"><ele>39.0</ele><time>2026-04-18T08:14:38.101Z</time></trkpt><trkpt lat="41.119275" lon="14.2456917"><ele>39.0</ele><time>2026-04-18T08:14:39.102Z</time></trkpt><trkpt lat="41.1192583" lon="14.2455667"><ele>39.0</ele><time>2026-04-18T08:14:40.101Z</time></trkpt><trkpt lat="41.1192467" lon="14.2454483"><ele>38.833333333333336</ele><time>2026-04-18T08:14:41.101Z</time></trkpt><trkpt lat="41.1192383" lon="14.2453417"><ele>38.666666666666664</ele><time>2026-04-18T08:14:42.101Z</time></trkpt><trkpt lat="41.1192233" lon="14.2452467"><ele>38.5</ele><time>2026-04-18T08:14:43.101Z</time></trkpt><trkpt lat="41.119215" lon="14.2451583"><ele>38.33333333333333</ele><time>2026-04-18T08:14:44.101Z</time></trkpt><trkpt lat="41.1192183" lon="14.2450033"><ele>38.166666666666664</ele><time>2026-04-18T08:14:46.101Z</time></trkpt><trkpt lat="41.119195" lon="14.2448833"><ele>38.0</ele><time>2026-04-18T08:14:48.101Z</time></trkpt><trkpt lat="41.1191333" lon="14.2448433"><ele>38.0</ele><time>2026-04-18T08:14:50.101Z</time></trkpt><trkpt lat="41.1190667" lon="14.2449017"><ele>38.0</ele><time>2026-04-18T08:14:52.101Z</time></trkpt><trkpt lat="41.119075" lon="14.2450283"><ele>38.0</ele><time>2026-04-18T08:14:54.101Z</time></trkpt><trkpt lat="41.1191733" lon="14.2451"><ele>38.0</ele><time>2026-04-18T08:14:56.102Z</time></trkpt><trkpt lat="41.11924" lon="14.2451417"><ele>38.0</ele><time>2026-04-18T08:14:57.101Z</time></trkpt><trkpt lat="41.119315" lon="14.2452017"><ele>38.0</ele><time>2026-04-18T08:14:58.101Z</time></trkpt><trkpt lat="41.1193983" lon="14.24529"><ele>38.0</ele><time>2026-04-18T08:14:59.101Z</time></trkpt><trkpt lat="41.11949" lon="14.245395"><ele>38.0</ele><time>2026-04-18T08:15:00.102Z</time></trkpt><trkpt lat="41.1195917" lon="14.2455083"><ele>38.0</ele><time>2026-04-18T08:15:01.101Z</time></trkpt><trkpt lat="41.1196983" lon="14.24563"><ele>38.0</ele><time>2026-04-18T08:15:02.101Z</time></trkpt><trkpt lat="41.1198183" lon="14.2457617"><ele>38.33333333333333</ele><time>2026-04-18T08:15:03.101Z</time></trkpt><trkpt lat="41.1199367" lon="14.2459083"><ele>38.666666666666664</ele><time>2026-04-18T08:15:04.101Z</time></trkpt><trkpt lat="41.1200617" lon="14.2460633"><ele>39.0</ele><time>2026-04-18T08:15:05.101Z</time></trkpt><trkpt lat="41.1201917" lon="14.24622"><ele>39.0</ele><time>2026-04-18T08:15:06.101Z</time></trkpt><trkpt lat="41.1203233" lon="14.24636"><ele>39.0</ele><time>2026-04-18T08:15:07.101Z</time></trkpt><trkpt lat="41.1204517" lon="14.2465133"><ele>39.0</ele><time>2026-04-18T08:15:08.101Z</time></trkpt><trkpt lat="41.120585" lon="14.2466567"><ele>39.0</ele><time>2026-04-18T08:15:09.101Z</time></trkpt><trkpt lat="41.1207217" lon="14.24679"><ele>39.0</ele><time>2026-04-18T08:15:10.101Z</time></trkpt><trkpt lat="41.1208567" lon="14.2469183"><ele>39.0</ele><time>2026-04-18T08:15:11.101Z</time></trkpt><trkpt lat="41.1209967" lon="14.247045"><ele>39.0</ele><time>2026-04-18T08:15:12.101Z</time></trkpt><trkpt lat="41.12114" lon="14.2471633"><ele>39.0</ele><time>2026-04-18T08:15:13.101Z</time></trkpt><trkpt lat="41.1212883" lon="14.2472683"><ele>39.0</ele><time>2026-04-18T08:15:14.101Z</time></trkpt><trkpt lat="41.1214383" lon="14.24737"><ele>38.666666666666664</ele><time>2026-04-18T08:15:15.101Z</time></trkpt><trkpt lat="41.1215917" lon="14.2474633"><ele>38.33333333333333</ele><time>2026-04-18T08:15:16.101Z</time></trkpt><trkpt lat="41.1217517" lon="14.24755"><ele>38.0</ele><time>2026-04-18T08:15:17.101Z</time></trkpt><trkpt lat="41.12191" lon="14.2476333"><ele>38.0</ele><time>2026-04-18T08:15:18.102Z</time></trkpt><trkpt lat="41.1220717" lon="14.247725"><ele>38.0</ele><time>2026-04-18T08:15:19.101Z</time></trkpt><trkpt lat="41.1222283" lon="14.24781"><ele>38.0</ele><time>2026-04-18T08:15:20.101Z</time></trkpt><trkpt lat="41.1223717" lon="14.2478933"><ele>38.5</ele><time>2026-04-18T08:15:21.101Z</time></trkpt><trkpt lat="41.122505" lon="14.2479783"><ele>39.0</ele><time>2026-04-18T08:15:22.101Z</time></trkpt><trkpt lat="41.122625" lon="14.2480733"><ele>39.5</ele><time>2026-04-18T08:15:23.101Z</time></trkpt><trkpt lat="41.1227333" lon="14.248165"><ele>40.0</ele><time>2026-04-18T08:15:24.101Z</time></trkpt><trkpt lat="41.12282" lon="14.248265"><ele>40.4</ele><time>2026-04-18T08:15:25.101Z</time></trkpt><trkpt lat="41.1228983" lon="14.2483717"><ele>40.8</ele><time>2026-04-18T08:15:26.101Z</time></trkpt><trkpt lat="41.1229667" lon="14.24848"><ele>41.2</ele><time>2026-04-18T08:15:27.102Z</time></trkpt><trkpt lat="41.1230367" lon="14.24859"><ele>41.6</ele><time>2026-04-18T08:15:28.101Z</time></trkpt><trkpt lat="41.12312" lon="14.2487"><ele>42.0</ele><time>2026-04-18T08:15:29.101Z</time></trkpt><trkpt lat="41.1231983" lon="14.2488183"><ele>42.25</ele><time>2026-04-18T08:15:30.101Z</time></trkpt><trkpt lat="41.1232867" lon="14.2489433"><ele>42.5</ele><time>2026-04-18T08:15:31.101Z</time></trkpt><trkpt lat="41.1233833" lon="14.2490617"><ele>42.75</ele><time>2026-04-18T08:15:32.101Z</time></trkpt><trkpt lat="41.1234883" lon="14.2491833"><ele>43.0</ele><time>2026-04-18T08:15:33.101Z</time></trkpt><trkpt lat="41.1235933" lon="14.2493017"><ele>43.25</ele><time>2026-04-18T08:15:34.101Z</time></trkpt><trkpt lat="41.123715" lon="14.249405"><ele>43.5</ele><time>2026-04-18T08:15:35.101Z</time></trkpt><trkpt lat="41.1238467" lon="14.2495033"><ele>43.75</ele><time>2026-04-18T08:15:36.101Z</time></trkpt><trkpt lat="41.1239767" lon="14.2495983"><ele>44.0</ele><time>2026-04-18T08:15:37.101Z</time></trkpt><trkpt lat="41.1241017" lon="14.249705"><ele>44.33333333333333</ele><time>2026-04-18T08:15:38.101Z</time></trkpt><trkpt lat="41.12423" lon="14.249825"><ele>44.666666666666664</ele><time>2026-04-18T08:15:39.101Z</time></trkpt><trkpt lat="41.1243417" lon="14.24996"><ele>45.0</ele><time>2026-04-18T08:15:40.101Z</time></trkpt><trkpt lat="41.1244417" lon="14.2501017"><ele>45.0</ele><time>2026-04-18T08:15:41.101Z</time></trkpt><trkpt lat="41.12454" lon="14.2502383"><ele>45.0</ele><time>2026-04-18T08:15:42.101Z</time></trkpt><trkpt lat="41.1246167" lon="14.2503617"><ele>45.0</ele><time>2026-04-18T08:15:43.101Z</time></trkpt><trkpt lat="41.12468" lon="14.2504667"><ele>45.0</ele><time>2026-04-18T08:15:44.101Z</time></trkpt><trkpt lat="41.1247367" lon="14.2505617"><ele>45.0</ele><time>2026-04-18T08:15:45.101Z</time></trkpt><trkpt lat="41.1247867" lon="14.25064"><ele>45.0</ele><time>2026-04-18T08:15:46.102Z</time></trkpt><trkpt lat="41.12483" lon="14.250705"><ele>45.0</ele><time>2026-04-18T08:15:47.101Z</time></trkpt><trkpt lat="41.1249017" lon="14.2507983"><ele>45.0</ele><time>2026-04-18T08:15:49.101Z</time></trkpt><trkpt lat="41.1249567" lon="14.2508933"><ele>45.0</ele><time>2026-04-18T08:15:51.101Z</time></trkpt><trkpt lat="41.1249967" lon="14.2509783"><ele>45.0</ele><time>2026-04-18T08:15:54.101Z</time></trkpt><trkpt lat="41.1250417" lon="14.2510733"><ele>45.0</ele><time>2026-04-18T08:16:15.101Z</time></trkpt><trkpt lat="41.1250717" lon="14.2511733"><ele>45.0</ele><time>2026-04-18T08:16:18.102Z</time></trkpt><trkpt lat="41.1250883" lon="14.25127"><ele>45.0</ele><time>2026-04-18T08:16:21.101Z</time></trkpt><trkpt lat="41.125135" lon="14.2513283"><ele>45.0</ele><time>2026-04-18T08:16:23.101Z</time></trkpt><trkpt lat="41.1252117" lon="14.251375"><ele>45.0</ele><time>2026-04-18T08:16:25.101Z</time></trkpt><trkpt lat="41.125275" lon="14.2514033"><ele>45.0</ele><time>2026-04-18T08:16:27.101Z</time></trkpt><trkpt lat="41.1253383" lon="14.2514383"><ele>45.0</ele><time>2026-04-18T08:16:29.101Z</time></trkpt><trkpt lat="41.1254483" lon="14.2515083"><ele>45.666666666666664</ele><time>2026-04-18T08:16:31.101Z</time></trkpt><trkpt lat="41.12552" lon="14.2515467"><ele>46.33333333333333</ele><time>2026-04-18T08:16:32.101Z</time></trkpt><trkpt lat="41.1256" lon="14.2515867"><ele>47.0</ele><time>2026-04-18T08:16:33.101Z</time></trkpt><trkpt lat="41.1256783" lon="14.2516417"><ele>47.666666666666664</ele><time>2026-04-18T08:16:34.101Z</time></trkpt><trkpt lat="41.1257717" lon="14.25169"><ele>48.33333333333333</ele><time>2026-04-18T08:16:35.101Z</time></trkpt><trkpt lat="41.1258567" lon="14.2517383"><ele>49.0</ele><time>2026-04-18T08:16:36.101Z</time></trkpt><trkpt lat="41.12595" lon="14.2517883"><ele>49.0</ele><time>2026-04-18T08:16:37.101Z</time></trkpt><trkpt lat="41.1260433" lon="14.251835"><ele>49.0</ele><time>2026-04-18T08:16:38.101Z</time></trkpt><trkpt lat="41.126135" lon="14.2518783"><ele>49.0</ele><time>2026-04-18T08:16:39.101Z</time></trkpt><trkpt lat="41.126235" lon="14.251925"><ele>49.0</ele><time>2026-04-18T08:16:40.101Z</time></trkpt><trkpt lat="41.12634" lon="14.2519833"><ele>49.0</ele><time>2026-04-18T08:16:41.101Z</time></trkpt><trkpt lat="41.12644" lon="14.2520567"><ele>49.0</ele><time>2026-04-18T08:16:42.101Z</time></trkpt><trkpt lat="41.1265333" lon="14.252145"><ele>49.0</ele><time>2026-04-18T08:16:43.101Z</time></trkpt><trkpt lat="41.1266283" lon="14.2522317"><ele>49.0</ele><time>2026-04-18T08:16:44.101Z</time></trkpt><trkpt lat="41.12673" lon="14.252325"><ele>49.0</ele><time>2026-04-18T08:16:45.101Z</time></trkpt><trkpt lat="41.1268333" lon="14.2524333"><ele>48.5</ele><time>2026-04-18T08:16:46.101Z</time></trkpt><trkpt lat="41.12694" lon="14.2525483"><ele>48.0</ele><time>2026-04-18T08:16:47.101Z</time></trkpt><trkpt lat="41.1270567" lon="14.2526633"><ele>47.5</ele><time>2026-04-18T08:16:48.101Z</time></trkpt><trkpt lat="41.1271633" lon="14.2527933"><ele>47.0</ele><time>2026-04-18T08:16:49.101Z</time></trkpt><trkpt lat="41.1272733" lon="14.2529233"><ele>47.0</ele><time>2026-04-18T08:16:50.101Z</time></trkpt><trkpt lat="41.12738" lon="14.2530617"><ele>47.0</ele><time>2026-04-18T08:16:51.101Z</time></trkpt><trkpt lat="41.1274867" lon="14.2531983"><ele>47.0</ele><time>2026-04-18T08:16:52.101Z</time></trkpt><trkpt lat="41.1275933" lon="14.25335"><ele>45.666666666666664</ele><time>2026-04-18T08:16:53.101Z</time></trkpt><trkpt lat="41.1276967" lon="14.2534933"><ele>44.333333333333336</ele><time>2026-04-18T08:16:54.102Z</time></trkpt><trkpt lat="41.1278017" lon="14.2536417"><ele>43.0</ele><time>2026-04-18T08:16:55.101Z</time></trkpt><trkpt lat="41.1279033" lon="14.2537967"><ele>43.0</ele><time>2026-04-18T08:16:56.101Z</time></trkpt><trkpt lat="41.1280083" lon="14.2539483"><ele>43.0</ele><time>2026-04-18T08:16:57.101Z</time></trkpt><trkpt lat="41.1281133" lon="14.2541067"><ele>43.0</ele><time>2026-04-18T08:16:58.102Z</time></trkpt><trkpt lat="41.1282167" lon="14.2542683"><ele>42.66666666666667</ele><time>2026-04-18T08:16:59.101Z</time></trkpt><trkpt lat="41.1283133" lon="14.2544367"><ele>42.333333333333336</ele><time>2026-04-18T08:17:00.101Z</time></trkpt><trkpt lat="41.1284117" lon="14.2546067"><ele>42.0</ele><time>2026-04-18T08:17:01.101Z</time></trkpt><trkpt lat="41.128505" lon="14.2547767"><ele>42.25</ele><time>2026-04-18T08:17:02.101Z</time></trkpt><trkpt lat="41.1285983" lon="14.2549383"><ele>42.5</ele><time>2026-04-18T08:17:03.102Z</time></trkpt><trkpt lat="41.1286817" lon="14.255105"><ele>42.75</ele><time>2026-04-18T08:17:04.101Z</time></trkpt><trkpt lat="41.12876" lon="14.2552617"><ele>43.0</ele><time>2026-04-18T08:17:05.101Z</time></trkpt><trkpt lat="41.128835" lon="14.2554317"><ele>43.0</ele><time>2026-04-18T08:17:06.101Z</time></trkpt><trkpt lat="41.128905" lon="14.2555983"><ele>43.0</ele><time>2026-04-18T08:17:07.102Z</time></trkpt><trkpt lat="41.128975" lon="14.255765"><ele>43.0</ele><time>2026-04-18T08:17:08.101Z</time></trkpt><trkpt lat="41.1290383" lon="14.2559417"><ele>43.0</ele><time>2026-04-18T08:17:09.101Z</time></trkpt><trkpt lat="41.129095" lon="14.2561267"><ele>42.25</ele><time>2026-04-18T08:17:10.101Z</time></trkpt><trkpt lat="41.1291467" lon="14.2563117"><ele>41.5</ele><time>2026-04-18T08:17:11.101Z</time></trkpt><trkpt lat="41.1291967" lon="14.25649"><ele>40.75</ele><time>2026-04-18T08:17:12.101Z</time></trkpt><trkpt lat="41.1292383" lon="14.25669"><ele>40.0</ele><time>2026-04-18T08:17:13.101Z</time></trkpt><trkpt lat="41.1292733" lon="14.2568867"><ele>39.66666666666667</ele><time>2026-04-18T08:17:14.101Z</time></trkpt><trkpt lat="41.12931" lon="14.257085"><ele>39.333333333333336</ele><time>2026-04-18T08:17:15.101Z</time></trkpt><trkpt lat="41.1293417" lon="14.257295"><ele>39.0</ele><time>2026-04-18T08:17:16.101Z</time></trkpt><trkpt lat="41.1293783" lon="14.257505"><ele>39.0</ele><time>2026-04-18T08:17:17.101Z</time></trkpt><trkpt lat="41.1294117" lon="14.2577167"><ele>39.0</ele><time>2026-04-18T08:17:18.101Z</time></trkpt><trkpt lat="41.1294483" lon="14.2579133"><ele>39.0</ele><time>2026-04-18T08:17:19.102Z</time></trkpt><trkpt lat="41.12948" lon="14.2581033"><ele>38.75</ele><time>2026-04-18T08:17:20.101Z</time></trkpt><trkpt lat="41.1295183" lon="14.258285"><ele>38.5</ele><time>2026-04-18T08:17:21.101Z</time></trkpt><trkpt lat="41.129555" lon="14.2584683"><ele>38.25</ele><time>2026-04-18T08:17:22.101Z</time></trkpt><trkpt lat="41.1295883" lon="14.258645"><ele>38.0</ele><time>2026-04-18T08:17:23.101Z</time></trkpt><trkpt lat="41.1296183" lon="14.2587983"><ele>38.0</ele><time>2026-04-18T08:17:24.101Z</time></trkpt><trkpt lat="41.12965" lon="14.2589367"><ele>38.0</ele><time>2026-04-18T08:17:25.101Z</time></trkpt><trkpt lat="41.1296783" lon="14.2590733"><ele>38.0</ele><time>2026-04-18T08:17:26.101Z</time></trkpt><trkpt lat="41.1296917" lon="14.2592017"><ele>38.0</ele><time>2026-04-18T08:17:27.101Z</time></trkpt><trkpt lat="41.1297083" lon="14.2593133"><ele>38.0</ele><time>2026-04-18T08:17:28.101Z</time></trkpt><trkpt lat="41.1297283" lon="14.2594167"><ele>38.0</ele><time>2026-04-18T08:17:29.101Z</time></trkpt><trkpt lat="41.1297467" lon="14.2595117"><ele>38.0</ele><time>2026-04-18T08:17:30.101Z</time></trkpt><trkpt lat="41.1297633" lon="14.259605"><ele>38.0</ele><time>2026-04-18T08:17:31.101Z</time></trkpt><trkpt lat="41.1298133" lon="14.2597367"><ele>38.0</ele><time>2026-04-18T08:17:33.101Z</time></trkpt><trkpt lat="41.1298983" lon="14.2598117"><ele>38.0</ele><time>2026-04-18T08:17:35.101Z</time></trkpt><trkpt lat="41.1299633" lon="14.2598283"><ele>38.0</ele><time>2026-04-18T08:17:36.101Z</time></trkpt><trkpt lat="41.130045" lon="14.259835"><ele>37.25</ele><time>2026-04-18T08:17:37.101Z</time></trkpt><trkpt lat="41.1301433" lon="14.2598583"><ele>36.5</ele><time>2026-04-18T08:17:38.101Z</time></trkpt><trkpt lat="41.1302667" lon="14.2598917"><ele>35.75</ele><time>2026-04-18T08:17:39.101Z</time></trkpt><trkpt lat="41.1304117" lon="14.2599233"><ele>35.0</ele><time>2026-04-18T08:17:40.102Z</time></trkpt><trkpt lat="41.1305583" lon="14.2599583"><ele>35.0</ele><time>2026-04-18T08:17:41.101Z</time></trkpt><trkpt lat="41.1306967" lon="14.2599917"><ele>35.0</ele><time>2026-04-18T08:17:42.102Z</time></trkpt><trkpt lat="41.1308283" lon="14.2600267"><ele>35.0</ele><time>2026-04-18T08:17:43.101Z</time></trkpt><trkpt lat="41.1309567" lon="14.2600533"><ele>35.0</ele><time>2026-04-18T08:17:44.101Z</time></trkpt><trkpt lat="41.13108" lon="14.260085"><ele>33.5</ele><time>2026-04-18T08:17:45.101Z</time></trkpt><trkpt lat="41.1311933" lon="14.2601167"><ele>32.0</ele><time>2026-04-18T08:17:46.101Z</time></trkpt><trkpt lat="41.1313033" lon="14.2601417"><ele>30.5</ele><time>2026-04-18T08:17:47.102Z</time></trkpt><trkpt lat="41.1314167" lon="14.2601667"><ele>29.0</ele><time>2026-04-18T08:17:48.101Z</time></trkpt><trkpt lat="41.13153" lon="14.2601933"><ele>27.75</ele><time>2026-04-18T08:17:49.102Z</time></trkpt><trkpt lat="41.1316533" lon="14.260225"><ele>26.5</ele><time>2026-04-18T08:17:50.101Z</time></trkpt><trkpt lat="41.1317783" lon="14.2602567"><ele>25.25</ele><time>2026-04-18T08:17:51.101Z</time></trkpt><trkpt lat="41.1318967" lon="14.2602917"><ele>24.0</ele><time>2026-04-18T08:17:52.101Z</time></trkpt><trkpt lat="41.1320117" lon="14.260325"><ele>24.0</ele><time>2026-04-18T08:17:53.101Z</time></trkpt><trkpt lat="41.13212" lon="14.2603567"><ele>24.0</ele><time>2026-04-18T08:17:54.102Z</time></trkpt><trkpt lat="41.1322233" lon="14.2603883"><ele>24.0</ele><time>2026-04-18T08:17:55.101Z</time></trkpt><trkpt lat="41.1323217" lon="14.2604067"><ele>24.0</ele><time>2026-04-18T08:17:56.101Z</time></trkpt><trkpt lat="41.132415" lon="14.2604317"><ele>24.0</ele><time>2026-04-18T08:17:57.101Z</time></trkpt><trkpt lat="41.1325017" lon="14.2604567"><ele>25.166666666666668</ele><time>2026-04-18T08:17:58.101Z</time></trkpt><trkpt lat="41.1325667" lon="14.2604817"><ele>26.333333333333336</ele><time>2026-04-18T08:17:59.101Z</time></trkpt><trkpt lat="41.1326283" lon="14.2605033"><ele>27.5</ele><time>2026-04-18T08:18:00.101Z</time></trkpt><trkpt lat="41.1326967" lon="14.260545"><ele>28.666666666666668</ele><time>2026-04-18T08:18:02.102Z</time></trkpt><trkpt lat="41.1327383" lon="14.2606267"><ele>29.833333333333336</ele><time>2026-04-18T08:18:07.101Z</time></trkpt><trkpt lat="41.132765" lon="14.2607583"><ele>31.0</ele><time>2026-04-18T08:18:10.101Z</time></trkpt><trkpt lat="41.132775" lon="14.2608467"><ele>31.0</ele><time>2026-04-18T08:18:11.101Z</time></trkpt><trkpt lat="41.1327833" lon="14.2609583"><ele>31.0</ele><time>2026-04-18T08:18:12.101Z</time></trkpt><trkpt lat="41.1327933" lon="14.2610933"><ele>31.0</ele><time>2026-04-18T08:18:13.101Z</time></trkpt><trkpt lat="41.132795" lon="14.26123"><ele>31.0</ele><time>2026-04-18T08:18:14.101Z</time></trkpt><trkpt lat="41.1328033" lon="14.2613583"><ele>31.0</ele><time>2026-04-18T08:18:15.101Z</time></trkpt><trkpt lat="41.1328083" lon="14.2614917"><ele>31.200000000000003</ele><time>2026-04-18T08:18:16.101Z</time></trkpt><trkpt lat="41.1328083" lon="14.26163"><ele>31.400000000000002</ele><time>2026-04-18T08:18:17.101Z</time></trkpt><trkpt lat="41.1328117" lon="14.2617683"><ele>31.6</ele><time>2026-04-18T08:18:18.101Z</time></trkpt><trkpt lat="41.1328117" lon="14.2619033"><ele>31.8</ele><time>2026-04-18T08:18:19.101Z</time></trkpt><trkpt lat="41.132815" lon="14.2620467"><ele>32.0</ele><time>2026-04-18T08:18:20.101Z</time></trkpt><trkpt lat="41.132835" lon="14.2621983"><ele>32.0</ele><time>2026-04-18T08:18:21.101Z</time></trkpt><trkpt lat="41.1328383" lon="14.2623817"><ele>32.0</ele><time>2026-04-18T08:18:22.101Z</time></trkpt><trkpt lat="41.132845" lon="14.262585"><ele>32.0</ele><time>2026-04-18T08:18:23.101Z</time></trkpt><trkpt lat="41.1328417" lon="14.2628183"><ele>32.0</ele><time>2026-04-18T08:18:24.102Z</time></trkpt><trkpt lat="41.13284" lon="14.2630617"><ele>32.0</ele><time>2026-04-18T08:18:25.101Z</time></trkpt><trkpt lat="41.13284" lon="14.263315"><ele>32.0</ele><time>2026-04-18T08:18:26.101Z</time></trkpt><trkpt lat="41.1328367" lon="14.2635667"><ele>31.333333333333332</ele><time>2026-04-18T08:18:27.101Z</time></trkpt><trkpt lat="41.1328283" lon="14.2638317"><ele>30.666666666666664</ele><time>2026-04-18T08:18:28.102Z</time></trkpt><trkpt lat="41.1328317" lon="14.2641"><ele>30.0</ele><time>2026-04-18T08:18:29.101Z</time></trkpt><trkpt lat="41.132835" lon="14.26437"><ele>29.666666666666664</ele><time>2026-04-18T08:18:30.101Z</time></trkpt><trkpt lat="41.1328433" lon="14.264635"><ele>29.333333333333332</ele><time>2026-04-18T08:18:31.101Z</time></trkpt><trkpt lat="41.132845" lon="14.2648883"><ele>29.0</ele><time>2026-04-18T08:18:32.101Z</time></trkpt><trkpt lat="41.1328533" lon="14.2651233"><ele>28.666666666666664</ele><time>2026-04-18T08:18:33.101Z</time></trkpt><trkpt lat="41.1328733" lon="14.2653517"><ele>28.333333333333336</ele><time>2026-04-18T08:18:34.101Z</time></trkpt><trkpt lat="41.1328933" lon="14.26558"><ele>28.0</ele><time>2026-04-18T08:18:35.101Z</time></trkpt><trkpt lat="41.1329033" lon="14.2657967"><ele>27.0</ele><time>2026-04-18T08:18:36.101Z</time></trkpt><trkpt lat="41.1329083" lon="14.26601"><ele>26.0</ele><time>2026-04-18T08:18:37.101Z</time></trkpt><trkpt lat="41.1329183" lon="14.266225"><ele>25.0</ele><time>2026-04-18T08:18:38.101Z</time></trkpt><trkpt lat="41.1329383" lon="14.266435"><ele>23.666666666666668</ele><time>2026-04-18T08:18:39.101Z</time></trkpt><trkpt lat="41.1329683" lon="14.2666433"><ele>22.333333333333336</ele><time>2026-04-18T08:18:40.101Z</time></trkpt><trkpt lat="41.133" lon="14.2668517"><ele>21.0</ele><time>2026-04-18T08:18:41.102Z</time></trkpt><trkpt lat="41.1330367" lon="14.2670567"><ele>21.0</ele><time>2026-04-18T08:18:42.101Z</time></trkpt><trkpt lat="41.13308" lon="14.267245"><ele>21.0</ele><time>2026-04-18T08:18:43.101Z</time></trkpt><trkpt lat="41.1331383" lon="14.2674117"><ele>21.0</ele><time>2026-04-18T08:18:44.101Z</time></trkpt><trkpt lat="41.133205" lon="14.26757"><ele>21.0</ele><time>2026-04-18T08:18:45.101Z</time></trkpt><trkpt lat="41.1332867" lon="14.2677167"><ele>22.0</ele><time>2026-04-18T08:18:46.101Z</time></trkpt><trkpt lat="41.1333767" lon="14.2678417"><ele>23.0</ele><time>2026-04-18T08:18:47.101Z</time></trkpt><trkpt lat="41.1334783" lon="14.2679633"><ele>24.0</ele><time>2026-04-18T08:18:48.101Z</time></trkpt><trkpt lat="41.133585" lon="14.268085"><ele>25.0</ele><time>2026-04-18T08:18:49.101Z</time></trkpt><trkpt lat="41.1336867" lon="14.268205"><ele>25.0</ele><time>2026-04-18T08:18:50.101Z</time></trkpt><trkpt lat="41.133795" lon="14.2683383"><ele>25.0</ele><time>2026-04-18T08:18:51.101Z</time></trkpt><trkpt lat="41.1339067" lon="14.2684683"><ele>25.0</ele><time>2026-04-18T08:18:52.102Z</time></trkpt><trkpt lat="41.134025" lon="14.2685833"><ele>25.0</ele><time>2026-04-18T08:18:53.101Z</time></trkpt><trkpt lat="41.1341517" lon="14.2686867"><ele>25.0</ele><time>2026-04-18T08:18:54.101Z</time></trkpt><trkpt lat="41.1342817" lon="14.2687733"><ele>25.0</ele><time>2026-04-18T08:18:55.101Z</time></trkpt><trkpt lat="41.1344233" lon="14.26884"><ele>25.0</ele><time>2026-04-18T08:18:56.101Z</time></trkpt><trkpt lat="41.1345633" lon="14.2689067"><ele>25.0</ele><time>2026-04-18T08:18:57.101Z</time></trkpt><trkpt lat="41.1346933" lon="14.2689683"><ele>25.0</ele><time>2026-04-18T08:18:58.101Z</time></trkpt><trkpt lat="41.1348267" lon="14.2690367"><ele>25.0</ele><time>2026-04-18T08:18:59.101Z</time></trkpt><trkpt lat="41.134955" lon="14.2690967"><ele>25.0</ele><time>2026-04-18T08:19:00.101Z</time></trkpt><trkpt lat="41.1350733" lon="14.2691533"><ele>25.0</ele><time>2026-04-18T08:19:01.101Z</time></trkpt><trkpt lat="41.135185" lon="14.2692"><ele>25.6</ele><time>2026-04-18T08:19:02.101Z</time></trkpt><trkpt lat="41.1352833" lon="14.2692383"><ele>26.2</ele><time>2026-04-18T08:19:03.101Z</time></trkpt><trkpt lat="41.135375" lon="14.2692883"><ele>26.799999999999997</ele><time>2026-04-18T08:19:04.101Z</time></trkpt><trkpt lat="41.1354367" lon="14.2693583"><ele>27.4</ele><time>2026-04-18T08:19:05.101Z</time></trkpt><trkpt lat="41.1354783" lon="14.2694467"><ele>28.0</ele><time>2026-04-18T08:19:06.101Z</time></trkpt><trkpt lat="41.1355083" lon="14.2695583"><ele>28.0</ele><time>2026-04-18T08:19:07.101Z</time></trkpt><trkpt lat="41.1355517" lon="14.269675"><ele>27.999999999999996</ele><time>2026-04-18T08:19:08.101Z</time></trkpt><trkpt lat="41.1356133" lon="14.2697817"><ele>27.999999999999996</ele><time>2026-04-18T08:19:09.101Z</time></trkpt><trkpt lat="41.1356883" lon="14.269865"><ele>28.0</ele><time>2026-04-18T08:19:10.101Z</time></trkpt><trkpt lat="41.1357733" lon="14.2699117"><ele>28.0</ele><time>2026-04-18T08:19:11.101Z</time></trkpt><trkpt lat="41.1358683" lon="14.26992"><ele>28.0</ele><time>2026-04-18T08:19:12.101Z</time></trkpt><trkpt lat="41.1359783" lon="14.2699017"><ele>28.0</ele><time>2026-04-18T08:19:13.101Z</time></trkpt><trkpt lat="41.1360967" lon="14.2698633"><ele>28.0</ele><time>2026-04-18T08:19:14.101Z</time></trkpt><trkpt lat="41.13623" lon="14.269835"><ele>28.0</ele><time>2026-04-18T08:19:15.102Z</time></trkpt><trkpt lat="41.1363917" lon="14.2698033"><ele>28.0</ele><time>2026-04-18T08:19:16.101Z</time></trkpt><trkpt lat="41.1365683" lon="14.2697733"><ele>28.0</ele><time>2026-04-18T08:19:17.101Z</time></trkpt><trkpt lat="41.1367433" lon="14.26974"><ele>28.0</ele><time>2026-04-18T08:19:18.101Z</time></trkpt><trkpt lat="41.1369067" lon="14.26971"><ele>28.0</ele><time>2026-04-18T08:19:19.101Z</time></trkpt><trkpt lat="41.1370717" lon="14.2696733"><ele>28.0</ele><time>2026-04-18T08:19:20.101Z</time></trkpt><trkpt lat="41.1372267" lon="14.2696333"><ele>28.0</ele><time>2026-04-18T08:19:21.101Z</time></trkpt><trkpt lat="41.1373833" lon="14.2696017"><ele>27.666666666666668</ele><time>2026-04-18T08:19:22.101Z</time></trkpt><trkpt lat="41.1375333" lon="14.269565"><ele>27.333333333333336</ele><time>2026-04-18T08:19:23.101Z</time></trkpt><trkpt lat="41.1376817" lon="14.2695383"><ele>27.0</ele><time>2026-04-18T08:19:24.101Z</time></trkpt><trkpt lat="41.13783" lon="14.269505"><ele>27.0</ele><time>2026-04-18T08:19:25.101Z</time></trkpt><trkpt lat="41.137975" lon="14.2694717"><ele>27.0</ele><time>2026-04-18T08:19:26.101Z</time></trkpt><trkpt lat="41.1381167" lon="14.2694433"><ele>27.0</ele><time>2026-04-18T08:19:27.101Z</time></trkpt><trkpt lat="41.1382467" lon="14.2694167"><ele>27.0</ele><time>2026-04-18T08:19:28.101Z</time></trkpt><trkpt lat="41.1383783" lon="14.269385"><ele>27.5</ele><time>2026-04-18T08:19:29.101Z</time></trkpt><trkpt lat="41.1384967" lon="14.26936"><ele>28.0</ele><time>2026-04-18T08:19:30.101Z</time></trkpt><trkpt lat="41.1386067" lon="14.2693333"><ele>28.5</ele><time>2026-04-18T08:19:31.101Z</time></trkpt><trkpt lat="41.1387217" lon="14.269315"><ele>29.0</ele><time>2026-04-18T08:19:32.101Z</time></trkpt><trkpt lat="41.13883" lon="14.26929"><ele>29.0</ele><time>2026-04-18T08:19:33.101Z</time></trkpt><trkpt lat="41.13894" lon="14.2692717"><ele>29.0</ele><time>2026-04-18T08:19:34.101Z</time></trkpt><trkpt lat="41.1390417" lon="14.26925"><ele>29.0</ele><time>2026-04-18T08:19:35.101Z</time></trkpt><trkpt lat="41.1391367" lon="14.26924"><ele>29.0</ele><time>2026-04-18T08:19:36.101Z</time></trkpt><trkpt lat="41.1392283" lon="14.2692217"><ele>29.0</ele><time>2026-04-18T08:19:37.101Z</time></trkpt><trkpt lat="41.1393117" lon="14.2692017"><ele>29.000000000000004</ele><time>2026-04-18T08:19:38.101Z</time></trkpt><trkpt lat="41.1393867" lon="14.269185"><ele>29.0</ele><time>2026-04-18T08:19:39.101Z</time></trkpt><trkpt lat="41.1394583" lon="14.2691683"><ele>29.000000000000004</ele><time>2026-04-18T08:19:40.101Z</time></trkpt><trkpt lat="41.139525" lon="14.26915"><ele>29.000000000000004</ele><time>2026-04-18T08:19:41.101Z</time></trkpt><trkpt lat="41.13959" lon="14.26914"><ele>29.0</ele><time>2026-04-18T08:19:42.101Z</time></trkpt><trkpt lat="41.1396583" lon="14.2691283"><ele>29.000000000000004</ele><time>2026-04-18T08:19:43.101Z</time></trkpt><trkpt lat="41.1397367" lon="14.2691233"><ele>29.000000000000004</ele><time>2026-04-18T08:19:44.101Z</time></trkpt><trkpt lat="41.1398217" lon="14.2691167"><ele>29.2</ele><time>2026-04-18T08:19:45.101Z</time></trkpt><trkpt lat="41.1399183" lon="14.2691117"><ele>29.4</ele><time>2026-04-18T08:19:46.101Z</time></trkpt><trkpt lat="41.1400183" lon="14.2691167"><ele>29.6</ele><time>2026-04-18T08:19:47.101Z</time></trkpt><trkpt lat="41.1401133" lon="14.2691417"><ele>29.8</ele><time>2026-04-18T08:19:48.101Z</time></trkpt><trkpt lat="41.140215" lon="14.2691817"><ele>30.0</ele><time>2026-04-18T08:19:49.101Z</time></trkpt><trkpt lat="41.14033" lon="14.2692317"><ele>30.0</ele><time>2026-04-18T08:19:50.101Z</time></trkpt><trkpt lat="41.1404517" lon="14.2692883"><ele>30.0</ele><time>2026-04-18T08:19:51.101Z</time></trkpt><trkpt lat="41.1405733" lon="14.2693633"><ele>30.0</ele><time>2026-04-18T08:19:52.101Z</time></trkpt><trkpt lat="41.1407033" lon="14.2694383"><ele>30.0</ele><time>2026-04-18T08:19:53.101Z</time></trkpt><trkpt lat="41.14083" lon="14.269515"><ele>30.25</ele><time>2026-04-18T08:19:54.101Z</time></trkpt><trkpt lat="41.1409567" lon="14.2695867"><ele>30.5</ele><time>2026-04-18T08:19:55.101Z</time></trkpt><trkpt lat="41.1410833" lon="14.2696667"><ele>30.75</ele><time>2026-04-18T08:19:56.101Z</time></trkpt><trkpt lat="41.14122" lon="14.2697383"><ele>31.0</ele><time>2026-04-18T08:19:57.101Z</time></trkpt><trkpt lat="41.1413467" lon="14.269815"><ele>31.0</ele><time>2026-04-18T08:19:58.102Z</time></trkpt><trkpt lat="41.1414833" lon="14.26989"><ele>31.0</ele><time>2026-04-18T08:19:59.101Z</time></trkpt><trkpt lat="41.141615" lon="14.2699633"><ele>31.0</ele><time>2026-04-18T08:20:00.101Z</time></trkpt><trkpt lat="41.1417433" lon="14.2700367"><ele>31.0</ele><time>2026-04-18T08:20:01.101Z</time></trkpt><trkpt lat="41.14187" lon="14.27011"><ele>31.5</ele><time>2026-04-18T08:20:02.101Z</time></trkpt><trkpt lat="41.141995" lon="14.2701833"><ele>32.0</ele><time>2026-04-18T08:20:03.102Z</time></trkpt><trkpt lat="41.1421167" lon="14.2702567"><ele>32.5</ele><time>2026-04-18T08:20:04.101Z</time></trkpt><trkpt lat="41.142235" lon="14.2703283"><ele>33.0</ele><time>2026-04-18T08:20:05.101Z</time></trkpt><trkpt lat="41.1423533" lon="14.2704"><ele>34.5</ele><time>2026-04-18T08:20:06.102Z</time></trkpt><trkpt lat="41.1424767" lon="14.27046"><ele>36.0</ele><time>2026-04-18T08:20:07.102Z</time></trkpt><trkpt lat="41.1425983" lon="14.2705233"><ele>37.5</ele><time>2026-04-18T08:20:08.101Z</time></trkpt><trkpt lat="41.142715" lon="14.2706"><ele>39.0</ele><time>2026-04-18T08:20:09.101Z</time></trkpt><trkpt lat="41.1428367" lon="14.27067"><ele>39.25</ele><time>2026-04-18T08:20:10.101Z</time></trkpt><trkpt lat="41.142955" lon="14.2707383"><ele>39.5</ele><time>2026-04-18T08:20:11.101Z</time></trkpt><trkpt lat="41.14307" lon="14.2708083"><ele>39.75</ele><time>2026-04-18T08:20:12.101Z</time></trkpt><trkpt lat="41.1431783" lon="14.2708817"><ele>40.0</ele><time>2026-04-18T08:20:13.101Z</time></trkpt><trkpt lat="41.143285" lon="14.2709567"><ele>41.0</ele><time>2026-04-18T08:20:14.101Z</time></trkpt><trkpt lat="41.1433883" lon="14.2710383"><ele>42.0</ele><time>2026-04-18T08:20:15.102Z</time></trkpt><trkpt lat="41.14348" lon="14.2711333"><ele>43.0</ele><time>2026-04-18T08:20:16.101Z</time></trkpt><trkpt lat="41.143565" lon="14.2712283"><ele>44.0</ele><time>2026-04-18T08:20:17.101Z</time></trkpt><trkpt lat="41.143655" lon="14.27133"><ele>44.0</ele><time>2026-04-18T08:20:18.101Z</time></trkpt><trkpt lat="41.1437383" lon="14.2714283"><ele>44.0</ele><time>2026-04-18T08:20:19.101Z</time></trkpt><trkpt lat="41.143815" lon="14.271525"><ele>44.0</ele><time>2026-04-18T08:20:20.101Z</time></trkpt><trkpt lat="41.14389" lon="14.2716183"><ele>44.0</ele><time>2026-04-18T08:20:21.101Z</time></trkpt><trkpt lat="41.1439567" lon="14.2717183"><ele>44.0</ele><time>2026-04-18T08:20:22.101Z</time></trkpt><trkpt lat="41.1440217" lon="14.2718233"><ele>44.0</ele><time>2026-04-18T08:20:23.101Z</time></trkpt><trkpt lat="41.1440717" lon="14.271925"><ele>44.0</ele><time>2026-04-18T08:20:24.101Z</time></trkpt><trkpt lat="41.14411" lon="14.2720233"><ele>44.0</ele><time>2026-04-18T08:20:25.101Z</time></trkpt><trkpt lat="41.1441317" lon="14.2721233"><ele>44.0</ele><time>2026-04-18T08:20:26.101Z</time></trkpt><trkpt lat="41.1441533" lon="14.2722133"><ele>44.0</ele><time>2026-04-18T08:20:27.101Z</time></trkpt><trkpt lat="41.14416" lon="14.27237"><ele>44.0</ele><time>2026-04-18T08:20:29.101Z</time></trkpt><trkpt lat="41.144155" lon="14.2724567"><ele>44.0</ele><time>2026-04-18T08:20:30.101Z</time></trkpt><trkpt lat="41.144135" lon="14.272555"><ele>44.0</ele><time>2026-04-18T08:20:31.101Z</time></trkpt><trkpt lat="41.1441033" lon="14.272645"><ele>44.0</ele><time>2026-04-18T08:20:32.101Z</time></trkpt><trkpt lat="41.1440767" lon="14.272735"><ele>44.0</ele><time>2026-04-18T08:20:33.101Z</time></trkpt><trkpt lat="41.144065" lon="14.272895"><ele>44.0</ele><time>2026-04-18T08:20:35.102Z</time></trkpt><trkpt lat="41.14408" lon="14.2729767"><ele>44.0</ele><time>2026-04-18T08:20:36.101Z</time></trkpt><trkpt lat="41.1441167" lon="14.2730567"><ele>44.0</ele><time>2026-04-18T08:20:37.101Z</time></trkpt><trkpt lat="41.1441633" lon="14.2731283"><ele>44.0</ele><time>2026-04-18T08:20:38.101Z</time></trkpt><trkpt lat="41.1442133" lon="14.2732017"><ele>44.0</ele><time>2026-04-18T08:20:39.101Z</time></trkpt><trkpt lat="41.144245" lon="14.2732817"><ele>44.0</ele><time>2026-04-18T08:20:40.101Z</time></trkpt><trkpt lat="41.144255" lon="14.2733867"><ele>44.0</ele><time>2026-04-18T08:20:41.101Z</time></trkpt><trkpt lat="41.1442517" lon="14.2735067"><ele>44.0</ele><time>2026-04-18T08:20:42.101Z</time></trkpt><trkpt lat="41.1442367" lon="14.2736567"><ele>44.0</ele><time>2026-04-18T08:20:43.101Z</time></trkpt><trkpt lat="41.1442083" lon="14.27384"><ele>44.0</ele><time>2026-04-18T08:20:44.101Z</time></trkpt><trkpt lat="41.1441883" lon="14.2740283"><ele>44.0</ele><time>2026-04-18T08:20:45.101Z</time></trkpt><trkpt lat="41.14418" lon="14.2742117"><ele>44.0</ele><time>2026-04-18T08:20:46.101Z</time></trkpt><trkpt lat="41.1441683" lon="14.2744067"><ele>43.33333333333333</ele><time>2026-04-18T08:20:47.101Z</time></trkpt><trkpt lat="41.1441617" lon="14.2746017"><ele>42.666666666666664</ele><time>2026-04-18T08:20:48.101Z</time></trkpt><trkpt lat="41.1441667" lon="14.27481"><ele>42.0</ele><time>2026-04-18T08:20:49.101Z</time></trkpt><trkpt lat="41.1441767" lon="14.2750183"><ele>41.333333333333336</ele><time>2026-04-18T08:20:50.101Z</time></trkpt><trkpt lat="41.1441933" lon="14.275235"><ele>40.66666666666667</ele><time>2026-04-18T08:20:51.101Z</time></trkpt><trkpt lat="41.1442117" lon="14.2754483"><ele>40.0</ele><time>2026-04-18T08:20:52.101Z</time></trkpt><trkpt lat="41.1442233" lon="14.2756683"><ele>40.0</ele><time>2026-04-18T08:20:53.101Z</time></trkpt><trkpt lat="41.144225" lon="14.2758917"><ele>40.0</ele><time>2026-04-18T08:20:54.101Z</time></trkpt><trkpt lat="41.1442233" lon="14.2761133"><ele>40.0</ele><time>2026-04-18T08:20:55.101Z</time></trkpt><trkpt lat="41.1442317" lon="14.2763317"><ele>40.0</ele><time>2026-04-18T08:20:56.101Z</time></trkpt><trkpt lat="41.1442483" lon="14.2765567"><ele>40.0</ele><time>2026-04-18T08:20:57.101Z</time></trkpt><trkpt lat="41.144275" lon="14.2767767"><ele>40.0</ele><time>2026-04-18T08:20:58.101Z</time></trkpt><trkpt lat="41.1443067" lon="14.2769917"><ele>40.0</ele><time>2026-04-18T08:20:59.101Z</time></trkpt><trkpt lat="41.1443383" lon="14.2772133"><ele>40.0</ele><time>2026-04-18T08:21:00.101Z</time></trkpt><trkpt lat="41.1443633" lon="14.2774233"><ele>40.0</ele><time>2026-04-18T08:21:01.102Z</time></trkpt><trkpt lat="41.1443733" lon="14.2776233"><ele>39.75</ele><time>2026-04-18T08:21:02.101Z</time></trkpt><trkpt lat="41.1443833" lon="14.27781"><ele>39.5</ele><time>2026-04-18T08:21:03.101Z</time></trkpt><trkpt lat="41.1443883" lon="14.2779883"><ele>39.25</ele><time>2026-04-18T08:21:04.101Z</time></trkpt><trkpt lat="41.1444017" lon="14.2781567"><ele>39.0</ele><time>2026-04-18T08:21:05.102Z</time></trkpt><trkpt lat="41.1444183" lon="14.2783233"><ele>39.5</ele><time>2026-04-18T08:21:06.101Z</time></trkpt><trkpt lat="41.1444333" lon="14.27849"><ele>40.0</ele><time>2026-04-18T08:21:07.101Z</time></trkpt><trkpt lat="41.144445" lon="14.278655"><ele>40.5</ele><time>2026-04-18T08:21:08.101Z</time></trkpt><trkpt lat="41.14445" lon="14.278815"><ele>41.0</ele><time>2026-04-18T08:21:09.101Z</time></trkpt><trkpt lat="41.1444517" lon="14.2789817"><ele>41.0</ele><time>2026-04-18T08:21:10.101Z</time></trkpt><trkpt lat="41.14445" lon="14.2791517"><ele>41.0</ele><time>2026-04-18T08:21:11.101Z</time></trkpt><trkpt lat="41.1444483" lon="14.279315"><ele>41.0</ele><time>2026-04-18T08:21:12.102Z</time></trkpt><trkpt lat="41.1444417" lon="14.2794917"><ele>41.0</ele><time>2026-04-18T08:21:13.101Z</time></trkpt><trkpt lat="41.144435" lon="14.2796633"><ele>41.0</ele><time>2026-04-18T08:21:14.101Z</time></trkpt><trkpt lat="41.144425" lon="14.279845"><ele>41.0</ele><time>2026-04-18T08:21:15.101Z</time></trkpt><trkpt lat="41.14441" lon="14.280025"><ele>41.0</ele><time>2026-04-18T08:21:16.101Z</time></trkpt><trkpt lat="41.1443917" lon="14.2802117"><ele>41.0</ele><time>2026-04-18T08:21:17.101Z</time></trkpt><trkpt lat="41.1443533" lon="14.28039"><ele>41.0</ele><time>2026-04-18T08:21:18.101Z</time></trkpt><trkpt lat="41.144305" lon="14.2805583"><ele>41.0</ele><time>2026-04-18T08:21:19.101Z</time></trkpt><trkpt lat="41.1442633" lon="14.2807367"><ele>41.0</ele><time>2026-04-18T08:21:20.101Z</time></trkpt><trkpt lat="41.144235" lon="14.2809217"><ele>41.0</ele><time>2026-04-18T08:21:21.101Z</time></trkpt><trkpt lat="41.1442233" lon="14.2811117"><ele>40.25</ele><time>2026-04-18T08:21:22.101Z</time></trkpt><trkpt lat="41.1442233" lon="14.2812967"><ele>39.5</ele><time>2026-04-18T08:21:23.101Z</time></trkpt><trkpt lat="41.14424" lon="14.2814833"><ele>38.75</ele><time>2026-04-18T08:21:24.101Z</time></trkpt><trkpt lat="41.144275" lon="14.281675"><ele>38.0</ele><time>2026-04-18T08:21:25.102Z</time></trkpt><trkpt lat="41.144315" lon="14.281865"><ele>36.33333333333333</ele><time>2026-04-18T08:21:26.101Z</time></trkpt><trkpt lat="41.144365" lon="14.2820517"><ele>34.666666666666664</ele><time>2026-04-18T08:21:27.101Z</time></trkpt><trkpt lat="41.14442" lon="14.2822367"><ele>33.0</ele><time>2026-04-18T08:21:28.101Z</time></trkpt><trkpt lat="41.14448" lon="14.282425"><ele>32.666666666666664</ele><time>2026-04-18T08:21:29.101Z</time></trkpt><trkpt lat="41.1445467" lon="14.2826217"><ele>32.33333333333333</ele><time>2026-04-18T08:21:30.101Z</time></trkpt><trkpt lat="41.1446317" lon="14.2828283"><ele>32.0</ele><time>2026-04-18T08:21:31.101Z</time></trkpt><trkpt lat="41.1447133" lon="14.2830417"><ele>32.0</ele><time>2026-04-18T08:21:32.101Z</time></trkpt><trkpt lat="41.1448" lon="14.2832583"><ele>32.0</ele><time>2026-04-18T08:21:33.102Z</time></trkpt><trkpt lat="41.14489" lon="14.283485"><ele>32.0</ele><time>2026-04-18T08:21:34.101Z</time></trkpt><trkpt lat="41.1449833" lon="14.2837133"><ele>31.0</ele><time>2026-04-18T08:21:35.101Z</time></trkpt><trkpt lat="41.1450767" lon="14.2839433"><ele>30.0</ele><time>2026-04-18T08:21:36.101Z</time></trkpt><trkpt lat="41.145165" lon="14.28417"><ele>29.0</ele><time>2026-04-18T08:21:37.101Z</time></trkpt><trkpt lat="41.145255" lon="14.2843867"><ele>29.0</ele><time>2026-04-18T08:21:38.101Z</time></trkpt><trkpt lat="41.1453417" lon="14.284605"><ele>29.0</ele><time>2026-04-18T08:21:39.101Z</time></trkpt><trkpt lat="41.1454267" lon="14.28483"><ele>29.0</ele><time>2026-04-18T08:21:40.101Z</time></trkpt><trkpt lat="41.1455117" lon="14.28505"><ele>29.0</ele><time>2026-04-18T08:21:41.101Z</time></trkpt><trkpt lat="41.1455967" lon="14.2852617"><ele>29.0</ele><time>2026-04-18T08:21:42.101Z</time></trkpt><trkpt lat="41.1456817" lon="14.2854833"><ele>29.0</ele><time>2026-04-18T08:21:43.101Z</time></trkpt><trkpt lat="41.1457733" lon="14.2857017"><ele>29.333333333333332</ele><time>2026-04-18T08:21:44.102Z</time></trkpt><trkpt lat="41.145865" lon="14.28592"><ele>29.666666666666664</ele><time>2026-04-18T08:21:45.102Z</time></trkpt><trkpt lat="41.1459517" lon="14.2861467"><ele>30.0</ele><time>2026-04-18T08:21:46.101Z</time></trkpt><trkpt lat="41.146035" lon="14.28638"><ele>29.666666666666664</ele><time>2026-04-18T08:21:47.101Z</time></trkpt><trkpt lat="41.146115" lon="14.2866083"><ele>29.333333333333332</ele><time>2026-04-18T08:21:48.101Z</time></trkpt><trkpt lat="41.1461983" lon="14.2868283"><ele>29.0</ele><time>2026-04-18T08:21:49.101Z</time></trkpt><trkpt lat="41.1462817" lon="14.28703"><ele>29.0</ele><time>2026-04-18T08:21:50.101Z</time></trkpt><trkpt lat="41.14637" lon="14.2872283"><ele>29.0</ele><time>2026-04-18T08:21:51.101Z</time></trkpt><trkpt lat="41.1464617" lon="14.2874217"><ele>29.0</ele><time>2026-04-18T08:21:52.101Z</time></trkpt><trkpt lat="41.1465667" lon="14.28759"><ele>29.666666666666664</ele><time>2026-04-18T08:21:53.101Z</time></trkpt><trkpt lat="41.1466817" lon="14.28775"><ele>30.333333333333336</ele><time>2026-04-18T08:21:54.101Z</time></trkpt><trkpt lat="41.1467933" lon="14.2878967"><ele>31.0</ele><time>2026-04-18T08:21:55.101Z</time></trkpt><trkpt lat="41.14691" lon="14.28804"><ele>31.0</ele><time>2026-04-18T08:21:56.102Z</time></trkpt><trkpt lat="41.1470383" lon="14.28818"><ele>31.0</ele><time>2026-04-18T08:21:57.102Z</time></trkpt><trkpt lat="41.1471783" lon="14.2883"><ele>31.0</ele><time>2026-04-18T08:21:58.101Z</time></trkpt><trkpt lat="41.1473167" lon="14.2884133"><ele>31.333333333333336</ele><time>2026-04-18T08:21:59.101Z</time></trkpt><trkpt lat="41.147465" lon="14.28852"><ele>31.666666666666664</ele><time>2026-04-18T08:22:00.101Z</time></trkpt><trkpt lat="41.14761" lon="14.2886267"><ele>32.0</ele><time>2026-04-18T08:22:01.101Z</time></trkpt><trkpt lat="41.147765" lon="14.288735"><ele>32.0</ele><time>2026-04-18T08:22:02.101Z</time></trkpt><trkpt lat="41.1479183" lon="14.2888417"><ele>32.0</ele><time>2026-04-18T08:22:03.101Z</time></trkpt><trkpt lat="41.1480733" lon="14.2889483"><ele>32.0</ele><time>2026-04-18T08:22:04.101Z</time></trkpt><trkpt lat="41.14823" lon="14.2890533"><ele>32.33333333333333</ele><time>2026-04-18T08:22:05.101Z</time></trkpt><trkpt lat="41.1483917" lon="14.2891583"><ele>32.666666666666664</ele><time>2026-04-18T08:22:06.101Z</time></trkpt><trkpt lat="41.1485517" lon="14.28926"><ele>33.0</ele><time>2026-04-18T08:22:07.102Z</time></trkpt><trkpt lat="41.1487167" lon="14.2893567"><ele>33.0</ele><time>2026-04-18T08:22:08.101Z</time></trkpt><trkpt lat="41.1488783" lon="14.2894567"><ele>33.0</ele><time>2026-04-18T08:22:09.101Z</time></trkpt><trkpt lat="41.1490433" lon="14.2895567"><ele>33.0</ele><time>2026-04-18T08:22:10.101Z</time></trkpt><trkpt lat="41.149205" lon="14.2896483"><ele>33.333333333333336</ele><time>2026-04-18T08:22:11.101Z</time></trkpt><trkpt lat="41.1493767" lon="14.289745"><ele>33.66666666666667</ele><time>2026-04-18T08:22:12.101Z</time></trkpt><trkpt lat="41.1495383" lon="14.289835"><ele>34.0</ele><time>2026-04-18T08:22:13.101Z</time></trkpt><trkpt lat="41.1496983" lon="14.2899333"><ele>34.0</ele><time>2026-04-18T08:22:14.101Z</time></trkpt><trkpt lat="41.1498567" lon="14.29003"><ele>34.0</ele><time>2026-04-18T08:22:15.101Z</time></trkpt><trkpt lat="41.1500117" lon="14.290125"><ele>34.0</ele><time>2026-04-18T08:22:16.101Z</time></trkpt><trkpt lat="41.1501617" lon="14.290225"><ele>33.66666666666667</ele><time>2026-04-18T08:22:17.101Z</time></trkpt><trkpt lat="41.1503067" lon="14.2903233"><ele>33.333333333333336</ele><time>2026-04-18T08:22:18.101Z</time></trkpt><trkpt lat="41.15045" lon="14.290415"><ele>33.0</ele><time>2026-04-18T08:22:19.101Z</time></trkpt><trkpt lat="41.1505833" lon="14.2905117"><ele>33.666666666666664</ele><time>2026-04-18T08:22:20.101Z</time></trkpt><trkpt lat="41.1507117" lon="14.2906067"><ele>34.33333333333333</ele><time>2026-04-18T08:22:21.101Z</time></trkpt><trkpt lat="41.150835" lon="14.290715"><ele>35.0</ele><time>2026-04-18T08:22:22.101Z</time></trkpt><trkpt lat="41.1509583" lon="14.29084"><ele>35.0</ele><time>2026-04-18T08:22:23.101Z</time></trkpt><trkpt lat="41.1510833" lon="14.2909833"><ele>35.0</ele><time>2026-04-18T08:22:24.101Z</time></trkpt><trkpt lat="41.1512083" lon="14.2911383"><ele>35.0</ele><time>2026-04-18T08:22:25.101Z</time></trkpt><trkpt lat="41.151325" lon="14.2913233"><ele>35.0</ele><time>2026-04-18T08:22:26.101Z</time></trkpt><trkpt lat="41.1514383" lon="14.2915233"><ele>35.0</ele><time>2026-04-18T08:22:27.101Z</time></trkpt><trkpt lat="41.15156" lon="14.2917233"><ele>35.0</ele><time>2026-04-18T08:22:28.101Z</time></trkpt><trkpt lat="41.1516833" lon="14.2919217"><ele>34.33333333333333</ele><time>2026-04-18T08:22:29.101Z</time></trkpt><trkpt lat="41.1517983" lon="14.2921133"><ele>33.666666666666664</ele><time>2026-04-18T08:22:30.101Z</time></trkpt><trkpt lat="41.1519033" lon="14.2922917"><ele>33.0</ele><time>2026-04-18T08:22:31.101Z</time></trkpt><trkpt lat="41.1519883" lon="14.292455"><ele>32.0</ele><time>2026-04-18T08:22:32.101Z</time></trkpt><trkpt lat="41.15204" lon="14.2926233"><ele>31.0</ele><time>2026-04-18T08:22:33.101Z</time></trkpt><trkpt lat="41.1520633" lon="14.2928067"><ele>30.0</ele><time>2026-04-18T08:22:34.101Z</time></trkpt><trkpt lat="41.15208" lon="14.2930083"><ele>29.0</ele><time>2026-04-18T08:22:35.101Z</time></trkpt><trkpt lat="41.1520933" lon="14.2932133"><ele>29.0</ele><time>2026-04-18T08:22:36.101Z</time></trkpt><trkpt lat="41.15211" lon="14.2934283"><ele>29.0</ele><time>2026-04-18T08:22:37.101Z</time></trkpt><trkpt lat="41.1521317" lon="14.2936367"><ele>29.0</ele><time>2026-04-18T08:22:38.102Z</time></trkpt><trkpt lat="41.152155" lon="14.2938383"><ele>29.666666666666664</ele><time>2026-04-18T08:22:39.101Z</time></trkpt><trkpt lat="41.1521667" lon="14.2940483"><ele>30.333333333333336</ele><time>2026-04-18T08:22:40.101Z</time></trkpt><trkpt lat="41.1521783" lon="14.2942517"><ele>31.0</ele><time>2026-04-18T08:22:41.101Z</time></trkpt><trkpt lat="41.1521667" lon="14.2944583"><ele>31.0</ele><time>2026-04-18T08:22:42.101Z</time></trkpt><trkpt lat="41.1521417" lon="14.2946783"><ele>31.0</ele><time>2026-04-18T08:22:43.101Z</time></trkpt><trkpt lat="41.1521133" lon="14.294905"><ele>31.0</ele><time>2026-04-18T08:22:44.101Z</time></trkpt><trkpt lat="41.152085" lon="14.29514"><ele>31.0</ele><time>2026-04-18T08:22:45.101Z</time></trkpt><trkpt lat="41.1520533" lon="14.295395"><ele>31.0</ele><time>2026-04-18T08:22:46.101Z</time></trkpt><trkpt lat="41.1520283" lon="14.2956483"><ele>31.0</ele><time>2026-04-18T08:22:47.101Z</time></trkpt><trkpt lat="41.1520033" lon="14.29591"><ele>30.666666666666668</ele><time>2026-04-18T08:22:48.101Z</time></trkpt><trkpt lat="41.1519783" lon="14.296175"><ele>30.333333333333336</ele><time>2026-04-18T08:22:49.101Z</time></trkpt><trkpt lat="41.1519467" lon="14.2964417"><ele>30.0</ele><time>2026-04-18T08:22:50.101Z</time></trkpt><trkpt lat="41.1519167" lon="14.2967033"><ele>30.666666666666664</ele><time>2026-04-18T08:22:51.101Z</time></trkpt><trkpt lat="41.1518883" lon="14.2969683"><ele>31.333333333333332</ele><time>2026-04-18T08:22:52.101Z</time></trkpt><trkpt lat="41.1518583" lon="14.2972317"><ele>32.0</ele><time>2026-04-18T08:22:53.101Z</time></trkpt><trkpt lat="41.15183" lon="14.2974733"><ele>33.0</ele><time>2026-04-18T08:22:54.101Z</time></trkpt><trkpt lat="41.1518" lon="14.2976933"><ele>34.0</ele><time>2026-04-18T08:22:55.101Z</time></trkpt><trkpt lat="41.1517783" lon="14.2979"><ele>35.0</ele><time>2026-04-18T08:22:56.101Z</time></trkpt><trkpt lat="41.1517517" lon="14.2980917"><ele>35.0</ele><time>2026-04-18T08:22:57.101Z</time></trkpt><trkpt lat="41.1517367" lon="14.29828"><ele>35.0</ele><time>2026-04-18T08:22:58.101Z</time></trkpt><trkpt lat="41.151725" lon="14.29846"><ele>35.0</ele><time>2026-04-18T08:22:59.101Z</time></trkpt><trkpt lat="41.15172" lon="14.2986383"><ele>35.0</ele><time>2026-04-18T08:23:00.102Z</time></trkpt><trkpt lat="41.1517317" lon="14.2988"><ele>34.75</ele><time>2026-04-18T08:23:01.101Z</time></trkpt><trkpt lat="41.1517583" lon="14.2989567"><ele>34.5</ele><time>2026-04-18T08:23:02.102Z</time></trkpt><trkpt lat="41.151805" lon="14.29911"><ele>34.25</ele><time>2026-04-18T08:23:03.101Z</time></trkpt><trkpt lat="41.1518717" lon="14.299265"><ele>34.0</ele><time>2026-04-18T08:23:04.101Z</time></trkpt><trkpt lat="41.1519533" lon="14.2994167"><ele>34.0</ele><time>2026-04-18T08:23:05.101Z</time></trkpt><trkpt lat="41.1520483" lon="14.2995817"><ele>34.0</ele><time>2026-04-18T08:23:06.102Z</time></trkpt><trkpt lat="41.1521533" lon="14.2997567"><ele>34.0</ele><time>2026-04-18T08:23:07.101Z</time></trkpt><trkpt lat="41.1522533" lon="14.2999417"><ele>34.0</ele><time>2026-04-18T08:23:08.101Z</time></trkpt><trkpt lat="41.1523617" lon="14.300125"><ele>34.0</ele><time>2026-04-18T08:23:09.102Z</time></trkpt><trkpt lat="41.1524733" lon="14.3003183"><ele>34.0</ele><time>2026-04-18T08:23:10.101Z</time></trkpt><trkpt lat="41.15258" lon="14.3005067"><ele>34.0</ele><time>2026-04-18T08:23:11.101Z</time></trkpt><trkpt lat="41.1526917" lon="14.300705"><ele>34.0</ele><time>2026-04-18T08:23:12.101Z</time></trkpt><trkpt lat="41.152815" lon="14.3009083"><ele>34.0</ele><time>2026-04-18T08:23:13.101Z</time></trkpt><trkpt lat="41.152935" lon="14.3011133"><ele>34.0</ele><time>2026-04-18T08:23:14.101Z</time></trkpt><trkpt lat="41.1530567" lon="14.3013117"><ele>34.0</ele><time>2026-04-18T08:23:15.101Z</time></trkpt><trkpt lat="41.1531767" lon="14.301505"><ele>34.0</ele><time>2026-04-18T08:23:16.101Z</time></trkpt><trkpt lat="41.153295" lon="14.3016967"><ele>34.0</ele><time>2026-04-18T08:23:17.101Z</time></trkpt><trkpt lat="41.153405" lon="14.3018867"><ele>34.0</ele><time>2026-04-18T08:23:18.101Z</time></trkpt><trkpt lat="41.153515" lon="14.3020833"><ele>34.0</ele><time>2026-04-18T08:23:19.101Z</time></trkpt><trkpt lat="41.153625" lon="14.3022733"><ele>33.66666666666667</ele><time>2026-04-18T08:23:20.101Z</time></trkpt><trkpt lat="41.1537383" lon="14.3024667"><ele>33.333333333333336</ele><time>2026-04-18T08:23:21.101Z</time></trkpt><trkpt lat="41.153845" lon="14.3026667"><ele>33.0</ele><time>2026-04-18T08:23:22.101Z</time></trkpt><trkpt lat="41.15396" lon="14.30287"><ele>33.666666666666664</ele><time>2026-04-18T08:23:23.101Z</time></trkpt><trkpt lat="41.1540767" lon="14.30307"><ele>34.33333333333333</ele><time>2026-04-18T08:23:24.101Z</time></trkpt><trkpt lat="41.1541867" lon="14.303275"><ele>35.0</ele><time>2026-04-18T08:23:25.101Z</time></trkpt><trkpt lat="41.1543" lon="14.30348"><ele>35.0</ele><time>2026-04-18T08:23:26.101Z</time></trkpt><trkpt lat="41.1544" lon="14.3036717"><ele>35.0</ele><time>2026-04-18T08:23:27.101Z</time></trkpt><trkpt lat="41.15449" lon="14.3038383"><ele>35.0</ele><time>2026-04-18T08:23:28.101Z</time></trkpt><trkpt lat="41.154575" lon="14.3039933"><ele>34.75</ele><time>2026-04-18T08:23:29.101Z</time></trkpt><trkpt lat="41.15466" lon="14.304145"><ele>34.5</ele><time>2026-04-18T08:23:30.102Z</time></trkpt><trkpt lat="41.1547483" lon="14.3042933"><ele>34.25</ele><time>2026-04-18T08:23:31.101Z</time></trkpt><trkpt lat="41.1548333" lon="14.3044483"><ele>34.0</ele><time>2026-04-18T08:23:32.101Z</time></trkpt><trkpt lat="41.1549233" lon="14.3046"><ele>34.333333333333336</ele><time>2026-04-18T08:23:33.101Z</time></trkpt><trkpt lat="41.15502" lon="14.30475"><ele>34.666666666666664</ele><time>2026-04-18T08:23:34.101Z</time></trkpt><trkpt lat="41.1551167" lon="14.3049117"><ele>35.0</ele><time>2026-04-18T08:23:35.101Z</time></trkpt><trkpt lat="41.1552183" lon="14.3050767"><ele>35.0</ele><time>2026-04-18T08:23:36.101Z</time></trkpt><trkpt lat="41.1553283" lon="14.3052433"><ele>35.0</ele><time>2026-04-18T08:23:37.101Z</time></trkpt><trkpt lat="41.1554433" lon="14.3054133"><ele>35.0</ele><time>2026-04-18T08:23:38.101Z</time></trkpt><trkpt lat="41.1555767" lon="14.3055883"><ele>35.0</ele><time>2026-04-18T08:23:39.102Z</time></trkpt><trkpt lat="41.1557033" lon="14.3057667"><ele>35.0</ele><time>2026-04-18T08:23:40.101Z</time></trkpt><trkpt lat="41.1558367" lon="14.3059567"><ele>35.0</ele><time>2026-04-18T08:23:41.101Z</time></trkpt><trkpt lat="41.15596" lon="14.3061533"><ele>35.0</ele><time>2026-04-18T08:23:42.102Z</time></trkpt><trkpt lat="41.15607" lon="14.3063617"><ele>35.0</ele><time>2026-04-18T08:23:43.101Z</time></trkpt><trkpt lat="41.1561667" lon="14.3065833"><ele>35.0</ele><time>2026-04-18T08:23:44.101Z</time></trkpt><trkpt lat="41.15626" lon="14.306815"><ele>35.33333333333333</ele><time>2026-04-18T08:23:45.101Z</time></trkpt><trkpt lat="41.1563567" lon="14.3070517"><ele>35.666666666666664</ele><time>2026-04-18T08:23:46.101Z</time></trkpt><trkpt lat="41.1564767" lon="14.3072783"><ele>36.0</ele><time>2026-04-18T08:23:47.101Z</time></trkpt><trkpt lat="41.15661" lon="14.307495"><ele>36.0</ele><time>2026-04-18T08:23:48.101Z</time></trkpt><trkpt lat="41.1567467" lon="14.3077183"><ele>36.0</ele><time>2026-04-18T08:23:49.101Z</time></trkpt><trkpt lat="41.1568783" lon="14.3079433"><ele>36.0</ele><time>2026-04-18T08:23:50.102Z</time></trkpt><trkpt lat="41.1570117" lon="14.3081683"><ele>35.333333333333336</ele><time>2026-04-18T08:23:51.101Z</time></trkpt><trkpt lat="41.157145" lon="14.3083967"><ele>34.66666666666667</ele><time>2026-04-18T08:23:52.101Z</time></trkpt><trkpt lat="41.1572683" lon="14.308615"><ele>34.0</ele><time>2026-04-18T08:23:53.101Z</time></trkpt><trkpt lat="41.1573917" lon="14.3088233"><ele>35.66666666666667</ele><time>2026-04-18T08:23:54.101Z</time></trkpt><trkpt lat="41.1575117" lon="14.3090317"><ele>37.333333333333336</ele><time>2026-04-18T08:23:55.101Z</time></trkpt><trkpt lat="41.157625" lon="14.309235"><ele>39.0</ele><time>2026-04-18T08:23:56.101Z</time></trkpt><trkpt lat="41.1577433" lon="14.30943"><ele>39.0</ele><time>2026-04-18T08:23:57.101Z</time></trkpt><trkpt lat="41.15786" lon="14.3096283"><ele>39.0</ele><time>2026-04-18T08:23:58.101Z</time></trkpt><trkpt lat="41.1579767" lon="14.3098183"><ele>39.0</ele><time>2026-04-18T08:23:59.101Z</time></trkpt><trkpt lat="41.1580933" lon="14.3100017"><ele>39.0</ele><time>2026-04-18T08:24:00.101Z</time></trkpt><trkpt lat="41.158205" lon="14.31019"><ele>39.0</ele><time>2026-04-18T08:24:01.101Z</time></trkpt><trkpt lat="41.1583183" lon="14.3103717"><ele>39.0</ele><time>2026-04-18T08:24:02.101Z</time></trkpt><trkpt lat="41.1584267" lon="14.3105517"><ele>39.333333333333336</ele><time>2026-04-18T08:24:03.101Z</time></trkpt><trkpt lat="41.158535" lon="14.3107383"><ele>39.66666666666667</ele><time>2026-04-18T08:24:04.101Z</time></trkpt><trkpt lat="41.1586417" lon="14.310935"><ele>40.0</ele><time>2026-04-18T08:24:05.101Z</time></trkpt><trkpt lat="41.158745" lon="14.3111333"><ele>40.0</ele><time>2026-04-18T08:24:06.101Z</time></trkpt><trkpt lat="41.1588633" lon="14.3113267"><ele>40.0</ele><time>2026-04-18T08:24:07.101Z</time></trkpt><trkpt lat="41.1589767" lon="14.3115183"><ele>40.0</ele><time>2026-04-18T08:24:08.101Z</time></trkpt><trkpt lat="41.1590883" lon="14.3117133"><ele>40.333333333333336</ele><time>2026-04-18T08:24:09.101Z</time></trkpt><trkpt lat="41.1591983" lon="14.3119167"><ele>40.666666666666664</ele><time>2026-04-18T08:24:10.101Z</time></trkpt><trkpt lat="41.15931" lon="14.3121267"><ele>41.0</ele><time>2026-04-18T08:24:11.101Z</time></trkpt><trkpt lat="41.159425" lon="14.312325"><ele>41.0</ele><time>2026-04-18T08:24:12.101Z</time></trkpt><trkpt lat="41.1595433" lon="14.3125167"><ele>41.0</ele><time>2026-04-18T08:24:13.101Z</time></trkpt><trkpt lat="41.1596517" lon="14.312705"><ele>41.0</ele><time>2026-04-18T08:24:14.101Z</time></trkpt><trkpt lat="41.1597633" lon="14.3128867"><ele>41.0</ele><time>2026-04-18T08:24:15.101Z</time></trkpt><trkpt lat="41.159875" lon="14.3130583"><ele>41.0</ele><time>2026-04-18T08:24:16.101Z</time></trkpt><trkpt lat="41.159995" lon="14.31322"><ele>41.0</ele><time>2026-04-18T08:24:17.101Z</time></trkpt><trkpt lat="41.1601267" lon="14.3133733"><ele>40.666666666666664</ele><time>2026-04-18T08:24:18.101Z</time></trkpt><trkpt lat="41.1602617" lon="14.313525"><ele>40.333333333333336</ele><time>2026-04-18T08:24:19.101Z</time></trkpt><trkpt lat="41.16039" lon="14.31369"><ele>40.0</ele><time>2026-04-18T08:24:20.101Z</time></trkpt><trkpt lat="41.1605017" lon="14.3138617"><ele>40.0</ele><time>2026-04-18T08:24:21.101Z</time></trkpt><trkpt lat="41.160615" lon="14.3140383"><ele>40.0</ele><time>2026-04-18T08:24:22.101Z</time></trkpt><trkpt lat="41.1607217" lon="14.31421"><ele>40.0</ele><time>2026-04-18T08:24:23.101Z</time></trkpt><trkpt lat="41.1608217" lon="14.3143817"><ele>41.0</ele><time>2026-04-18T08:24:24.101Z</time></trkpt><trkpt lat="41.1609217" lon="14.3145583"><ele>42.0</ele><time>2026-04-18T08:24:25.101Z</time></trkpt><trkpt lat="41.161" lon="14.31474"><ele>43.0</ele><time>2026-04-18T08:24:26.101Z</time></trkpt><trkpt lat="41.1610733" lon="14.3149233"><ele>43.0</ele><time>2026-04-18T08:24:27.101Z</time></trkpt><trkpt lat="41.1611383" lon="14.3151067"><ele>43.0</ele><time>2026-04-18T08:24:28.101Z</time></trkpt><trkpt lat="41.1612" lon="14.3153067"><ele>43.0</ele><time>2026-04-18T08:24:29.101Z</time></trkpt><trkpt lat="41.16125" lon="14.3155133"><ele>42.333333333333336</ele><time>2026-04-18T08:24:30.101Z</time></trkpt><trkpt lat="41.1612867" lon="14.31573"><ele>41.666666666666664</ele><time>2026-04-18T08:24:31.101Z</time></trkpt><trkpt lat="41.1613067" lon="14.3159483"><ele>41.0</ele><time>2026-04-18T08:24:32.101Z</time></trkpt><trkpt lat="41.1613233" lon="14.3161767"><ele>40.666666666666664</ele><time>2026-04-18T08:24:33.101Z</time></trkpt><trkpt lat="41.16133" lon="14.31641"><ele>40.333333333333336</ele><time>2026-04-18T08:24:34.101Z</time></trkpt><trkpt lat="41.1613433" lon="14.3166467"><ele>40.0</ele><time>2026-04-18T08:24:35.101Z</time></trkpt><trkpt lat="41.16136" lon="14.3168867"><ele>40.0</ele><time>2026-04-18T08:24:36.101Z</time></trkpt><trkpt lat="41.161375" lon="14.3171283"><ele>40.0</ele><time>2026-04-18T08:24:37.101Z</time></trkpt><trkpt lat="41.161395" lon="14.3173683"><ele>40.0</ele><time>2026-04-18T08:24:38.101Z</time></trkpt><trkpt lat="41.16141" lon="14.3176"><ele>40.66666666666667</ele><time>2026-04-18T08:24:39.101Z</time></trkpt><trkpt lat="41.1614183" lon="14.3178433"><ele>41.333333333333336</ele><time>2026-04-18T08:24:40.101Z</time></trkpt><trkpt lat="41.1614233" lon="14.31808"><ele>42.0</ele><time>2026-04-18T08:24:41.101Z</time></trkpt><trkpt lat="41.16143" lon="14.3183117"><ele>42.333333333333336</ele><time>2026-04-18T08:24:42.102Z</time></trkpt><trkpt lat="41.1614283" lon="14.31855"><ele>42.66666666666667</ele><time>2026-04-18T08:24:43.101Z</time></trkpt><trkpt lat="41.1614383" lon="14.318785"><ele>43.0</ele><time>2026-04-18T08:24:44.101Z</time></trkpt><trkpt lat="41.1614417" lon="14.3190167"><ele>44.0</ele><time>2026-04-18T08:24:45.101Z</time></trkpt><trkpt lat="41.16145" lon="14.31925"><ele>45.0</ele><time>2026-04-18T08:24:46.101Z</time></trkpt><trkpt lat="41.1614683" lon="14.3194833"><ele>46.0</ele><time>2026-04-18T08:24:47.101Z</time></trkpt><trkpt lat="41.1615" lon="14.319725"><ele>47.333333333333336</ele><time>2026-04-18T08:24:48.102Z</time></trkpt><trkpt lat="41.1615383" lon="14.3199783"><ele>48.66666666666667</ele><time>2026-04-18T08:24:49.102Z</time></trkpt><trkpt lat="41.1615817" lon="14.32024"><ele>50.0</ele><time>2026-04-18T08:24:50.102Z</time></trkpt><trkpt lat="41.16163" lon="14.3204967"><ele>49.66666666666667</ele><time>2026-04-18T08:24:51.101Z</time></trkpt><trkpt lat="41.1616967" lon="14.3207583"><ele>49.33333333333333</ele><time>2026-04-18T08:24:52.101Z</time></trkpt><trkpt lat="41.1617633" lon="14.3210283"><ele>49.0</ele><time>2026-04-18T08:24:53.101Z</time></trkpt><trkpt lat="41.1618317" lon="14.3212933"><ele>49.0</ele><time>2026-04-18T08:24:54.102Z</time></trkpt><trkpt lat="41.1619033" lon="14.32155"><ele>49.0</ele><time>2026-04-18T08:24:55.101Z</time></trkpt><trkpt lat="41.1619733" lon="14.3218067"><ele>49.0</ele><time>2026-04-18T08:24:56.101Z</time></trkpt><trkpt lat="41.1620533" lon="14.32205"><ele>49.0</ele><time>2026-04-18T08:24:57.102Z</time></trkpt><trkpt lat="41.1621267" lon="14.3222883"><ele>49.0</ele><time>2026-04-18T08:24:58.101Z</time></trkpt><trkpt lat="41.1621983" lon="14.3225233"><ele>49.0</ele><time>2026-04-18T08:24:59.101Z</time></trkpt><trkpt lat="41.162265" lon="14.322755"><ele>49.0</ele><time>2026-04-18T08:25:00.101Z</time></trkpt><trkpt lat="41.1623383" lon="14.3229883"><ele>49.0</ele><time>2026-04-18T08:25:01.101Z</time></trkpt><trkpt lat="41.162405" lon="14.3232167"><ele>49.0</ele><time>2026-04-18T08:25:02.101Z</time></trkpt><trkpt lat="41.1624633" lon="14.323425"><ele>50.0</ele><time>2026-04-18T08:25:03.101Z</time></trkpt><trkpt lat="41.162505" lon="14.3236283"><ele>51.0</ele><time>2026-04-18T08:25:04.101Z</time></trkpt><trkpt lat="41.1625433" lon="14.3238233"><ele>52.0</ele><time>2026-04-18T08:25:05.101Z</time></trkpt><trkpt lat="41.1625783" lon="14.3240067"><ele>52.0</ele><time>2026-04-18T08:25:06.101Z</time></trkpt><trkpt lat="41.1626117" lon="14.3241733"><ele>52.0</ele><time>2026-04-18T08:25:07.101Z</time></trkpt><trkpt lat="41.1626567" lon="14.3243267"><ele>52.0</ele><time>2026-04-18T08:25:08.101Z</time></trkpt><trkpt lat="41.1626867" lon="14.3244667"><ele>52.0</ele><time>2026-04-18T08:25:09.101Z</time></trkpt><trkpt lat="41.1627117" lon="14.32459"><ele>51.99999999999999</ele><time>2026-04-18T08:25:10.101Z</time></trkpt><trkpt lat="41.1627333" lon="14.32471"><ele>52.0</ele><time>2026-04-18T08:25:11.101Z</time></trkpt><trkpt lat="41.1627483" lon="14.324825"><ele>52.0</ele><time>2026-04-18T08:25:12.101Z</time></trkpt><trkpt lat="41.162755" lon="14.3249267"><ele>52.0</ele><time>2026-04-18T08:25:13.101Z</time></trkpt><trkpt lat="41.162765" lon="14.3250167"><ele>51.99999999999999</ele><time>2026-04-18T08:25:14.101Z</time></trkpt><trkpt lat="41.162805" lon="14.325155"><ele>52.0</ele><time>2026-04-18T08:25:16.101Z</time></trkpt><trkpt lat="41.16289" lon="14.3252133"><ele>51.8</ele><time>2026-04-18T08:25:18.101Z</time></trkpt><trkpt lat="41.16302" lon="14.3252017"><ele>51.6</ele><time>2026-04-18T08:25:20.101Z</time></trkpt><trkpt lat="41.1631083" lon="14.3251883"><ele>51.4</ele><time>2026-04-18T08:25:21.101Z</time></trkpt><trkpt lat="41.1632067" lon="14.325175"><ele>51.199999999999996</ele><time>2026-04-18T08:25:22.101Z</time></trkpt><trkpt lat="41.1633167" lon="14.3251633"><ele>51.0</ele><time>2026-04-18T08:25:23.101Z</time></trkpt><trkpt lat="41.1634483" lon="14.3251433"><ele>52.75</ele><time>2026-04-18T08:25:24.101Z</time></trkpt><trkpt lat="41.1635933" lon="14.3251117"><ele>54.5</ele><time>2026-04-18T08:25:25.101Z</time></trkpt><trkpt lat="41.16374" lon="14.3250717"><ele>56.25</ele><time>2026-04-18T08:25:26.101Z</time></trkpt><trkpt lat="41.1638817" lon="14.3250333"><ele>58.0</ele><time>2026-04-18T08:25:27.101Z</time></trkpt><trkpt lat="41.1640167" lon="14.3249983"><ele>58.599999999999994</ele><time>2026-04-18T08:25:28.101Z</time></trkpt><trkpt lat="41.1641433" lon="14.324965"><ele>59.199999999999996</ele><time>2026-04-18T08:25:29.101Z</time></trkpt><trkpt lat="41.1642483" lon="14.3249333"><ele>59.8</ele><time>2026-04-18T08:25:30.102Z</time></trkpt><trkpt lat="41.1643467" lon="14.3249017"><ele>60.4</ele><time>2026-04-18T08:25:31.101Z</time></trkpt><trkpt lat="41.1644367" lon="14.324875"><ele>61.0</ele><time>2026-04-18T08:25:32.101Z</time></trkpt><trkpt lat="41.1644983" lon="14.324855"><ele>61.0</ele><time>2026-04-18T08:25:33.102Z</time></trkpt><trkpt lat="41.164615" lon="14.3248433"><ele>60.99999999999999</ele><time>2026-04-18T08:25:35.101Z</time></trkpt><trkpt lat="41.164695" lon="14.3249383"><ele>60.99999999999999</ele><time>2026-04-18T08:25:37.101Z</time></trkpt><trkpt lat="41.1647267" lon="14.3250333"><ele>61.0</ele><time>2026-04-18T08:25:38.101Z</time></trkpt><trkpt lat="41.16477" lon="14.32515"><ele>61.0</ele><time>2026-04-18T08:25:39.101Z</time></trkpt><trkpt lat="41.1648217" lon="14.3252767"><ele>61.75</ele><time>2026-04-18T08:25:40.101Z</time></trkpt><trkpt lat="41.1648833" lon="14.3254"><ele>62.5</ele><time>2026-04-18T08:25:41.101Z</time></trkpt><trkpt lat="41.1649533" lon="14.3255183"><ele>63.25</ele><time>2026-04-18T08:25:42.101Z</time></trkpt><trkpt lat="41.1650333" lon="14.3256283"><ele>64.0</ele><time>2026-04-18T08:25:43.101Z</time></trkpt><trkpt lat="41.1651283" lon="14.3257233"><ele>64.0</ele><time>2026-04-18T08:25:44.101Z</time></trkpt><trkpt lat="41.1652283" lon="14.3258"><ele>64.0</ele><time>2026-04-18T08:25:45.101Z</time></trkpt><trkpt lat="41.165345" lon="14.3258517"><ele>64.0</ele><time>2026-04-18T08:25:46.101Z</time></trkpt><trkpt lat="41.165465" lon="14.3258967"><ele>64.0</ele><time>2026-04-18T08:25:47.101Z</time></trkpt><trkpt lat="41.1655783" lon="14.3259367"><ele>64.0</ele><time>2026-04-18T08:25:48.101Z</time></trkpt><trkpt lat="41.1656917" lon="14.3259733"><ele>64.0</ele><time>2026-04-18T08:25:49.101Z</time></trkpt><trkpt lat="41.1658017" lon="14.3260117"><ele>64.0</ele><time>2026-04-18T08:25:50.101Z</time></trkpt><trkpt lat="41.1659017" lon="14.326075"><ele>64.0</ele><time>2026-04-18T08:25:51.101Z</time></trkpt><trkpt lat="41.16599" lon="14.3261517"><ele>64.0</ele><time>2026-04-18T08:25:52.101Z</time></trkpt><trkpt lat="41.1660583" lon="14.3262483"><ele>64.75</ele><time>2026-04-18T08:25:53.101Z</time></trkpt><trkpt lat="41.1661117" lon="14.3263717"><ele>65.5</ele><time>2026-04-18T08:25:54.101Z</time></trkpt><trkpt lat="41.166165" lon="14.326505"><ele>66.25</ele><time>2026-04-18T08:25:55.101Z</time></trkpt><trkpt lat="41.1662133" lon="14.32666"><ele>67.0</ele><time>2026-04-18T08:25:56.101Z</time></trkpt><trkpt lat="41.1662667" lon="14.3268217"><ele>67.0</ele><time>2026-04-18T08:25:57.101Z</time></trkpt><trkpt lat="41.1663283" lon="14.32698"><ele>67.0</ele><time>2026-04-18T08:25:58.101Z</time></trkpt><trkpt lat="41.1663967" lon="14.3271417"><ele>67.0</ele><time>2026-04-18T08:25:59.101Z</time></trkpt><trkpt lat="41.1664583" lon="14.3273"><ele>67.0</ele><time>2026-04-18T08:26:00.101Z</time></trkpt><trkpt lat="41.166525" lon="14.32744"><ele>67.4</ele><time>2026-04-18T08:26:01.101Z</time></trkpt><trkpt lat="41.1665833" lon="14.3275717"><ele>67.80000000000001</ele><time>2026-04-18T08:26:02.101Z</time></trkpt><trkpt lat="41.1666383" lon="14.3276783"><ele>68.2</ele><time>2026-04-18T08:26:03.101Z</time></trkpt><trkpt lat="41.1666817" lon="14.3277783"><ele>68.60000000000001</ele><time>2026-04-18T08:26:04.101Z</time></trkpt><trkpt lat="41.16672" lon="14.3278883"><ele>69.0</ele><time>2026-04-18T08:26:05.101Z</time></trkpt><trkpt lat="41.1667667" lon="14.3279917"><ele>68.66666666666667</ele><time>2026-04-18T08:26:06.101Z</time></trkpt><trkpt lat="41.1668" lon="14.3280883"><ele>68.33333333333333</ele><time>2026-04-18T08:26:07.101Z</time></trkpt><trkpt lat="41.1668333" lon="14.3281767"><ele>68.0</ele><time>2026-04-18T08:26:08.101Z</time></trkpt><trkpt lat="41.16687" lon="14.32826"><ele>67.66666666666666</ele><time>2026-04-18T08:26:09.101Z</time></trkpt><trkpt lat="41.1668883" lon="14.328355"><ele>67.33333333333333</ele><time>2026-04-18T08:26:10.101Z</time></trkpt><trkpt lat="41.16691" lon="14.3284733"><ele>67.0</ele><time>2026-04-18T08:26:11.101Z</time></trkpt><trkpt lat="41.16694" lon="14.3286083"><ele>67.0</ele><time>2026-04-18T08:26:12.102Z</time></trkpt><trkpt lat="41.16697" lon="14.32875"><ele>67.0</ele><time>2026-04-18T08:26:13.101Z</time></trkpt><trkpt lat="41.167005" lon="14.3289033"><ele>67.0</ele><time>2026-04-18T08:26:14.101Z</time></trkpt><trkpt lat="41.1670383" lon="14.3290583"><ele>67.0</ele><time>2026-04-18T08:26:15.101Z</time></trkpt><trkpt lat="41.1670783" lon="14.3292133"><ele>66.5</ele><time>2026-04-18T08:26:16.101Z</time></trkpt><trkpt lat="41.167115" lon="14.3293683"><ele>66.0</ele><time>2026-04-18T08:26:17.101Z</time></trkpt><trkpt lat="41.1671417" lon="14.3295283"><ele>65.5</ele><time>2026-04-18T08:26:18.101Z</time></trkpt><trkpt lat="41.1671667" lon="14.329695"><ele>65.0</ele><time>2026-04-18T08:26:19.101Z</time></trkpt><trkpt lat="41.1671833" lon="14.32985"><ele>64.2</ele><time>2026-04-18T08:26:20.101Z</time></trkpt><trkpt lat="41.1671983" lon="14.3300017"><ele>63.4</ele><time>2026-04-18T08:26:21.101Z</time></trkpt><trkpt lat="41.16721" lon="14.33015"><ele>62.599999999999994</ele><time>2026-04-18T08:26:22.101Z</time></trkpt><trkpt lat="41.16722" lon="14.3302917"><ele>61.8</ele><time>2026-04-18T08:26:23.101Z</time></trkpt><trkpt lat="41.1672283" lon="14.33042"><ele>61.0</ele><time>2026-04-18T08:26:24.102Z</time></trkpt><trkpt lat="41.16724" lon="14.330555"><ele>61.0</ele><time>2026-04-18T08:26:25.101Z</time></trkpt><trkpt lat="41.167245" lon="14.3306983"><ele>61.0</ele><time>2026-04-18T08:26:26.101Z</time></trkpt><trkpt lat="41.1672517" lon="14.33084"><ele>61.0</ele><time>2026-04-18T08:26:27.101Z</time></trkpt><trkpt lat="41.1672617" lon="14.3309983"><ele>61.0</ele><time>2026-04-18T08:26:28.101Z</time></trkpt><trkpt lat="41.167265" lon="14.331155"><ele>61.0</ele><time>2026-04-18T08:26:29.101Z</time></trkpt><trkpt lat="41.1672683" lon="14.3313083"><ele>60.99999999999999</ele><time>2026-04-18T08:26:30.101Z</time></trkpt><trkpt lat="41.1672817" lon="14.3314583"><ele>60.99999999999999</ele><time>2026-04-18T08:26:31.101Z</time></trkpt><trkpt lat="41.1672917" lon="14.3315967"><ele>61.0</ele><time>2026-04-18T08:26:32.101Z</time></trkpt><trkpt lat="41.167295" lon="14.3317333"><ele>61.0</ele><time>2026-04-18T08:26:33.101Z</time></trkpt><trkpt lat="41.1672983" lon="14.3318867"><ele>61.0</ele><time>2026-04-18T08:26:34.102Z</time></trkpt><trkpt lat="41.1672917" lon="14.332035"><ele>61.0</ele><time>2026-04-18T08:26:35.101Z</time></trkpt><trkpt lat="41.1672967" lon="14.3321767"><ele>61.0</ele><time>2026-04-18T08:26:36.101Z</time></trkpt><trkpt lat="41.1672867" lon="14.3323567"><ele>61.0</ele><time>2026-04-18T08:26:37.101Z</time></trkpt><trkpt lat="41.167285" lon="14.3325367"><ele>61.4</ele><time>2026-04-18T08:26:38.101Z</time></trkpt><trkpt lat="41.1672817" lon="14.3326983"><ele>61.8</ele><time>2026-04-18T08:26:39.101Z</time></trkpt><trkpt lat="41.1672783" lon="14.332845"><ele>62.199999999999996</ele><time>2026-04-18T08:26:40.101Z</time></trkpt><trkpt lat="41.1672783" lon="14.332975"><ele>62.599999999999994</ele><time>2026-04-18T08:26:41.101Z</time></trkpt><trkpt lat="41.1672683" lon="14.33309"><ele>63.0</ele><time>2026-04-18T08:26:42.101Z</time></trkpt><trkpt lat="41.167255" lon="14.3332017"><ele>63.166666666666664</ele><time>2026-04-18T08:26:43.101Z</time></trkpt><trkpt lat="41.1672433" lon="14.3333167"><ele>63.33333333333333</ele><time>2026-04-18T08:26:44.101Z</time></trkpt><trkpt lat="41.1672367" lon="14.333425"><ele>63.5</ele><time>2026-04-18T08:26:45.101Z</time></trkpt><trkpt lat="41.1672283" lon="14.3335333"><ele>63.666666666666664</ele><time>2026-04-18T08:26:46.101Z</time></trkpt><trkpt lat="41.1672283" lon="14.33364"><ele>63.83333333333333</ele><time>2026-04-18T08:26:47.101Z</time></trkpt><trkpt lat="41.1672333" lon="14.3337517"><ele>64.0</ele><time>2026-04-18T08:26:48.101Z</time></trkpt><trkpt lat="41.1672367" lon="14.3338583"><ele>64.16666666666666</ele><time>2026-04-18T08:26:49.101Z</time></trkpt><trkpt lat="41.16724" lon="14.3339483"><ele>64.33333333333333</ele><time>2026-04-18T08:26:50.101Z</time></trkpt><trkpt lat="41.1672617" lon="14.3340967"><ele>64.5</ele><time>2026-04-18T08:26:52.101Z</time></trkpt><trkpt lat="41.16727" lon="14.3342083"><ele>64.66666666666667</ele><time>2026-04-18T08:26:54.101Z</time></trkpt><trkpt lat="41.1672717" lon="14.334295"><ele>64.83333333333334</ele><time>2026-04-18T08:26:57.101Z</time></trkpt><trkpt lat="41.1672467" lon="14.3344117"><ele>65.0</ele><time>2026-04-18T08:27:00.101Z</time></trkpt><trkpt lat="41.1672217" lon="14.3345167"><ele>65.0</ele><time>2026-04-18T08:27:02.101Z</time></trkpt><trkpt lat="41.1672" lon="14.3346533"><ele>65.0</ele><time>2026-04-18T08:27:04.101Z</time></trkpt><trkpt lat="41.167195" lon="14.3347367"><ele>65.0</ele><time>2026-04-18T08:27:05.101Z</time></trkpt><trkpt lat="41.1671833" lon="14.334895"><ele>65.0</ele><time>2026-04-18T08:27:07.101Z</time></trkpt><trkpt lat="41.16716" lon="14.3350583"><ele>65.0</ele><time>2026-04-18T08:27:09.101Z</time></trkpt><trkpt lat="41.1671267" lon="14.33513"><ele>64.4</ele><time>2026-04-18T08:27:10.101Z</time></trkpt><trkpt lat="41.1670617" lon="14.3352567"><ele>63.8</ele><time>2026-04-18T08:27:12.101Z</time></trkpt><trkpt lat="41.1669467" lon="14.3353317"><ele>63.2</ele><time>2026-04-18T08:27:14.101Z</time></trkpt><trkpt lat="41.1668683" lon="14.3353733"><ele>62.6</ele><time>2026-04-18T08:27:15.101Z</time></trkpt><trkpt lat="41.16679" lon="14.33542"><ele>62.0</ele><time>2026-04-18T08:27:16.101Z</time></trkpt><trkpt lat="41.1667233" lon="14.335475"><ele>62.0</ele><time>2026-04-18T08:27:17.101Z</time></trkpt><trkpt lat="41.1666383" lon="14.3355417"><ele>62.0</ele><time>2026-04-18T08:27:18.101Z</time></trkpt><trkpt lat="41.166555" lon="14.3356067"><ele>62.0</ele><time>2026-04-18T08:27:19.101Z</time></trkpt><trkpt lat="41.1664683" lon="14.3356683"><ele>62.0</ele><time>2026-04-18T08:27:20.101Z</time></trkpt><trkpt lat="41.1663817" lon="14.3357333"><ele>62.0</ele><time>2026-04-18T08:27:21.101Z</time></trkpt><trkpt lat="41.1662917" lon="14.3357983"><ele>61.16666666666667</ele><time>2026-04-18T08:27:22.101Z</time></trkpt><trkpt lat="41.1662133" lon="14.33585"><ele>60.333333333333336</ele><time>2026-04-18T08:27:23.101Z</time></trkpt><trkpt lat="41.1661433" lon="14.3359133"><ele>59.5</ele><time>2026-04-18T08:27:24.101Z</time></trkpt><trkpt lat="41.1660717" lon="14.3359667"><ele>58.66666666666667</ele><time>2026-04-18T08:27:25.101Z</time></trkpt><trkpt lat="41.1660117" lon="14.33601"><ele>57.833333333333336</ele><time>2026-04-18T08:27:26.101Z</time></trkpt><trkpt lat="41.165955" lon="14.3360533"><ele>57.0</ele><time>2026-04-18T08:27:27.101Z</time></trkpt><trkpt lat="41.1658867" lon="14.3360833"><ele>57.0</ele><time>2026-04-18T08:27:28.102Z</time></trkpt><trkpt lat="41.1658267" lon="14.3361183"><ele>56.99999999999999</ele><time>2026-04-18T08:27:29.101Z</time></trkpt><trkpt lat="41.1657667" lon="14.336165"><ele>57.0</ele><time>2026-04-18T08:27:30.101Z</time></trkpt><trkpt lat="41.16571" lon="14.3362067"><ele>57.0</ele><time>2026-04-18T08:27:31.101Z</time></trkpt><trkpt lat="41.16565" lon="14.33624"><ele>56.99999999999999</ele><time>2026-04-18T08:27:32.101Z</time></trkpt><trkpt lat="41.1655917" lon="14.3362733"><ele>57.0</ele><time>2026-04-18T08:27:33.101Z</time></trkpt><trkpt lat="41.1654933" lon="14.3363433"><ele>57.0</ele><time>2026-04-18T08:27:35.101Z</time></trkpt><trkpt lat="41.1654267" lon="14.3363833"><ele>56.400000000000006</ele><time>2026-04-18T08:27:37.101Z</time></trkpt><trkpt lat="41.1653383" lon="14.336465"><ele>55.800000000000004</ele><time>2026-04-18T08:27:48.101Z</time></trkpt><trkpt lat="41.1652967" lon="14.3365717"><ele>55.2</ele><time>2026-04-18T08:27:50.101Z</time></trkpt><trkpt lat="41.1652183" lon="14.33668"><ele>54.6</ele><time>2026-04-18T08:27:52.101Z</time></trkpt><trkpt lat="41.165165" lon="14.336735"><ele>54.0</ele><time>2026-04-18T08:27:53.101Z</time></trkpt><trkpt lat="41.1651083" lon="14.336865"><ele>54.0</ele><time>2026-04-18T08:27:55.101Z</time></trkpt><trkpt lat="41.16509" lon="14.33696"><ele>54.0</ele><time>2026-04-18T08:27:56.101Z</time></trkpt><trkpt lat="41.1650567" lon="14.3370417"><ele>54.0</ele><time>2026-04-18T08:27:57.101Z</time></trkpt><trkpt lat="41.1650017" lon="14.33711"><ele>54.0</ele><time>2026-04-18T08:27:58.101Z</time></trkpt><trkpt lat="41.1649383" lon="14.337165"><ele>54.0</ele><time>2026-04-18T08:27:59.101Z</time></trkpt><trkpt lat="41.1648417" lon="14.3371983"><ele>54.0</ele><time>2026-04-18T08:28:00.101Z</time></trkpt><trkpt lat="41.16472" lon="14.3372317"><ele>53.25</ele><time>2026-04-18T08:28:01.101Z</time></trkpt><trkpt lat="41.164595" lon="14.3372633"><ele>52.5</ele><time>2026-04-18T08:28:02.101Z</time></trkpt><trkpt lat="41.164455" lon="14.3373017"><ele>51.75</ele><time>2026-04-18T08:28:03.101Z</time></trkpt><trkpt lat="41.1643067" lon="14.33735"><ele>51.0</ele><time>2026-04-18T08:28:04.101Z</time></trkpt><trkpt lat="41.1641583" lon="14.337405"><ele>49.0</ele><time>2026-04-18T08:28:05.101Z</time></trkpt><trkpt lat="41.164005" lon="14.3374517"><ele>47.0</ele><time>2026-04-18T08:28:06.101Z</time></trkpt><trkpt lat="41.1638533" lon="14.3374933"><ele>45.0</ele><time>2026-04-18T08:28:07.101Z</time></trkpt><trkpt lat="41.1636967" lon="14.337525"><ele>45.0</ele><time>2026-04-18T08:28:08.101Z</time></trkpt><trkpt lat="41.1635367" lon="14.3375467"><ele>45.0</ele><time>2026-04-18T08:28:09.101Z</time></trkpt><trkpt lat="41.1633733" lon="14.33754"><ele>45.0</ele><time>2026-04-18T08:28:10.101Z</time></trkpt><trkpt lat="41.1632083" lon="14.33753"><ele>44.333333333333336</ele><time>2026-04-18T08:28:11.101Z</time></trkpt><trkpt lat="41.1630483" lon="14.3375183"><ele>43.66666666666667</ele><time>2026-04-18T08:28:12.101Z</time></trkpt><trkpt lat="41.162885" lon="14.3375133"><ele>43.0</ele><time>2026-04-18T08:28:13.101Z</time></trkpt><trkpt lat="41.1627317" lon="14.3375167"><ele>43.0</ele><time>2026-04-18T08:28:14.101Z</time></trkpt><trkpt lat="41.1625967" lon="14.3375317"><ele>43.0</ele><time>2026-04-18T08:28:15.101Z</time></trkpt><trkpt lat="41.1624583" lon="14.337575"><ele>43.0</ele><time>2026-04-18T08:28:16.101Z</time></trkpt><trkpt lat="41.1623267" lon="14.3376517"><ele>43.0</ele><time>2026-04-18T08:28:17.101Z</time></trkpt><trkpt lat="41.162195" lon="14.33775"><ele>42.66666666666667</ele><time>2026-04-18T08:28:18.101Z</time></trkpt><trkpt lat="41.1620583" lon="14.3378517"><ele>42.333333333333336</ele><time>2026-04-18T08:28:19.101Z</time></trkpt><trkpt lat="41.1619217" lon="14.337955"><ele>42.0</ele><time>2026-04-18T08:28:20.101Z</time></trkpt><trkpt lat="41.1617817" lon="14.3380583"><ele>42.0</ele><time>2026-04-18T08:28:21.101Z</time></trkpt><trkpt lat="41.1616533" lon="14.3381583"><ele>42.0</ele><time>2026-04-18T08:28:22.101Z</time></trkpt><trkpt lat="41.1615367" lon="14.338245"><ele>42.0</ele><time>2026-04-18T08:28:23.101Z</time></trkpt><trkpt lat="41.1614317" lon="14.3383217"><ele>42.0</ele><time>2026-04-18T08:28:24.101Z</time></trkpt><trkpt lat="41.1613367" lon="14.33839"><ele>41.714285714285715</ele><time>2026-04-18T08:28:25.102Z</time></trkpt><trkpt lat="41.161255" lon="14.338455"><ele>41.42857142857143</ele><time>2026-04-18T08:28:26.101Z</time></trkpt><trkpt lat="41.161185" lon="14.3385083"><ele>41.14285714285714</ele><time>2026-04-18T08:28:27.102Z</time></trkpt><trkpt lat="41.1611217" lon="14.338555"><ele>40.85714285714286</ele><time>2026-04-18T08:28:28.101Z</time></trkpt><trkpt lat="41.1610667" lon="14.3385967"><ele>40.57142857142857</ele><time>2026-04-18T08:28:29.101Z</time></trkpt><trkpt lat="41.1610133" lon="14.3386417"><ele>40.285714285714285</ele><time>2026-04-18T08:28:30.101Z</time></trkpt><trkpt lat="41.16095" lon="14.3386817"><ele>40.0</ele><time>2026-04-18T08:28:31.101Z</time></trkpt><trkpt lat="41.160875" lon="14.3387317"><ele>40.0</ele><time>2026-04-18T08:28:32.101Z</time></trkpt><trkpt lat="41.160785" lon="14.33878"><ele>40.0</ele><time>2026-04-18T08:28:33.102Z</time></trkpt><trkpt lat="41.1606833" lon="14.3388217"><ele>40.0</ele><time>2026-04-18T08:28:34.101Z</time></trkpt><trkpt lat="41.1605583" lon="14.3388567"><ele>40.0</ele><time>2026-04-18T08:28:35.101Z</time></trkpt><trkpt lat="41.1604333" lon="14.3388733"><ele>40.333333333333336</ele><time>2026-04-18T08:28:36.101Z</time></trkpt><trkpt lat="41.16029" lon="14.33888"><ele>40.666666666666664</ele><time>2026-04-18T08:28:37.101Z</time></trkpt><trkpt lat="41.1601267" lon="14.33889"><ele>41.0</ele><time>2026-04-18T08:28:38.101Z</time></trkpt><trkpt lat="41.1599567" lon="14.3389017"><ele>42.0</ele><time>2026-04-18T08:28:39.101Z</time></trkpt><trkpt lat="41.1597867" lon="14.3389067"><ele>43.0</ele><time>2026-04-18T08:28:40.102Z</time></trkpt><trkpt lat="41.1596167" lon="14.338915"><ele>44.0</ele><time>2026-04-18T08:28:41.101Z</time></trkpt><trkpt lat="41.159455" lon="14.3389183"><ele>44.0</ele><time>2026-04-18T08:28:42.101Z</time></trkpt><trkpt lat="41.1593033" lon="14.3389083"><ele>44.0</ele><time>2026-04-18T08:28:43.101Z</time></trkpt><trkpt lat="41.1591483" lon="14.3388783"><ele>44.0</ele><time>2026-04-18T08:28:44.101Z</time></trkpt><trkpt lat="41.1589833" lon="14.3388183"><ele>42.666666666666664</ele><time>2026-04-18T08:28:45.101Z</time></trkpt><trkpt lat="41.1588083" lon="14.3387517"><ele>41.333333333333336</ele><time>2026-04-18T08:28:46.101Z</time></trkpt><trkpt lat="41.158635" lon="14.338675"><ele>40.0</ele><time>2026-04-18T08:28:47.101Z</time></trkpt><trkpt lat="41.158445" lon="14.33861"><ele>40.0</ele><time>2026-04-18T08:28:48.101Z</time></trkpt><trkpt lat="41.1582433" lon="14.3385633"><ele>40.0</ele><time>2026-04-18T08:28:49.101Z</time></trkpt><trkpt lat="41.1580267" lon="14.3385217"><ele>40.0</ele><time>2026-04-18T08:28:50.101Z</time></trkpt><trkpt lat="41.157815" lon="14.3384783"><ele>40.0</ele><time>2026-04-18T08:28:51.101Z</time></trkpt><trkpt lat="41.15761" lon="14.3384317"><ele>40.0</ele><time>2026-04-18T08:28:52.101Z</time></trkpt><trkpt lat="41.1574067" lon="14.3383883"><ele>40.0</ele><time>2026-04-18T08:28:53.102Z</time></trkpt><trkpt lat="41.1572067" lon="14.3383467"><ele>39.66666666666667</ele><time>2026-04-18T08:28:54.101Z</time></trkpt><trkpt lat="41.15701" lon="14.3383"><ele>39.333333333333336</ele><time>2026-04-18T08:28:55.101Z</time></trkpt><trkpt lat="41.1568167" lon="14.3382583"><ele>39.0</ele><time>2026-04-18T08:28:56.101Z</time></trkpt><trkpt lat="41.15662" lon="14.3382217"><ele>39.333333333333336</ele><time>2026-04-18T08:28:57.101Z</time></trkpt><trkpt lat="41.156425" lon="14.3381817"><ele>39.66666666666667</ele><time>2026-04-18T08:28:58.101Z</time></trkpt><trkpt lat="41.15623" lon="14.3381483"><ele>40.0</ele><time>2026-04-18T08:28:59.101Z</time></trkpt><trkpt lat="41.1560367" lon="14.338115"><ele>40.0</ele><time>2026-04-18T08:29:00.101Z</time></trkpt><trkpt lat="41.1558517" lon="14.3380833"><ele>40.0</ele><time>2026-04-18T08:29:01.101Z</time></trkpt><trkpt lat="41.1556683" lon="14.3380517"><ele>40.0</ele><time>2026-04-18T08:29:02.101Z</time></trkpt><trkpt lat="41.1555" lon="14.338025"><ele>38.66666666666667</ele><time>2026-04-18T08:29:03.101Z</time></trkpt><trkpt lat="41.1553317" lon="14.3380033"><ele>37.333333333333336</ele><time>2026-04-18T08:29:04.101Z</time></trkpt><trkpt lat="41.1551633" lon="14.3379917"><ele>36.0</ele><time>2026-04-18T08:29:05.101Z</time></trkpt><trkpt lat="41.1549967" lon="14.3379933"><ele>36.0</ele><time>2026-04-18T08:29:06.101Z</time></trkpt><trkpt lat="41.154825" lon="14.338005"><ele>36.0</ele><time>2026-04-18T08:29:07.102Z</time></trkpt><trkpt lat="41.1546517" lon="14.33803"><ele>36.0</ele><time>2026-04-18T08:29:08.101Z</time></trkpt><trkpt lat="41.1544667" lon="14.338045"><ele>36.0</ele><time>2026-04-18T08:29:09.101Z</time></trkpt><trkpt lat="41.15428" lon="14.338065"><ele>36.0</ele><time>2026-04-18T08:29:10.101Z</time></trkpt><trkpt lat="41.1541017" lon="14.3380817"><ele>36.0</ele><time>2026-04-18T08:29:11.101Z</time></trkpt><trkpt lat="41.153935" lon="14.3380983"><ele>35.75</ele><time>2026-04-18T08:29:12.101Z</time></trkpt><trkpt lat="41.1537867" lon="14.33811"><ele>35.5</ele><time>2026-04-18T08:29:13.101Z</time></trkpt><trkpt lat="41.1536567" lon="14.3381217"><ele>35.25</ele><time>2026-04-18T08:29:14.101Z</time></trkpt><trkpt lat="41.153535" lon="14.3381367"><ele>35.0</ele><time>2026-04-18T08:29:15.101Z</time></trkpt><trkpt lat="41.1534283" lon="14.3381733"><ele>35.0</ele><time>2026-04-18T08:29:16.101Z</time></trkpt><trkpt lat="41.153335" lon="14.3382317"><ele>35.0</ele><time>2026-04-18T08:29:17.101Z</time></trkpt><trkpt lat="41.153245" lon="14.3383217"><ele>35.0</ele><time>2026-04-18T08:29:18.102Z</time></trkpt><trkpt lat="41.153165" lon="14.3384367"><ele>35.0</ele><time>2026-04-18T08:29:19.101Z</time></trkpt><trkpt lat="41.153095" lon="14.33858"><ele>34.33333333333333</ele><time>2026-04-18T08:29:20.101Z</time></trkpt><trkpt lat="41.153025" lon="14.3387433"><ele>33.666666666666664</ele><time>2026-04-18T08:29:21.101Z</time></trkpt><trkpt lat="41.15294" lon="14.3389267"><ele>33.0</ele><time>2026-04-18T08:29:22.101Z</time></trkpt><trkpt lat="41.1528533" lon="14.3391233"><ele>33.0</ele><time>2026-04-18T08:29:23.101Z</time></trkpt><trkpt lat="41.152765" lon="14.33933"><ele>33.0</ele><time>2026-04-18T08:29:24.101Z</time></trkpt><trkpt lat="41.152675" lon="14.3395467"><ele>33.0</ele><time>2026-04-18T08:29:25.101Z</time></trkpt><trkpt lat="41.1525817" lon="14.339765"><ele>33.0</ele><time>2026-04-18T08:29:26.101Z</time></trkpt><trkpt lat="41.1525" lon="14.33999"><ele>33.0</ele><time>2026-04-18T08:29:27.101Z</time></trkpt><trkpt lat="41.1524233" lon="14.3402267"><ele>33.0</ele><time>2026-04-18T08:29:28.101Z</time></trkpt><trkpt lat="41.15235" lon="14.3404567"><ele>32.666666666666664</ele><time>2026-04-18T08:29:29.101Z</time></trkpt><trkpt lat="41.15228" lon="14.3406883"><ele>32.33333333333333</ele><time>2026-04-18T08:29:30.101Z</time></trkpt><trkpt lat="41.1522167" lon="14.3409167"><ele>32.0</ele><time>2026-04-18T08:29:31.101Z</time></trkpt><trkpt lat="41.15216" lon="14.34113"><ele>32.0</ele><time>2026-04-18T08:29:32.102Z</time></trkpt><trkpt lat="41.1521067" lon="14.3413317"><ele>32.0</ele><time>2026-04-18T08:29:33.101Z</time></trkpt><trkpt lat="41.1520533" lon="14.3415283"><ele>32.0</ele><time>2026-04-18T08:29:34.101Z</time></trkpt><trkpt lat="41.1520017" lon="14.341725"><ele>32.0</ele><time>2026-04-18T08:29:35.101Z</time></trkpt><trkpt lat="41.15196" lon="14.3419017"><ele>32.0</ele><time>2026-04-18T08:29:36.101Z</time></trkpt><trkpt lat="41.15194" lon="14.3420717"><ele>32.0</ele><time>2026-04-18T08:29:37.101Z</time></trkpt><trkpt lat="41.1519417" lon="14.3422517"><ele>32.0</ele><time>2026-04-18T08:29:38.101Z</time></trkpt><trkpt lat="41.1519533" lon="14.34243"><ele>32.25</ele><time>2026-04-18T08:29:39.101Z</time></trkpt><trkpt lat="41.15199" lon="14.3426083"><ele>32.5</ele><time>2026-04-18T08:29:40.101Z</time></trkpt><trkpt lat="41.1520383" lon="14.3427983"><ele>32.75</ele><time>2026-04-18T08:29:41.101Z</time></trkpt><trkpt lat="41.152095" lon="14.3429917"><ele>33.0</ele><time>2026-04-18T08:29:42.101Z</time></trkpt><trkpt lat="41.1521533" lon="14.3432017"><ele>33.0</ele><time>2026-04-18T08:29:43.101Z</time></trkpt><trkpt lat="41.1522167" lon="14.3434317"><ele>33.0</ele><time>2026-04-18T08:29:44.101Z</time></trkpt><trkpt lat="41.152275" lon="14.343675"><ele>33.0</ele><time>2026-04-18T08:29:45.101Z</time></trkpt><trkpt lat="41.15234" lon="14.34393"><ele>34.0</ele><time>2026-04-18T08:29:46.101Z</time></trkpt><trkpt lat="41.152405" lon="14.3441733"><ele>35.0</ele><time>2026-04-18T08:29:47.101Z</time></trkpt><trkpt lat="41.1524767" lon="14.344415"><ele>36.0</ele><time>2026-04-18T08:29:48.101Z</time></trkpt><trkpt lat="41.15254" lon="14.3446533"><ele>36.333333333333336</ele><time>2026-04-18T08:29:49.101Z</time></trkpt><trkpt lat="41.152605" lon="14.3448767"><ele>36.66666666666667</ele><time>2026-04-18T08:29:50.101Z</time></trkpt><trkpt lat="41.1526617" lon="14.3450933"><ele>37.0</ele><time>2026-04-18T08:29:51.101Z</time></trkpt><trkpt lat="41.1527167" lon="14.3453183"><ele>36.333333333333336</ele><time>2026-04-18T08:29:52.101Z</time></trkpt><trkpt lat="41.152755" lon="14.345555"><ele>35.666666666666664</ele><time>2026-04-18T08:29:53.101Z</time></trkpt><trkpt lat="41.1527883" lon="14.3458017"><ele>35.0</ele><time>2026-04-18T08:29:54.101Z</time></trkpt><trkpt lat="41.152825" lon="14.3460583"><ele>35.0</ele><time>2026-04-18T08:29:55.101Z</time></trkpt><trkpt lat="41.152865" lon="14.3463233"><ele>35.0</ele><time>2026-04-18T08:29:56.101Z</time></trkpt><trkpt lat="41.1529067" lon="14.3466"><ele>35.0</ele><time>2026-04-18T08:29:57.101Z</time></trkpt><trkpt lat="41.1529483" lon="14.34688"><ele>34.666666666666664</ele><time>2026-04-18T08:29:58.101Z</time></trkpt><trkpt lat="41.152995" lon="14.347165"><ele>34.333333333333336</ele><time>2026-04-18T08:29:59.101Z</time></trkpt><trkpt lat="41.153045" lon="14.347445"><ele>34.0</ele><time>2026-04-18T08:30:00.101Z</time></trkpt><trkpt lat="41.153095" lon="14.3477283"><ele>33.333333333333336</ele><time>2026-04-18T08:30:01.101Z</time></trkpt><trkpt lat="41.15314" lon="14.3479967"><ele>32.666666666666664</ele><time>2026-04-18T08:30:02.101Z</time></trkpt><trkpt lat="41.1531933" lon="14.3482583"><ele>32.0</ele><time>2026-04-18T08:30:03.101Z</time></trkpt><trkpt lat="41.1532667" lon="14.34851"><ele>32.0</ele><time>2026-04-18T08:30:04.101Z</time></trkpt><trkpt lat="41.1533517" lon="14.3487583"><ele>32.0</ele><time>2026-04-18T08:30:05.101Z</time></trkpt><trkpt lat="41.1534483" lon="14.3490083"><ele>32.0</ele><time>2026-04-18T08:30:06.101Z</time></trkpt><trkpt lat="41.1535383" lon="14.34926"><ele>32.33333333333333</ele><time>2026-04-18T08:30:07.101Z</time></trkpt><trkpt lat="41.1536267" lon="14.3494983"><ele>32.666666666666664</ele><time>2026-04-18T08:30:08.101Z</time></trkpt><trkpt lat="41.153705" lon="14.3497183"><ele>33.0</ele><time>2026-04-18T08:30:09.101Z</time></trkpt><trkpt lat="41.1537783" lon="14.3499167"><ele>33.0</ele><time>2026-04-18T08:30:10.101Z</time></trkpt><trkpt lat="41.1538667" lon="14.3501067"><ele>33.0</ele><time>2026-04-18T08:30:11.101Z</time></trkpt><trkpt lat="41.1539667" lon="14.3502767"><ele>33.0</ele><time>2026-04-18T08:30:12.101Z</time></trkpt><trkpt lat="41.154085" lon="14.3504383"><ele>32.666666666666664</ele><time>2026-04-18T08:30:13.101Z</time></trkpt><trkpt lat="41.1542083" lon="14.3505967"><ele>32.33333333333333</ele><time>2026-04-18T08:30:14.101Z</time></trkpt><trkpt lat="41.15434" lon="14.350755"><ele>32.0</ele><time>2026-04-18T08:30:15.101Z</time></trkpt><trkpt lat="41.15447" lon="14.3509217"><ele>32.0</ele><time>2026-04-18T08:30:16.101Z</time></trkpt><trkpt lat="41.154605" lon="14.3510933"><ele>32.0</ele><time>2026-04-18T08:30:17.101Z</time></trkpt><trkpt lat="41.1547367" lon="14.35127"><ele>32.0</ele><time>2026-04-18T08:30:18.101Z</time></trkpt><trkpt lat="41.15487" lon="14.3514483"><ele>33.0</ele><time>2026-04-18T08:30:19.101Z</time></trkpt><trkpt lat="41.1549967" lon="14.351635"><ele>34.0</ele><time>2026-04-18T08:30:20.101Z</time></trkpt><trkpt lat="41.1551233" lon="14.3518233"><ele>35.0</ele><time>2026-04-18T08:30:21.101Z</time></trkpt><trkpt lat="41.1552433" lon="14.3520117"><ele>35.0</ele><time>2026-04-18T08:30:22.101Z</time></trkpt><trkpt lat="41.155355" lon="14.3521883"><ele>35.0</ele><time>2026-04-18T08:30:23.101Z</time></trkpt><trkpt lat="41.1554733" lon="14.35236"><ele>35.0</ele><time>2026-04-18T08:30:24.101Z</time></trkpt><trkpt lat="41.1555833" lon="14.352535"><ele>34.666666666666664</ele><time>2026-04-18T08:30:25.101Z</time></trkpt><trkpt lat="41.1556883" lon="14.3527133"><ele>34.333333333333336</ele><time>2026-04-18T08:30:26.101Z</time></trkpt><trkpt lat="41.1557933" lon="14.35288"><ele>34.0</ele><time>2026-04-18T08:30:27.101Z</time></trkpt><trkpt lat="41.1559033" lon="14.353045"><ele>34.66666666666667</ele><time>2026-04-18T08:30:28.101Z</time></trkpt><trkpt lat="41.1560183" lon="14.3532033"><ele>35.333333333333336</ele><time>2026-04-18T08:30:29.102Z</time></trkpt><trkpt lat="41.1561217" lon="14.3533683"><ele>36.0</ele><time>2026-04-18T08:30:30.101Z</time></trkpt><trkpt lat="41.1562283" lon="14.3535333"><ele>36.0</ele><time>2026-04-18T08:30:31.101Z</time></trkpt><trkpt lat="41.156335" lon="14.3537017"><ele>36.0</ele><time>2026-04-18T08:30:32.101Z</time></trkpt><trkpt lat="41.15644" lon="14.3538583"><ele>36.0</ele><time>2026-04-18T08:30:33.101Z</time></trkpt><trkpt lat="41.1565567" lon="14.354005"><ele>35.666666666666664</ele><time>2026-04-18T08:30:34.101Z</time></trkpt><trkpt lat="41.156685" lon="14.3541367"><ele>35.33333333333333</ele><time>2026-04-18T08:30:35.101Z</time></trkpt><trkpt lat="41.1568383" lon="14.3542583"><ele>35.0</ele><time>2026-04-18T08:30:36.101Z</time></trkpt><trkpt lat="41.1569883" lon="14.35438"><ele>35.0</ele><time>2026-04-18T08:30:37.101Z</time></trkpt><trkpt lat="41.15715" lon="14.3545017"><ele>35.0</ele><time>2026-04-18T08:30:38.101Z</time></trkpt><trkpt lat="41.1573083" lon="14.354625"><ele>35.0</ele><time>2026-04-18T08:30:39.101Z</time></trkpt><trkpt lat="41.1574467" lon="14.35476"><ele>36.0</ele><time>2026-04-18T08:30:40.101Z</time></trkpt><trkpt lat="41.157595" lon="14.3548767"><ele>37.0</ele><time>2026-04-18T08:30:41.101Z</time></trkpt><trkpt lat="41.1577383" lon="14.3549933"><ele>38.0</ele><time>2026-04-18T08:30:42.101Z</time></trkpt><trkpt lat="41.1578733" lon="14.3551067"><ele>38.0</ele><time>2026-04-18T08:30:43.101Z</time></trkpt><trkpt lat="41.1580167" lon="14.3552167"><ele>38.0</ele><time>2026-04-18T08:30:44.101Z</time></trkpt><trkpt lat="41.1581567" lon="14.3553267"><ele>38.0</ele><time>2026-04-18T08:30:45.101Z</time></trkpt><trkpt lat="41.158305" lon="14.3554217"><ele>36.666666666666664</ele><time>2026-04-18T08:30:46.101Z</time></trkpt><trkpt lat="41.1584517" lon="14.3555067"><ele>35.333333333333336</ele><time>2026-04-18T08:30:47.101Z</time></trkpt><trkpt lat="41.158605" lon="14.3555783"><ele>34.0</ele><time>2026-04-18T08:30:48.101Z</time></trkpt><trkpt lat="41.1587617" lon="14.35564"><ele>34.0</ele><time>2026-04-18T08:30:49.101Z</time></trkpt><trkpt lat="41.1589217" lon="14.3557"><ele>34.0</ele><time>2026-04-18T08:30:50.101Z</time></trkpt><trkpt lat="41.1590817" lon="14.355765"><ele>34.0</ele><time>2026-04-18T08:30:51.101Z</time></trkpt><trkpt lat="41.15925" lon="14.35583"><ele>34.0</ele><time>2026-04-18T08:30:52.102Z</time></trkpt><trkpt lat="41.1594117" lon="14.3558967"><ele>34.0</ele><time>2026-04-18T08:30:53.101Z</time></trkpt><trkpt lat="41.1595733" lon="14.3559517"><ele>34.0</ele><time>2026-04-18T08:30:54.101Z</time></trkpt><trkpt lat="41.1597367" lon="14.3560067"><ele>34.0</ele><time>2026-04-18T08:30:55.101Z</time></trkpt><trkpt lat="41.1598983" lon="14.3560683"><ele>34.0</ele><time>2026-04-18T08:30:56.101Z</time></trkpt><trkpt lat="41.1600617" lon="14.3561433"><ele>34.0</ele><time>2026-04-18T08:30:57.101Z</time></trkpt><trkpt lat="41.16023" lon="14.3562167"><ele>34.0</ele><time>2026-04-18T08:30:58.101Z</time></trkpt><trkpt lat="41.1604133" lon="14.35629"><ele>34.0</ele><time>2026-04-18T08:30:59.101Z</time></trkpt><trkpt lat="41.1606083" lon="14.3563617"><ele>34.0</ele><time>2026-04-18T08:31:00.101Z</time></trkpt><trkpt lat="41.1608117" lon="14.3564433"><ele>34.333333333333336</ele><time>2026-04-18T08:31:01.101Z</time></trkpt><trkpt lat="41.1610167" lon="14.3565183"><ele>34.666666666666664</ele><time>2026-04-18T08:31:02.101Z</time></trkpt><trkpt lat="41.1612167" lon="14.3565933"><ele>35.0</ele><time>2026-04-18T08:31:03.101Z</time></trkpt><trkpt lat="41.161395" lon="14.3566667"><ele>35.666666666666664</ele><time>2026-04-18T08:31:04.101Z</time></trkpt><trkpt lat="41.1615667" lon="14.356735"><ele>36.333333333333336</ele><time>2026-04-18T08:31:05.101Z</time></trkpt><trkpt lat="41.161725" lon="14.3568033"><ele>37.0</ele><time>2026-04-18T08:31:06.101Z</time></trkpt><trkpt lat="41.1618717" lon="14.3568733"><ele>37.0</ele><time>2026-04-18T08:31:07.101Z</time></trkpt><trkpt lat="41.1620067" lon="14.3569483"><ele>37.0</ele><time>2026-04-18T08:31:08.101Z</time></trkpt><trkpt lat="41.162135" lon="14.3570383"><ele>37.0</ele><time>2026-04-18T08:31:09.101Z</time></trkpt><trkpt lat="41.1622583" lon="14.3571483"><ele>37.0</ele><time>2026-04-18T08:31:10.101Z</time></trkpt><trkpt lat="41.16238" lon="14.3572733"><ele>37.0</ele><time>2026-04-18T08:31:11.101Z</time></trkpt><trkpt lat="41.16249" lon="14.3574117"><ele>37.0</ele><time>2026-04-18T08:31:12.101Z</time></trkpt><trkpt lat="41.1625967" lon="14.3575567"><ele>37.0</ele><time>2026-04-18T08:31:13.101Z</time></trkpt><trkpt lat="41.162695" lon="14.35773"><ele>37.0</ele><time>2026-04-18T08:31:14.101Z</time></trkpt><trkpt lat="41.1627883" lon="14.3579283"><ele>37.0</ele><time>2026-04-18T08:31:15.102Z</time></trkpt><trkpt lat="41.1628833" lon="14.3581367"><ele>37.0</ele><time>2026-04-18T08:31:16.101Z</time></trkpt><trkpt lat="41.1629833" lon="14.3583567"><ele>37.66666666666667</ele><time>2026-04-18T08:31:17.101Z</time></trkpt><trkpt lat="41.1630883" lon="14.3585867"><ele>38.333333333333336</ele><time>2026-04-18T08:31:18.101Z</time></trkpt><trkpt lat="41.163185" lon="14.35882"><ele>39.0</ele><time>2026-04-18T08:31:19.102Z</time></trkpt><trkpt lat="41.1632883" lon="14.3590483"><ele>39.0</ele><time>2026-04-18T08:31:20.101Z</time></trkpt><trkpt lat="41.1633933" lon="14.3592883"><ele>39.0</ele><time>2026-04-18T08:31:21.101Z</time></trkpt><trkpt lat="41.1634967" lon="14.3595233"><ele>39.0</ele><time>2026-04-18T08:31:22.101Z</time></trkpt><trkpt lat="41.1636017" lon="14.3597633"><ele>38.333333333333336</ele><time>2026-04-18T08:31:23.101Z</time></trkpt><trkpt lat="41.163705" lon="14.359995"><ele>37.66666666666667</ele><time>2026-04-18T08:31:24.101Z</time></trkpt><trkpt lat="41.16381" lon="14.3602317"><ele>37.0</ele><time>2026-04-18T08:31:25.101Z</time></trkpt><trkpt lat="41.16392" lon="14.360465"><ele>36.66666666666667</ele><time>2026-04-18T08:31:26.101Z</time></trkpt><trkpt lat="41.1640233" lon="14.3607"><ele>36.333333333333336</ele><time>2026-04-18T08:31:27.101Z</time></trkpt><trkpt lat="41.1641267" lon="14.36093"><ele>36.0</ele><time>2026-04-18T08:31:28.101Z</time></trkpt><trkpt lat="41.1642183" lon="14.36114"><ele>37.0</ele><time>2026-04-18T08:31:29.102Z</time></trkpt><trkpt lat="41.1643083" lon="14.3613367"><ele>38.0</ele><time>2026-04-18T08:31:30.102Z</time></trkpt><trkpt lat="41.1643917" lon="14.361515"><ele>39.0</ele><time>2026-04-18T08:31:31.101Z</time></trkpt><trkpt lat="41.164465" lon="14.36169"><ele>39.0</ele><time>2026-04-18T08:31:32.102Z</time></trkpt><trkpt lat="41.16453" lon="14.3618467"><ele>39.0</ele><time>2026-04-18T08:31:33.101Z</time></trkpt><trkpt lat="41.1645933" lon="14.3619983"><ele>39.0</ele><time>2026-04-18T08:31:34.101Z</time></trkpt><trkpt lat="41.164655" lon="14.3621533"><ele>39.0</ele><time>2026-04-18T08:31:35.101Z</time></trkpt><trkpt lat="41.1647083" lon="14.3623183"><ele>39.0</ele><time>2026-04-18T08:31:36.101Z</time></trkpt><trkpt lat="41.16475" lon="14.3625"><ele>39.0</ele><time>2026-04-18T08:31:37.101Z</time></trkpt><trkpt lat="41.164775" lon="14.3626867"><ele>39.0</ele><time>2026-04-18T08:31:38.102Z</time></trkpt><trkpt lat="41.1647983" lon="14.362875"><ele>39.0</ele><time>2026-04-18T08:31:39.101Z</time></trkpt><trkpt lat="41.1648117" lon="14.3630733"><ele>39.333333333333336</ele><time>2026-04-18T08:31:40.101Z</time></trkpt><trkpt lat="41.1648117" lon="14.3632783"><ele>39.66666666666667</ele><time>2026-04-18T08:31:41.102Z</time></trkpt><trkpt lat="41.1648033" lon="14.3634833"><ele>40.0</ele><time>2026-04-18T08:31:42.101Z</time></trkpt><trkpt lat="41.164775" lon="14.3636883"><ele>40.0</ele><time>2026-04-18T08:31:43.101Z</time></trkpt><trkpt lat="41.16474" lon="14.363895"><ele>40.0</ele><time>2026-04-18T08:31:44.101Z</time></trkpt><trkpt lat="41.1647083" lon="14.3640967"><ele>40.0</ele><time>2026-04-18T08:31:45.101Z</time></trkpt><trkpt lat="41.164685" lon="14.3643"><ele>40.0</ele><time>2026-04-18T08:31:46.102Z</time></trkpt><trkpt lat="41.1646567" lon="14.364515"><ele>40.0</ele><time>2026-04-18T08:31:47.101Z</time></trkpt><trkpt lat="41.16463" lon="14.364735"><ele>40.0</ele><time>2026-04-18T08:31:48.101Z</time></trkpt><trkpt lat="41.1646" lon="14.364955"><ele>39.66666666666667</ele><time>2026-04-18T08:31:49.101Z</time></trkpt><trkpt lat="41.1645667" lon="14.3651833"><ele>39.333333333333336</ele><time>2026-04-18T08:31:50.101Z</time></trkpt><trkpt lat="41.1645383" lon="14.36542"><ele>39.0</ele><time>2026-04-18T08:31:51.101Z</time></trkpt><trkpt lat="41.1645033" lon="14.3656533"><ele>38.666666666666664</ele><time>2026-04-18T08:31:52.101Z</time></trkpt><trkpt lat="41.1644717" lon="14.3658917"><ele>38.33333333333333</ele><time>2026-04-18T08:31:53.102Z</time></trkpt><trkpt lat="41.1644417" lon="14.3661333"><ele>38.0</ele><time>2026-04-18T08:31:54.101Z</time></trkpt><trkpt lat="41.1644083" lon="14.36638"><ele>38.666666666666664</ele><time>2026-04-18T08:31:55.101Z</time></trkpt><trkpt lat="41.1643733" lon="14.3666283"><ele>39.333333333333336</ele><time>2026-04-18T08:31:56.101Z</time></trkpt><trkpt lat="41.1643417" lon="14.366875"><ele>40.0</ele><time>2026-04-18T08:31:57.101Z</time></trkpt><trkpt lat="41.164305" lon="14.36711"><ele>39.66666666666667</ele><time>2026-04-18T08:31:58.101Z</time></trkpt><trkpt lat="41.1642767" lon="14.3673483"><ele>39.333333333333336</ele><time>2026-04-18T08:31:59.101Z</time></trkpt><trkpt lat="41.1642383" lon="14.36759"><ele>39.0</ele><time>2026-04-18T08:32:00.101Z</time></trkpt><trkpt lat="41.1642033" lon="14.3678333"><ele>39.333333333333336</ele><time>2026-04-18T08:32:01.101Z</time></trkpt><trkpt lat="41.1641733" lon="14.3680683"><ele>39.66666666666667</ele><time>2026-04-18T08:32:02.101Z</time></trkpt><trkpt lat="41.16415" lon="14.368295"><ele>40.0</ele><time>2026-04-18T08:32:03.101Z</time></trkpt><trkpt lat="41.1641183" lon="14.3685117"><ele>40.0</ele><time>2026-04-18T08:32:04.101Z</time></trkpt><trkpt lat="41.1640917" lon="14.3687317"><ele>40.0</ele><time>2026-04-18T08:32:05.101Z</time></trkpt><trkpt lat="41.16407" lon="14.36896"><ele>40.0</ele><time>2026-04-18T08:32:06.101Z</time></trkpt><trkpt lat="41.1640467" lon="14.369185"><ele>40.0</ele><time>2026-04-18T08:32:07.101Z</time></trkpt><trkpt lat="41.1640267" lon="14.3694017"><ele>40.0</ele><time>2026-04-18T08:32:08.102Z</time></trkpt><trkpt lat="41.1640133" lon="14.36961"><ele>40.0</ele><time>2026-04-18T08:32:09.101Z</time></trkpt><trkpt lat="41.164005" lon="14.3698067"><ele>39.25</ele><time>2026-04-18T08:32:10.101Z</time></trkpt><trkpt lat="41.1640017" lon="14.369995"><ele>38.5</ele><time>2026-04-18T08:32:11.101Z</time></trkpt><trkpt lat="41.163995" lon="14.3701767"><ele>37.75</ele><time>2026-04-18T08:32:12.101Z</time></trkpt><trkpt lat="41.1639917" lon="14.3703667"><ele>37.0</ele><time>2026-04-18T08:32:13.101Z</time></trkpt><trkpt lat="41.163995" lon="14.37056"><ele>36.0</ele><time>2026-04-18T08:32:14.101Z</time></trkpt><trkpt lat="41.163995" lon="14.3707617"><ele>35.0</ele><time>2026-04-18T08:32:15.101Z</time></trkpt><trkpt lat="41.1639917" lon="14.3709617"><ele>34.0</ele><time>2026-04-18T08:32:16.101Z</time></trkpt><trkpt lat="41.163995" lon="14.371165"><ele>34.25</ele><time>2026-04-18T08:32:17.101Z</time></trkpt><trkpt lat="41.1640017" lon="14.371365"><ele>34.5</ele><time>2026-04-18T08:32:18.101Z</time></trkpt><trkpt lat="41.164005" lon="14.37155"><ele>34.75</ele><time>2026-04-18T08:32:19.101Z</time></trkpt><trkpt lat="41.1640083" lon="14.3717233"><ele>35.0</ele><time>2026-04-18T08:32:20.101Z</time></trkpt><trkpt lat="41.164015" lon="14.3718867"><ele>35.0</ele><time>2026-04-18T08:32:21.101Z</time></trkpt><trkpt lat="41.1640217" lon="14.3720583"><ele>35.0</ele><time>2026-04-18T08:32:22.101Z</time></trkpt><trkpt lat="41.1640283" lon="14.3722317"><ele>35.0</ele><time>2026-04-18T08:32:23.102Z</time></trkpt><trkpt lat="41.164035" lon="14.3724117"><ele>35.0</ele><time>2026-04-18T08:32:24.101Z</time></trkpt><trkpt lat="41.1640333" lon="14.3726033"><ele>35.75</ele><time>2026-04-18T08:32:25.101Z</time></trkpt><trkpt lat="41.1640367" lon="14.3727983"><ele>36.5</ele><time>2026-04-18T08:32:26.101Z</time></trkpt><trkpt lat="41.16404" lon="14.3729967"><ele>37.25</ele><time>2026-04-18T08:32:27.101Z</time></trkpt><trkpt lat="41.164045" lon="14.373195"><ele>38.0</ele><time>2026-04-18T08:32:28.101Z</time></trkpt><trkpt lat="41.1640367" lon="14.3733883"><ele>38.75</ele><time>2026-04-18T08:32:29.102Z</time></trkpt><trkpt lat="41.1640433" lon="14.373575"><ele>39.5</ele><time>2026-04-18T08:32:30.101Z</time></trkpt><trkpt lat="41.1640417" lon="14.37377"><ele>40.25</ele><time>2026-04-18T08:32:31.101Z</time></trkpt><trkpt lat="41.1640367" lon="14.3739633"><ele>41.0</ele><time>2026-04-18T08:32:32.101Z</time></trkpt><trkpt lat="41.16402" lon="14.3741583"><ele>41.0</ele><time>2026-04-18T08:32:33.101Z</time></trkpt><trkpt lat="41.1639967" lon="14.37435"><ele>41.0</ele><time>2026-04-18T08:32:34.101Z</time></trkpt><trkpt lat="41.1639683" lon="14.3745633"><ele>41.0</ele><time>2026-04-18T08:32:35.101Z</time></trkpt><trkpt lat="41.1639433" lon="14.374775"><ele>41.0</ele><time>2026-04-18T08:32:36.101Z</time></trkpt><trkpt lat="41.1639217" lon="14.3749883"><ele>41.0</ele><time>2026-04-18T08:32:37.102Z</time></trkpt><trkpt lat="41.1638883" lon="14.3751883"><ele>41.0</ele><time>2026-04-18T08:32:38.101Z</time></trkpt><trkpt lat="41.1638617" lon="14.3753883"><ele>41.33333333333333</ele><time>2026-04-18T08:32:39.101Z</time></trkpt><trkpt lat="41.1638433" lon="14.3755883"><ele>41.666666666666664</ele><time>2026-04-18T08:32:40.101Z</time></trkpt><trkpt lat="41.16382" lon="14.3757933"><ele>42.0</ele><time>2026-04-18T08:32:41.101Z</time></trkpt><trkpt lat="41.1637983" lon="14.3759933"><ele>42.0</ele><time>2026-04-18T08:32:42.102Z</time></trkpt><trkpt lat="41.16377" lon="14.3762033"><ele>42.0</ele><time>2026-04-18T08:32:43.101Z</time></trkpt><trkpt lat="41.16375" lon="14.3764167"><ele>42.0</ele><time>2026-04-18T08:32:44.101Z</time></trkpt><trkpt lat="41.1637383" lon="14.3766283"><ele>41.0</ele><time>2026-04-18T08:32:45.101Z</time></trkpt><trkpt lat="41.1637317" lon="14.376845"><ele>40.0</ele><time>2026-04-18T08:32:46.101Z</time></trkpt><trkpt lat="41.1637267" lon="14.3770733"><ele>39.0</ele><time>2026-04-18T08:32:47.101Z</time></trkpt><trkpt lat="41.163715" lon="14.3772933"><ele>39.0</ele><time>2026-04-18T08:32:48.101Z</time></trkpt><trkpt lat="41.163705" lon="14.377505"><ele>39.0</ele><time>2026-04-18T08:32:49.101Z</time></trkpt><trkpt lat="41.1636967" lon="14.3776983"><ele>39.0</ele><time>2026-04-18T08:32:50.101Z</time></trkpt><trkpt lat="41.1636733" lon="14.3778817"><ele>39.0</ele><time>2026-04-18T08:32:51.101Z</time></trkpt><trkpt lat="41.163635" lon="14.3780717"><ele>39.0</ele><time>2026-04-18T08:32:52.102Z</time></trkpt><trkpt lat="41.1635817" lon="14.378255"><ele>39.0</ele><time>2026-04-18T08:32:53.101Z</time></trkpt><trkpt lat="41.1635133" lon="14.3784483"><ele>39.0</ele><time>2026-04-18T08:32:54.101Z</time></trkpt><trkpt lat="41.1634267" lon="14.3786483"><ele>38.666666666666664</ele><time>2026-04-18T08:32:55.101Z</time></trkpt><trkpt lat="41.1633283" lon="14.3788667"><ele>38.33333333333333</ele><time>2026-04-18T08:32:56.101Z</time></trkpt><trkpt lat="41.1632333" lon="14.3790933"><ele>38.0</ele><time>2026-04-18T08:32:57.101Z</time></trkpt><trkpt lat="41.1631383" lon="14.3793167"><ele>38.0</ele><time>2026-04-18T08:32:58.101Z</time></trkpt><trkpt lat="41.1630483" lon="14.37953"><ele>38.0</ele><time>2026-04-18T08:32:59.101Z</time></trkpt><trkpt lat="41.1629633" lon="14.3797317"><ele>38.0</ele><time>2026-04-18T08:33:00.102Z</time></trkpt><trkpt lat="41.162885" lon="14.37992"><ele>38.33333333333333</ele><time>2026-04-18T08:33:01.101Z</time></trkpt><trkpt lat="41.1627983" lon="14.38011"><ele>38.666666666666664</ele><time>2026-04-18T08:33:02.101Z</time></trkpt><trkpt lat="41.1627183" lon="14.38029"><ele>39.0</ele><time>2026-04-18T08:33:03.101Z</time></trkpt><trkpt lat="41.1626367" lon="14.38047"><ele>38.666666666666664</ele><time>2026-04-18T08:33:04.101Z</time></trkpt><trkpt lat="41.1625533" lon="14.3806517"><ele>38.33333333333333</ele><time>2026-04-18T08:33:05.101Z</time></trkpt><trkpt lat="41.16247" lon="14.38084"><ele>38.0</ele><time>2026-04-18T08:33:06.101Z</time></trkpt><trkpt lat="41.1623833" lon="14.3810283"><ele>36.0</ele><time>2026-04-18T08:33:07.101Z</time></trkpt><trkpt lat="41.1622933" lon="14.381215"><ele>34.0</ele><time>2026-04-18T08:33:08.101Z</time></trkpt><trkpt lat="41.162205" lon="14.3814117"><ele>32.0</ele><time>2026-04-18T08:33:09.101Z</time></trkpt><trkpt lat="41.1621133" lon="14.3816083"><ele>32.0</ele><time>2026-04-18T08:33:10.101Z</time></trkpt><trkpt lat="41.1620167" lon="14.38181"><ele>32.0</ele><time>2026-04-18T08:33:11.101Z</time></trkpt><trkpt lat="41.16192" lon="14.38202"><ele>32.0</ele><time>2026-04-18T08:33:12.101Z</time></trkpt><trkpt lat="41.16182" lon="14.3822417"><ele>32.33333333333333</ele><time>2026-04-18T08:33:13.101Z</time></trkpt><trkpt lat="41.16171" lon="14.3824617"><ele>32.666666666666664</ele><time>2026-04-18T08:33:14.101Z</time></trkpt><trkpt lat="41.1615983" lon="14.3826817"><ele>33.0</ele><time>2026-04-18T08:33:15.101Z</time></trkpt><trkpt lat="41.161495" lon="14.382905"><ele>33.0</ele><time>2026-04-18T08:33:16.101Z</time></trkpt><trkpt lat="41.1613917" lon="14.3831333"><ele>33.0</ele><time>2026-04-18T08:33:17.101Z</time></trkpt><trkpt lat="41.1612833" lon="14.3833667"><ele>33.0</ele><time>2026-04-18T08:33:18.101Z</time></trkpt><trkpt lat="41.161185" lon="14.3835883"><ele>33.0</ele><time>2026-04-18T08:33:19.101Z</time></trkpt><trkpt lat="41.1610833" lon="14.3838133"><ele>33.0</ele><time>2026-04-18T08:33:20.101Z</time></trkpt><trkpt lat="41.16098" lon="14.3840333"><ele>33.0</ele><time>2026-04-18T08:33:21.101Z</time></trkpt><trkpt lat="41.160875" lon="14.3842433"><ele>33.0</ele><time>2026-04-18T08:33:22.101Z</time></trkpt><trkpt lat="41.16077" lon="14.3844617"><ele>33.0</ele><time>2026-04-18T08:33:23.101Z</time></trkpt><trkpt lat="41.1606583" lon="14.3846967"><ele>33.0</ele><time>2026-04-18T08:33:24.101Z</time></trkpt><trkpt lat="41.160535" lon="14.3849567"><ele>33.0</ele><time>2026-04-18T08:33:25.101Z</time></trkpt><trkpt lat="41.1604067" lon="14.38524"><ele>33.0</ele><time>2026-04-18T08:33:26.101Z</time></trkpt><trkpt lat="41.1602683" lon="14.385535"><ele>34.0</ele><time>2026-04-18T08:33:27.101Z</time></trkpt><trkpt lat="41.1601317" lon="14.3858133"><ele>35.0</ele><time>2026-04-18T08:33:28.101Z</time></trkpt><trkpt lat="41.1599967" lon="14.3860817"><ele>35.0</ele><time>2026-04-18T08:33:29.101Z</time></trkpt><trkpt lat="41.1598817" lon="14.3863367"><ele>35.0</ele><time>2026-04-18T08:33:30.101Z</time></trkpt><trkpt lat="41.1597717" lon="14.3865717"><ele>35.0</ele><time>2026-04-18T08:33:31.101Z</time></trkpt><trkpt lat="41.15967" lon="14.3867833"><ele>34.666666666666664</ele><time>2026-04-18T08:33:32.101Z</time></trkpt><trkpt lat="41.1595783" lon="14.386985"><ele>34.333333333333336</ele><time>2026-04-18T08:33:33.101Z</time></trkpt><trkpt lat="41.1594917" lon="14.3871683"><ele>34.0</ele><time>2026-04-18T08:33:34.102Z</time></trkpt><trkpt lat="41.1594067" lon="14.3873433"><ele>34.0</ele><time>2026-04-18T08:33:35.101Z</time></trkpt><trkpt lat="41.1593283" lon="14.38751"><ele>34.0</ele><time>2026-04-18T08:33:36.101Z</time></trkpt><trkpt lat="41.1592483" lon="14.3876733"><ele>34.0</ele><time>2026-04-18T08:33:37.101Z</time></trkpt><trkpt lat="41.1591683" lon="14.3878433"><ele>34.0</ele><time>2026-04-18T08:33:38.101Z</time></trkpt><trkpt lat="41.1590867" lon="14.38802"><ele>34.333333333333336</ele><time>2026-04-18T08:33:39.102Z</time></trkpt><trkpt lat="41.1590083" lon="14.3881983"><ele>34.666666666666664</ele><time>2026-04-18T08:33:40.101Z</time></trkpt><trkpt lat="41.158925" lon="14.3883667"><ele>35.0</ele><time>2026-04-18T08:33:41.101Z</time></trkpt><trkpt lat="41.1588533" lon="14.388535"><ele>35.0</ele><time>2026-04-18T08:33:42.101Z</time></trkpt><trkpt lat="41.1587683" lon="14.388705"><ele>35.0</ele><time>2026-04-18T08:33:43.101Z</time></trkpt><trkpt lat="41.1586833" lon="14.3888783"><ele>35.0</ele><time>2026-04-18T08:33:44.101Z</time></trkpt><trkpt lat="41.1586017" lon="14.3890633"><ele>35.666666666666664</ele><time>2026-04-18T08:33:45.101Z</time></trkpt><trkpt lat="41.158515" lon="14.3892367"><ele>36.333333333333336</ele><time>2026-04-18T08:33:46.101Z</time></trkpt><trkpt lat="41.1584317" lon="14.3894167"><ele>37.0</ele><time>2026-04-18T08:33:47.101Z</time></trkpt><trkpt lat="41.158345" lon="14.389595"><ele>38.333333333333336</ele><time>2026-04-18T08:33:48.101Z</time></trkpt><trkpt lat="41.15826" lon="14.3897667"><ele>39.666666666666664</ele><time>2026-04-18T08:33:49.101Z</time></trkpt><trkpt lat="41.1581767" lon="14.389935"><ele>41.0</ele><time>2026-04-18T08:33:50.101Z</time></trkpt><trkpt lat="41.1580967" lon="14.3900983"><ele>41.25</ele><time>2026-04-18T08:33:51.101Z</time></trkpt><trkpt lat="41.1580217" lon="14.3902683"><ele>41.5</ele><time>2026-04-18T08:33:52.101Z</time></trkpt><trkpt lat="41.1579483" lon="14.3904333"><ele>41.75</ele><time>2026-04-18T08:33:53.101Z</time></trkpt><trkpt lat="41.1578733" lon="14.3906"><ele>42.0</ele><time>2026-04-18T08:33:54.101Z</time></trkpt><trkpt lat="41.157795" lon="14.3907583"><ele>41.25</ele><time>2026-04-18T08:33:55.101Z</time></trkpt><trkpt lat="41.1577067" lon="14.390925"><ele>40.5</ele><time>2026-04-18T08:33:56.101Z</time></trkpt><trkpt lat="41.15763" lon="14.39109"><ele>39.75</ele><time>2026-04-18T08:33:57.102Z</time></trkpt><trkpt lat="41.1575483" lon="14.39125"><ele>39.0</ele><time>2026-04-18T08:33:58.101Z</time></trkpt><trkpt lat="41.157465" lon="14.3914133"><ele>38.333333333333336</ele><time>2026-04-18T08:33:59.101Z</time></trkpt><trkpt lat="41.1573833" lon="14.3915833"><ele>37.66666666666667</ele><time>2026-04-18T08:34:00.101Z</time></trkpt><trkpt lat="41.1573067" lon="14.3917517"><ele>37.0</ele><time>2026-04-18T08:34:01.101Z</time></trkpt><trkpt lat="41.157225" lon="14.3919233"><ele>36.66666666666667</ele><time>2026-04-18T08:34:02.101Z</time></trkpt><trkpt lat="41.157155" lon="14.3921017"><ele>36.333333333333336</ele><time>2026-04-18T08:34:03.101Z</time></trkpt><trkpt lat="41.1570683" lon="14.3922833"><ele>36.0</ele><time>2026-04-18T08:34:04.101Z</time></trkpt><trkpt lat="41.1569717" lon="14.3924783"><ele>36.666666666666664</ele><time>2026-04-18T08:34:05.101Z</time></trkpt><trkpt lat="41.1568783" lon="14.3926833"><ele>37.33333333333333</ele><time>2026-04-18T08:34:06.101Z</time></trkpt><trkpt lat="41.1567833" lon="14.39289"><ele>38.0</ele><time>2026-04-18T08:34:07.101Z</time></trkpt><trkpt lat="41.156685" lon="14.3930917"><ele>38.0</ele><time>2026-04-18T08:34:08.101Z</time></trkpt><trkpt lat="41.15659" lon="14.39329"><ele>38.0</ele><time>2026-04-18T08:34:09.102Z</time></trkpt><trkpt lat="41.1565017" lon="14.3934817"><ele>38.0</ele><time>2026-04-18T08:34:10.101Z</time></trkpt><trkpt lat="41.1564067" lon="14.3936667"><ele>37.33333333333333</ele><time>2026-04-18T08:34:11.101Z</time></trkpt><trkpt lat="41.156315" lon="14.3938683"><ele>36.666666666666664</ele><time>2026-04-18T08:34:12.101Z</time></trkpt><trkpt lat="41.1562233" lon="14.3940617"><ele>36.0</ele><time>2026-04-18T08:34:13.101Z</time></trkpt><trkpt lat="41.1561333" lon="14.3942467"><ele>36.0</ele><time>2026-04-18T08:34:14.101Z</time></trkpt><trkpt lat="41.156045" lon="14.3944317"><ele>36.0</ele><time>2026-04-18T08:34:15.101Z</time></trkpt><trkpt lat="41.1559633" lon="14.3946083"><ele>36.0</ele><time>2026-04-18T08:34:16.101Z</time></trkpt><trkpt lat="41.1558817" lon="14.39479"><ele>36.333333333333336</ele><time>2026-04-18T08:34:17.101Z</time></trkpt><trkpt lat="41.1558" lon="14.39497"><ele>36.66666666666667</ele><time>2026-04-18T08:34:18.101Z</time></trkpt><trkpt lat="41.15571" lon="14.3951433"><ele>37.0</ele><time>2026-04-18T08:34:19.101Z</time></trkpt><trkpt lat="41.155625" lon="14.3953083"><ele>37.0</ele><time>2026-04-18T08:34:20.101Z</time></trkpt><trkpt lat="41.155535" lon="14.3954667"><ele>37.0</ele><time>2026-04-18T08:34:21.102Z</time></trkpt><trkpt lat="41.1554333" lon="14.395615"><ele>37.0</ele><time>2026-04-18T08:34:22.101Z</time></trkpt><trkpt lat="41.1553233" lon="14.395765"><ele>37.66666666666667</ele><time>2026-04-18T08:34:23.101Z</time></trkpt><trkpt lat="41.1552117" lon="14.3959133"><ele>38.333333333333336</ele><time>2026-04-18T08:34:24.101Z</time></trkpt><trkpt lat="41.1550967" lon="14.3960567"><ele>39.0</ele><time>2026-04-18T08:34:25.101Z</time></trkpt><trkpt lat="41.1549733" lon="14.3961933"><ele>38.666666666666664</ele><time>2026-04-18T08:34:26.102Z</time></trkpt><trkpt lat="41.1548517" lon="14.3963283"><ele>38.33333333333333</ele><time>2026-04-18T08:34:27.101Z</time></trkpt><trkpt lat="41.154725" lon="14.3964683"><ele>38.0</ele><time>2026-04-18T08:34:28.101Z</time></trkpt><trkpt lat="41.1546" lon="14.3966017"><ele>38.0</ele><time>2026-04-18T08:34:29.101Z</time></trkpt><trkpt lat="41.1544767" lon="14.3967333"><ele>38.0</ele><time>2026-04-18T08:34:30.101Z</time></trkpt><trkpt lat="41.1543533" lon="14.39687"><ele>38.0</ele><time>2026-04-18T08:34:31.101Z</time></trkpt><trkpt lat="41.1542167" lon="14.39702"><ele>39.0</ele><time>2026-04-18T08:34:32.101Z</time></trkpt><trkpt lat="41.1540683" lon="14.3971717"><ele>40.0</ele><time>2026-04-18T08:34:33.101Z</time></trkpt><trkpt lat="41.1539267" lon="14.397325"><ele>41.0</ele><time>2026-04-18T08:34:34.101Z</time></trkpt><trkpt lat="41.1537967" lon="14.3974667"><ele>41.0</ele><time>2026-04-18T08:34:35.101Z</time></trkpt><trkpt lat="41.1536617" lon="14.397605"><ele>41.0</ele><time>2026-04-18T08:34:36.101Z</time></trkpt><trkpt lat="41.153535" lon="14.39774"><ele>41.0</ele><time>2026-04-18T08:34:37.101Z</time></trkpt><trkpt lat="41.15342" lon="14.39786"><ele>41.0</ele><time>2026-04-18T08:34:38.101Z</time></trkpt><trkpt lat="41.1533267" lon="14.3979717"><ele>41.0</ele><time>2026-04-18T08:34:39.101Z</time></trkpt><trkpt lat="41.15322" lon="14.3980817"><ele>41.0</ele><time>2026-04-18T08:34:40.101Z</time></trkpt><trkpt lat="41.1531133" lon="14.3981867"><ele>41.0</ele><time>2026-04-18T08:34:41.101Z</time></trkpt><trkpt lat="41.1530017" lon="14.398275"><ele>41.0</ele><time>2026-04-18T08:34:42.101Z</time></trkpt><trkpt lat="41.1528833" lon="14.3983667"><ele>41.0</ele><time>2026-04-18T08:34:43.101Z</time></trkpt><trkpt lat="41.15275" lon="14.3984533"><ele>41.0</ele><time>2026-04-18T08:34:44.101Z</time></trkpt><trkpt lat="41.1526167" lon="14.398545"><ele>41.0</ele><time>2026-04-18T08:34:45.101Z</time></trkpt><trkpt lat="41.1524717" lon="14.39864"><ele>40.666666666666664</ele><time>2026-04-18T08:34:46.101Z</time></trkpt><trkpt lat="41.152325" lon="14.3987367"><ele>40.333333333333336</ele><time>2026-04-18T08:34:47.101Z</time></trkpt><trkpt lat="41.15218" lon="14.398825"><ele>40.0</ele><time>2026-04-18T08:34:48.101Z</time></trkpt><trkpt lat="41.1520283" lon="14.39892"><ele>40.0</ele><time>2026-04-18T08:34:49.101Z</time></trkpt><trkpt lat="41.1518717" lon="14.3990217"><ele>40.0</ele><time>2026-04-18T08:34:50.101Z</time></trkpt><trkpt lat="41.15171" lon="14.3991283"><ele>40.0</ele><time>2026-04-18T08:34:51.101Z</time></trkpt><trkpt lat="41.1515533" lon="14.3992283"><ele>39.0</ele><time>2026-04-18T08:34:52.101Z</time></trkpt><trkpt lat="41.1514" lon="14.3993267"><ele>38.0</ele><time>2026-04-18T08:34:53.102Z</time></trkpt><trkpt lat="41.1512467" lon="14.399425"><ele>37.0</ele><time>2026-04-18T08:34:54.101Z</time></trkpt><trkpt lat="41.1510917" lon="14.3995217"><ele>37.0</ele><time>2026-04-18T08:34:55.101Z</time></trkpt><trkpt lat="41.1509483" lon="14.3996083"><ele>37.0</ele><time>2026-04-18T08:34:56.102Z</time></trkpt><trkpt lat="41.1508217" lon="14.3997"><ele>37.0</ele><time>2026-04-18T08:34:57.101Z</time></trkpt><trkpt lat="41.1506883" lon="14.3998"><ele>38.0</ele><time>2026-04-18T08:34:58.101Z</time></trkpt><trkpt lat="41.1505617" lon="14.3999283"><ele>39.0</ele><time>2026-04-18T08:34:59.101Z</time></trkpt><trkpt lat="41.1504467" lon="14.4000667"><ele>40.0</ele><time>2026-04-18T08:35:00.102Z</time></trkpt><trkpt lat="41.150325" lon="14.40022"><ele>40.0</ele><time>2026-04-18T08:35:01.101Z</time></trkpt><trkpt lat="41.1502033" lon="14.400375"><ele>40.0</ele><time>2026-04-18T08:35:02.101Z</time></trkpt><trkpt lat="41.15008" lon="14.40053"><ele>40.0</ele><time>2026-04-18T08:35:03.101Z</time></trkpt><trkpt lat="41.1499633" lon="14.40067"><ele>39.5</ele><time>2026-04-18T08:35:04.101Z</time></trkpt><trkpt lat="41.1498517" lon="14.4008"><ele>39.0</ele><time>2026-04-18T08:35:05.101Z</time></trkpt><trkpt lat="41.1497517" lon="14.4009283"><ele>38.5</ele><time>2026-04-18T08:35:06.101Z</time></trkpt><trkpt lat="41.14966" lon="14.401055"><ele>38.0</ele><time>2026-04-18T08:35:07.101Z</time></trkpt><trkpt lat="41.1495783" lon="14.401185"><ele>38.0</ele><time>2026-04-18T08:35:08.101Z</time></trkpt><trkpt lat="41.1494967" lon="14.4013317"><ele>38.0</ele><time>2026-04-18T08:35:09.101Z</time></trkpt><trkpt lat="41.1494183" lon="14.401485"><ele>38.0</ele><time>2026-04-18T08:35:10.101Z</time></trkpt><trkpt lat="41.1493417" lon="14.4016483"><ele>38.0</ele><time>2026-04-18T08:35:11.102Z</time></trkpt><trkpt lat="41.149265" lon="14.4018017"><ele>37.25</ele><time>2026-04-18T08:35:12.101Z</time></trkpt><trkpt lat="41.1491883" lon="14.4019567"><ele>36.5</ele><time>2026-04-18T08:35:13.101Z</time></trkpt><trkpt lat="41.1490967" lon="14.4021117"><ele>35.75</ele><time>2026-04-18T08:35:14.101Z</time></trkpt><trkpt lat="41.149025" lon="14.4022583"><ele>35.0</ele><time>2026-04-18T08:35:15.101Z</time></trkpt><trkpt lat="41.14895" lon="14.40241"><ele>35.0</ele><time>2026-04-18T08:35:16.101Z</time></trkpt><trkpt lat="41.148875" lon="14.40255"><ele>35.0</ele><time>2026-04-18T08:35:17.101Z</time></trkpt><trkpt lat="41.1488067" lon="14.4026867"><ele>35.0</ele><time>2026-04-18T08:35:18.101Z</time></trkpt><trkpt lat="41.1487367" lon="14.4028183"><ele>35.0</ele><time>2026-04-18T08:35:19.101Z</time></trkpt><trkpt lat="41.1486717" lon="14.402945"><ele>36.2</ele><time>2026-04-18T08:35:20.101Z</time></trkpt><trkpt lat="41.14861" lon="14.4030617"><ele>37.4</ele><time>2026-04-18T08:35:21.101Z</time></trkpt><trkpt lat="41.14855" lon="14.4031767"><ele>38.599999999999994</ele><time>2026-04-18T08:35:22.101Z</time></trkpt><trkpt lat="41.1484883" lon="14.4032883"><ele>39.8</ele><time>2026-04-18T08:35:23.102Z</time></trkpt><trkpt lat="41.1484317" lon="14.40339"><ele>41.0</ele><time>2026-04-18T08:35:24.101Z</time></trkpt><trkpt lat="41.1483733" lon="14.4034817"><ele>41.0</ele><time>2026-04-18T08:35:25.101Z</time></trkpt><trkpt lat="41.148325" lon="14.403575"><ele>41.0</ele><time>2026-04-18T08:35:26.101Z</time></trkpt><trkpt lat="41.1482717" lon="14.40365"><ele>41.0</ele><time>2026-04-18T08:35:27.101Z</time></trkpt><trkpt lat="41.1481783" lon="14.4037033"><ele>41.0</ele><time>2026-04-18T08:35:29.101Z</time></trkpt><trkpt lat="41.14812" lon="14.4036433"><ele>41.0</ele><time>2026-04-18T08:35:31.101Z</time></trkpt><trkpt lat="41.1480783" lon="14.4034983"><ele>39.8</ele><time>2026-04-18T08:35:33.101Z</time></trkpt><trkpt lat="41.1480417" lon="14.4034"><ele>38.599999999999994</ele><time>2026-04-18T08:35:34.101Z</time></trkpt><trkpt lat="41.1479917" lon="14.4032833"><ele>37.4</ele><time>2026-04-18T08:35:35.101Z</time></trkpt><trkpt lat="41.1479333" lon="14.4031433"><ele>36.2</ele><time>2026-04-18T08:35:36.101Z</time></trkpt><trkpt lat="41.1478733" lon="14.4030017"><ele>35.0</ele><time>2026-04-18T08:35:37.101Z</time></trkpt><trkpt lat="41.1478117" lon="14.402865"><ele>34.25</ele><time>2026-04-18T08:35:38.101Z</time></trkpt><trkpt lat="41.1477517" lon="14.4027183"><ele>33.5</ele><time>2026-04-18T08:35:39.101Z</time></trkpt><trkpt lat="41.1476933" lon="14.4025767"><ele>32.75</ele><time>2026-04-18T08:35:40.101Z</time></trkpt><trkpt lat="41.14763" lon="14.4024317"><ele>32.0</ele><time>2026-04-18T08:35:41.101Z</time></trkpt><trkpt lat="41.1475717" lon="14.4022917"><ele>32.25</ele><time>2026-04-18T08:35:42.101Z</time></trkpt><trkpt lat="41.14751" lon="14.4021583"><ele>32.5</ele><time>2026-04-18T08:35:43.101Z</time></trkpt><trkpt lat="41.1474517" lon="14.4020217"><ele>32.75</ele><time>2026-04-18T08:35:44.101Z</time></trkpt><trkpt lat="41.1473983" lon="14.4018867"><ele>33.0</ele><time>2026-04-18T08:35:45.101Z</time></trkpt><trkpt lat="41.14734" lon="14.4017567"><ele>33.0</ele><time>2026-04-18T08:35:46.101Z</time></trkpt><trkpt lat="41.14728" lon="14.40163"><ele>33.0</ele><time>2026-04-18T08:35:47.101Z</time></trkpt><trkpt lat="41.1472233" lon="14.4015017"><ele>33.0</ele><time>2026-04-18T08:35:48.101Z</time></trkpt><trkpt lat="41.14717" lon="14.40137"><ele>33.0</ele><time>2026-04-18T08:35:49.101Z</time></trkpt><trkpt lat="41.1471167" lon="14.4012267"><ele>33.75</ele><time>2026-04-18T08:35:50.101Z</time></trkpt><trkpt lat="41.1470617" lon="14.401085"><ele>34.5</ele><time>2026-04-18T08:35:51.102Z</time></trkpt><trkpt lat="41.147" lon="14.400935"><ele>35.25</ele><time>2026-04-18T08:35:52.101Z</time></trkpt><trkpt lat="41.14694" lon="14.4007883"><ele>36.0</ele><time>2026-04-18T08:35:53.101Z</time></trkpt><trkpt lat="41.1468817" lon="14.4006483"><ele>35.75</ele><time>2026-04-18T08:35:54.101Z</time></trkpt><trkpt lat="41.146825" lon="14.400495"><ele>35.5</ele><time>2026-04-18T08:35:55.101Z</time></trkpt><trkpt lat="41.1467667" lon="14.400345"><ele>35.25</ele><time>2026-04-18T08:35:56.101Z</time></trkpt><trkpt lat="41.1467083" lon="14.4002083"><ele>35.0</ele><time>2026-04-18T08:35:57.101Z</time></trkpt><trkpt lat="41.1466517" lon="14.40007"><ele>35.0</ele><time>2026-04-18T08:35:58.101Z</time></trkpt><trkpt lat="41.146595" lon="14.39995"><ele>35.0</ele><time>2026-04-18T08:35:59.101Z</time></trkpt><trkpt lat="41.146535" lon="14.3998283"><ele>35.0</ele><time>2026-04-18T08:36:00.101Z</time></trkpt><trkpt lat="41.1464667" lon="14.3997"><ele>35.0</ele><time>2026-04-18T08:36:01.101Z</time></trkpt><trkpt lat="41.1463983" lon="14.399575"><ele>35.25</ele><time>2026-04-18T08:36:02.101Z</time></trkpt><trkpt lat="41.14634" lon="14.3994533"><ele>35.5</ele><time>2026-04-18T08:36:03.101Z</time></trkpt><trkpt lat="41.1462667" lon="14.399335"><ele>35.75</ele><time>2026-04-18T08:36:04.101Z</time></trkpt><trkpt lat="41.1461833" lon="14.3992183"><ele>36.0</ele><time>2026-04-18T08:36:05.101Z</time></trkpt><trkpt lat="41.1460883" lon="14.3991017"><ele>36.0</ele><time>2026-04-18T08:36:06.102Z</time></trkpt><trkpt lat="41.145975" lon="14.3989983"><ele>36.0</ele><time>2026-04-18T08:36:07.101Z</time></trkpt><trkpt lat="41.14586" lon="14.3989033"><ele>36.0</ele><time>2026-04-18T08:36:08.101Z</time></trkpt><trkpt lat="41.1457383" lon="14.3988083"><ele>36.0</ele><time>2026-04-18T08:36:09.102Z</time></trkpt><trkpt lat="41.14561" lon="14.3987167"><ele>36.0</ele><time>2026-04-18T08:36:10.101Z</time></trkpt><trkpt lat="41.1454717" lon="14.39862"><ele>36.0</ele><time>2026-04-18T08:36:11.101Z</time></trkpt><trkpt lat="41.1453283" lon="14.3985167"><ele>36.0</ele><time>2026-04-18T08:36:12.101Z</time></trkpt><trkpt lat="41.145175" lon="14.3984217"><ele>36.0</ele><time>2026-04-18T08:36:13.101Z</time></trkpt><trkpt lat="41.1450217" lon="14.39832"><ele>36.0</ele><time>2026-04-18T08:36:14.101Z</time></trkpt><trkpt lat="41.1448667" lon="14.3982183"><ele>36.0</ele><time>2026-04-18T08:36:15.101Z</time></trkpt><trkpt lat="41.1447217" lon="14.3981183"><ele>36.333333333333336</ele><time>2026-04-18T08:36:16.101Z</time></trkpt><trkpt lat="41.144585" lon="14.398025"><ele>36.66666666666667</ele><time>2026-04-18T08:36:17.101Z</time></trkpt><trkpt lat="41.14445" lon="14.39793"><ele>37.0</ele><time>2026-04-18T08:36:18.102Z</time></trkpt><trkpt lat="41.1443117" lon="14.39784"><ele>37.5</ele><time>2026-04-18T08:36:19.101Z</time></trkpt><trkpt lat="41.14419" lon="14.3977483"><ele>38.0</ele><time>2026-04-18T08:36:20.101Z</time></trkpt><trkpt lat="41.1440633" lon="14.39766"><ele>38.5</ele><time>2026-04-18T08:36:21.101Z</time></trkpt><trkpt lat="41.143945" lon="14.397575"><ele>39.0</ele><time>2026-04-18T08:36:22.101Z</time></trkpt><trkpt lat="41.143835" lon="14.3975017"><ele>39.0</ele><time>2026-04-18T08:36:23.101Z</time></trkpt><trkpt lat="41.14373" lon="14.3974317"><ele>39.0</ele><time>2026-04-18T08:36:24.101Z</time></trkpt><trkpt lat="41.143635" lon="14.397365"><ele>39.0</ele><time>2026-04-18T08:36:25.101Z</time></trkpt><trkpt lat="41.1435467" lon="14.3973017"><ele>39.0</ele><time>2026-04-18T08:36:26.101Z</time></trkpt><trkpt lat="41.1434533" lon="14.3972367"><ele>39.0</ele><time>2026-04-18T08:36:27.101Z</time></trkpt><trkpt lat="41.143355" lon="14.3971667"><ele>38.75</ele><time>2026-04-18T08:36:28.101Z</time></trkpt><trkpt lat="41.1432567" lon="14.3971"><ele>38.5</ele><time>2026-04-18T08:36:29.101Z</time></trkpt><trkpt lat="41.14315" lon="14.397035"><ele>38.25</ele><time>2026-04-18T08:36:30.101Z</time></trkpt><trkpt lat="41.1430417" lon="14.3969683"><ele>38.0</ele><time>2026-04-18T08:36:31.101Z</time></trkpt><trkpt lat="41.142935" lon="14.3969017"><ele>37.75</ele><time>2026-04-18T08:36:32.102Z</time></trkpt><trkpt lat="41.1428283" lon="14.396835"><ele>37.5</ele><time>2026-04-18T08:36:33.101Z</time></trkpt><trkpt lat="41.1427183" lon="14.3967717"><ele>37.25</ele><time>2026-04-18T08:36:34.101Z</time></trkpt><trkpt lat="41.1426233" lon="14.396705"><ele>37.0</ele><time>2026-04-18T08:36:35.101Z</time></trkpt><trkpt lat="41.142525" lon="14.3966383"><ele>37.0</ele><time>2026-04-18T08:36:36.101Z</time></trkpt><trkpt lat="41.1424333" lon="14.3965683"><ele>37.0</ele><time>2026-04-18T08:36:37.101Z</time></trkpt><trkpt lat="41.142335" lon="14.3964983"><ele>37.0</ele><time>2026-04-18T08:36:38.101Z</time></trkpt><trkpt lat="41.1422233" lon="14.39642"><ele>37.0</ele><time>2026-04-18T08:36:39.101Z</time></trkpt><trkpt lat="41.1421" lon="14.3963433"><ele>37.5</ele><time>2026-04-18T08:36:40.101Z</time></trkpt><trkpt lat="41.1419767" lon="14.396275"><ele>38.0</ele><time>2026-04-18T08:36:41.101Z</time></trkpt><trkpt lat="41.141865" lon="14.3962133"><ele>38.5</ele><time>2026-04-18T08:36:42.101Z</time></trkpt><trkpt lat="41.1417567" lon="14.396165"><ele>39.0</ele><time>2026-04-18T08:36:43.101Z</time></trkpt><trkpt lat="41.1416533" lon="14.3961317"><ele>39.0</ele><time>2026-04-18T08:36:44.101Z</time></trkpt><trkpt lat="41.1415617" lon="14.3960983"><ele>39.0</ele><time>2026-04-18T08:36:45.101Z</time></trkpt><trkpt lat="41.1414783" lon="14.3960717"><ele>39.0</ele><time>2026-04-18T08:36:46.101Z</time></trkpt><trkpt lat="41.1414033" lon="14.396045"><ele>39.0</ele><time>2026-04-18T08:36:47.101Z</time></trkpt><trkpt lat="41.1412983" lon="14.3960167"><ele>39.0</ele><time>2026-04-18T08:36:49.101Z</time></trkpt><trkpt lat="41.141225" lon="14.3960417"><ele>39.0</ele><time>2026-04-18T08:37:07.101Z</time></trkpt><trkpt lat="41.1411867" lon="14.396165"><ele>39.6</ele><time>2026-04-18T08:37:09.101Z</time></trkpt><trkpt lat="41.1411733" lon="14.396285"><ele>40.2</ele><time>2026-04-18T08:37:10.102Z</time></trkpt><trkpt lat="41.1411567" lon="14.3964283"><ele>40.800000000000004</ele><time>2026-04-18T08:37:11.101Z</time></trkpt><trkpt lat="41.1411317" lon="14.3965883"><ele>41.4</ele><time>2026-04-18T08:37:12.101Z</time></trkpt><trkpt lat="41.1411033" lon="14.396735"><ele>42.0</ele><time>2026-04-18T08:37:13.101Z</time></trkpt><trkpt lat="41.14107" lon="14.3968733"><ele>42.0</ele><time>2026-04-18T08:37:14.101Z</time></trkpt><trkpt lat="41.141035" lon="14.3970017"><ele>42.0</ele><time>2026-04-18T08:37:15.101Z</time></trkpt><trkpt lat="41.1409883" lon="14.3971283"><ele>42.0</ele><time>2026-04-18T08:37:16.101Z</time></trkpt><trkpt lat="41.1409317" lon="14.397255"><ele>42.0</ele><time>2026-04-18T08:37:17.101Z</time></trkpt><trkpt lat="41.140855" lon="14.397365"><ele>42.0</ele><time>2026-04-18T08:37:18.101Z</time></trkpt><trkpt lat="41.140775" lon="14.3974567"><ele>42.0</ele><time>2026-04-18T08:37:19.101Z</time></trkpt><trkpt lat="41.14067" lon="14.3975467"><ele>42.0</ele><time>2026-04-18T08:37:20.101Z</time></trkpt><trkpt lat="41.140565" lon="14.397595"><ele>42.0</ele><time>2026-04-18T08:37:21.101Z</time></trkpt><trkpt lat="41.1404383" lon="14.3976383"><ele>42.0</ele><time>2026-04-18T08:37:22.101Z</time></trkpt><trkpt lat="41.14031" lon="14.3976883"><ele>42.0</ele><time>2026-04-18T08:37:23.101Z</time></trkpt><trkpt lat="41.1401767" lon="14.397745"><ele>42.0</ele><time>2026-04-18T08:37:24.101Z</time></trkpt><trkpt lat="41.1400533" lon="14.3977983"><ele>42.0</ele><time>2026-04-18T08:37:25.101Z</time></trkpt><trkpt lat="41.1399467" lon="14.3978667"><ele>42.0</ele><time>2026-04-18T08:37:26.101Z</time></trkpt><trkpt lat="41.13986" lon="14.3979317"><ele>41.8</ele><time>2026-04-18T08:37:27.101Z</time></trkpt><trkpt lat="41.1397667" lon="14.398"><ele>41.6</ele><time>2026-04-18T08:37:29.101Z</time></trkpt><trkpt lat="41.13966" lon="14.39809"><ele>41.4</ele><time>2026-04-18T08:37:31.101Z</time></trkpt><trkpt lat="41.1395833" lon="14.3981567"><ele>41.199999999999996</ele><time>2026-04-18T08:37:32.101Z</time></trkpt><trkpt lat="41.1394933" lon="14.3982217"><ele>41.0</ele><time>2026-04-18T08:37:33.101Z</time></trkpt><trkpt lat="41.1394033" lon="14.39829"><ele>41.0</ele><time>2026-04-18T08:37:34.101Z</time></trkpt><trkpt lat="41.139315" lon="14.3983567"><ele>41.0</ele><time>2026-04-18T08:37:35.102Z</time></trkpt><trkpt lat="41.139235" lon="14.398435"><ele>41.0</ele><time>2026-04-18T08:37:36.101Z</time></trkpt><trkpt lat="41.139155" lon="14.3985167"><ele>41.0</ele><time>2026-04-18T08:37:37.101Z</time></trkpt><trkpt lat="41.1390767" lon="14.3986033"><ele>41.0</ele><time>2026-04-18T08:37:38.101Z</time></trkpt><trkpt lat="41.1390233" lon="14.3987"><ele>42.599999999999994</ele><time>2026-04-18T08:37:39.101Z</time></trkpt><trkpt lat="41.138965" lon="14.3988067"><ele>44.2</ele><time>2026-04-18T08:37:40.101Z</time></trkpt><trkpt lat="41.1388983" lon="14.398915"><ele>45.8</ele><time>2026-04-18T08:37:41.101Z</time></trkpt><trkpt lat="41.1388417" lon="14.399035"><ele>47.400000000000006</ele><time>2026-04-18T08:37:42.101Z</time></trkpt><trkpt lat="41.1387867" lon="14.3991567"><ele>49.0</ele><time>2026-04-18T08:37:43.101Z</time></trkpt><trkpt lat="41.13873" lon="14.39929"><ele>49.0</ele><time>2026-04-18T08:37:44.102Z</time></trkpt><trkpt lat="41.1386683" lon="14.399425"><ele>49.0</ele><time>2026-04-18T08:37:45.101Z</time></trkpt><trkpt lat="41.1386083" lon="14.3995517"><ele>49.0</ele><time>2026-04-18T08:37:46.102Z</time></trkpt><trkpt lat="41.13854" lon="14.3996833"><ele>49.0</ele><time>2026-04-18T08:37:47.101Z</time></trkpt><trkpt lat="41.1384567" lon="14.3998017"><ele>46.5</ele><time>2026-04-18T08:37:48.102Z</time></trkpt><trkpt lat="41.138355" lon="14.39991"><ele>44.0</ele><time>2026-04-18T08:37:49.101Z</time></trkpt><trkpt lat="41.1382483" lon="14.4000267"><ele>41.5</ele><time>2026-04-18T08:37:50.101Z</time></trkpt><trkpt lat="41.13814" lon="14.4001417"><ele>39.0</ele><time>2026-04-18T08:37:51.101Z</time></trkpt><trkpt lat="41.1380433" lon="14.400245"><ele>39.6</ele><time>2026-04-18T08:37:52.101Z</time></trkpt><trkpt lat="41.1379533" lon="14.4003383"><ele>40.2</ele><time>2026-04-18T08:37:53.101Z</time></trkpt><trkpt lat="41.1378733" lon="14.4004367"><ele>40.800000000000004</ele><time>2026-04-18T08:37:54.101Z</time></trkpt><trkpt lat="41.1377883" lon="14.4005233"><ele>41.4</ele><time>2026-04-18T08:37:55.101Z</time></trkpt><trkpt lat="41.1377083" lon="14.4006217"><ele>42.0</ele><time>2026-04-18T08:37:56.102Z</time></trkpt><trkpt lat="41.1376217" lon="14.4007133"><ele>42.0</ele><time>2026-04-18T08:37:57.101Z</time></trkpt><trkpt lat="41.137535" lon="14.40081"><ele>42.0</ele><time>2026-04-18T08:37:58.101Z</time></trkpt><trkpt lat="41.1374467" lon="14.400905"><ele>42.0</ele><time>2026-04-18T08:37:59.101Z</time></trkpt><trkpt lat="41.1373583" lon="14.40099"><ele>42.0</ele><time>2026-04-18T08:38:00.101Z</time></trkpt><trkpt lat="41.1372783" lon="14.401065"><ele>42.0</ele><time>2026-04-18T08:38:01.101Z</time></trkpt><trkpt lat="41.1371917" lon="14.401145"><ele>42.6</ele><time>2026-04-18T08:38:02.101Z</time></trkpt><trkpt lat="41.1371117" lon="14.4012317"><ele>43.2</ele><time>2026-04-18T08:38:03.101Z</time></trkpt><trkpt lat="41.1370383" lon="14.4013167"><ele>43.8</ele><time>2026-04-18T08:38:04.102Z</time></trkpt><trkpt lat="41.136975" lon="14.4014017"><ele>44.4</ele><time>2026-04-18T08:38:05.101Z</time></trkpt><trkpt lat="41.136915" lon="14.4015"><ele>45.0</ele><time>2026-04-18T08:38:06.101Z</time></trkpt><trkpt lat="41.1368733" lon="14.4016083"><ele>45.0</ele><time>2026-04-18T08:38:07.101Z</time></trkpt><trkpt lat="41.136835" lon="14.401725"><ele>45.0</ele><time>2026-04-18T08:38:08.101Z</time></trkpt><trkpt lat="41.1367983" lon="14.401845"><ele>45.0</ele><time>2026-04-18T08:38:09.101Z</time></trkpt><trkpt lat="41.1367667" lon="14.4019667"><ele>45.0</ele><time>2026-04-18T08:38:10.101Z</time></trkpt><trkpt lat="41.1367333" lon="14.4020933"><ele>45.0</ele><time>2026-04-18T08:38:11.101Z</time></trkpt><trkpt lat="41.1366967" lon="14.4022217"><ele>45.0</ele><time>2026-04-18T08:38:12.101Z</time></trkpt><trkpt lat="41.1366617" lon="14.40233"><ele>45.0</ele><time>2026-04-18T08:38:13.101Z</time></trkpt><trkpt lat="41.1366367" lon="14.402425"><ele>45.0</ele><time>2026-04-18T08:38:14.101Z</time></trkpt><trkpt lat="41.136605" lon="14.402515"><ele>45.0</ele><time>2026-04-18T08:38:15.101Z</time></trkpt><trkpt lat="41.1365733" lon="14.402595"><ele>45.0</ele><time>2026-04-18T08:38:16.101Z</time></trkpt><trkpt lat="41.1365433" lon="14.4026733"><ele>45.0</ele><time>2026-04-18T08:38:17.101Z</time></trkpt><trkpt lat="41.13651" lon="14.4027517"><ele>45.0</ele><time>2026-04-18T08:38:18.101Z</time></trkpt><trkpt lat="41.1364717" lon="14.4028333"><ele>45.0</ele><time>2026-04-18T08:38:19.101Z</time></trkpt><trkpt lat="41.13642" lon="14.4029317"><ele>45.0</ele><time>2026-04-18T08:38:20.101Z</time></trkpt><trkpt lat="41.1363783" lon="14.4030267"><ele>45.0</ele><time>2026-04-18T08:38:21.101Z</time></trkpt><trkpt lat="41.1363317" lon="14.40312"><ele>45.0</ele><time>2026-04-18T08:38:22.101Z</time></trkpt><trkpt lat="41.1362867" lon="14.403205"><ele>45.0</ele><time>2026-04-18T08:38:23.101Z</time></trkpt><trkpt lat="41.1362483" lon="14.4032833"><ele>45.0</ele><time>2026-04-18T08:38:24.101Z</time></trkpt><trkpt lat="41.136205" lon="14.40335"><ele>44.4</ele><time>2026-04-18T08:38:25.101Z</time></trkpt><trkpt lat="41.1361267" lon="14.4034717"><ele>43.8</ele><time>2026-04-18T08:38:27.101Z</time></trkpt><trkpt lat="41.1360633" lon="14.4035517"><ele>43.2</ele><time>2026-04-18T08:38:29.101Z</time></trkpt><trkpt lat="41.13601" lon="14.4035983"><ele>42.6</ele><time>2026-04-18T08:38:31.101Z</time></trkpt><trkpt lat="41.1359517" lon="14.4036733"><ele>42.0</ele><time>2026-04-18T08:38:33.101Z</time></trkpt><trkpt lat="41.1358583" lon="14.40379"><ele>41.8</ele><time>2026-04-18T08:38:35.101Z</time></trkpt><trkpt lat="41.1357933" lon="14.4038583"><ele>41.6</ele><time>2026-04-18T08:38:36.101Z</time></trkpt><trkpt lat="41.1357233" lon="14.4039433"><ele>41.4</ele><time>2026-04-18T08:38:37.101Z</time></trkpt><trkpt lat="41.1356583" lon="14.404025"><ele>41.199999999999996</ele><time>2026-04-18T08:38:38.101Z</time></trkpt><trkpt lat="41.1355933" lon="14.404105"><ele>41.0</ele><time>2026-04-18T08:38:39.101Z</time></trkpt><trkpt lat="41.135525" lon="14.4041917"><ele>41.0</ele><time>2026-04-18T08:38:40.101Z</time></trkpt><trkpt lat="41.135455" lon="14.40428"><ele>41.0</ele><time>2026-04-18T08:38:41.101Z</time></trkpt><trkpt lat="41.1354083" lon="14.4043733"><ele>41.0</ele><time>2026-04-18T08:38:42.101Z</time></trkpt><trkpt lat="41.13538" lon="14.4044767"><ele>41.0</ele><time>2026-04-18T08:38:43.101Z</time></trkpt><trkpt lat="41.1353533" lon="14.4045933"><ele>41.0</ele><time>2026-04-18T08:38:44.101Z</time></trkpt><trkpt lat="41.135335" lon="14.4047133"><ele>41.0</ele><time>2026-04-18T08:38:45.101Z</time></trkpt><trkpt lat="41.1353033" lon="14.4048433"><ele>40.75</ele><time>2026-04-18T08:38:46.101Z</time></trkpt><trkpt lat="41.13526" lon="14.4049833"><ele>40.5</ele><time>2026-04-18T08:38:47.101Z</time></trkpt><trkpt lat="41.1352133" lon="14.405125"><ele>40.25</ele><time>2026-04-18T08:38:48.101Z</time></trkpt><trkpt lat="41.135155" lon="14.4052767"><ele>40.0</ele><time>2026-04-18T08:38:49.101Z</time></trkpt><trkpt lat="41.13508" lon="14.4054267"><ele>39.5</ele><time>2026-04-18T08:38:50.101Z</time></trkpt><trkpt lat="41.1350017" lon="14.4055833"><ele>39.0</ele><time>2026-04-18T08:38:51.101Z</time></trkpt><trkpt lat="41.1349233" lon="14.4057367"><ele>38.5</ele><time>2026-04-18T08:38:52.102Z</time></trkpt><trkpt lat="41.1348433" lon="14.4058817"><ele>38.0</ele><time>2026-04-18T08:38:53.101Z</time></trkpt><trkpt lat="41.134765" lon="14.4060367"><ele>38.0</ele><time>2026-04-18T08:38:54.101Z</time></trkpt><trkpt lat="41.13469" lon="14.4061917"><ele>38.0</ele><time>2026-04-18T08:38:55.101Z</time></trkpt><trkpt lat="41.1346067" lon="14.40633"><ele>38.0</ele><time>2026-04-18T08:38:56.102Z</time></trkpt><trkpt lat="41.1345133" lon="14.4064533"><ele>38.0</ele><time>2026-04-18T08:38:57.101Z</time></trkpt><trkpt lat="41.1344233" lon="14.4065483"><ele>38.0</ele><time>2026-04-18T08:38:58.101Z</time></trkpt><trkpt lat="41.1343183" lon="14.4066283"><ele>38.0</ele><time>2026-04-18T08:38:59.101Z</time></trkpt><trkpt lat="41.13419" lon="14.4066933"><ele>38.0</ele><time>2026-04-18T08:39:00.101Z</time></trkpt><trkpt lat="41.13405" lon="14.4067617"><ele>38.0</ele><time>2026-04-18T08:39:01.101Z</time></trkpt><trkpt lat="41.1339067" lon="14.40684"><ele>37.666666666666664</ele><time>2026-04-18T08:39:02.101Z</time></trkpt><trkpt lat="41.1337617" lon="14.406925"><ele>37.333333333333336</ele><time>2026-04-18T08:39:03.102Z</time></trkpt><trkpt lat="41.1336117" lon="14.40701"><ele>37.0</ele><time>2026-04-18T08:39:04.101Z</time></trkpt><trkpt lat="41.1334667" lon="14.4070983"><ele>37.333333333333336</ele><time>2026-04-18T08:39:05.101Z</time></trkpt><trkpt lat="41.1333267" lon="14.407185"><ele>37.666666666666664</ele><time>2026-04-18T08:39:06.101Z</time></trkpt><trkpt lat="41.133185" lon="14.4072783"><ele>38.0</ele><time>2026-04-18T08:39:07.101Z</time></trkpt><trkpt lat="41.1330567" lon="14.407365"><ele>38.199999999999996</ele><time>2026-04-18T08:39:08.102Z</time></trkpt><trkpt lat="41.1329417" lon="14.4074483"><ele>38.4</ele><time>2026-04-18T08:39:09.101Z</time></trkpt><trkpt lat="41.132845" lon="14.4075233"><ele>38.599999999999994</ele><time>2026-04-18T08:39:10.101Z</time></trkpt><trkpt lat="41.1327583" lon="14.407595"><ele>38.8</ele><time>2026-04-18T08:39:11.101Z</time></trkpt><trkpt lat="41.13267" lon="14.4076683"><ele>39.0</ele><time>2026-04-18T08:39:12.101Z</time></trkpt><trkpt lat="41.1325817" lon="14.40775"><ele>39.0</ele><time>2026-04-18T08:39:13.101Z</time></trkpt><trkpt lat="41.1324983" lon="14.4078483"><ele>39.0</ele><time>2026-04-18T08:39:14.101Z</time></trkpt><trkpt lat="41.1324067" lon="14.40795"><ele>39.0</ele><time>2026-04-18T08:39:15.101Z</time></trkpt><trkpt lat="41.1323183" lon="14.4080617"><ele>39.0</ele><time>2026-04-18T08:39:16.102Z</time></trkpt><trkpt lat="41.132235" lon="14.4081817"><ele>39.0</ele><time>2026-04-18T08:39:17.101Z</time></trkpt><trkpt lat="41.13215" lon="14.408315"><ele>39.0</ele><time>2026-04-18T08:39:18.101Z</time></trkpt><trkpt lat="41.13206" lon="14.4084583"><ele>39.0</ele><time>2026-04-18T08:39:19.101Z</time></trkpt><trkpt lat="41.13197" lon="14.4086017"><ele>39.0</ele><time>2026-04-18T08:39:20.101Z</time></trkpt><trkpt lat="41.1318833" lon="14.408765"><ele>38.333333333333336</ele><time>2026-04-18T08:39:21.101Z</time></trkpt><trkpt lat="41.1318067" lon="14.408945"><ele>37.66666666666667</ele><time>2026-04-18T08:39:22.101Z</time></trkpt><trkpt lat="41.1317367" lon="14.4091283"><ele>37.0</ele><time>2026-04-18T08:39:23.102Z</time></trkpt><trkpt lat="41.13166" lon="14.4093117"><ele>37.0</ele><time>2026-04-18T08:39:24.102Z</time></trkpt><trkpt lat="41.1316083" lon="14.4094933"><ele>37.0</ele><time>2026-04-18T08:39:25.101Z</time></trkpt><trkpt lat="41.1315483" lon="14.409685"><ele>37.0</ele><time>2026-04-18T08:39:26.102Z</time></trkpt><trkpt lat="41.131485" lon="14.409885"><ele>37.333333333333336</ele><time>2026-04-18T08:39:27.101Z</time></trkpt><trkpt lat="41.13141" lon="14.4100783"><ele>37.666666666666664</ele><time>2026-04-18T08:39:28.101Z</time></trkpt><trkpt lat="41.1313267" lon="14.41028"><ele>38.0</ele><time>2026-04-18T08:39:29.101Z</time></trkpt><trkpt lat="41.13124" lon="14.4104783"><ele>38.0</ele><time>2026-04-18T08:39:30.101Z</time></trkpt><trkpt lat="41.131155" lon="14.41066"><ele>38.0</ele><time>2026-04-18T08:39:31.101Z</time></trkpt><trkpt lat="41.1310733" lon="14.410845"><ele>38.0</ele><time>2026-04-18T08:39:32.102Z</time></trkpt><trkpt lat="41.1309817" lon="14.4110383"><ele>38.0</ele><time>2026-04-18T08:39:33.101Z</time></trkpt><trkpt lat="41.1308867" lon="14.411235"><ele>38.0</ele><time>2026-04-18T08:39:34.101Z</time></trkpt><trkpt lat="41.13079" lon="14.4114317"><ele>38.0</ele><time>2026-04-18T08:39:35.101Z</time></trkpt><trkpt lat="41.1306917" lon="14.4116283"><ele>38.33333333333333</ele><time>2026-04-18T08:39:36.101Z</time></trkpt><trkpt lat="41.1306" lon="14.4118233"><ele>38.666666666666664</ele><time>2026-04-18T08:39:37.101Z</time></trkpt><trkpt lat="41.1305" lon="14.4120033"><ele>39.0</ele><time>2026-04-18T08:39:38.101Z</time></trkpt><trkpt lat="41.1304067" lon="14.41217"><ele>39.0</ele><time>2026-04-18T08:39:39.101Z</time></trkpt><trkpt lat="41.1303117" lon="14.4123283"><ele>39.0</ele><time>2026-04-18T08:39:40.101Z</time></trkpt><trkpt lat="41.1302033" lon="14.4124633"><ele>39.0</ele><time>2026-04-18T08:39:41.101Z</time></trkpt><trkpt lat="41.1300883" lon="14.4125967"><ele>39.0</ele><time>2026-04-18T08:39:42.101Z</time></trkpt><trkpt lat="41.1299683" lon="14.4127267"><ele>39.0</ele><time>2026-04-18T08:39:43.101Z</time></trkpt><trkpt lat="41.1298433" lon="14.4128483"><ele>39.0</ele><time>2026-04-18T08:39:44.102Z</time></trkpt><trkpt lat="41.1297033" lon="14.4129683"><ele>39.0</ele><time>2026-04-18T08:39:45.101Z</time></trkpt><trkpt lat="41.1295717" lon="14.41307"><ele>39.0</ele><time>2026-04-18T08:39:46.101Z</time></trkpt><trkpt lat="41.12945" lon="14.4131667"><ele>39.0</ele><time>2026-04-18T08:39:47.101Z</time></trkpt><trkpt lat="41.1293367" lon="14.4132717"><ele>39.0</ele><time>2026-04-18T08:39:48.101Z</time></trkpt><trkpt lat="41.1292567" lon="14.413395"><ele>39.0</ele><time>2026-04-18T08:39:49.102Z</time></trkpt><trkpt lat="41.1292017" lon="14.4135233"><ele>39.0</ele><time>2026-04-18T08:39:50.101Z</time></trkpt><trkpt lat="41.1291717" lon="14.4136583"><ele>39.0</ele><time>2026-04-18T08:39:51.101Z</time></trkpt><trkpt lat="41.1291517" lon="14.41382"><ele>39.0</ele><time>2026-04-18T08:39:52.101Z</time></trkpt><trkpt lat="41.1291417" lon="14.4139917"><ele>38.75</ele><time>2026-04-18T08:39:53.101Z</time></trkpt><trkpt lat="41.1291367" lon="14.4141783"><ele>38.5</ele><time>2026-04-18T08:39:54.101Z</time></trkpt><trkpt lat="41.129135" lon="14.41438"><ele>38.25</ele><time>2026-04-18T08:39:55.101Z</time></trkpt><trkpt lat="41.1291167" lon="14.4145567"><ele>38.0</ele><time>2026-04-18T08:39:56.101Z</time></trkpt><trkpt lat="41.1290833" lon="14.414715"><ele>37.5</ele><time>2026-04-18T08:39:57.101Z</time></trkpt><trkpt lat="41.1290317" lon="14.4148683"><ele>37.0</ele><time>2026-04-18T08:39:58.101Z</time></trkpt><trkpt lat="41.1289533" lon="14.4150117"><ele>36.5</ele><time>2026-04-18T08:39:59.101Z</time></trkpt><trkpt lat="41.1288633" lon="14.415145"><ele>36.0</ele><time>2026-04-18T08:40:00.101Z</time></trkpt><trkpt lat="41.1287767" lon="14.4152833"><ele>36.0</ele><time>2026-04-18T08:40:01.101Z</time></trkpt><trkpt lat="41.128715" lon="14.41542"><ele>36.0</ele><time>2026-04-18T08:40:02.101Z</time></trkpt><trkpt lat="41.1286717" lon="14.4155733"><ele>36.0</ele><time>2026-04-18T08:40:03.101Z</time></trkpt><trkpt lat="41.12864" lon="14.41574"><ele>36.0</ele><time>2026-04-18T08:40:04.101Z</time></trkpt><trkpt lat="41.128635" lon="14.4159117"><ele>36.0</ele><time>2026-04-18T08:40:05.101Z</time></trkpt><trkpt lat="41.1286533" lon="14.41609"><ele>36.0</ele><time>2026-04-18T08:40:06.101Z</time></trkpt><trkpt lat="41.12869" lon="14.4162767"><ele>36.0</ele><time>2026-04-18T08:40:07.101Z</time></trkpt><trkpt lat="41.1287383" lon="14.4164717"><ele>36.0</ele><time>2026-04-18T08:40:08.101Z</time></trkpt><trkpt lat="41.1287917" lon="14.4166683"><ele>36.333333333333336</ele><time>2026-04-18T08:40:09.101Z</time></trkpt><trkpt lat="41.1288433" lon="14.4168717"><ele>36.66666666666667</ele><time>2026-04-18T08:40:10.102Z</time></trkpt><trkpt lat="41.12889" lon="14.4170667"><ele>37.0</ele><time>2026-04-18T08:40:11.101Z</time></trkpt><trkpt lat="41.12893" lon="14.41725"><ele>37.0</ele><time>2026-04-18T08:40:12.101Z</time></trkpt><trkpt lat="41.1289517" lon="14.4174217"><ele>37.0</ele><time>2026-04-18T08:40:13.101Z</time></trkpt><trkpt lat="41.1289867" lon="14.4175933"><ele>37.0</ele><time>2026-04-18T08:40:14.101Z</time></trkpt><trkpt lat="41.1290267" lon="14.4177617"><ele>37.0</ele><time>2026-04-18T08:40:15.101Z</time></trkpt><trkpt lat="41.129055" lon="14.4179217"><ele>36.800000000000004</ele><time>2026-04-18T08:40:16.101Z</time></trkpt><trkpt lat="41.1290767" lon="14.41807"><ele>36.6</ele><time>2026-04-18T08:40:17.101Z</time></trkpt><trkpt lat="41.1290883" lon="14.4182233"><ele>36.400000000000006</ele><time>2026-04-18T08:40:18.101Z</time></trkpt><trkpt lat="41.1290933" lon="14.4183733"><ele>36.2</ele><time>2026-04-18T08:40:19.101Z</time></trkpt><trkpt lat="41.1290783" lon="14.4185133"><ele>36.0</ele><time>2026-04-18T08:40:20.101Z</time></trkpt><trkpt lat="41.129045" lon="14.418645"><ele>36.0</ele><time>2026-04-18T08:40:21.101Z</time></trkpt><trkpt lat="41.12899" lon="14.4187767"><ele>36.0</ele><time>2026-04-18T08:40:22.101Z</time></trkpt><trkpt lat="41.12894" lon="14.4189167"><ele>36.0</ele><time>2026-04-18T08:40:23.101Z</time></trkpt><trkpt lat="41.1288967" lon="14.4190667"><ele>36.0</ele><time>2026-04-18T08:40:24.101Z</time></trkpt><trkpt lat="41.12885" lon="14.4192267"><ele>36.25</ele><time>2026-04-18T08:40:25.101Z</time></trkpt><trkpt lat="41.1288017" lon="14.41939"><ele>36.5</ele><time>2026-04-18T08:40:26.102Z</time></trkpt><trkpt lat="41.1287533" lon="14.4195567"><ele>36.75</ele><time>2026-04-18T08:40:27.101Z</time></trkpt><trkpt lat="41.1287017" lon="14.4197217"><ele>37.0</ele><time>2026-04-18T08:40:28.101Z</time></trkpt><trkpt lat="41.1286533" lon="14.419905"><ele>36.5</ele><time>2026-04-18T08:40:29.101Z</time></trkpt><trkpt lat="41.1286067" lon="14.4200933"><ele>36.0</ele><time>2026-04-18T08:40:30.101Z</time></trkpt><trkpt lat="41.128575" lon="14.4202833"><ele>35.5</ele><time>2026-04-18T08:40:31.101Z</time></trkpt><trkpt lat="41.1285533" lon="14.4204733"><ele>35.0</ele><time>2026-04-18T08:40:32.101Z</time></trkpt><trkpt lat="41.1285433" lon="14.420655"><ele>34.666666666666664</ele><time>2026-04-18T08:40:33.101Z</time></trkpt><trkpt lat="41.1285233" lon="14.4208517"><ele>34.333333333333336</ele><time>2026-04-18T08:40:34.101Z</time></trkpt><trkpt lat="41.1284933" lon="14.42104"><ele>34.0</ele><time>2026-04-18T08:40:35.101Z</time></trkpt><trkpt lat="41.128445" lon="14.4212367"><ele>34.0</ele><time>2026-04-18T08:40:36.101Z</time></trkpt><trkpt lat="41.1283783" lon="14.4214133"><ele>34.0</ele><time>2026-04-18T08:40:37.102Z</time></trkpt><trkpt lat="41.1282983" lon="14.4215817"><ele>34.0</ele><time>2026-04-18T08:40:38.101Z</time></trkpt><trkpt lat="41.1282033" lon="14.4217367"><ele>34.0</ele><time>2026-04-18T08:40:39.101Z</time></trkpt><trkpt lat="41.1280917" lon="14.4218833"><ele>35.0</ele><time>2026-04-18T08:40:40.102Z</time></trkpt><trkpt lat="41.12798" lon="14.42202"><ele>36.0</ele><time>2026-04-18T08:40:41.101Z</time></trkpt><trkpt lat="41.1278567" lon="14.42214"><ele>37.0</ele><time>2026-04-18T08:40:42.101Z</time></trkpt><trkpt lat="41.1277333" lon="14.4222433"><ele>36.75</ele><time>2026-04-18T08:40:43.101Z</time></trkpt><trkpt lat="41.1276217" lon="14.4223417"><ele>36.5</ele><time>2026-04-18T08:40:44.101Z</time></trkpt><trkpt lat="41.1275217" lon="14.4224283"><ele>36.25</ele><time>2026-04-18T08:40:45.101Z</time></trkpt><trkpt lat="41.12743" lon="14.422505"><ele>36.0</ele><time>2026-04-18T08:40:46.102Z</time></trkpt><trkpt lat="41.1273517" lon="14.42257"><ele>36.0</ele><time>2026-04-18T08:40:47.101Z</time></trkpt><trkpt lat="41.1272833" lon="14.4226317"><ele>36.0</ele><time>2026-04-18T08:40:48.101Z</time></trkpt><trkpt lat="41.1272133" lon="14.4226967"><ele>36.0</ele><time>2026-04-18T08:40:49.101Z</time></trkpt><trkpt lat="41.1271417" lon="14.4227517"><ele>36.0</ele><time>2026-04-18T08:40:50.101Z</time></trkpt><trkpt lat="41.1270783" lon="14.4228083"><ele>36.0</ele><time>2026-04-18T08:40:51.101Z</time></trkpt><trkpt lat="41.1270167" lon="14.4228667"><ele>36.0</ele><time>2026-04-18T08:40:52.101Z</time></trkpt><trkpt lat="41.1269583" lon="14.4229267"><ele>36.333333333333336</ele><time>2026-04-18T08:40:53.101Z</time></trkpt><trkpt lat="41.126895" lon="14.4229867"><ele>36.666666666666664</ele><time>2026-04-18T08:40:54.101Z</time></trkpt><trkpt lat="41.1268333" lon="14.4230533"><ele>37.0</ele><time>2026-04-18T08:40:55.101Z</time></trkpt><trkpt lat="41.12677" lon="14.4231117"><ele>37.33333333333333</ele><time>2026-04-18T08:40:56.101Z</time></trkpt><trkpt lat="41.1267" lon="14.4231733"><ele>37.666666666666664</ele><time>2026-04-18T08:40:57.101Z</time></trkpt><trkpt lat="41.126625" lon="14.4232417"><ele>38.0</ele><time>2026-04-18T08:40:58.102Z</time></trkpt><trkpt lat="41.1265517" lon="14.4233133"><ele>38.0</ele><time>2026-04-18T08:40:59.101Z</time></trkpt><trkpt lat="41.126485" lon="14.4233867"><ele>38.0</ele><time>2026-04-18T08:41:00.101Z</time></trkpt><trkpt lat="41.1264283" lon="14.42347"><ele>38.0</ele><time>2026-04-18T08:41:01.101Z</time></trkpt><trkpt lat="41.1263867" lon="14.4235417"><ele>38.0</ele><time>2026-04-18T08:41:02.101Z</time></trkpt><trkpt lat="41.1263233" lon="14.4236733"><ele>38.0</ele><time>2026-04-18T08:41:04.101Z</time></trkpt><trkpt lat="41.1262617" lon="14.4237717"><ele>38.199999999999996</ele><time>2026-04-18T08:41:06.101Z</time></trkpt><trkpt lat="41.1261817" lon="14.423885"><ele>38.4</ele><time>2026-04-18T08:41:08.101Z</time></trkpt><trkpt lat="41.12613" lon="14.4239567"><ele>38.599999999999994</ele><time>2026-04-18T08:41:09.101Z</time></trkpt><trkpt lat="41.1260717" lon="14.4240317"><ele>38.8</ele><time>2026-04-18T08:41:10.101Z</time></trkpt><trkpt lat="41.1260033" lon="14.4241067"><ele>39.0</ele><time>2026-04-18T08:41:11.101Z</time></trkpt><trkpt lat="41.125905" lon="14.424175"><ele>39.0</ele><time>2026-04-18T08:41:12.101Z</time></trkpt><trkpt lat="41.1258117" lon="14.4242433"><ele>39.0</ele><time>2026-04-18T08:41:13.101Z</time></trkpt><trkpt lat="41.1257117" lon="14.4243117"><ele>39.0</ele><time>2026-04-18T08:41:14.101Z</time></trkpt><trkpt lat="41.1256167" lon="14.4243767"><ele>39.0</ele><time>2026-04-18T08:41:15.101Z</time></trkpt><trkpt lat="41.1255283" lon="14.42444"><ele>39.0</ele><time>2026-04-18T08:41:16.102Z</time></trkpt><trkpt lat="41.1254433" lon="14.4244967"><ele>39.2</ele><time>2026-04-18T08:41:17.101Z</time></trkpt><trkpt lat="41.1253617" lon="14.4245533"><ele>39.4</ele><time>2026-04-18T08:41:18.101Z</time></trkpt><trkpt lat="41.1252833" lon="14.4246017"><ele>39.6</ele><time>2026-04-18T08:41:19.101Z</time></trkpt><trkpt lat="41.1252017" lon="14.4246483"><ele>39.8</ele><time>2026-04-18T08:41:20.101Z</time></trkpt><trkpt lat="41.1251167" lon="14.42469"><ele>40.0</ele><time>2026-04-18T08:41:21.101Z</time></trkpt><trkpt lat="41.1250267" lon="14.424725"><ele>40.2</ele><time>2026-04-18T08:41:22.101Z</time></trkpt><trkpt lat="41.1249317" lon="14.42475"><ele>40.4</ele><time>2026-04-18T08:41:23.101Z</time></trkpt><trkpt lat="41.1248383" lon="14.4247717"><ele>40.599999999999994</ele><time>2026-04-18T08:41:24.101Z</time></trkpt><trkpt lat="41.1247467" lon="14.4247833"><ele>40.8</ele><time>2026-04-18T08:41:25.101Z</time></trkpt><trkpt lat="41.1246567" lon="14.4247883"><ele>41.0</ele><time>2026-04-18T08:41:26.102Z</time></trkpt><trkpt lat="41.124575" lon="14.4248"><ele>41.199999999999996</ele><time>2026-04-18T08:41:27.102Z</time></trkpt><trkpt lat="41.1244883" lon="14.4248117"><ele>41.4</ele><time>2026-04-18T08:41:29.101Z</time></trkpt><trkpt lat="41.1244233" lon="14.4248233"><ele>41.6</ele><time>2026-04-18T08:41:32.101Z</time></trkpt><trkpt lat="41.1243533" lon="14.424855"><ele>41.8</ele><time>2026-04-18T08:41:34.101Z</time></trkpt><trkpt lat="41.124255" lon="14.42492"><ele>42.0</ele><time>2026-04-18T08:41:36.101Z</time></trkpt><trkpt lat="41.124135" lon="14.4250033"><ele>42.0</ele><time>2026-04-18T08:41:38.101Z</time></trkpt><trkpt lat="41.1240717" lon="14.42506"><ele>42.0</ele><time>2026-04-18T08:41:39.101Z</time></trkpt><trkpt lat="41.1240017" lon="14.4251233"><ele>42.0</ele><time>2026-04-18T08:41:40.101Z</time></trkpt><trkpt lat="41.1239217" lon="14.425195"><ele>42.0</ele><time>2026-04-18T08:41:41.101Z</time></trkpt><trkpt lat="41.123825" lon="14.425275"><ele>42.0</ele><time>2026-04-18T08:41:42.101Z</time></trkpt><trkpt lat="41.1237383" lon="14.425335"><ele>42.0</ele><time>2026-04-18T08:41:43.101Z</time></trkpt><trkpt lat="41.123655" lon="14.4253883"><ele>42.0</ele><time>2026-04-18T08:41:44.101Z</time></trkpt><trkpt lat="41.1235683" lon="14.425435"><ele>42.0</ele><time>2026-04-18T08:41:45.101Z</time></trkpt><trkpt lat="41.123475" lon="14.4254883"><ele>42.0</ele><time>2026-04-18T08:41:46.101Z</time></trkpt><trkpt lat="41.1233767" lon="14.4255433"><ele>42.0</ele><time>2026-04-18T08:41:47.101Z</time></trkpt><trkpt lat="41.1232833" lon="14.4256033"><ele>42.6</ele><time>2026-04-18T08:41:48.101Z</time></trkpt><trkpt lat="41.1231883" lon="14.425675"><ele>43.2</ele><time>2026-04-18T08:41:49.101Z</time></trkpt><trkpt lat="41.1230967" lon="14.4257317"><ele>43.8</ele><time>2026-04-18T08:41:50.101Z</time></trkpt><trkpt lat="41.1230067" lon="14.42578"><ele>44.4</ele><time>2026-04-18T08:41:51.101Z</time></trkpt><trkpt lat="41.1229217" lon="14.4258383"><ele>45.0</ele><time>2026-04-18T08:41:52.101Z</time></trkpt><trkpt lat="41.1228283" lon="14.42589"><ele>45.0</ele><time>2026-04-18T08:41:53.101Z</time></trkpt><trkpt lat="41.12274" lon="14.4259283"><ele>45.0</ele><time>2026-04-18T08:41:54.101Z</time></trkpt><trkpt lat="41.12266" lon="14.425965"><ele>45.0</ele><time>2026-04-18T08:41:55.101Z</time></trkpt><trkpt lat="41.122585" lon="14.426"><ele>45.0</ele><time>2026-04-18T08:41:56.101Z</time></trkpt><trkpt lat="41.1225217" lon="14.4260317"><ele>45.0</ele><time>2026-04-18T08:41:57.101Z</time></trkpt><trkpt lat="41.1224183" lon="14.42608"><ele>45.0</ele><time>2026-04-18T08:41:59.101Z</time></trkpt><trkpt lat="41.1223117" lon="14.42614"><ele>44.6</ele><time>2026-04-18T08:42:01.101Z</time></trkpt><trkpt lat="41.1222383" lon="14.4261933"><ele>44.2</ele><time>2026-04-18T08:42:02.101Z</time></trkpt><trkpt lat="41.1221667" lon="14.426265"><ele>43.8</ele><time>2026-04-18T08:42:03.101Z</time></trkpt><trkpt lat="41.1220883" lon="14.426345"><ele>43.4</ele><time>2026-04-18T08:42:04.101Z</time></trkpt><trkpt lat="41.12201" lon="14.4264433"><ele>43.0</ele><time>2026-04-18T08:42:05.101Z</time></trkpt><trkpt lat="41.12193" lon="14.4265433"><ele>43.0</ele><time>2026-04-18T08:42:06.102Z</time></trkpt><trkpt lat="41.121845" lon="14.42665"><ele>43.0</ele><time>2026-04-18T08:42:07.102Z</time></trkpt><trkpt lat="41.121765" lon="14.4267567"><ele>43.0</ele><time>2026-04-18T08:42:08.102Z</time></trkpt><trkpt lat="41.1217067" lon="14.42686"><ele>43.0</ele><time>2026-04-18T08:42:09.101Z</time></trkpt><trkpt lat="41.1216733" lon="14.4269567"><ele>43.0</ele><time>2026-04-18T08:42:10.101Z</time></trkpt><trkpt lat="41.1216383" lon="14.427085"><ele>42.8</ele><time>2026-04-18T08:42:12.101Z</time></trkpt><trkpt lat="41.1216067" lon="14.42722"><ele>42.599999999999994</ele><time>2026-04-18T08:42:15.101Z</time></trkpt><trkpt lat="41.12159" lon="14.427315"><ele>42.400000000000006</ele><time>2026-04-18T08:42:16.102Z</time></trkpt><trkpt lat="41.12157" lon="14.4274383"><ele>42.2</ele><time>2026-04-18T08:42:17.101Z</time></trkpt><trkpt lat="41.12154" lon="14.4275983"><ele>42.0</ele><time>2026-04-18T08:42:18.101Z</time></trkpt><trkpt lat="41.1215033" lon="14.4277783"><ele>45.33333333333333</ele><time>2026-04-18T08:42:19.101Z</time></trkpt><trkpt lat="41.121465" lon="14.427975"><ele>48.666666666666664</ele><time>2026-04-18T08:42:20.101Z</time></trkpt><trkpt lat="41.1214267" lon="14.4281783"><ele>52.0</ele><time>2026-04-18T08:42:21.101Z</time></trkpt><trkpt lat="41.1213933" lon="14.428395"><ele>52.25</ele><time>2026-04-18T08:42:22.101Z</time></trkpt><trkpt lat="41.12138" lon="14.4285983"><ele>52.5</ele><time>2026-04-18T08:42:23.101Z</time></trkpt><trkpt lat="41.1213717" lon="14.4287767"><ele>52.75</ele><time>2026-04-18T08:42:24.101Z</time></trkpt><trkpt lat="41.1213683" lon="14.4289483"><ele>53.0</ele><time>2026-04-18T08:42:25.101Z</time></trkpt><trkpt lat="41.1213483" lon="14.4290983"><ele>51.75</ele><time>2026-04-18T08:42:26.101Z</time></trkpt><trkpt lat="41.1213" lon="14.429225"><ele>50.5</ele><time>2026-04-18T08:42:27.101Z</time></trkpt><trkpt lat="41.1212283" lon="14.4293417"><ele>49.25</ele><time>2026-04-18T08:42:28.101Z</time></trkpt><trkpt lat="41.1211333" lon="14.429445"><ele>48.0</ele><time>2026-04-18T08:42:29.102Z</time></trkpt><trkpt lat="41.1210133" lon="14.4295567"><ele>47.333333333333336</ele><time>2026-04-18T08:42:30.101Z</time></trkpt><trkpt lat="41.1208917" lon="14.4296717"><ele>46.66666666666667</ele><time>2026-04-18T08:42:31.101Z</time></trkpt><trkpt lat="41.120775" lon="14.4298"><ele>46.0</ele><time>2026-04-18T08:42:32.101Z</time></trkpt><trkpt lat="41.12066" lon="14.429945"><ele>46.0</ele><time>2026-04-18T08:42:33.101Z</time></trkpt><trkpt lat="41.120555" lon="14.4300867"><ele>46.0</ele><time>2026-04-18T08:42:34.101Z</time></trkpt><trkpt lat="41.120465" lon="14.430245"><ele>46.0</ele><time>2026-04-18T08:42:35.101Z</time></trkpt><trkpt lat="41.1203733" lon="14.4303967"><ele>46.0</ele><time>2026-04-18T08:42:36.101Z</time></trkpt><trkpt lat="41.1202917" lon="14.43054"><ele>45.25</ele><time>2026-04-18T08:42:37.101Z</time></trkpt><trkpt lat="41.1202283" lon="14.43067"><ele>44.5</ele><time>2026-04-18T08:42:38.102Z</time></trkpt><trkpt lat="41.1201533" lon="14.4308"><ele>43.75</ele><time>2026-04-18T08:42:39.101Z</time></trkpt><trkpt lat="41.120085" lon="14.4309283"><ele>43.0</ele><time>2026-04-18T08:42:40.101Z</time></trkpt><trkpt lat="41.12002" lon="14.4310533"><ele>43.0</ele><time>2026-04-18T08:42:41.102Z</time></trkpt><trkpt lat="41.1199567" lon="14.4311733"><ele>43.0</ele><time>2026-04-18T08:42:42.101Z</time></trkpt><trkpt lat="41.119895" lon="14.4312933"><ele>43.0</ele><time>2026-04-18T08:42:43.101Z</time></trkpt><trkpt lat="41.1198233" lon="14.4314183"><ele>43.0</ele><time>2026-04-18T08:42:44.101Z</time></trkpt><trkpt lat="41.1197467" lon="14.43155"><ele>43.25</ele><time>2026-04-18T08:42:45.101Z</time></trkpt><trkpt lat="41.1196667" lon="14.431675"><ele>43.5</ele><time>2026-04-18T08:42:46.101Z</time></trkpt><trkpt lat="41.119585" lon="14.431775"><ele>43.75</ele><time>2026-04-18T08:42:47.102Z</time></trkpt><trkpt lat="41.1194783" lon="14.43186"><ele>44.0</ele><time>2026-04-18T08:42:48.101Z</time></trkpt><trkpt lat="41.119355" lon="14.431925"><ele>44.0</ele><time>2026-04-18T08:42:49.101Z</time></trkpt><trkpt lat="41.119225" lon="14.431985"><ele>44.0</ele><time>2026-04-18T08:42:50.101Z</time></trkpt><trkpt lat="41.1190917" lon="14.4320583"><ele>44.0</ele><time>2026-04-18T08:42:51.101Z</time></trkpt><trkpt lat="41.1189833" lon="14.4321633"><ele>44.0</ele><time>2026-04-18T08:42:52.101Z</time></trkpt><trkpt lat="41.1188767" lon="14.4322933"><ele>44.666666666666664</ele><time>2026-04-18T08:42:53.101Z</time></trkpt><trkpt lat="41.11877" lon="14.4324467"><ele>45.333333333333336</ele><time>2026-04-18T08:42:54.101Z</time></trkpt><trkpt lat="41.11867" lon="14.4326117"><ele>46.0</ele><time>2026-04-18T08:42:55.101Z</time></trkpt><trkpt lat="41.118565" lon="14.43279"><ele>45.66666666666667</ele><time>2026-04-18T08:42:56.101Z</time></trkpt><trkpt lat="41.1184667" lon="14.4329733"><ele>45.333333333333336</ele><time>2026-04-18T08:42:57.101Z</time></trkpt><trkpt lat="41.1183717" lon="14.43317"><ele>45.0</ele><time>2026-04-18T08:42:58.101Z</time></trkpt><trkpt lat="41.1182733" lon="14.4333633"><ele>45.0</ele><time>2026-04-18T08:42:59.101Z</time></trkpt><trkpt lat="41.1181817" lon="14.4335383"><ele>45.0</ele><time>2026-04-18T08:43:00.101Z</time></trkpt><trkpt lat="41.1180917" lon="14.4337017"><ele>45.0</ele><time>2026-04-18T08:43:01.101Z</time></trkpt><trkpt lat="41.1180083" lon="14.4338583"><ele>45.0</ele><time>2026-04-18T08:43:02.101Z</time></trkpt><trkpt lat="41.117905" lon="14.434"><ele>45.0</ele><time>2026-04-18T08:43:03.102Z</time></trkpt><trkpt lat="41.1177767" lon="14.43413"><ele>45.0</ele><time>2026-04-18T08:43:04.101Z</time></trkpt><trkpt lat="41.1176417" lon="14.4342633"><ele>45.0</ele><time>2026-04-18T08:43:05.101Z</time></trkpt><trkpt lat="41.11751" lon="14.434385"><ele>45.0</ele><time>2026-04-18T08:43:06.101Z</time></trkpt><trkpt lat="41.11738" lon="14.434515"><ele>45.0</ele><time>2026-04-18T08:43:07.101Z</time></trkpt><trkpt lat="41.1172517" lon="14.4346367"><ele>45.0</ele><time>2026-04-18T08:43:08.101Z</time></trkpt><trkpt lat="41.1171233" lon="14.434755"><ele>45.0</ele><time>2026-04-18T08:43:09.102Z</time></trkpt><trkpt lat="41.11699" lon="14.43486"><ele>45.0</ele><time>2026-04-18T08:43:10.101Z</time></trkpt><trkpt lat="41.1168717" lon="14.4349733"><ele>45.0</ele><time>2026-04-18T08:43:11.101Z</time></trkpt><trkpt lat="41.1167517" lon="14.4350783"><ele>45.0</ele><time>2026-04-18T08:43:12.101Z</time></trkpt><trkpt lat="41.1166333" lon="14.435165"><ele>45.0</ele><time>2026-04-18T08:43:13.101Z</time></trkpt><trkpt lat="41.1165" lon="14.4352317"><ele>45.0</ele><time>2026-04-18T08:43:14.101Z</time></trkpt><trkpt lat="41.1163733" lon="14.4353"><ele>45.2</ele><time>2026-04-18T08:43:15.101Z</time></trkpt><trkpt lat="41.1162583" lon="14.43536"><ele>45.4</ele><time>2026-04-18T08:43:16.101Z</time></trkpt><trkpt lat="41.1161483" lon="14.4354117"><ele>45.599999999999994</ele><time>2026-04-18T08:43:17.101Z</time></trkpt><trkpt lat="41.116055" lon="14.4354683"><ele>45.8</ele><time>2026-04-18T08:43:18.101Z</time></trkpt><trkpt lat="41.11597" lon="14.43554"><ele>46.0</ele><time>2026-04-18T08:43:19.101Z</time></trkpt><trkpt lat="41.11591" lon="14.435635"><ele>46.0</ele><time>2026-04-18T08:43:20.102Z</time></trkpt><trkpt lat="41.11586" lon="14.4357433"><ele>46.0</ele><time>2026-04-18T08:43:21.101Z</time></trkpt><trkpt lat="41.11582" lon="14.4358883"><ele>46.0</ele><time>2026-04-18T08:43:22.101Z</time></trkpt><trkpt lat="41.1157783" lon="14.4360367"><ele>46.0</ele><time>2026-04-18T08:43:23.101Z</time></trkpt><trkpt lat="41.1157433" lon="14.4361783"><ele>46.0</ele><time>2026-04-18T08:43:24.101Z</time></trkpt><trkpt lat="41.1157133" lon="14.4363283"><ele>46.0</ele><time>2026-04-18T08:43:25.101Z</time></trkpt><trkpt lat="41.1156883" lon="14.436475"><ele>46.0</ele><time>2026-04-18T08:43:26.101Z</time></trkpt><trkpt lat="41.1156633" lon="14.4366133"><ele>46.0</ele><time>2026-04-18T08:43:27.101Z</time></trkpt><trkpt lat="41.1156333" lon="14.4367517"><ele>46.0</ele><time>2026-04-18T08:43:28.101Z</time></trkpt><trkpt lat="41.1155933" lon="14.4368917"><ele>46.0</ele><time>2026-04-18T08:43:29.101Z</time></trkpt><trkpt lat="41.1155483" lon="14.437025"><ele>45.75</ele><time>2026-04-18T08:43:30.101Z</time></trkpt><trkpt lat="41.115495" lon="14.4371583"><ele>45.5</ele><time>2026-04-18T08:43:31.101Z</time></trkpt><trkpt lat="41.1154283" lon="14.4372817"><ele>45.25</ele><time>2026-04-18T08:43:32.101Z</time></trkpt><trkpt lat="41.115345" lon="14.4373917"><ele>45.0</ele><time>2026-04-18T08:43:33.101Z</time></trkpt><trkpt lat="41.1152417" lon="14.4374833"><ele>45.0</ele><time>2026-04-18T08:43:34.101Z</time></trkpt><trkpt lat="41.1151317" lon="14.4375733"><ele>45.0</ele><time>2026-04-18T08:43:35.101Z</time></trkpt><trkpt lat="41.1150317" lon="14.43767"><ele>45.0</ele><time>2026-04-18T08:43:36.101Z</time></trkpt><trkpt lat="41.1149333" lon="14.437745"><ele>45.0</ele><time>2026-04-18T08:43:37.101Z</time></trkpt><trkpt lat="41.114845" lon="14.4378267"><ele>45.6</ele><time>2026-04-18T08:43:38.101Z</time></trkpt><trkpt lat="41.1147617" lon="14.4379117"><ele>46.2</ele><time>2026-04-18T08:43:39.101Z</time></trkpt><trkpt lat="41.11468" lon="14.4379983"><ele>46.8</ele><time>2026-04-18T08:43:40.101Z</time></trkpt><trkpt lat="41.11461" lon="14.4380817"><ele>47.4</ele><time>2026-04-18T08:43:41.101Z</time></trkpt><trkpt lat="41.1145433" lon="14.4381633"><ele>48.0</ele><time>2026-04-18T08:43:42.101Z</time></trkpt><trkpt lat="41.1144817" lon="14.4382383"><ele>48.0</ele><time>2026-04-18T08:43:43.101Z</time></trkpt><trkpt lat="41.1144217" lon="14.4383167"><ele>48.0</ele><time>2026-04-18T08:43:44.101Z</time></trkpt><trkpt lat="41.1143717" lon="14.4384067"><ele>48.0</ele><time>2026-04-18T08:43:45.101Z</time></trkpt><trkpt lat="41.1143183" lon="14.4384983"><ele>48.0</ele><time>2026-04-18T08:43:46.101Z</time></trkpt><trkpt lat="41.1142767" lon="14.4386117"><ele>48.0</ele><time>2026-04-18T08:43:47.101Z</time></trkpt><trkpt lat="41.114245" lon="14.4387333"><ele>48.0</ele><time>2026-04-18T08:43:48.101Z</time></trkpt><trkpt lat="41.11421" lon="14.4388633"><ele>47.599999999999994</ele><time>2026-04-18T08:43:49.101Z</time></trkpt><trkpt lat="41.1141717" lon="14.4390017"><ele>47.199999999999996</ele><time>2026-04-18T08:43:50.101Z</time></trkpt><trkpt lat="41.1141317" lon="14.4391483"><ele>46.8</ele><time>2026-04-18T08:43:51.101Z</time></trkpt><trkpt lat="41.11409" lon="14.439285"><ele>46.4</ele><time>2026-04-18T08:43:52.102Z</time></trkpt><trkpt lat="41.1140433" lon="14.439405"><ele>46.0</ele><time>2026-04-18T08:43:53.101Z</time></trkpt><trkpt lat="41.113995" lon="14.4395167"><ele>46.4</ele><time>2026-04-18T08:43:54.101Z</time></trkpt><trkpt lat="41.11394" lon="14.4396067"><ele>46.8</ele><time>2026-04-18T08:43:55.101Z</time></trkpt><trkpt lat="41.113875" lon="14.4396883"><ele>47.199999999999996</ele><time>2026-04-18T08:43:56.101Z</time></trkpt><trkpt lat="41.1137917" lon="14.439765"><ele>47.599999999999994</ele><time>2026-04-18T08:43:57.101Z</time></trkpt><trkpt lat="41.1137017" lon="14.4398433"><ele>48.0</ele><time>2026-04-18T08:43:58.101Z</time></trkpt><trkpt lat="41.11362" lon="14.4399367"><ele>48.0</ele><time>2026-04-18T08:43:59.101Z</time></trkpt><trkpt lat="41.113545" lon="14.44004"><ele>48.0</ele><time>2026-04-18T08:44:00.102Z</time></trkpt><trkpt lat="41.1134683" lon="14.4401533"><ele>48.0</ele><time>2026-04-18T08:44:01.101Z</time></trkpt><trkpt lat="41.1134017" lon="14.4402767"><ele>48.0</ele><time>2026-04-18T08:44:02.101Z</time></trkpt><trkpt lat="41.1133367" lon="14.44041"><ele>48.5</ele><time>2026-04-18T08:44:03.101Z</time></trkpt><trkpt lat="41.11327" lon="14.44055"><ele>49.0</ele><time>2026-04-18T08:44:04.101Z</time></trkpt><trkpt lat="41.1132067" lon="14.4407"><ele>49.5</ele><time>2026-04-18T08:44:05.101Z</time></trkpt><trkpt lat="41.1131433" lon="14.4408517"><ele>50.0</ele><time>2026-04-18T08:44:06.101Z</time></trkpt><trkpt lat="41.1130733" lon="14.440985"><ele>51.75</ele><time>2026-04-18T08:44:07.101Z</time></trkpt><trkpt lat="41.113005" lon="14.44111"><ele>53.5</ele><time>2026-04-18T08:44:08.101Z</time></trkpt><trkpt lat="41.112935" lon="14.441245"><ele>55.25</ele><time>2026-04-18T08:44:09.102Z</time></trkpt><trkpt lat="41.1128683" lon="14.4413767"><ele>57.0</ele><time>2026-04-18T08:44:10.102Z</time></trkpt><trkpt lat="41.112795" lon="14.4415117"><ele>57.0</ele><time>2026-04-18T08:44:11.102Z</time></trkpt><trkpt lat="41.1127267" lon="14.44164"><ele>57.0</ele><time>2026-04-18T08:44:12.102Z</time></trkpt><trkpt lat="41.112665" lon="14.4417733"><ele>57.0</ele><time>2026-04-18T08:44:13.102Z</time></trkpt><trkpt lat="41.1125983" lon="14.4419"><ele>57.0</ele><time>2026-04-18T08:44:14.102Z</time></trkpt><trkpt lat="41.1125283" lon="14.4420267"><ele>57.6</ele><time>2026-04-18T08:44:15.103Z</time></trkpt><trkpt lat="41.112465" lon="14.4421467"><ele>58.2</ele><time>2026-04-18T08:44:16.102Z</time></trkpt><trkpt lat="41.1124117" lon="14.4422567"><ele>58.8</ele><time>2026-04-18T08:44:17.102Z</time></trkpt><trkpt lat="41.1123583" lon="14.442355"><ele>59.4</ele><time>2026-04-18T08:44:18.103Z</time></trkpt><trkpt lat="41.112315" lon="14.4424467"><ele>60.0</ele><time>2026-04-18T08:44:19.102Z</time></trkpt><trkpt lat="41.112275" lon="14.4425333"><ele>60.5</ele><time>2026-04-18T08:44:20.102Z</time></trkpt><trkpt lat="41.1122467" lon="14.4426133"><ele>61.0</ele><time>2026-04-18T08:44:21.102Z</time></trkpt><trkpt lat="41.1122267" lon="14.4426967"><ele>61.5</ele><time>2026-04-18T08:44:22.102Z</time></trkpt><trkpt lat="41.1122083" lon="14.44278"><ele>62.0</ele><time>2026-04-18T08:44:23.102Z</time></trkpt><trkpt lat="41.1121983" lon="14.4429033"><ele>62.5</ele><time>2026-04-18T08:44:25.102Z</time></trkpt><trkpt lat="41.1122017" lon="14.44299"><ele>63.0</ele><time>2026-04-18T08:44:27.102Z</time></trkpt><trkpt lat="41.1121717" lon="14.4431083"><ele>63.0</ele><time>2026-04-18T08:44:30.102Z</time></trkpt><trkpt lat="41.11209" lon="14.4431683"><ele>63.0</ele><time>2026-04-18T08:44:32.102Z</time></trkpt><trkpt lat="41.1119783" lon="14.4431867"><ele>63.0</ele><time>2026-04-18T08:44:34.102Z</time></trkpt><trkpt lat="41.1119017" lon="14.4431667"><ele>63.0</ele><time>2026-04-18T08:44:35.102Z</time></trkpt><trkpt lat="41.111825" lon="14.443125"><ele>63.0</ele><time>2026-04-18T08:44:36.102Z</time></trkpt><trkpt lat="41.1117417" lon="14.4430783"><ele>63.0</ele><time>2026-04-18T08:44:37.102Z</time></trkpt><trkpt lat="41.1116617" lon="14.4430233"><ele>63.0</ele><time>2026-04-18T08:44:38.102Z</time></trkpt><trkpt lat="41.1115883" lon="14.4429683"><ele>63.0</ele><time>2026-04-18T08:44:39.102Z</time></trkpt><trkpt lat="41.1115217" lon="14.4429083"><ele>63.0</ele><time>2026-04-18T08:44:40.102Z</time></trkpt><trkpt lat="41.1114233" lon="14.44283"><ele>63.0</ele><time>2026-04-18T08:44:42.102Z</time></trkpt><trkpt lat="41.111345" lon="14.4427733"><ele>63.166666666666664</ele><time>2026-04-18T08:44:44.103Z</time></trkpt><trkpt lat="41.1112683" lon="14.44271"><ele>63.33333333333333</ele><time>2026-04-18T08:44:47.102Z</time></trkpt><trkpt lat="41.111195" lon="14.4426617"><ele>63.5</ele><time>2026-04-18T08:44:49.102Z</time></trkpt><trkpt lat="41.111135" lon="14.4426317"><ele>63.666666666666664</ele><time>2026-04-18T08:44:50.102Z</time></trkpt><trkpt lat="41.1110633" lon="14.44258"><ele>63.83333333333333</ele><time>2026-04-18T08:44:51.102Z</time></trkpt><trkpt lat="41.110985" lon="14.4425267"><ele>64.0</ele><time>2026-04-18T08:44:52.103Z</time></trkpt><trkpt lat="41.1108967" lon="14.4424633"><ele>64.0</ele><time>2026-04-18T08:44:53.102Z</time></trkpt><trkpt lat="41.110805" lon="14.44239"><ele>64.0</ele><time>2026-04-18T08:44:54.102Z</time></trkpt><trkpt lat="41.1107133" lon="14.4423117"><ele>64.0</ele><time>2026-04-18T08:44:55.103Z</time></trkpt><trkpt lat="41.1106083" lon="14.4422317"><ele>64.0</ele><time>2026-04-18T08:44:56.102Z</time></trkpt><trkpt lat="41.110485" lon="14.44215"><ele>64.5</ele><time>2026-04-18T08:44:57.102Z</time></trkpt><trkpt lat="41.110355" lon="14.442075"><ele>65.0</ele><time>2026-04-18T08:44:58.102Z</time></trkpt><trkpt lat="41.1102217" lon="14.4419967"><ele>65.5</ele><time>2026-04-18T08:44:59.102Z</time></trkpt><trkpt lat="41.110085" lon="14.4419367"><ele>66.0</ele><time>2026-04-18T08:45:00.102Z</time></trkpt><trkpt lat="41.1099517" lon="14.4418783"><ele>66.25</ele><time>2026-04-18T08:45:01.102Z</time></trkpt><trkpt lat="41.10983" lon="14.4418167"><ele>66.5</ele><time>2026-04-18T08:45:02.103Z</time></trkpt><trkpt lat="41.1097133" lon="14.44174"><ele>66.75</ele><time>2026-04-18T08:45:03.102Z</time></trkpt><trkpt lat="41.1096067" lon="14.441655"><ele>67.0</ele><time>2026-04-18T08:45:04.102Z</time></trkpt><trkpt lat="41.109525" lon="14.4415367"><ele>67.0</ele><time>2026-04-18T08:45:05.102Z</time></trkpt><trkpt lat="41.10945" lon="14.44139"><ele>67.0</ele><time>2026-04-18T08:45:06.103Z</time></trkpt><trkpt lat="41.1093933" lon="14.4412233"><ele>67.0</ele><time>2026-04-18T08:45:07.102Z</time></trkpt><trkpt lat="41.1093167" lon="14.44107"><ele>67.0</ele><time>2026-04-18T08:45:08.102Z</time></trkpt><trkpt lat="41.1092283" lon="14.4409433"><ele>67.0</ele><time>2026-04-18T08:45:09.102Z</time></trkpt><trkpt lat="41.109105" lon="14.44084"><ele>67.0</ele><time>2026-04-18T08:45:10.102Z</time></trkpt><trkpt lat="41.1089667" lon="14.44074"><ele>67.0</ele><time>2026-04-18T08:45:11.102Z</time></trkpt><trkpt lat="41.1088217" lon="14.4406483"><ele>67.33333333333333</ele><time>2026-04-18T08:45:12.102Z</time></trkpt><trkpt lat="41.1086633" lon="14.4405517"><ele>67.66666666666667</ele><time>2026-04-18T08:45:13.102Z</time></trkpt><trkpt lat="41.1085067" lon="14.4404467"><ele>68.0</ele><time>2026-04-18T08:45:14.102Z</time></trkpt><trkpt lat="41.1083433" lon="14.440345"><ele>68.33333333333334</ele><time>2026-04-18T08:45:15.103Z</time></trkpt><trkpt lat="41.1081783" lon="14.4402417"><ele>68.66666666666667</ele><time>2026-04-18T08:45:16.102Z</time></trkpt><trkpt lat="41.108005" lon="14.4401383"><ele>69.0</ele><time>2026-04-18T08:45:17.102Z</time></trkpt><trkpt lat="41.107845" lon="14.4400317"><ele>69.0</ele><time>2026-04-18T08:45:18.102Z</time></trkpt><trkpt lat="41.1076817" lon="14.4399267"><ele>69.0</ele><time>2026-04-18T08:45:19.102Z</time></trkpt><trkpt lat="41.1075217" lon="14.4398217"><ele>69.0</ele><time>2026-04-18T08:45:20.102Z</time></trkpt><trkpt lat="41.1073583" lon="14.4397167"><ele>70.0</ele><time>2026-04-18T08:45:21.103Z</time></trkpt><trkpt lat="41.1071933" lon="14.4396117"><ele>71.0</ele><time>2026-04-18T08:45:22.102Z</time></trkpt><trkpt lat="41.10704" lon="14.43951"><ele>72.0</ele><time>2026-04-18T08:45:23.103Z</time></trkpt><trkpt lat="41.1068983" lon="14.4394217"><ele>72.0</ele><time>2026-04-18T08:45:24.102Z</time></trkpt><trkpt lat="41.106765" lon="14.439335"><ele>72.0</ele><time>2026-04-18T08:45:25.102Z</time></trkpt><trkpt lat="41.1066383" lon="14.4392467"><ele>72.0</ele><time>2026-04-18T08:45:26.102Z</time></trkpt><trkpt lat="41.1065133" lon="14.4391517"><ele>72.0</ele><time>2026-04-18T08:45:27.102Z</time></trkpt><trkpt lat="41.1063867" lon="14.4390417"><ele>71.66666666666667</ele><time>2026-04-18T08:45:28.102Z</time></trkpt><trkpt lat="41.10627" lon="14.438905"><ele>71.33333333333334</ele><time>2026-04-18T08:45:29.102Z</time></trkpt><trkpt lat="41.106145" lon="14.438775"><ele>71.0</ele><time>2026-04-18T08:45:30.102Z</time></trkpt><trkpt lat="41.10603" lon="14.4386333"><ele>71.0</ele><time>2026-04-18T08:45:31.102Z</time></trkpt><trkpt lat="41.1059167" lon="14.4384817"><ele>71.0</ele><time>2026-04-18T08:45:32.102Z</time></trkpt><trkpt lat="41.1057967" lon="14.4383083"><ele>71.0</ele><time>2026-04-18T08:45:33.102Z</time></trkpt><trkpt lat="41.1056733" lon="14.4381167"><ele>72.66666666666667</ele><time>2026-04-18T08:45:34.102Z</time></trkpt><trkpt lat="41.1055483" lon="14.43793"><ele>74.33333333333333</ele><time>2026-04-18T08:45:35.103Z</time></trkpt><trkpt lat="41.1054083" lon="14.4377433"><ele>76.0</ele><time>2026-04-18T08:45:36.102Z</time></trkpt><trkpt lat="41.1052883" lon="14.4375567"><ele>76.0</ele><time>2026-04-18T08:45:37.102Z</time></trkpt><trkpt lat="41.1051467" lon="14.43739"><ele>76.0</ele><time>2026-04-18T08:45:38.103Z</time></trkpt><trkpt lat="41.1049983" lon="14.437235"><ele>76.0</ele><time>2026-04-18T08:45:39.102Z</time></trkpt><trkpt lat="41.1048567" lon="14.437085"><ele>76.0</ele><time>2026-04-18T08:45:40.102Z</time></trkpt><trkpt lat="41.10471" lon="14.436935"><ele>76.0</ele><time>2026-04-18T08:45:41.102Z</time></trkpt><trkpt lat="41.1045583" lon="14.4367833"><ele>76.0</ele><time>2026-04-18T08:45:42.102Z</time></trkpt><trkpt lat="41.1044033" lon="14.436625"><ele>76.0</ele><time>2026-04-18T08:45:43.102Z</time></trkpt><trkpt lat="41.1042467" lon="14.4364717"><ele>76.0</ele><time>2026-04-18T08:45:44.102Z</time></trkpt><trkpt lat="41.1040867" lon="14.4363183"><ele>76.0</ele><time>2026-04-18T08:45:45.102Z</time></trkpt><trkpt lat="41.1039383" lon="14.4361583"><ele>76.0</ele><time>2026-04-18T08:45:46.102Z</time></trkpt><trkpt lat="41.10379" lon="14.4359967"><ele>76.0</ele><time>2026-04-18T08:45:47.102Z</time></trkpt><trkpt lat="41.1036567" lon="14.4358333"><ele>76.0</ele><time>2026-04-18T08:45:48.102Z</time></trkpt><trkpt lat="41.1035233" lon="14.435685"><ele>76.0</ele><time>2026-04-18T08:45:49.102Z</time></trkpt><trkpt lat="41.1033967" lon="14.4355317"><ele>76.0</ele><time>2026-04-18T08:45:50.102Z</time></trkpt><trkpt lat="41.1032717" lon="14.43539"><ele>76.0</ele><time>2026-04-18T08:45:51.102Z</time></trkpt><trkpt lat="41.1031583" lon="14.43525"><ele>75.0</ele><time>2026-04-18T08:45:52.102Z</time></trkpt><trkpt lat="41.1030233" lon="14.435115"><ele>74.0</ele><time>2026-04-18T08:45:53.102Z</time></trkpt><trkpt lat="41.1028833" lon="14.4349917"><ele>73.0</ele><time>2026-04-18T08:45:54.102Z</time></trkpt><trkpt lat="41.102745" lon="14.4348883"><ele>73.0</ele><time>2026-04-18T08:45:55.102Z</time></trkpt><trkpt lat="41.1026167" lon="14.434805"><ele>73.0</ele><time>2026-04-18T08:45:56.102Z</time></trkpt><trkpt lat="41.1025033" lon="14.43474"><ele>73.0</ele><time>2026-04-18T08:45:57.102Z</time></trkpt><trkpt lat="41.1024033" lon="14.4346883"><ele>73.0</ele><time>2026-04-18T08:45:58.102Z</time></trkpt><trkpt lat="41.1023167" lon="14.434645"><ele>73.8</ele><time>2026-04-18T08:45:59.103Z</time></trkpt><trkpt lat="41.1022433" lon="14.4346083"><ele>74.6</ele><time>2026-04-18T08:46:00.102Z</time></trkpt><trkpt lat="41.1021767" lon="14.43458"><ele>75.4</ele><time>2026-04-18T08:46:01.102Z</time></trkpt><trkpt lat="41.1020783" lon="14.43455"><ele>76.2</ele><time>2026-04-18T08:46:03.102Z</time></trkpt><trkpt lat="41.1019667" lon="14.4345517"><ele>77.0</ele><time>2026-04-18T08:46:45.102Z</time></trkpt><trkpt lat="41.1018367" lon="14.4345433"><ele>77.0</ele><time>2026-04-18T08:46:47.102Z</time></trkpt><trkpt lat="41.101745" lon="14.43453"><ele>77.0</ele><time>2026-04-18T08:46:48.102Z</time></trkpt><trkpt lat="41.1016383" lon="14.4345117"><ele>77.0</ele><time>2026-04-18T08:46:49.102Z</time></trkpt><trkpt lat="41.10153" lon="14.43449"><ele>77.0</ele><time>2026-04-18T08:46:50.102Z</time></trkpt><trkpt lat="41.1014167" lon="14.4344683"><ele>77.0</ele><time>2026-04-18T08:46:51.102Z</time></trkpt><trkpt lat="41.1012967" lon="14.43444"><ele>77.4</ele><time>2026-04-18T08:46:52.102Z</time></trkpt><trkpt lat="41.10118" lon="14.4344033"><ele>77.80000000000001</ele><time>2026-04-18T08:46:53.102Z</time></trkpt><trkpt lat="41.101075" lon="14.4343717"><ele>78.2</ele><time>2026-04-18T08:46:54.102Z</time></trkpt><trkpt lat="41.1009817" lon="14.4343583"><ele>78.60000000000001</ele><time>2026-04-18T08:46:55.102Z</time></trkpt><trkpt lat="41.100895" lon="14.4343867"><ele>79.0</ele><time>2026-04-18T08:46:56.102Z</time></trkpt><trkpt lat="41.1008083" lon="14.4344217"><ele>78.60000000000001</ele><time>2026-04-18T08:46:57.102Z</time></trkpt><trkpt lat="41.100735" lon="14.4344267"><ele>78.2</ele><time>2026-04-18T08:46:58.102Z</time></trkpt><trkpt lat="41.10065" lon="14.4344017"><ele>77.80000000000001</ele><time>2026-04-18T08:46:59.102Z</time></trkpt><trkpt lat="41.1005567" lon="14.4343667"><ele>77.4</ele><time>2026-04-18T08:47:00.102Z</time></trkpt><trkpt lat="41.100455" lon="14.4343233"><ele>77.0</ele><time>2026-04-18T08:47:01.102Z</time></trkpt><trkpt lat="41.1003533" lon="14.4342883"><ele>77.0</ele><time>2026-04-18T08:47:02.102Z</time></trkpt><trkpt lat="41.1002683" lon="14.4342517"><ele>77.0</ele><time>2026-04-18T08:47:03.102Z</time></trkpt><trkpt lat="41.100165" lon="14.4342183"><ele>77.0</ele><time>2026-04-18T08:47:04.102Z</time></trkpt><trkpt lat="41.1000683" lon="14.4341933"><ele>77.0</ele><time>2026-04-18T08:47:05.102Z</time></trkpt><trkpt lat="41.0999717" lon="14.43417"><ele>77.0</ele><time>2026-04-18T08:47:06.102Z</time></trkpt><trkpt lat="41.0998733" lon="14.4341433"><ele>76.25</ele><time>2026-04-18T08:47:07.103Z</time></trkpt><trkpt lat="41.09976" lon="14.434145"><ele>75.5</ele><time>2026-04-18T08:47:08.102Z</time></trkpt><trkpt lat="41.0996433" lon="14.4341433"><ele>74.75</ele><time>2026-04-18T08:47:09.103Z</time></trkpt><trkpt lat="41.09953" lon="14.4341367"><ele>74.0</ele><time>2026-04-18T08:47:10.102Z</time></trkpt><trkpt lat="41.0994167" lon="14.4341217"><ele>74.0</ele><time>2026-04-18T08:47:11.102Z</time></trkpt><trkpt lat="41.0993067" lon="14.4341033"><ele>74.0</ele><time>2026-04-18T08:47:12.102Z</time></trkpt><trkpt lat="41.0991967" lon="14.4340783"><ele>74.0</ele><time>2026-04-18T08:47:13.102Z</time></trkpt><trkpt lat="41.099085" lon="14.4340483"><ele>74.0</ele><time>2026-04-18T08:47:14.102Z</time></trkpt><trkpt lat="41.0989733" lon="14.4340267"><ele>74.0</ele><time>2026-04-18T08:47:15.102Z</time></trkpt><trkpt lat="41.0988617" lon="14.4340017"><ele>74.60000000000001</ele><time>2026-04-18T08:47:16.102Z</time></trkpt><trkpt lat="41.0987533" lon="14.4339767"><ele>75.2</ele><time>2026-04-18T08:47:17.102Z</time></trkpt><trkpt lat="41.0986467" lon="14.4339567"><ele>75.80000000000001</ele><time>2026-04-18T08:47:18.102Z</time></trkpt><trkpt lat="41.0985367" lon="14.433945"><ele>76.4</ele><time>2026-04-18T08:47:19.102Z</time></trkpt><trkpt lat="41.09843" lon="14.43393"><ele>77.0</ele><time>2026-04-18T08:47:20.102Z</time></trkpt><trkpt lat="41.0983233" lon="14.4339183"><ele>77.75</ele><time>2026-04-18T08:47:21.102Z</time></trkpt><trkpt lat="41.0982133" lon="14.433895"><ele>78.5</ele><time>2026-04-18T08:47:22.102Z</time></trkpt><trkpt lat="41.0981" lon="14.43387"><ele>79.25</ele><time>2026-04-18T08:47:23.103Z</time></trkpt><trkpt lat="41.09798" lon="14.43384"><ele>80.0</ele><time>2026-04-18T08:47:24.102Z</time></trkpt><trkpt lat="41.0978583" lon="14.4338167"><ele>80.25</ele><time>2026-04-18T08:47:25.102Z</time></trkpt><trkpt lat="41.0977383" lon="14.43379"><ele>80.5</ele><time>2026-04-18T08:47:26.102Z</time></trkpt><trkpt lat="41.09761" lon="14.4337717"><ele>80.75</ele><time>2026-04-18T08:47:27.102Z</time></trkpt><trkpt lat="41.09748" lon="14.43375"><ele>81.0</ele><time>2026-04-18T08:47:28.102Z</time></trkpt><trkpt lat="41.09735" lon="14.4337267"><ele>81.5</ele><time>2026-04-18T08:47:29.102Z</time></trkpt><trkpt lat="41.0972217" lon="14.433705"><ele>82.0</ele><time>2026-04-18T08:47:30.102Z</time></trkpt><trkpt lat="41.0970883" lon="14.433675"><ele>82.5</ele><time>2026-04-18T08:47:31.102Z</time></trkpt><trkpt lat="41.09695" lon="14.4336483"><ele>83.0</ele><time>2026-04-18T08:47:32.103Z</time></trkpt><trkpt lat="41.0968067" lon="14.4336233"><ele>83.0</ele><time>2026-04-18T08:47:33.102Z</time></trkpt><trkpt lat="41.0966567" lon="14.4335933"><ele>83.0</ele><time>2026-04-18T08:47:34.102Z</time></trkpt><trkpt lat="41.09651" lon="14.433565"><ele>83.0</ele><time>2026-04-18T08:47:35.102Z</time></trkpt><trkpt lat="41.0963683" lon="14.4335317"><ele>83.0</ele><time>2026-04-18T08:47:36.102Z</time></trkpt><trkpt lat="41.0962217" lon="14.4335017"><ele>83.25</ele><time>2026-04-18T08:47:37.102Z</time></trkpt><trkpt lat="41.096075" lon="14.4334733"><ele>83.5</ele><time>2026-04-18T08:47:38.102Z</time></trkpt><trkpt lat="41.0959317" lon="14.4334483"><ele>83.75</ele><time>2026-04-18T08:47:39.102Z</time></trkpt><trkpt lat="41.0957917" lon="14.4334233"><ele>84.0</ele><time>2026-04-18T08:47:40.102Z</time></trkpt><trkpt lat="41.095645" lon="14.433395"><ele>85.0</ele><time>2026-04-18T08:47:41.102Z</time></trkpt><trkpt lat="41.0954967" lon="14.4333583"><ele>86.0</ele><time>2026-04-18T08:47:42.102Z</time></trkpt><trkpt lat="41.0953433" lon="14.43333"><ele>87.0</ele><time>2026-04-18T08:47:43.103Z</time></trkpt><trkpt lat="41.0951917" lon="14.4332967"><ele>87.0</ele><time>2026-04-18T08:47:44.102Z</time></trkpt><trkpt lat="41.0950333" lon="14.433275"><ele>87.0</ele><time>2026-04-18T08:47:45.102Z</time></trkpt><trkpt lat="41.0948767" lon="14.4332533"><ele>87.0</ele><time>2026-04-18T08:47:46.102Z</time></trkpt><trkpt lat="41.09472" lon="14.4332317"><ele>86.66666666666667</ele><time>2026-04-18T08:47:47.102Z</time></trkpt><trkpt lat="41.0945567" lon="14.4331967"><ele>86.33333333333334</ele><time>2026-04-18T08:47:48.102Z</time></trkpt><trkpt lat="41.094395" lon="14.433155"><ele>86.0</ele><time>2026-04-18T08:47:49.102Z</time></trkpt><trkpt lat="41.0942367" lon="14.4331083"><ele>85.0</ele><time>2026-04-18T08:47:50.102Z</time></trkpt><trkpt lat="41.0940733" lon="14.4330583"><ele>84.0</ele><time>2026-04-18T08:47:51.102Z</time></trkpt><trkpt lat="41.0939167" lon="14.4329983"><ele>83.0</ele><time>2026-04-18T08:47:52.102Z</time></trkpt><trkpt lat="41.0937533" lon="14.4329283"><ele>85.33333333333334</ele><time>2026-04-18T08:47:53.102Z</time></trkpt><trkpt lat="41.0935917" lon="14.4328633"><ele>87.66666666666667</ele><time>2026-04-18T08:47:54.102Z</time></trkpt><trkpt lat="41.0934267" lon="14.4327917"><ele>90.0</ele><time>2026-04-18T08:47:55.102Z</time></trkpt><trkpt lat="41.0932683" lon="14.4327133"><ele>89.66666666666667</ele><time>2026-04-18T08:47:56.102Z</time></trkpt><trkpt lat="41.0931033" lon="14.43263"><ele>89.33333333333334</ele><time>2026-04-18T08:47:57.102Z</time></trkpt><trkpt lat="41.092945" lon="14.4325417"><ele>89.0</ele><time>2026-04-18T08:47:58.102Z</time></trkpt><trkpt lat="41.0927817" lon="14.432455"><ele>89.0</ele><time>2026-04-18T08:47:59.102Z</time></trkpt><trkpt lat="41.092615" lon="14.4323633"><ele>89.0</ele><time>2026-04-18T08:48:00.102Z</time></trkpt><trkpt lat="41.0924433" lon="14.4322667"><ele>89.0</ele><time>2026-04-18T08:48:01.102Z</time></trkpt><trkpt lat="41.09228" lon="14.4321567"><ele>90.33333333333334</ele><time>2026-04-18T08:48:02.102Z</time></trkpt><trkpt lat="41.092125" lon="14.43204"><ele>91.66666666666667</ele><time>2026-04-18T08:48:03.102Z</time></trkpt><trkpt lat="41.09196" lon="14.43193"><ele>93.0</ele><time>2026-04-18T08:48:04.102Z</time></trkpt><trkpt lat="41.0917983" lon="14.43182"><ele>93.0</ele><time>2026-04-18T08:48:05.102Z</time></trkpt><trkpt lat="41.0916383" lon="14.431715"><ele>93.0</ele><time>2026-04-18T08:48:06.102Z</time></trkpt><trkpt lat="41.0914733" lon="14.4316133"><ele>93.0</ele><time>2026-04-18T08:48:07.102Z</time></trkpt><trkpt lat="41.0913133" lon="14.4315067"><ele>93.66666666666667</ele><time>2026-04-18T08:48:08.102Z</time></trkpt><trkpt lat="41.091145" lon="14.431405"><ele>94.33333333333334</ele><time>2026-04-18T08:48:09.102Z</time></trkpt><trkpt lat="41.0909883" lon="14.4312883"><ele>95.0</ele><time>2026-04-18T08:48:10.102Z</time></trkpt><trkpt lat="41.0908333" lon="14.4311767"><ele>95.66666666666667</ele><time>2026-04-18T08:48:11.102Z</time></trkpt><trkpt lat="41.090675" lon="14.431065"><ele>96.33333333333334</ele><time>2026-04-18T08:48:12.102Z</time></trkpt><trkpt lat="41.0905133" lon="14.4309517"><ele>97.0</ele><time>2026-04-18T08:48:13.102Z</time></trkpt><trkpt lat="41.0903583" lon="14.43084"><ele>97.0</ele><time>2026-04-18T08:48:14.103Z</time></trkpt><trkpt lat="41.0902" lon="14.4307283"><ele>97.0</ele><time>2026-04-18T08:48:15.102Z</time></trkpt><trkpt lat="41.0900433" lon="14.4306217"><ele>97.0</ele><time>2026-04-18T08:48:16.102Z</time></trkpt><trkpt lat="41.089885" lon="14.4305233"><ele>97.66666666666667</ele><time>2026-04-18T08:48:17.102Z</time></trkpt><trkpt lat="41.0897333" lon="14.4304183"><ele>98.33333333333334</ele><time>2026-04-18T08:48:18.102Z</time></trkpt><trkpt lat="41.08959" lon="14.4303117"><ele>99.0</ele><time>2026-04-18T08:48:19.102Z</time></trkpt><trkpt lat="41.0894417" lon="14.4302033"><ele>99.0</ele><time>2026-04-18T08:48:20.102Z</time></trkpt><trkpt lat="41.0892928" lon="14.4300958"><ele>99.0</ele><time>2026-04-18T08:48:21.102Z</time></trkpt><trkpt lat="41.0891429" lon="14.4299869"><ele>99.0</ele><time>2026-04-18T08:48:22.102Z</time></trkpt><trkpt lat="41.0889957" lon="14.4298741"><ele>98.66666666666666</ele><time>2026-04-18T08:48:23.102Z</time></trkpt><trkpt lat="41.0888538" lon="14.4297621"><ele>98.33333333333333</ele><time>2026-04-18T08:48:24.102Z</time></trkpt><trkpt lat="41.0887221" lon="14.4296505"><ele>98.0</ele><time>2026-04-18T08:48:25.102Z</time></trkpt><trkpt lat="41.0886002" lon="14.4295377"><ele>98.0</ele><time>2026-04-18T08:48:26.102Z</time></trkpt><trkpt lat="41.0884857" lon="14.4294251"><ele>98.0</ele><time>2026-04-18T08:48:27.102Z</time></trkpt><trkpt lat="41.0883804" lon="14.4293018"><ele>98.0</ele><time>2026-04-18T08:48:28.102Z</time></trkpt><trkpt lat="41.0882804" lon="14.4291705"><ele>98.0</ele><time>2026-04-18T08:48:29.102Z</time></trkpt><trkpt lat="41.0881845" lon="14.4290369"><ele>98.0</ele><time>2026-04-18T08:48:30.102Z</time></trkpt><trkpt lat="41.0880838" lon="14.4288955"><ele>98.0</ele><time>2026-04-18T08:48:31.102Z</time></trkpt><trkpt lat="41.0879797" lon="14.4287379"><ele>98.0</ele><time>2026-04-18T08:48:32.102Z</time></trkpt><trkpt lat="41.0878776" lon="14.428581"><ele>98.0</ele><time>2026-04-18T08:48:33.102Z</time></trkpt><trkpt lat="41.087768" lon="14.4284276"><ele>98.0</ele><time>2026-04-18T08:48:34.102Z</time></trkpt><trkpt lat="41.0876529" lon="14.4282755"><ele>98.0</ele><time>2026-04-18T08:48:35.102Z</time></trkpt><trkpt lat="41.0875354" lon="14.4281206"><ele>97.66666666666666</ele><time>2026-04-18T08:48:36.102Z</time></trkpt><trkpt lat="41.0874118" lon="14.4279671"><ele>97.33333333333334</ele><time>2026-04-18T08:48:37.102Z</time></trkpt><trkpt lat="41.0872761" lon="14.427817"><ele>97.0</ele><time>2026-04-18T08:48:38.102Z</time></trkpt><trkpt lat="41.0871388" lon="14.4276691"><ele>97.0</ele><time>2026-04-18T08:48:39.102Z</time></trkpt><trkpt lat="41.0869955" lon="14.4275268"><ele>97.0</ele><time>2026-04-18T08:48:40.102Z</time></trkpt><trkpt lat="41.0868467" lon="14.4273946"><ele>97.0</ele><time>2026-04-18T08:48:41.102Z</time></trkpt><trkpt lat="41.086687" lon="14.4272784"><ele>96.66666666666667</ele><time>2026-04-18T08:48:42.102Z</time></trkpt><trkpt lat="41.0865168" lon="14.4271724"><ele>96.33333333333334</ele><time>2026-04-18T08:48:43.102Z</time></trkpt><trkpt lat="41.0863341" lon="14.4270682"><ele>96.0</ele><time>2026-04-18T08:48:44.103Z</time></trkpt><trkpt lat="41.0861412" lon="14.4269607"><ele>96.66666666666666</ele><time>2026-04-18T08:48:45.102Z</time></trkpt><trkpt lat="41.0859547" lon="14.4268501"><ele>97.33333333333333</ele><time>2026-04-18T08:48:46.103Z</time></trkpt><trkpt lat="41.085769" lon="14.4267419"><ele>98.0</ele><time>2026-04-18T08:48:47.103Z</time></trkpt><trkpt lat="41.0855855" lon="14.4266319"><ele>98.0</ele><time>2026-04-18T08:48:48.102Z</time></trkpt><trkpt lat="41.0853959" lon="14.4265263"><ele>98.0</ele><time>2026-04-18T08:48:49.102Z</time></trkpt><trkpt lat="41.0852075" lon="14.4264143"><ele>98.0</ele><time>2026-04-18T08:48:50.102Z</time></trkpt><trkpt lat="41.0850202" lon="14.4263035"><ele>99.0</ele><time>2026-04-18T08:48:51.102Z</time></trkpt><trkpt lat="41.0848321" lon="14.4261932"><ele>100.0</ele><time>2026-04-18T08:48:52.102Z</time></trkpt><trkpt lat="41.0846463" lon="14.426082"><ele>101.0</ele><time>2026-04-18T08:48:53.102Z</time></trkpt><trkpt lat="41.0844613" lon="14.4259682"><ele>101.0</ele><time>2026-04-18T08:48:54.102Z</time></trkpt><trkpt lat="41.0842788" lon="14.4258565"><ele>101.0</ele><time>2026-04-18T08:48:55.102Z</time></trkpt><trkpt lat="41.0840946" lon="14.4257501"><ele>101.0</ele><time>2026-04-18T08:48:56.102Z</time></trkpt><trkpt lat="41.0839154" lon="14.4256431"><ele>101.33333333333333</ele><time>2026-04-18T08:48:57.102Z</time></trkpt><trkpt lat="41.08374" lon="14.4255397"><ele>101.66666666666666</ele><time>2026-04-18T08:48:58.102Z</time></trkpt><trkpt lat="41.0835653" lon="14.4254383"><ele>102.0</ele><time>2026-04-18T08:48:59.102Z</time></trkpt><trkpt lat="41.083398" lon="14.4253349"><ele>102.0</ele><time>2026-04-18T08:49:00.102Z</time></trkpt><trkpt lat="41.0832347" lon="14.4252358"><ele>102.0</ele><time>2026-04-18T08:49:01.102Z</time></trkpt><trkpt lat="41.0830799" lon="14.4251419"><ele>102.0</ele><time>2026-04-18T08:49:02.102Z</time></trkpt><trkpt lat="41.0829404" lon="14.4250493"><ele>102.0</ele><time>2026-04-18T08:49:03.102Z</time></trkpt><trkpt lat="41.0828167" lon="14.4249583"><ele>102.0</ele><time>2026-04-18T08:49:04.102Z</time></trkpt><trkpt lat="41.0827037" lon="14.4248622"><ele>102.0</ele><time>2026-04-18T08:49:05.102Z</time></trkpt><trkpt lat="41.0826041" lon="14.4247503"><ele>102.0</ele><time>2026-04-18T08:49:06.102Z</time></trkpt><trkpt lat="41.0825091" lon="14.4246264"><ele>102.5</ele><time>2026-04-18T08:49:07.102Z</time></trkpt><trkpt lat="41.0824108" lon="14.4244916"><ele>103.0</ele><time>2026-04-18T08:49:08.102Z</time></trkpt><trkpt lat="41.0823115" lon="14.4243522"><ele>103.5</ele><time>2026-04-18T08:49:09.102Z</time></trkpt><trkpt lat="41.0822068" lon="14.4242061"><ele>104.0</ele><time>2026-04-18T08:49:10.102Z</time></trkpt><trkpt lat="41.0821026" lon="14.424056"><ele>104.0</ele><time>2026-04-18T08:49:11.102Z</time></trkpt><trkpt lat="41.0819999" lon="14.423904"><ele>104.0</ele><time>2026-04-18T08:49:12.102Z</time></trkpt><trkpt lat="41.0818905" lon="14.4237471"><ele>104.0</ele><time>2026-04-18T08:49:13.102Z</time></trkpt><trkpt lat="41.0817854" lon="14.4235797"><ele>104.33333333333333</ele><time>2026-04-18T08:49:14.102Z</time></trkpt><trkpt lat="41.0816825" lon="14.4234036"><ele>104.66666666666666</ele><time>2026-04-18T08:49:15.102Z</time></trkpt><trkpt lat="41.0815753" lon="14.4232232"><ele>105.0</ele><time>2026-04-18T08:49:16.102Z</time></trkpt><trkpt lat="41.0814672" lon="14.4230414"><ele>106.33333333333334</ele><time>2026-04-18T08:49:17.102Z</time></trkpt><trkpt lat="41.0813589" lon="14.4228508"><ele>107.66666666666667</ele><time>2026-04-18T08:49:18.102Z</time></trkpt><trkpt lat="41.0812539" lon="14.4226558"><ele>109.0</ele><time>2026-04-18T08:49:19.103Z</time></trkpt><trkpt lat="41.0811424" lon="14.4224622"><ele>109.0</ele><time>2026-04-18T08:49:20.102Z</time></trkpt><trkpt lat="41.0810328" lon="14.4222645"><ele>109.0</ele><time>2026-04-18T08:49:21.102Z</time></trkpt><trkpt lat="41.080932" lon="14.4220705"><ele>109.0</ele><time>2026-04-18T08:49:22.102Z</time></trkpt><trkpt lat="41.0808346" lon="14.421886"><ele>109.33333333333334</ele><time>2026-04-18T08:49:23.102Z</time></trkpt><trkpt lat="41.0807474" lon="14.4217197"><ele>109.66666666666666</ele><time>2026-04-18T08:49:24.102Z</time></trkpt><trkpt lat="41.0806538" lon="14.421559"><ele>110.0</ele><time>2026-04-18T08:49:25.102Z</time></trkpt><trkpt lat="41.0805619" lon="14.4214056"><ele>110.5</ele><time>2026-04-18T08:49:26.102Z</time></trkpt><trkpt lat="41.0804649" lon="14.421268"><ele>111.0</ele><time>2026-04-18T08:49:27.102Z</time></trkpt><trkpt lat="41.0803752" lon="14.4211432"><ele>111.5</ele><time>2026-04-18T08:49:28.102Z</time></trkpt><trkpt lat="41.0802902" lon="14.4210222"><ele>112.0</ele><time>2026-04-18T08:49:29.102Z</time></trkpt><trkpt lat="41.0802172" lon="14.4209077"><ele>112.0</ele><time>2026-04-18T08:49:30.102Z</time></trkpt><trkpt lat="41.0801511" lon="14.4207921"><ele>111.99999999999999</ele><time>2026-04-18T08:49:31.102Z</time></trkpt><trkpt lat="41.0800955" lon="14.4206633"><ele>111.99999999999999</ele><time>2026-04-18T08:49:32.102Z</time></trkpt><trkpt lat="41.0800388" lon="14.4205393"><ele>112.0</ele><time>2026-04-18T08:49:33.103Z</time></trkpt><trkpt lat="41.0799769" lon="14.4204046"><ele>112.0</ele><time>2026-04-18T08:49:34.102Z</time></trkpt><trkpt lat="41.0798944" lon="14.4202706"><ele>112.5</ele><time>2026-04-18T08:49:35.103Z</time></trkpt><trkpt lat="41.0798062" lon="14.4201365"><ele>113.0</ele><time>2026-04-18T08:49:36.102Z</time></trkpt><trkpt lat="41.0797111" lon="14.4199983"><ele>113.5</ele><time>2026-04-18T08:49:37.102Z</time></trkpt><trkpt lat="41.0796208" lon="14.4198505"><ele>114.0</ele><time>2026-04-18T08:49:38.102Z</time></trkpt><trkpt lat="41.0795369" lon="14.4197078"><ele>114.75</ele><time>2026-04-18T08:49:39.102Z</time></trkpt><trkpt lat="41.0794498" lon="14.4195673"><ele>115.5</ele><time>2026-04-18T08:49:40.102Z</time></trkpt><trkpt lat="41.0793627" lon="14.4194285"><ele>116.25</ele><time>2026-04-18T08:49:41.102Z</time></trkpt><trkpt lat="41.0792742" lon="14.4192924"><ele>117.0</ele><time>2026-04-18T08:49:42.102Z</time></trkpt><trkpt lat="41.0791864" lon="14.419155"><ele>116.75</ele><time>2026-04-18T08:49:43.102Z</time></trkpt><trkpt lat="41.0790949" lon="14.4190183"><ele>116.5</ele><time>2026-04-18T08:49:44.102Z</time></trkpt><trkpt lat="41.0790014" lon="14.4188782"><ele>116.25</ele><time>2026-04-18T08:49:45.102Z</time></trkpt><trkpt lat="41.0789074" lon="14.4187407"><ele>116.0</ele><time>2026-04-18T08:49:46.102Z</time></trkpt><trkpt lat="41.0788089" lon="14.4186078"><ele>117.0</ele><time>2026-04-18T08:49:47.102Z</time></trkpt><trkpt lat="41.0787105" lon="14.4184833"><ele>118.0</ele><time>2026-04-18T08:49:48.102Z</time></trkpt><trkpt lat="41.0786152" lon="14.4183638"><ele>119.0</ele><time>2026-04-18T08:49:49.102Z</time></trkpt><trkpt lat="41.0785267" lon="14.4182617"><ele>120.0</ele><time>2026-04-18T08:49:50.102Z</time></trkpt><trkpt lat="41.078445" lon="14.41817"><ele>120.0</ele><time>2026-04-18T08:49:51.102Z</time></trkpt><trkpt lat="41.0783733" lon="14.418085"><ele>120.0</ele><time>2026-04-18T08:49:52.102Z</time></trkpt><trkpt lat="41.0782917" lon="14.418015"><ele>120.0</ele><time>2026-04-18T08:49:53.102Z</time></trkpt><trkpt lat="41.0782" lon="14.4179467"><ele>120.0</ele><time>2026-04-18T08:49:54.102Z</time></trkpt><trkpt lat="41.0781083" lon="14.4178833"><ele>120.0</ele><time>2026-04-18T08:49:55.102Z</time></trkpt><trkpt lat="41.0780283" lon="14.4178217"><ele>120.33333333333333</ele><time>2026-04-18T08:49:56.102Z</time></trkpt><trkpt lat="41.0779533" lon="14.417765"><ele>120.66666666666666</ele><time>2026-04-18T08:49:57.102Z</time></trkpt><trkpt lat="41.0778867" lon="14.4177033"><ele>121.0</ele><time>2026-04-18T08:49:58.102Z</time></trkpt><trkpt lat="41.0778233" lon="14.4176517"><ele>121.33333333333333</ele><time>2026-04-18T08:49:59.102Z</time></trkpt><trkpt lat="41.077765" lon="14.41761"><ele>121.66666666666666</ele><time>2026-04-18T08:50:00.103Z</time></trkpt><trkpt lat="41.0776633" lon="14.4175333"><ele>122.0</ele><time>2026-04-18T08:50:02.103Z</time></trkpt><trkpt lat="41.07761" lon="14.4174867"><ele>121.99999999999999</ele><time>2026-04-18T08:50:03.102Z</time></trkpt><trkpt lat="41.07755" lon="14.4174383"><ele>122.0</ele><time>2026-04-18T08:50:04.102Z</time></trkpt><trkpt lat="41.077485" lon="14.4173817"><ele>122.0</ele><time>2026-04-18T08:50:05.102Z</time></trkpt><trkpt lat="41.07741" lon="14.4173217"><ele>122.0</ele><time>2026-04-18T08:50:06.102Z</time></trkpt><trkpt lat="41.0773267" lon="14.4172517"><ele>121.99999999999999</ele><time>2026-04-18T08:50:07.102Z</time></trkpt><trkpt lat="41.0772333" lon="14.41718"><ele>122.0</ele><time>2026-04-18T08:50:08.102Z</time></trkpt><trkpt lat="41.07714" lon="14.417105"><ele>122.25</ele><time>2026-04-18T08:50:09.102Z</time></trkpt><trkpt lat="41.0770333" lon="14.4170083"><ele>122.5</ele><time>2026-04-18T08:50:10.102Z</time></trkpt><trkpt lat="41.076925" lon="14.4169017"><ele>122.75</ele><time>2026-04-18T08:50:11.102Z</time></trkpt><trkpt lat="41.0768217" lon="14.41679"><ele>123.0</ele><time>2026-04-18T08:50:12.102Z</time></trkpt><trkpt lat="41.0767033" lon="14.416685"><ele>123.75</ele><time>2026-04-18T08:50:13.102Z</time></trkpt><trkpt lat="41.076585" lon="14.4165783"><ele>124.5</ele><time>2026-04-18T08:50:14.102Z</time></trkpt><trkpt lat="41.0764667" lon="14.4164717"><ele>125.25</ele><time>2026-04-18T08:50:15.102Z</time></trkpt><trkpt lat="41.076335" lon="14.4163733"><ele>126.0</ele><time>2026-04-18T08:50:16.102Z</time></trkpt><trkpt lat="41.0762117" lon="14.4162783"><ele>126.75</ele><time>2026-04-18T08:50:17.102Z</time></trkpt><trkpt lat="41.0760883" lon="14.4161867"><ele>127.5</ele><time>2026-04-18T08:50:18.102Z</time></trkpt><trkpt lat="41.0759817" lon="14.416095"><ele>128.25</ele><time>2026-04-18T08:50:19.102Z</time></trkpt><trkpt lat="41.0758783" lon="14.4160067"><ele>129.0</ele><time>2026-04-18T08:50:20.102Z</time></trkpt><trkpt lat="41.0757733" lon="14.4159183"><ele>129.0</ele><time>2026-04-18T08:50:21.102Z</time></trkpt><trkpt lat="41.0756683" lon="14.4158367"><ele>129.0</ele><time>2026-04-18T08:50:22.102Z</time></trkpt><trkpt lat="41.0755667" lon="14.41575"><ele>129.0</ele><time>2026-04-18T08:50:23.102Z</time></trkpt><trkpt lat="41.0754617" lon="14.4156683"><ele>129.0</ele><time>2026-04-18T08:50:24.102Z</time></trkpt><trkpt lat="41.0753617" lon="14.4155867"><ele>129.0</ele><time>2026-04-18T08:50:25.102Z</time></trkpt><trkpt lat="41.0752667" lon="14.4155133"><ele>129.0</ele><time>2026-04-18T08:50:26.102Z</time></trkpt><trkpt lat="41.0751717" lon="14.415445"><ele>129.0</ele><time>2026-04-18T08:50:27.102Z</time></trkpt><trkpt lat="41.075085" lon="14.415365"><ele>129.0</ele><time>2026-04-18T08:50:28.102Z</time></trkpt><trkpt lat="41.07499" lon="14.4152883"><ele>129.0</ele><time>2026-04-18T08:50:29.103Z</time></trkpt><trkpt lat="41.0749" lon="14.4152133"><ele>129.16666666666666</ele><time>2026-04-18T08:50:30.102Z</time></trkpt><trkpt lat="41.0748133" lon="14.4151433"><ele>129.33333333333334</ele><time>2026-04-18T08:50:31.102Z</time></trkpt><trkpt lat="41.0747317" lon="14.4150783"><ele>129.5</ele><time>2026-04-18T08:50:32.102Z</time></trkpt><trkpt lat="41.07466" lon="14.4150233"><ele>129.66666666666669</ele><time>2026-04-18T08:50:33.102Z</time></trkpt><trkpt lat="41.0746" lon="14.414975"><ele>129.83333333333334</ele><time>2026-04-18T08:50:34.102Z</time></trkpt><trkpt lat="41.0745283" lon="14.4148883"><ele>130.0</ele><time>2026-04-18T08:50:36.102Z</time></trkpt><trkpt lat="41.0744983" lon="14.4147833"><ele>130.0</ele><time>2026-04-18T08:50:39.102Z</time></trkpt><trkpt lat="41.07449" lon="14.41469"><ele>130.0</ele><time>2026-04-18T08:50:42.102Z</time></trkpt><trkpt lat="41.0744333" lon="14.4146133"><ele>130.0</ele><time>2026-04-18T08:50:44.102Z</time></trkpt><trkpt lat="41.0743783" lon="14.4145667"><ele>130.0</ele><time>2026-04-18T08:50:45.102Z</time></trkpt><trkpt lat="41.0743067" lon="14.414515"><ele>130.0</ele><time>2026-04-18T08:50:46.102Z</time></trkpt><trkpt lat="41.0742217" lon="14.4144533"><ele>130.0</ele><time>2026-04-18T08:50:47.102Z</time></trkpt><trkpt lat="41.074125" lon="14.41438"><ele>130.0</ele><time>2026-04-18T08:50:48.102Z</time></trkpt><trkpt lat="41.0740267" lon="14.4143033"><ele>130.0</ele><time>2026-04-18T08:50:49.102Z</time></trkpt><trkpt lat="41.0739283" lon="14.4142283"><ele>130.0</ele><time>2026-04-18T08:50:50.102Z</time></trkpt><trkpt lat="41.0738333" lon="14.41415"><ele>130.0</ele><time>2026-04-18T08:50:51.102Z</time></trkpt><trkpt lat="41.07374" lon="14.4140617"><ele>130.0</ele><time>2026-04-18T08:50:52.102Z</time></trkpt><trkpt lat="41.0736483" lon="14.41397"><ele>130.0</ele><time>2026-04-18T08:50:53.102Z</time></trkpt><trkpt lat="41.073555" lon="14.41388"><ele>130.0</ele><time>2026-04-18T08:50:54.103Z</time></trkpt><trkpt lat="41.07347" lon="14.413785"><ele>130.0</ele><time>2026-04-18T08:50:55.103Z</time></trkpt><trkpt lat="41.0733883" lon="14.4136917"><ele>130.0</ele><time>2026-04-18T08:50:56.102Z</time></trkpt><trkpt lat="41.0733133" lon="14.413605"><ele>130.2</ele><time>2026-04-18T08:50:57.102Z</time></trkpt><trkpt lat="41.07324" lon="14.413525"><ele>130.4</ele><time>2026-04-18T08:50:58.102Z</time></trkpt><trkpt lat="41.0731683" lon="14.413445"><ele>130.6</ele><time>2026-04-18T08:50:59.102Z</time></trkpt><trkpt lat="41.0730983" lon="14.4133717"><ele>130.8</ele><time>2026-04-18T08:51:00.102Z</time></trkpt><trkpt lat="41.0730267" lon="14.4132967"><ele>131.0</ele><time>2026-04-18T08:51:01.102Z</time></trkpt><trkpt lat="41.0729483" lon="14.41322"><ele>131.0</ele><time>2026-04-18T08:51:02.102Z</time></trkpt><trkpt lat="41.072865" lon="14.41313"><ele>131.0</ele><time>2026-04-18T08:51:03.102Z</time></trkpt><trkpt lat="41.0727783" lon="14.4130317"><ele>131.0</ele><time>2026-04-18T08:51:04.102Z</time></trkpt><trkpt lat="41.072685" lon="14.412925"><ele>131.0</ele><time>2026-04-18T08:51:05.102Z</time></trkpt><trkpt lat="41.0725867" lon="14.4128083"><ele>131.5</ele><time>2026-04-18T08:51:06.102Z</time></trkpt><trkpt lat="41.0724783" lon="14.41269"><ele>132.0</ele><time>2026-04-18T08:51:07.102Z</time></trkpt><trkpt lat="41.0723667" lon="14.412565"><ele>132.5</ele><time>2026-04-18T08:51:08.102Z</time></trkpt><trkpt lat="41.0722567" lon="14.4124367"><ele>133.0</ele><time>2026-04-18T08:51:09.102Z</time></trkpt><trkpt lat="41.0721483" lon="14.412325"><ele>133.0</ele><time>2026-04-18T08:51:10.103Z</time></trkpt><trkpt lat="41.07205" lon="14.41222"><ele>133.0</ele><time>2026-04-18T08:51:11.102Z</time></trkpt><trkpt lat="41.071965" lon="14.4121233"><ele>133.0</ele><time>2026-04-18T08:51:12.102Z</time></trkpt><trkpt lat="41.0718933" lon="14.41204"><ele>133.0</ele><time>2026-04-18T08:51:13.102Z</time></trkpt><trkpt lat="41.0718233" lon="14.4119667"><ele>133.0</ele><time>2026-04-18T08:51:14.102Z</time></trkpt><trkpt lat="41.0717667" lon="14.4119033"><ele>133.33333333333334</ele><time>2026-04-18T08:51:15.102Z</time></trkpt><trkpt lat="41.0717167" lon="14.4118417"><ele>133.66666666666669</ele><time>2026-04-18T08:51:16.102Z</time></trkpt><trkpt lat="41.0716583" lon="14.4117883"><ele>134.0</ele><time>2026-04-18T08:51:17.102Z</time></trkpt><trkpt lat="41.0715933" lon="14.4117217"><ele>134.33333333333334</ele><time>2026-04-18T08:51:18.102Z</time></trkpt><trkpt lat="41.071515" lon="14.4116533"><ele>134.66666666666666</ele><time>2026-04-18T08:51:19.102Z</time></trkpt><trkpt lat="41.07143" lon="14.411575"><ele>135.0</ele><time>2026-04-18T08:51:20.102Z</time></trkpt><trkpt lat="41.0713367" lon="14.4115"><ele>135.0</ele><time>2026-04-18T08:51:21.102Z</time></trkpt><trkpt lat="41.071235" lon="14.4114183"><ele>135.0</ele><time>2026-04-18T08:51:22.102Z</time></trkpt><trkpt lat="41.0711283" lon="14.4113283"><ele>135.0</ele><time>2026-04-18T08:51:23.103Z</time></trkpt><trkpt lat="41.0710167" lon="14.4112433"><ele>135.0</ele><time>2026-04-18T08:51:24.102Z</time></trkpt><trkpt lat="41.0709" lon="14.4111583"><ele>135.0</ele><time>2026-04-18T08:51:25.102Z</time></trkpt><trkpt lat="41.0707783" lon="14.41106"><ele>135.0</ele><time>2026-04-18T08:51:26.102Z</time></trkpt><trkpt lat="41.07064" lon="14.410955"><ele>135.0</ele><time>2026-04-18T08:51:27.102Z</time></trkpt><trkpt lat="41.070495" lon="14.410845"><ele>135.0</ele><time>2026-04-18T08:51:28.102Z</time></trkpt><trkpt lat="41.0703517" lon="14.410735"><ele>135.0</ele><time>2026-04-18T08:51:29.102Z</time></trkpt><trkpt lat="41.0702067" lon="14.4106167"><ele>135.0</ele><time>2026-04-18T08:51:30.102Z</time></trkpt><trkpt lat="41.0700533" lon="14.4104917"><ele>135.66666666666666</ele><time>2026-04-18T08:51:31.102Z</time></trkpt><trkpt lat="41.0698967" lon="14.4103633"><ele>136.33333333333331</ele><time>2026-04-18T08:51:32.102Z</time></trkpt><trkpt lat="41.0697417" lon="14.41024"><ele>137.0</ele><time>2026-04-18T08:51:33.102Z</time></trkpt><trkpt lat="41.0695933" lon="14.4101167"><ele>137.0</ele><time>2026-04-18T08:51:34.102Z</time></trkpt><trkpt lat="41.0694483" lon="14.4100033"><ele>137.0</ele><time>2026-04-18T08:51:35.102Z</time></trkpt><trkpt lat="41.0693133" lon="14.4098917"><ele>137.0</ele><time>2026-04-18T08:51:36.103Z</time></trkpt><trkpt lat="41.0691783" lon="14.4097917"><ele>137.25</ele><time>2026-04-18T08:51:37.102Z</time></trkpt><trkpt lat="41.0690467" lon="14.4096933"><ele>137.5</ele><time>2026-04-18T08:51:38.102Z</time></trkpt><trkpt lat="41.068925" lon="14.409595"><ele>137.75</ele><time>2026-04-18T08:51:39.103Z</time></trkpt><trkpt lat="41.0688067" lon="14.409505"><ele>138.0</ele><time>2026-04-18T08:51:40.102Z</time></trkpt><trkpt lat="41.068685" lon="14.409415"><ele>138.5</ele><time>2026-04-18T08:51:41.102Z</time></trkpt><trkpt lat="41.06857" lon="14.409325"><ele>139.0</ele><time>2026-04-18T08:51:42.102Z</time></trkpt><trkpt lat="41.0684483" lon="14.4092317"><ele>139.5</ele><time>2026-04-18T08:51:43.102Z</time></trkpt><trkpt lat="41.0683233" lon="14.40913"><ele>140.0</ele><time>2026-04-18T08:51:44.102Z</time></trkpt><trkpt lat="41.068195" lon="14.4090233"><ele>140.0</ele><time>2026-04-18T08:51:45.102Z</time></trkpt><trkpt lat="41.0680583" lon="14.40892"><ele>140.0</ele><time>2026-04-18T08:51:46.102Z</time></trkpt><trkpt lat="41.0679267" lon="14.4088183"><ele>140.0</ele><time>2026-04-18T08:51:47.102Z</time></trkpt><trkpt lat="41.0678" lon="14.40871"><ele>140.25</ele><time>2026-04-18T08:51:48.102Z</time></trkpt><trkpt lat="41.067675" lon="14.40861"><ele>140.5</ele><time>2026-04-18T08:51:49.102Z</time></trkpt><trkpt lat="41.0675517" lon="14.408515"><ele>140.75</ele><time>2026-04-18T08:51:50.102Z</time></trkpt><trkpt lat="41.067435" lon="14.408425"><ele>141.0</ele><time>2026-04-18T08:51:51.102Z</time></trkpt><trkpt lat="41.0673283" lon="14.408345"><ele>141.25</ele><time>2026-04-18T08:51:52.102Z</time></trkpt><trkpt lat="41.0672183" lon="14.4082667"><ele>141.5</ele><time>2026-04-18T08:51:53.102Z</time></trkpt><trkpt lat="41.0671133" lon="14.4081783"><ele>141.75</ele><time>2026-04-18T08:51:54.103Z</time></trkpt><trkpt lat="41.0669967" lon="14.4080883"><ele>142.0</ele><time>2026-04-18T08:51:55.102Z</time></trkpt><trkpt lat="41.06687" lon="14.407985"><ele>142.25</ele><time>2026-04-18T08:51:56.102Z</time></trkpt><trkpt lat="41.0667417" lon="14.407885"><ele>142.5</ele><time>2026-04-18T08:51:57.102Z</time></trkpt><trkpt lat="41.06662" lon="14.4077867"><ele>142.75</ele><time>2026-04-18T08:51:58.102Z</time></trkpt><trkpt lat="41.0665067" lon="14.4076967"><ele>143.0</ele><time>2026-04-18T08:51:59.102Z</time></trkpt><trkpt lat="41.066405" lon="14.40761"><ele>143.4</ele><time>2026-04-18T08:52:00.102Z</time></trkpt><trkpt lat="41.06631" lon="14.407535"><ele>143.8</ele><time>2026-04-18T08:52:01.103Z</time></trkpt><trkpt lat="41.0662233" lon="14.4074633"><ele>144.2</ele><time>2026-04-18T08:52:02.102Z</time></trkpt><trkpt lat="41.0661467" lon="14.4074017"><ele>144.6</ele><time>2026-04-18T08:52:03.103Z</time></trkpt><trkpt lat="41.0660675" lon="14.4073412"><ele>145.0</ele><time>2026-04-18T08:52:04.102Z</time></trkpt><trkpt lat="41.0659802" lon="14.407278"><ele>145.0</ele><time>2026-04-18T08:52:05.102Z</time></trkpt><trkpt lat="41.0658808" lon="14.4072042"><ele>145.0</ele><time>2026-04-18T08:52:06.102Z</time></trkpt><trkpt lat="41.0657718" lon="14.4071189"><ele>145.0</ele><time>2026-04-18T08:52:07.102Z</time></trkpt><trkpt lat="41.0656499" lon="14.4070211"><ele>145.0</ele><time>2026-04-18T08:52:08.102Z</time></trkpt><trkpt lat="41.065509" lon="14.4069142"><ele>145.66666666666669</ele><time>2026-04-18T08:52:09.102Z</time></trkpt><trkpt lat="41.0653499" lon="14.4067938"><ele>146.33333333333334</ele><time>2026-04-18T08:52:10.102Z</time></trkpt><trkpt lat="41.0651865" lon="14.4066619"><ele>147.0</ele><time>2026-04-18T08:52:11.102Z</time></trkpt><trkpt lat="41.0650281" lon="14.4065362"><ele>147.5</ele><time>2026-04-18T08:52:12.102Z</time></trkpt><trkpt lat="41.0648855" lon="14.4064205"><ele>148.0</ele><time>2026-04-18T08:52:13.102Z</time></trkpt><trkpt lat="41.064762" lon="14.406316"><ele>148.5</ele><time>2026-04-18T08:52:14.102Z</time></trkpt><trkpt lat="41.0646473" lon="14.4062259"><ele>149.0</ele><time>2026-04-18T08:52:15.102Z</time></trkpt><trkpt lat="41.0645393" lon="14.4061543"><ele>149.2</ele><time>2026-04-18T08:52:16.102Z</time></trkpt><trkpt lat="41.0644432" lon="14.4060883"><ele>149.4</ele><time>2026-04-18T08:52:17.102Z</time></trkpt><trkpt lat="41.0643553" lon="14.4060224"><ele>149.6</ele><time>2026-04-18T08:52:18.102Z</time></trkpt><trkpt lat="41.0642744" lon="14.4059544"><ele>149.8</ele><time>2026-04-18T08:52:19.102Z</time></trkpt><trkpt lat="41.0641877" lon="14.4058824"><ele>150.0</ele><time>2026-04-18T08:52:20.102Z</time></trkpt><trkpt lat="41.0640929" lon="14.405806"><ele>150.25</ele><time>2026-04-18T08:52:21.102Z</time></trkpt><trkpt lat="41.0639934" lon="14.4057242"><ele>150.5</ele><time>2026-04-18T08:52:22.102Z</time></trkpt><trkpt lat="41.0638867" lon="14.4056395"><ele>150.75</ele><time>2026-04-18T08:52:23.102Z</time></trkpt><trkpt lat="41.0637793" lon="14.4055532"><ele>151.0</ele><time>2026-04-18T08:52:24.102Z</time></trkpt><trkpt lat="41.0636689" lon="14.4054676"><ele>151.5</ele><time>2026-04-18T08:52:25.102Z</time></trkpt><trkpt lat="41.0635554" lon="14.4053791"><ele>152.0</ele><time>2026-04-18T08:52:26.102Z</time></trkpt><trkpt lat="41.063444" lon="14.4052862"><ele>152.5</ele><time>2026-04-18T08:52:27.102Z</time></trkpt><trkpt lat="41.0633284" lon="14.4051878"><ele>153.0</ele><time>2026-04-18T08:52:28.102Z</time></trkpt><trkpt lat="41.0632106" lon="14.4050907"><ele>153.5</ele><time>2026-04-18T08:52:29.102Z</time></trkpt><trkpt lat="41.0630901" lon="14.4049959"><ele>154.0</ele><time>2026-04-18T08:52:30.102Z</time></trkpt><trkpt lat="41.0629663" lon="14.4048998"><ele>154.5</ele><time>2026-04-18T08:52:31.102Z</time></trkpt><trkpt lat="41.0628447" lon="14.4048055"><ele>155.0</ele><time>2026-04-18T08:52:32.102Z</time></trkpt><trkpt lat="41.062725" lon="14.4047133"><ele>155.25</ele><time>2026-04-18T08:52:33.102Z</time></trkpt><trkpt lat="41.0626" lon="14.4046217"><ele>155.5</ele><time>2026-04-18T08:52:34.102Z</time></trkpt><trkpt lat="41.062475" lon="14.40453"><ele>155.75</ele><time>2026-04-18T08:52:35.102Z</time></trkpt><trkpt lat="41.0623483" lon="14.40444"><ele>156.0</ele><time>2026-04-18T08:52:36.102Z</time></trkpt><trkpt lat="41.0622217" lon="14.40436"><ele>156.0</ele><time>2026-04-18T08:52:37.103Z</time></trkpt><trkpt lat="41.0621067" lon="14.4042867"><ele>156.0</ele><time>2026-04-18T08:52:38.102Z</time></trkpt><trkpt lat="41.0619983" lon="14.404225"><ele>156.0</ele><time>2026-04-18T08:52:39.102Z</time></trkpt><trkpt lat="41.061895" lon="14.404165"><ele>156.0</ele><time>2026-04-18T08:52:40.102Z</time></trkpt><trkpt lat="41.0618033" lon="14.404105"><ele>156.0</ele><time>2026-04-18T08:52:41.102Z</time></trkpt><trkpt lat="41.0617183" lon="14.4040417"><ele>156.0</ele><time>2026-04-18T08:52:42.102Z</time></trkpt><trkpt lat="41.0616317" lon="14.403975"><ele>156.0</ele><time>2026-04-18T08:52:43.102Z</time></trkpt><trkpt lat="41.0615467" lon="14.4038917"><ele>156.0</ele><time>2026-04-18T08:52:44.103Z</time></trkpt><trkpt lat="41.0614517" lon="14.4038083"><ele>156.0</ele><time>2026-04-18T08:52:45.102Z</time></trkpt><trkpt lat="41.0613667" lon="14.4037167"><ele>156.6</ele><time>2026-04-18T08:52:46.102Z</time></trkpt><trkpt lat="41.0612867" lon="14.4036383"><ele>157.2</ele><time>2026-04-18T08:52:47.102Z</time></trkpt><trkpt lat="41.0612083" lon="14.403555"><ele>157.8</ele><time>2026-04-18T08:52:48.103Z</time></trkpt><trkpt lat="41.0611217" lon="14.4034667"><ele>158.4</ele><time>2026-04-18T08:52:49.102Z</time></trkpt><trkpt lat="41.06103" lon="14.4033683"><ele>159.0</ele><time>2026-04-18T08:52:50.102Z</time></trkpt><trkpt lat="41.06093" lon="14.4032667"><ele>159.0</ele><time>2026-04-18T08:52:51.102Z</time></trkpt><trkpt lat="41.0608283" lon="14.4031567"><ele>159.0</ele><time>2026-04-18T08:52:52.102Z</time></trkpt><trkpt lat="41.0607283" lon="14.4030433"><ele>159.0</ele><time>2026-04-18T08:52:53.102Z</time></trkpt><trkpt lat="41.0606283" lon="14.4029283"><ele>159.0</ele><time>2026-04-18T08:52:54.102Z</time></trkpt><trkpt lat="41.0605267" lon="14.4028217"><ele>159.25</ele><time>2026-04-18T08:52:55.102Z</time></trkpt><trkpt lat="41.0604333" lon="14.4027083"><ele>159.5</ele><time>2026-04-18T08:52:56.102Z</time></trkpt><trkpt lat="41.06034" lon="14.4025967"><ele>159.75</ele><time>2026-04-18T08:52:57.102Z</time></trkpt><trkpt lat="41.0602467" lon="14.4024883"><ele>160.0</ele><time>2026-04-18T08:52:58.102Z</time></trkpt><trkpt lat="41.0601567" lon="14.4023917"><ele>160.0</ele><time>2026-04-18T08:52:59.102Z</time></trkpt><trkpt lat="41.060075" lon="14.4022983"><ele>160.0</ele><time>2026-04-18T08:53:00.102Z</time></trkpt><trkpt lat="41.0599983" lon="14.4022117"><ele>160.0</ele><time>2026-04-18T08:53:01.102Z</time></trkpt><trkpt lat="41.0599317" lon="14.4021317"><ele>160.0</ele><time>2026-04-18T08:53:02.102Z</time></trkpt><trkpt lat="41.0598783" lon="14.4020567"><ele>160.0</ele><time>2026-04-18T08:53:03.102Z</time></trkpt><trkpt lat="41.0598283" lon="14.401985"><ele>160.8</ele><time>2026-04-18T08:53:04.102Z</time></trkpt><trkpt lat="41.0597533" lon="14.4018633"><ele>161.6</ele><time>2026-04-18T08:53:06.102Z</time></trkpt><trkpt lat="41.0596833" lon="14.401805"><ele>162.39999999999998</ele><time>2026-04-18T08:53:08.102Z</time></trkpt><trkpt lat="41.059635" lon="14.40187"><ele>163.2</ele><time>2026-04-18T08:53:11.102Z</time></trkpt><trkpt lat="41.0596783" lon="14.4019383"><ele>164.0</ele><time>2026-04-18T08:53:13.102Z</time></trkpt><trkpt lat="41.059775" lon="14.4020433"><ele>164.0</ele><time>2026-04-18T08:53:15.102Z</time></trkpt><trkpt lat="41.059835" lon="14.402105"><ele>164.0</ele><time>2026-04-18T08:53:16.102Z</time></trkpt><trkpt lat="41.0599067" lon="14.4021833"><ele>164.0</ele><time>2026-04-18T08:53:17.102Z</time></trkpt><trkpt lat="41.059985" lon="14.4022683"><ele>164.0</ele><time>2026-04-18T08:53:18.102Z</time></trkpt><trkpt lat="41.0600767" lon="14.40236"><ele>164.0</ele><time>2026-04-18T08:53:19.102Z</time></trkpt><trkpt lat="41.0601667" lon="14.4024633"><ele>163.0</ele><time>2026-04-18T08:53:20.103Z</time></trkpt><trkpt lat="41.0602583" lon="14.40257"><ele>162.0</ele><time>2026-04-18T08:53:21.102Z</time></trkpt><trkpt lat="41.0603683" lon="14.4026883"><ele>161.0</ele><time>2026-04-18T08:53:22.102Z</time></trkpt><trkpt lat="41.0604833" lon="14.402815"><ele>160.0</ele><time>2026-04-18T08:53:23.102Z</time></trkpt><trkpt lat="41.0606083" lon="14.4029367"><ele>160.25</ele><time>2026-04-18T08:53:24.102Z</time></trkpt><trkpt lat="41.0607283" lon="14.4030583"><ele>160.5</ele><time>2026-04-18T08:53:25.102Z</time></trkpt><trkpt lat="41.0608367" lon="14.4031817"><ele>160.75</ele><time>2026-04-18T08:53:26.102Z</time></trkpt><trkpt lat="41.060945" lon="14.4033017"><ele>161.0</ele><time>2026-04-18T08:53:27.103Z</time></trkpt><trkpt lat="41.061055" lon="14.403425"><ele>160.5</ele><time>2026-04-18T08:53:28.102Z</time></trkpt><trkpt lat="41.06117" lon="14.4035517"><ele>160.0</ele><time>2026-04-18T08:53:29.102Z</time></trkpt><trkpt lat="41.0612883" lon="14.40368"><ele>159.5</ele><time>2026-04-18T08:53:30.102Z</time></trkpt><trkpt lat="41.0613983" lon="14.4038017"><ele>159.0</ele><time>2026-04-18T08:53:31.102Z</time></trkpt><trkpt lat="41.0615117" lon="14.4039117"><ele>158.25</ele><time>2026-04-18T08:53:32.102Z</time></trkpt><trkpt lat="41.0616283" lon="14.404015"><ele>157.5</ele><time>2026-04-18T08:53:33.102Z</time></trkpt><trkpt lat="41.0617483" lon="14.4041"><ele>156.75</ele><time>2026-04-18T08:53:34.102Z</time></trkpt><trkpt lat="41.0618733" lon="14.40418"><ele>156.0</ele><time>2026-04-18T08:53:35.102Z</time></trkpt><trkpt lat="41.0619933" lon="14.4042467"><ele>156.0</ele><time>2026-04-18T08:53:36.102Z</time></trkpt><trkpt lat="41.0621017" lon="14.4043117"><ele>156.0</ele><time>2026-04-18T08:53:37.102Z</time></trkpt><trkpt lat="41.0622133" lon="14.4043767"><ele>156.0</ele><time>2026-04-18T08:53:38.102Z</time></trkpt><trkpt lat="41.0623217" lon="14.4044483"><ele>156.0</ele><time>2026-04-18T08:53:39.103Z</time></trkpt><trkpt lat="41.0624367" lon="14.4045233"><ele>156.0</ele><time>2026-04-18T08:53:40.102Z</time></trkpt><trkpt lat="41.06255" lon="14.4046133"><ele>156.0</ele><time>2026-04-18T08:53:41.102Z</time></trkpt><trkpt lat="41.0626667" lon="14.404705"><ele>156.0</ele><time>2026-04-18T08:53:42.102Z</time></trkpt><trkpt lat="41.06278" lon="14.4047967"><ele>156.0</ele><time>2026-04-18T08:53:43.102Z</time></trkpt><trkpt lat="41.0628883" lon="14.4048817"><ele>155.8</ele><time>2026-04-18T08:53:44.102Z</time></trkpt><trkpt lat="41.06298" lon="14.4049567"><ele>155.6</ele><time>2026-04-18T08:53:45.102Z</time></trkpt><trkpt lat="41.0630567" lon="14.405015"><ele>155.4</ele><time>2026-04-18T08:53:46.102Z</time></trkpt><trkpt lat="41.0630967" lon="14.40508"><ele>155.2</ele><time>2026-04-18T08:53:47.102Z</time></trkpt><trkpt lat="41.0631283" lon="14.4052"><ele>155.0</ele><time>2026-04-18T08:53:49.102Z</time></trkpt><trkpt lat="41.06309" lon="14.4053383"><ele>155.0</ele><time>2026-04-18T08:53:51.102Z</time></trkpt><trkpt lat="41.063045" lon="14.40541"><ele>155.0</ele><time>2026-04-18T08:53:52.102Z</time></trkpt><trkpt lat="41.0629967" lon="14.4054833"><ele>155.0</ele><time>2026-04-18T08:53:53.102Z</time></trkpt><trkpt lat="41.0629567" lon="14.4055483"><ele>155.0</ele><time>2026-04-18T08:53:54.102Z</time></trkpt><trkpt lat="41.0628417" lon="14.4056433"><ele>155.0</ele><time>2026-04-18T08:53:56.102Z</time></trkpt><trkpt lat="41.0627767" lon="14.4056683"><ele>155.0</ele><time>2026-04-18T08:53:57.102Z</time></trkpt><trkpt lat="41.0627117" lon="14.4056867"><ele>155.0</ele><time>2026-04-18T08:53:58.102Z</time></trkpt><trkpt lat="41.062625" lon="14.40566"><ele>155.0</ele><time>2026-04-18T08:53:59.102Z</time></trkpt><trkpt lat="41.0625433" lon="14.4056567"><ele>155.0</ele><time>2026-04-18T08:54:00.102Z</time></trkpt><trkpt lat="41.0624867" lon="14.405585"><ele>155.0</ele><time>2026-04-18T08:54:01.102Z</time></trkpt><trkpt lat="41.0624017" lon="14.4055"><ele>155.0</ele><time>2026-04-18T08:54:02.102Z</time></trkpt><trkpt lat="41.0623183" lon="14.40541"><ele>155.0</ele><time>2026-04-18T08:54:03.102Z</time></trkpt><trkpt lat="41.062225" lon="14.4053183"><ele>155.0</ele><time>2026-04-18T08:54:04.103Z</time></trkpt><trkpt lat="41.0621417" lon="14.4052183"><ele>155.0</ele><time>2026-04-18T08:54:05.102Z</time></trkpt><trkpt lat="41.062065" lon="14.4051083"><ele>155.0</ele><time>2026-04-18T08:54:06.102Z</time></trkpt><trkpt lat="41.0619917" lon="14.4050083"><ele>155.0</ele><time>2026-04-18T08:54:07.102Z</time></trkpt><trkpt lat="41.0619183" lon="14.4049183"><ele>155.0</ele><time>2026-04-18T08:54:08.102Z</time></trkpt><trkpt lat="41.0618467" lon="14.40484"><ele>155.0</ele><time>2026-04-18T08:54:09.102Z</time></trkpt><trkpt lat="41.0617717" lon="14.4047617"><ele>155.0</ele><time>2026-04-18T08:54:10.102Z</time></trkpt><trkpt lat="41.0617033" lon="14.4046817"><ele>155.0</ele><time>2026-04-18T08:54:11.103Z</time></trkpt><trkpt lat="41.0616283" lon="14.404605"><ele>155.0</ele><time>2026-04-18T08:54:12.102Z</time></trkpt><trkpt lat="41.061535" lon="14.404515"><ele>156.0</ele><time>2026-04-18T08:54:13.102Z</time></trkpt><trkpt lat="41.0614283" lon="14.4043983"><ele>157.0</ele><time>2026-04-18T08:54:14.102Z</time></trkpt><trkpt lat="41.0613067" lon="14.4042617"><ele>158.0</ele><time>2026-04-18T08:54:15.102Z</time></trkpt><trkpt lat="41.0611667" lon="14.404095"><ele>158.0</ele><time>2026-04-18T08:54:16.102Z</time></trkpt><trkpt lat="41.0610133" lon="14.4039233"><ele>158.0</ele><time>2026-04-18T08:54:17.102Z</time></trkpt><trkpt lat="41.0608417" lon="14.4037283"><ele>158.0</ele><time>2026-04-18T08:54:18.102Z</time></trkpt><trkpt lat="41.0606583" lon="14.4035183"><ele>159.5</ele><time>2026-04-18T08:54:19.102Z</time></trkpt><trkpt lat="41.0604683" lon="14.4033083"><ele>161.0</ele><time>2026-04-18T08:54:20.102Z</time></trkpt><trkpt lat="41.0602817" lon="14.40309"><ele>160.5</ele><time>2026-04-18T08:54:21.102Z</time></trkpt><trkpt lat="41.0600883" lon="14.4028733"><ele>160.0</ele><time>2026-04-18T08:54:22.102Z</time></trkpt><trkpt lat="41.0598967" lon="14.40266"><ele>162.0</ele><time>2026-04-18T08:54:23.103Z</time></trkpt><trkpt lat="41.0597217" lon="14.4024617"><ele>164.0</ele><time>2026-04-18T08:54:24.102Z</time></trkpt><trkpt lat="41.0595467" lon="14.402275"><ele>164.0</ele><time>2026-04-18T08:54:25.102Z</time></trkpt><trkpt lat="41.0593783" lon="14.4020917"><ele>164.0</ele><time>2026-04-18T08:54:26.102Z</time></trkpt><trkpt lat="41.059205" lon="14.4019083"><ele>164.0</ele><time>2026-04-18T08:54:27.102Z</time></trkpt><trkpt lat="41.0590333" lon="14.4017267"><ele>164.0</ele><time>2026-04-18T08:54:28.102Z</time></trkpt><trkpt lat="41.0588717" lon="14.4015517"><ele>164.0</ele><time>2026-04-18T08:54:29.102Z</time></trkpt><trkpt lat="41.0587033" lon="14.401375"><ele>164.0</ele><time>2026-04-18T08:54:30.102Z</time></trkpt><trkpt lat="41.0585367" lon="14.401195"><ele>164.0</ele><time>2026-04-18T08:54:31.102Z</time></trkpt><trkpt lat="41.0583683" lon="14.4010133"><ele>164.0</ele><time>2026-04-18T08:54:32.102Z</time></trkpt><trkpt lat="41.0582083" lon="14.4008433"><ele>164.0</ele><time>2026-04-18T08:54:33.102Z</time></trkpt><trkpt lat="41.05806" lon="14.4006883"><ele>164.33333333333331</ele><time>2026-04-18T08:54:34.102Z</time></trkpt><trkpt lat="41.0579133" lon="14.4005467"><ele>164.66666666666666</ele><time>2026-04-18T08:54:35.102Z</time></trkpt><trkpt lat="41.0577717" lon="14.4004083"><ele>165.0</ele><time>2026-04-18T08:54:36.102Z</time></trkpt><trkpt lat="41.057625" lon="14.4002733"><ele>165.0</ele><time>2026-04-18T08:54:37.102Z</time></trkpt><trkpt lat="41.05747" lon="14.4001367"><ele>165.0</ele><time>2026-04-18T08:54:38.102Z</time></trkpt><trkpt lat="41.0573233" lon="14.4000083"><ele>165.0</ele><time>2026-04-18T08:54:39.102Z</time></trkpt><trkpt lat="41.05717" lon="14.3998867"><ele>164.66666666666666</ele><time>2026-04-18T08:54:40.102Z</time></trkpt><trkpt lat="41.0570167" lon="14.3997717"><ele>164.33333333333331</ele><time>2026-04-18T08:54:41.102Z</time></trkpt><trkpt lat="41.0568533" lon="14.3996767"><ele>164.0</ele><time>2026-04-18T08:54:42.102Z</time></trkpt><trkpt lat="41.0566817" lon="14.3995867"><ele>161.0</ele><time>2026-04-18T08:54:43.102Z</time></trkpt><trkpt lat="41.056505" lon="14.3995017"><ele>158.0</ele><time>2026-04-18T08:54:44.103Z</time></trkpt><trkpt lat="41.0563333" lon="14.39942"><ele>155.0</ele><time>2026-04-18T08:54:45.102Z</time></trkpt><trkpt lat="41.0561633" lon="14.3993433"><ele>155.0</ele><time>2026-04-18T08:54:46.102Z</time></trkpt><trkpt lat="41.0559917" lon="14.399265"><ele>155.0</ele><time>2026-04-18T08:54:47.102Z</time></trkpt><trkpt lat="41.055825" lon="14.39919"><ele>155.0</ele><time>2026-04-18T08:54:48.102Z</time></trkpt><trkpt lat="41.05566" lon="14.399115"><ele>153.0</ele><time>2026-04-18T08:54:49.102Z</time></trkpt><trkpt lat="41.0555" lon="14.39903"><ele>151.0</ele><time>2026-04-18T08:54:50.102Z</time></trkpt><trkpt lat="41.0553383" lon="14.3989483"><ele>149.0</ele><time>2026-04-18T08:54:51.102Z</time></trkpt><trkpt lat="41.0551883" lon="14.3988733"><ele>149.66666666666666</ele><time>2026-04-18T08:54:52.102Z</time></trkpt><trkpt lat="41.055045" lon="14.3987967"><ele>150.33333333333334</ele><time>2026-04-18T08:54:53.102Z</time></trkpt><trkpt lat="41.05489" lon="14.3987233"><ele>151.0</ele><time>2026-04-18T08:54:54.102Z</time></trkpt><trkpt lat="41.0547333" lon="14.3986467"><ele>151.0</ele><time>2026-04-18T08:54:55.102Z</time></trkpt><trkpt lat="41.0545733" lon="14.39857"><ele>151.0</ele><time>2026-04-18T08:54:56.102Z</time></trkpt><trkpt lat="41.05441" lon="14.3985017"><ele>151.0</ele><time>2026-04-18T08:54:57.102Z</time></trkpt><trkpt lat="41.0542367" lon="14.3984417"><ele>149.33333333333334</ele><time>2026-04-18T08:54:58.102Z</time></trkpt><trkpt lat="41.05405" lon="14.3983767"><ele>147.66666666666666</ele><time>2026-04-18T08:54:59.102Z</time></trkpt><trkpt lat="41.05383" lon="14.398315"><ele>146.0</ele><time>2026-04-18T08:55:00.103Z</time></trkpt><trkpt lat="41.0535867" lon="14.3982417"><ele>146.0</ele><time>2026-04-18T08:55:01.102Z</time></trkpt><trkpt lat="41.0533317" lon="14.3981783"><ele>146.0</ele><time>2026-04-18T08:55:02.102Z</time></trkpt><trkpt lat="41.0530867" lon="14.3981183"><ele>144.5</ele><time>2026-04-18T08:55:03.102Z</time></trkpt><trkpt lat="41.052855" lon="14.3980533"><ele>143.0</ele><time>2026-04-18T08:55:04.102Z</time></trkpt><trkpt lat="41.05263" lon="14.39799"><ele>143.0</ele><time>2026-04-18T08:55:05.102Z</time></trkpt><trkpt lat="41.0524067" lon="14.3979333"><ele>143.0</ele><time>2026-04-18T08:55:06.102Z</time></trkpt><trkpt lat="41.0521917" lon="14.3978733"><ele>143.0</ele><time>2026-04-18T08:55:07.102Z</time></trkpt><trkpt lat="41.0519883" lon="14.3978133"><ele>143.0</ele><time>2026-04-18T08:55:08.102Z</time></trkpt><trkpt lat="41.0517833" lon="14.39776"><ele>143.0</ele><time>2026-04-18T08:55:09.102Z</time></trkpt><trkpt lat="41.0515767" lon="14.3977167"><ele>143.0</ele><time>2026-04-18T08:55:10.102Z</time></trkpt><trkpt lat="41.0513717" lon="14.3976717"><ele>141.66666666666666</ele><time>2026-04-18T08:55:11.102Z</time></trkpt><trkpt lat="41.051165" lon="14.39763"><ele>140.33333333333334</ele><time>2026-04-18T08:55:12.102Z</time></trkpt><trkpt lat="41.0509567" lon="14.397595"><ele>139.0</ele><time>2026-04-18T08:55:13.102Z</time></trkpt><trkpt lat="41.0507433" lon="14.397555"><ele>137.66666666666669</ele><time>2026-04-18T08:55:14.102Z</time></trkpt><trkpt lat="41.05053" lon="14.3975133"><ele>136.33333333333334</ele><time>2026-04-18T08:55:15.102Z</time></trkpt><trkpt lat="41.050315" lon="14.3974833"><ele>135.0</ele><time>2026-04-18T08:55:16.102Z</time></trkpt><trkpt lat="41.0501033" lon="14.397445"><ele>133.0</ele><time>2026-04-18T08:55:17.103Z</time></trkpt><trkpt lat="41.0499017" lon="14.39741"><ele>131.0</ele><time>2026-04-18T08:55:18.102Z</time></trkpt><trkpt lat="41.0496983" lon="14.3973683"><ele>129.0</ele><time>2026-04-18T08:55:19.102Z</time></trkpt><trkpt lat="41.049485" lon="14.3973333"><ele>129.0</ele><time>2026-04-18T08:55:20.102Z</time></trkpt><trkpt lat="41.049275" lon="14.3972917"><ele>129.0</ele><time>2026-04-18T08:55:21.102Z</time></trkpt><trkpt lat="41.049075" lon="14.3972633"><ele>129.0</ele><time>2026-04-18T08:55:22.102Z</time></trkpt><trkpt lat="41.0488817" lon="14.3972267"><ele>128.66666666666666</ele><time>2026-04-18T08:55:23.102Z</time></trkpt><trkpt lat="41.0486883" lon="14.3971967"><ele>128.33333333333331</ele><time>2026-04-18T08:55:24.102Z</time></trkpt><trkpt lat="41.0485033" lon="14.39716"><ele>128.0</ele><time>2026-04-18T08:55:25.102Z</time></trkpt><trkpt lat="41.048315" lon="14.3971333"><ele>124.66666666666666</ele><time>2026-04-18T08:55:26.102Z</time></trkpt><trkpt lat="41.04814" lon="14.3971017"><ele>121.33333333333334</ele><time>2026-04-18T08:55:27.102Z</time></trkpt><trkpt lat="41.047975" lon="14.39707"><ele>118.0</ele><time>2026-04-18T08:55:28.102Z</time></trkpt><trkpt lat="41.04781" lon="14.39703"><ele>118.0</ele><time>2026-04-18T08:55:29.102Z</time></trkpt><trkpt lat="41.0476417" lon="14.3970067"><ele>118.0</ele><time>2026-04-18T08:55:30.102Z</time></trkpt><trkpt lat="41.0474733" lon="14.396985"><ele>118.0</ele><time>2026-04-18T08:55:31.102Z</time></trkpt><trkpt lat="41.04731" lon="14.3969767"><ele>117.0</ele><time>2026-04-18T08:55:32.102Z</time></trkpt><trkpt lat="41.0471483" lon="14.39698"><ele>116.0</ele><time>2026-04-18T08:55:33.102Z</time></trkpt><trkpt lat="41.046985" lon="14.39699"><ele>115.0</ele><time>2026-04-18T08:55:34.102Z</time></trkpt><trkpt lat="41.046825" lon="14.3969967"><ele>115.0</ele><time>2026-04-18T08:55:35.102Z</time></trkpt><trkpt lat="41.046675" lon="14.3970283"><ele>115.0</ele><time>2026-04-18T08:55:36.102Z</time></trkpt><trkpt lat="41.0465267" lon="14.3970633"><ele>115.0</ele><time>2026-04-18T08:55:37.102Z</time></trkpt><trkpt lat="41.046365" lon="14.3971133"><ele>114.33333333333334</ele><time>2026-04-18T08:55:38.102Z</time></trkpt><trkpt lat="41.0462033" lon="14.3971683"><ele>113.66666666666666</ele><time>2026-04-18T08:55:39.102Z</time></trkpt><trkpt lat="41.046045" lon="14.3972167"><ele>113.0</ele><time>2026-04-18T08:55:40.102Z</time></trkpt><trkpt lat="41.0458867" lon="14.3972667"><ele>111.0</ele><time>2026-04-18T08:55:41.102Z</time></trkpt><trkpt lat="41.0457233" lon="14.3973117"><ele>109.0</ele><time>2026-04-18T08:55:42.102Z</time></trkpt><trkpt lat="41.0455583" lon="14.3973667"><ele>107.0</ele><time>2026-04-18T08:55:43.102Z</time></trkpt><trkpt lat="41.045395" lon="14.3974133"><ele>107.0</ele><time>2026-04-18T08:55:44.102Z</time></trkpt><trkpt lat="41.0452383" lon="14.3974567"><ele>107.0</ele><time>2026-04-18T08:55:45.103Z</time></trkpt><trkpt lat="41.0450883" lon="14.3975067"><ele>107.0</ele><time>2026-04-18T08:55:46.102Z</time></trkpt><trkpt lat="41.0449533" lon="14.3975533"><ele>106.5</ele><time>2026-04-18T08:55:47.102Z</time></trkpt><trkpt lat="41.044825" lon="14.3975917"><ele>106.0</ele><time>2026-04-18T08:55:48.102Z</time></trkpt><trkpt lat="41.0447117" lon="14.3976283"><ele>105.5</ele><time>2026-04-18T08:55:49.102Z</time></trkpt><trkpt lat="41.0445967" lon="14.39766"><ele>105.0</ele><time>2026-04-18T08:55:50.102Z</time></trkpt><trkpt lat="41.044485" lon="14.3976917"><ele>105.0</ele><time>2026-04-18T08:55:51.102Z</time></trkpt><trkpt lat="41.044365" lon="14.3977283"><ele>105.0</ele><time>2026-04-18T08:55:52.102Z</time></trkpt><trkpt lat="41.0442383" lon="14.3977667"><ele>105.0</ele><time>2026-04-18T08:55:53.102Z</time></trkpt><trkpt lat="41.0441083" lon="14.397815"><ele>105.0</ele><time>2026-04-18T08:55:54.102Z</time></trkpt><trkpt lat="41.043965" lon="14.3978683"><ele>105.0</ele><time>2026-04-18T08:55:55.102Z</time></trkpt><trkpt lat="41.043815" lon="14.3979233"><ele>105.0</ele><time>2026-04-18T08:55:56.102Z</time></trkpt><trkpt lat="41.0436483" lon="14.39798"><ele>105.0</ele><time>2026-04-18T08:55:57.102Z</time></trkpt><trkpt lat="41.0434683" lon="14.3980433"><ele>103.0</ele><time>2026-04-18T08:55:58.102Z</time></trkpt><trkpt lat="41.0432767" lon="14.398115"><ele>101.0</ele><time>2026-04-18T08:55:59.102Z</time></trkpt><trkpt lat="41.0430867" lon="14.39818"><ele>99.0</ele><time>2026-04-18T08:56:00.102Z</time></trkpt><trkpt lat="41.0428967" lon="14.3982583"><ele>99.0</ele><time>2026-04-18T08:56:01.102Z</time></trkpt><trkpt lat="41.04271" lon="14.3983433"><ele>99.0</ele><time>2026-04-18T08:56:02.102Z</time></trkpt><trkpt lat="41.0425317" lon="14.3984383"><ele>99.0</ele><time>2026-04-18T08:56:03.103Z</time></trkpt><trkpt lat="41.0423467" lon="14.3985233"><ele>98.0</ele><time>2026-04-18T08:56:04.102Z</time></trkpt><trkpt lat="41.04216" lon="14.3986033"><ele>97.0</ele><time>2026-04-18T08:56:05.102Z</time></trkpt><trkpt lat="41.04197" lon="14.3986933"><ele>96.0</ele><time>2026-04-18T08:56:06.102Z</time></trkpt><trkpt lat="41.04178" lon="14.3987767"><ele>94.0</ele><time>2026-04-18T08:56:07.102Z</time></trkpt><trkpt lat="41.041585" lon="14.3988617"><ele>92.0</ele><time>2026-04-18T08:56:08.102Z</time></trkpt><trkpt lat="41.0413933" lon="14.3989467"><ele>90.0</ele><time>2026-04-18T08:56:09.102Z</time></trkpt><trkpt lat="41.0412017" lon="14.3990367"><ele>90.0</ele><time>2026-04-18T08:56:10.102Z</time></trkpt><trkpt lat="41.04101" lon="14.3991233"><ele>90.0</ele><time>2026-04-18T08:56:11.102Z</time></trkpt><trkpt lat="41.0408233" lon="14.3992117"><ele>90.0</ele><time>2026-04-18T08:56:12.102Z</time></trkpt><trkpt lat="41.0406383" lon="14.3993017"><ele>88.33333333333333</ele><time>2026-04-18T08:56:13.102Z</time></trkpt><trkpt lat="41.0404533" lon="14.39938"><ele>86.66666666666666</ele><time>2026-04-18T08:56:14.102Z</time></trkpt><trkpt lat="41.0402733" lon="14.39945"><ele>85.0</ele><time>2026-04-18T08:56:15.102Z</time></trkpt><trkpt lat="41.0400983" lon="14.399505"><ele>84.33333333333333</ele><time>2026-04-18T08:56:16.102Z</time></trkpt><trkpt lat="41.0399283" lon="14.3995567"><ele>83.66666666666667</ele><time>2026-04-18T08:56:17.103Z</time></trkpt><trkpt lat="41.0397617" lon="14.3995867"><ele>83.0</ele><time>2026-04-18T08:56:18.102Z</time></trkpt><trkpt lat="41.03958" lon="14.399615"><ele>83.0</ele><time>2026-04-18T08:56:19.102Z</time></trkpt><trkpt lat="41.0394083" lon="14.3996467"><ele>83.0</ele><time>2026-04-18T08:56:20.102Z</time></trkpt><trkpt lat="41.03925" lon="14.3996767"><ele>83.0</ele><time>2026-04-18T08:56:21.102Z</time></trkpt><trkpt lat="41.0390917" lon="14.3997033"><ele>82.75</ele><time>2026-04-18T08:56:22.102Z</time></trkpt><trkpt lat="41.0389383" lon="14.3997317"><ele>82.5</ele><time>2026-04-18T08:56:23.102Z</time></trkpt><trkpt lat="41.0387917" lon="14.3997583"><ele>82.25</ele><time>2026-04-18T08:56:24.102Z</time></trkpt><trkpt lat="41.0386483" lon="14.39978"><ele>82.0</ele><time>2026-04-18T08:56:25.102Z</time></trkpt><trkpt lat="41.03851" lon="14.3998033"><ele>82.0</ele><time>2026-04-18T08:56:26.102Z</time></trkpt><trkpt lat="41.0383667" lon="14.3998317"><ele>82.0</ele><time>2026-04-18T08:56:27.102Z</time></trkpt><trkpt lat="41.0382217" lon="14.3998583"><ele>82.0</ele><time>2026-04-18T08:56:28.102Z</time></trkpt><trkpt lat="41.0380733" lon="14.3998833"><ele>82.0</ele><time>2026-04-18T08:56:29.102Z</time></trkpt><trkpt lat="41.0379183" lon="14.399915"><ele>81.0</ele><time>2026-04-18T08:56:30.102Z</time></trkpt><trkpt lat="41.0377633" lon="14.3999433"><ele>80.0</ele><time>2026-04-18T08:56:31.102Z</time></trkpt><trkpt lat="41.0376067" lon="14.3999733"><ele>79.0</ele><time>2026-04-18T08:56:32.102Z</time></trkpt><trkpt lat="41.0374583" lon="14.4"><ele>77.66666666666666</ele><time>2026-04-18T08:56:33.102Z</time></trkpt><trkpt lat="41.0373033" lon="14.4000283"><ele>76.33333333333333</ele><time>2026-04-18T08:56:34.102Z</time></trkpt><trkpt lat="41.0371567" lon="14.4000533"><ele>75.0</ele><time>2026-04-18T08:56:35.102Z</time></trkpt><trkpt lat="41.0369983" lon="14.4000783"><ele>75.0</ele><time>2026-04-18T08:56:36.102Z</time></trkpt><trkpt lat="41.0368567" lon="14.4000983"><ele>75.0</ele><time>2026-04-18T08:56:37.102Z</time></trkpt><trkpt lat="41.03671" lon="14.40013"><ele>75.0</ele><time>2026-04-18T08:56:38.102Z</time></trkpt><trkpt lat="41.0365667" lon="14.4001517"><ele>75.0</ele><time>2026-04-18T08:56:39.102Z</time></trkpt><trkpt lat="41.0364183" lon="14.4001767"><ele>75.0</ele><time>2026-04-18T08:56:40.102Z</time></trkpt><trkpt lat="41.036265" lon="14.4002083"><ele>75.0</ele><time>2026-04-18T08:56:41.102Z</time></trkpt><trkpt lat="41.036115" lon="14.4002417"><ele>75.0</ele><time>2026-04-18T08:56:42.102Z</time></trkpt><trkpt lat="41.0359583" lon="14.4002717"><ele>73.66666666666667</ele><time>2026-04-18T08:56:43.102Z</time></trkpt><trkpt lat="41.0357983" lon="14.4002983"><ele>72.33333333333334</ele><time>2026-04-18T08:56:44.102Z</time></trkpt><trkpt lat="41.0356367" lon="14.4003317"><ele>71.0</ele><time>2026-04-18T08:56:45.102Z</time></trkpt><trkpt lat="41.0354633" lon="14.40035"><ele>71.0</ele><time>2026-04-18T08:56:46.102Z</time></trkpt><trkpt lat="41.0352917" lon="14.4003733"><ele>71.0</ele><time>2026-04-18T08:56:47.102Z</time></trkpt><trkpt lat="41.0351217" lon="14.4004017"><ele>71.0</ele><time>2026-04-18T08:56:48.102Z</time></trkpt><trkpt lat="41.03495" lon="14.4004383"><ele>70.0</ele><time>2026-04-18T08:56:49.102Z</time></trkpt><trkpt lat="41.03478" lon="14.400465"><ele>69.0</ele><time>2026-04-18T08:56:50.102Z</time></trkpt><trkpt lat="41.0345967" lon="14.4004983"><ele>68.0</ele><time>2026-04-18T08:56:51.102Z</time></trkpt><trkpt lat="41.0344233" lon="14.4005317"><ele>68.0</ele><time>2026-04-18T08:56:52.102Z</time></trkpt><trkpt lat="41.0342467" lon="14.400565"><ele>68.0</ele><time>2026-04-18T08:56:53.102Z</time></trkpt><trkpt lat="41.0340667" lon="14.4005967"><ele>68.0</ele><time>2026-04-18T08:56:54.102Z</time></trkpt><trkpt lat="41.0338867" lon="14.400635"><ele>67.33333333333334</ele><time>2026-04-18T08:56:55.102Z</time></trkpt><trkpt lat="41.0337083" lon="14.40067"><ele>66.66666666666667</ele><time>2026-04-18T08:56:56.102Z</time></trkpt><trkpt lat="41.033535" lon="14.400705"><ele>66.0</ele><time>2026-04-18T08:56:57.102Z</time></trkpt><trkpt lat="41.0333667" lon="14.4007317"><ele>65.66666666666667</ele><time>2026-04-18T08:56:58.102Z</time></trkpt><trkpt lat="41.0332" lon="14.400755"><ele>65.33333333333334</ele><time>2026-04-18T08:56:59.102Z</time></trkpt><trkpt lat="41.0330383" lon="14.4007767"><ele>65.0</ele><time>2026-04-18T08:57:00.102Z</time></trkpt><trkpt lat="41.0328833" lon="14.4008017"><ele>65.0</ele><time>2026-04-18T08:57:01.102Z</time></trkpt><trkpt lat="41.032725" lon="14.4008117"><ele>65.0</ele><time>2026-04-18T08:57:02.103Z</time></trkpt><trkpt lat="41.032565" lon="14.4007983"><ele>65.0</ele><time>2026-04-18T08:57:03.102Z</time></trkpt><trkpt lat="41.0323983" lon="14.4007733"><ele>64.0</ele><time>2026-04-18T08:57:04.102Z</time></trkpt><trkpt lat="41.0322333" lon="14.4007467"><ele>63.0</ele><time>2026-04-18T08:57:05.102Z</time></trkpt><trkpt lat="41.032075" lon="14.4007083"><ele>62.0</ele><time>2026-04-18T08:57:06.102Z</time></trkpt><trkpt lat="41.0319183" lon="14.4006567"><ele>62.0</ele><time>2026-04-18T08:57:07.102Z</time></trkpt><trkpt lat="41.031765" lon="14.40059"><ele>62.0</ele><time>2026-04-18T08:57:08.102Z</time></trkpt><trkpt lat="41.0316267" lon="14.4005083"><ele>62.0</ele><time>2026-04-18T08:57:09.102Z</time></trkpt><trkpt lat="41.031495" lon="14.40042"><ele>61.5</ele><time>2026-04-18T08:57:10.102Z</time></trkpt><trkpt lat="41.0313783" lon="14.400325"><ele>61.0</ele><time>2026-04-18T08:57:11.102Z</time></trkpt><trkpt lat="41.0312817" lon="14.400225"><ele>60.5</ele><time>2026-04-18T08:57:12.102Z</time></trkpt><trkpt lat="41.0312" lon="14.4001317"><ele>60.0</ele><time>2026-04-18T08:57:13.102Z</time></trkpt><trkpt lat="41.0311283" lon="14.400035"><ele>60.0</ele><time>2026-04-18T08:57:14.102Z</time></trkpt><trkpt lat="41.0310617" lon="14.3999533"><ele>60.0</ele><time>2026-04-18T08:57:15.102Z</time></trkpt><trkpt lat="41.0309983" lon="14.3998733"><ele>60.0</ele><time>2026-04-18T08:57:16.102Z</time></trkpt><trkpt lat="41.0309533" lon="14.3997867"><ele>60.0</ele><time>2026-04-18T08:57:17.102Z</time></trkpt><trkpt lat="41.03093" lon="14.3997017"><ele>60.0</ele><time>2026-04-18T08:57:18.102Z</time></trkpt><trkpt lat="41.0309417" lon="14.39953"><ele>60.2</ele><time>2026-04-18T08:57:20.102Z</time></trkpt><trkpt lat="41.030975" lon="14.3994317"><ele>60.4</ele><time>2026-04-18T08:57:21.102Z</time></trkpt><trkpt lat="41.0310217" lon="14.3993267"><ele>60.599999999999994</ele><time>2026-04-18T08:57:22.102Z</time></trkpt><trkpt lat="41.03108" lon="14.3991917"><ele>60.8</ele><time>2026-04-18T08:57:23.102Z</time></trkpt><trkpt lat="41.0311417" lon="14.3990317"><ele>61.0</ele><time>2026-04-18T08:57:24.103Z</time></trkpt><trkpt lat="41.0312083" lon="14.3988533"><ele>61.666666666666664</ele><time>2026-04-18T08:57:25.102Z</time></trkpt><trkpt lat="41.0312733" lon="14.3986667"><ele>62.33333333333333</ele><time>2026-04-18T08:57:26.102Z</time></trkpt><trkpt lat="41.0313333" lon="14.39848"><ele>63.0</ele><time>2026-04-18T08:57:27.102Z</time></trkpt><trkpt lat="41.0314033" lon="14.3982883"><ele>63.0</ele><time>2026-04-18T08:57:28.102Z</time></trkpt><trkpt lat="41.031475" lon="14.3981033"><ele>63.0</ele><time>2026-04-18T08:57:29.102Z</time></trkpt><trkpt lat="41.0315333" lon="14.397925"><ele>63.0</ele><time>2026-04-18T08:57:30.102Z</time></trkpt><trkpt lat="41.0315867" lon="14.3977733"><ele>63.0</ele><time>2026-04-18T08:57:31.102Z</time></trkpt><trkpt lat="41.03164" lon="14.3976217"><ele>63.0</ele><time>2026-04-18T08:57:32.102Z</time></trkpt><trkpt lat="41.0316833" lon="14.397485"><ele>63.0</ele><time>2026-04-18T08:57:33.102Z</time></trkpt><trkpt lat="41.03172" lon="14.3973617"><ele>63.0</ele><time>2026-04-18T08:57:34.102Z</time></trkpt><trkpt lat="41.03176" lon="14.3972567"><ele>63.0</ele><time>2026-04-18T08:57:35.102Z</time></trkpt><trkpt lat="41.0317917" lon="14.397165"><ele>63.0</ele><time>2026-04-18T08:57:36.102Z</time></trkpt><trkpt lat="41.0318167" lon="14.3970883"><ele>63.0</ele><time>2026-04-18T08:57:37.102Z</time></trkpt><trkpt lat="41.0318583" lon="14.3969633"><ele>62.833333333333336</ele><time>2026-04-18T08:57:39.102Z</time></trkpt><trkpt lat="41.0319033" lon="14.3968833"><ele>62.66666666666667</ele><time>2026-04-18T08:57:41.102Z</time></trkpt><trkpt lat="41.0319417" lon="14.3968067"><ele>62.5</ele><time>2026-04-18T08:57:46.102Z</time></trkpt><trkpt lat="41.03196" lon="14.396725"><ele>62.333333333333336</ele><time>2026-04-18T08:57:48.102Z</time></trkpt><trkpt lat="41.0320033" lon="14.396565"><ele>62.16666666666667</ele><time>2026-04-18T08:57:50.102Z</time></trkpt><trkpt lat="41.0320333" lon="14.3964617"><ele>62.0</ele><time>2026-04-18T08:57:51.102Z</time></trkpt><trkpt lat="41.0320683" lon="14.396345"><ele>62.2</ele><time>2026-04-18T08:57:52.102Z</time></trkpt><trkpt lat="41.032105" lon="14.396225"><ele>62.400000000000006</ele><time>2026-04-18T08:57:53.103Z</time></trkpt><trkpt lat="41.032135" lon="14.3961067"><ele>62.599999999999994</ele><time>2026-04-18T08:57:54.102Z</time></trkpt><trkpt lat="41.0321633" lon="14.3959833"><ele>62.8</ele><time>2026-04-18T08:57:55.102Z</time></trkpt><trkpt lat="41.03219" lon="14.3958517"><ele>63.0</ele><time>2026-04-18T08:57:56.102Z</time></trkpt><trkpt lat="41.0322117" lon="14.3957133"><ele>63.0</ele><time>2026-04-18T08:57:57.102Z</time></trkpt><trkpt lat="41.032235" lon="14.3955767"><ele>63.0</ele><time>2026-04-18T08:57:58.102Z</time></trkpt><trkpt lat="41.0322683" lon="14.39542"><ele>63.0</ele><time>2026-04-18T08:57:59.102Z</time></trkpt><trkpt lat="41.0323133" lon="14.395265"><ele>63.0</ele><time>2026-04-18T08:58:00.102Z</time></trkpt><trkpt lat="41.0323617" lon="14.3951083"><ele>63.25</ele><time>2026-04-18T08:58:01.102Z</time></trkpt><trkpt lat="41.032405" lon="14.3949533"><ele>63.5</ele><time>2026-04-18T08:58:02.102Z</time></trkpt><trkpt lat="41.0324567" lon="14.3947967"><ele>63.75</ele><time>2026-04-18T08:58:03.102Z</time></trkpt><trkpt lat="41.0325117" lon="14.3946417"><ele>64.0</ele><time>2026-04-18T08:58:04.102Z</time></trkpt><trkpt lat="41.0325733" lon="14.3944817"><ele>64.0</ele><time>2026-04-18T08:58:05.102Z</time></trkpt><trkpt lat="41.032635" lon="14.3943267"><ele>64.0</ele><time>2026-04-18T08:58:06.103Z</time></trkpt><trkpt lat="41.0326933" lon="14.3941767"><ele>64.0</ele><time>2026-04-18T08:58:07.102Z</time></trkpt><trkpt lat="41.0327433" lon="14.3940367"><ele>64.0</ele><time>2026-04-18T08:58:08.102Z</time></trkpt><trkpt lat="41.0327967" lon="14.3939033"><ele>63.99999999999999</ele><time>2026-04-18T08:58:09.102Z</time></trkpt><trkpt lat="41.032835" lon="14.393785"><ele>64.0</ele><time>2026-04-18T08:58:10.102Z</time></trkpt><trkpt lat="41.0328633" lon="14.3936717"><ele>64.0</ele><time>2026-04-18T08:58:11.102Z</time></trkpt><trkpt lat="41.0328867" lon="14.3935567"><ele>64.0</ele><time>2026-04-18T08:58:12.102Z</time></trkpt><trkpt lat="41.0329083" lon="14.3934467"><ele>63.99999999999999</ele><time>2026-04-18T08:58:13.102Z</time></trkpt><trkpt lat="41.0329367" lon="14.3933467"><ele>64.0</ele><time>2026-04-18T08:58:14.103Z</time></trkpt><trkpt lat="41.03296" lon="14.3932567"><ele>64.0</ele><time>2026-04-18T08:58:15.102Z</time></trkpt><trkpt lat="41.0329967" lon="14.3931317"><ele>64.0</ele><time>2026-04-18T08:58:17.102Z</time></trkpt><trkpt lat="41.0330383" lon="14.3930267"><ele>64.0</ele><time>2026-04-18T08:58:19.102Z</time></trkpt><trkpt lat="41.03309" lon="14.3929033"><ele>64.0</ele><time>2026-04-18T08:58:21.102Z</time></trkpt><trkpt lat="41.0331383" lon="14.392775"><ele>64.0</ele><time>2026-04-18T08:58:23.102Z</time></trkpt><trkpt lat="41.033195" lon="14.3926517"><ele>63.6</ele><time>2026-04-18T08:58:25.102Z</time></trkpt><trkpt lat="41.0332483" lon="14.3925233"><ele>63.2</ele><time>2026-04-18T08:58:27.102Z</time></trkpt><trkpt lat="41.0333067" lon="14.3923967"><ele>62.800000000000004</ele><time>2026-04-18T08:58:29.102Z</time></trkpt><trkpt lat="41.033365" lon="14.3922667"><ele>62.400000000000006</ele><time>2026-04-18T08:58:31.103Z</time></trkpt><trkpt lat="41.033415" lon="14.3921683"><ele>62.0</ele><time>2026-04-18T08:58:33.102Z</time></trkpt><trkpt lat="41.0334167" lon="14.3920667"><ele>61.8</ele><time>2026-04-18T08:58:35.103Z</time></trkpt><trkpt lat="41.0333483" lon="14.3920083"><ele>61.6</ele><time>2026-04-18T08:58:37.102Z</time></trkpt><trkpt lat="41.0332833" lon="14.392005"><ele>61.39999999999999</ele><time>2026-04-18T08:58:38.102Z</time></trkpt><trkpt lat="41.0332017" lon="14.392005"><ele>61.199999999999996</ele><time>2026-04-18T08:58:39.102Z</time></trkpt><trkpt lat="41.0330933" lon="14.3920117"><ele>61.0</ele><time>2026-04-18T08:58:40.102Z</time></trkpt><trkpt lat="41.0329733" lon="14.3920083"><ele>61.0</ele><time>2026-04-18T08:58:41.102Z</time></trkpt><trkpt lat="41.0328367" lon="14.392005"><ele>61.0</ele><time>2026-04-18T08:58:42.102Z</time></trkpt><trkpt lat="41.032695" lon="14.3919983"><ele>61.0</ele><time>2026-04-18T08:58:43.102Z</time></trkpt><trkpt lat="41.032555" lon="14.3919983"><ele>61.0</ele><time>2026-04-18T08:58:44.102Z</time></trkpt><trkpt lat="41.0324083" lon="14.3919983"><ele>60.33333333333333</ele><time>2026-04-18T08:58:45.102Z</time></trkpt><trkpt lat="41.0322517" lon="14.39201"><ele>59.66666666666667</ele><time>2026-04-18T08:58:46.102Z</time></trkpt><trkpt lat="41.0321033" lon="14.3920067"><ele>59.0</ele><time>2026-04-18T08:58:47.102Z</time></trkpt><trkpt lat="41.0319583" lon="14.3920067"><ele>59.0</ele><time>2026-04-18T08:58:48.102Z</time></trkpt><trkpt lat="41.031815" lon="14.392005"><ele>59.0</ele><time>2026-04-18T08:58:49.102Z</time></trkpt><trkpt lat="41.0316667" lon="14.3919967"><ele>59.0</ele><time>2026-04-18T08:58:50.102Z</time></trkpt><trkpt lat="41.0315083" lon="14.3919933"><ele>59.0</ele><time>2026-04-18T08:58:51.102Z</time></trkpt><trkpt lat="41.03135" lon="14.391995"><ele>59.0</ele><time>2026-04-18T08:58:52.102Z</time></trkpt><trkpt lat="41.03119" lon="14.3919933"><ele>59.0</ele><time>2026-04-18T08:58:53.103Z</time></trkpt><trkpt lat="41.03103" lon="14.3919933"><ele>59.0</ele><time>2026-04-18T08:58:54.102Z</time></trkpt><trkpt lat="41.0308633" lon="14.3919983"><ele>59.0</ele><time>2026-04-18T08:58:55.102Z</time></trkpt><trkpt lat="41.0306967" lon="14.3919933"><ele>59.0</ele><time>2026-04-18T08:58:56.102Z</time></trkpt><trkpt lat="41.0305283" lon="14.3919933"><ele>59.0</ele><time>2026-04-18T08:58:57.102Z</time></trkpt><trkpt lat="41.0303817" lon="14.3920017"><ele>59.0</ele><time>2026-04-18T08:58:58.102Z</time></trkpt><trkpt lat="41.0302367" lon="14.3920017"><ele>59.0</ele><time>2026-04-18T08:58:59.102Z</time></trkpt><trkpt lat="41.0300983" lon="14.39201"><ele>59.0</ele><time>2026-04-18T08:59:00.102Z</time></trkpt><trkpt lat="41.0299683" lon="14.3920133"><ele>58.400000000000006</ele><time>2026-04-18T08:59:01.102Z</time></trkpt><trkpt lat="41.0298517" lon="14.3920117"><ele>57.800000000000004</ele><time>2026-04-18T08:59:02.102Z</time></trkpt><trkpt lat="41.02973" lon="14.3919733"><ele>57.199999999999996</ele><time>2026-04-18T08:59:03.102Z</time></trkpt><trkpt lat="41.0296317" lon="14.3919733"><ele>56.599999999999994</ele><time>2026-04-18T08:59:04.102Z</time></trkpt><trkpt lat="41.0295367" lon="14.3919767"><ele>56.0</ele><time>2026-04-18T08:59:05.102Z</time></trkpt><trkpt lat="41.02946" lon="14.391985"><ele>56.0</ele><time>2026-04-18T08:59:06.102Z</time></trkpt><trkpt lat="41.0293617" lon="14.3919733"><ele>55.99999999999999</ele><time>2026-04-18T08:59:08.102Z</time></trkpt><trkpt lat="41.0292717" lon="14.3919583"><ele>55.99999999999999</ele><time>2026-04-18T08:59:21.102Z</time></trkpt><trkpt lat="41.0291233" lon="14.3919933"><ele>56.0</ele><time>2026-04-18T08:59:35.102Z</time></trkpt><trkpt lat="41.029055" lon="14.3920183"><ele>56.0</ele><time>2026-04-18T08:59:39.102Z</time></trkpt><trkpt lat="41.0289533" lon="14.3920633"><ele>55.833333333333336</ele><time>2026-04-18T08:59:58.103Z</time></trkpt><trkpt lat="41.0288817" lon="14.3921233"><ele>55.66666666666667</ele><time>2026-04-18T09:00:05.102Z</time></trkpt><trkpt lat="41.0288233" lon="14.3921617"><ele>55.5</ele><time>2026-04-18T09:00:08.102Z</time></trkpt><trkpt lat="41.028775" lon="14.3922333"><ele>55.33333333333333</ele><time>2026-04-18T09:00:31.102Z</time></trkpt><trkpt lat="41.0288117" lon="14.39231"><ele>55.166666666666664</ele><time>2026-04-18T09:00:33.102Z</time></trkpt><trkpt lat="41.028885" lon="14.3924467"><ele>55.0</ele><time>2026-04-18T09:00:35.102Z</time></trkpt><trkpt lat="41.028905" lon="14.3925783"><ele>55.0</ele><time>2026-04-18T09:00:37.102Z</time></trkpt><trkpt lat="41.0288567" lon="14.392675"><ele>55.0</ele><time>2026-04-18T09:00:40.102Z</time></trkpt><trkpt lat="41.02878" lon="14.3927067"><ele>55.0</ele><time>2026-04-18T09:00:42.103Z</time></trkpt><trkpt lat="41.0286867" lon="14.39271"><ele>55.0</ele><time>2026-04-18T09:00:44.102Z</time></trkpt><trkpt lat="41.0285783" lon="14.392625"><ele>55.0</ele><time>2026-04-18T09:00:46.102Z</time></trkpt><trkpt lat="41.0285117" lon="14.3925583"><ele>55.0</ele><time>2026-04-18T09:00:47.102Z</time></trkpt><trkpt lat="41.0284383" lon="14.3924833"><ele>55.0</ele><time>2026-04-18T09:00:48.102Z</time></trkpt><trkpt lat="41.0283617" lon="14.3924033"><ele>55.0</ele><time>2026-04-18T09:00:49.102Z</time></trkpt><trkpt lat="41.0282817" lon="14.3923417"><ele>55.0</ele><time>2026-04-18T09:00:50.102Z</time></trkpt><trkpt lat="41.0281933" lon="14.3922933"><ele>55.0</ele><time>2026-04-18T09:00:51.102Z</time></trkpt><trkpt lat="41.0280867" lon="14.39226"><ele>54.25</ele><time>2026-04-18T09:00:52.102Z</time></trkpt><trkpt lat="41.02797" lon="14.3922467"><ele>53.5</ele><time>2026-04-18T09:00:53.102Z</time></trkpt><trkpt lat="41.0278383" lon="14.3922333"><ele>52.75</ele><time>2026-04-18T09:00:54.102Z</time></trkpt><trkpt lat="41.027705" lon="14.3922317"><ele>52.0</ele><time>2026-04-18T09:00:55.102Z</time></trkpt><trkpt lat="41.0275717" lon="14.39223"><ele>52.0</ele><time>2026-04-18T09:00:56.102Z</time></trkpt><trkpt lat="41.0274467" lon="14.3922317"><ele>52.0</ele><time>2026-04-18T09:00:57.102Z</time></trkpt><trkpt lat="41.0273183" lon="14.3922417"><ele>52.0</ele><time>2026-04-18T09:00:58.102Z</time></trkpt><trkpt lat="41.027185" lon="14.3922633"><ele>52.0</ele><time>2026-04-18T09:00:59.102Z</time></trkpt><trkpt lat="41.0270433" lon="14.3922867"><ele>52.0</ele><time>2026-04-18T09:01:00.102Z</time></trkpt><trkpt lat="41.0268967" lon="14.39231"><ele>52.0</ele><time>2026-04-18T09:01:01.103Z</time></trkpt><trkpt lat="41.0267567" lon="14.392335"><ele>52.0</ele><time>2026-04-18T09:01:02.103Z</time></trkpt><trkpt lat="41.026605" lon="14.3923783"><ele>52.0</ele><time>2026-04-18T09:01:03.102Z</time></trkpt><trkpt lat="41.026455" lon="14.392395"><ele>51.75</ele><time>2026-04-18T09:01:04.102Z</time></trkpt><trkpt lat="41.0263033" lon="14.3923817"><ele>51.5</ele><time>2026-04-18T09:01:05.102Z</time></trkpt><trkpt lat="41.0261533" lon="14.3923583"><ele>51.25</ele><time>2026-04-18T09:01:06.102Z</time></trkpt><trkpt lat="41.02601" lon="14.39233"><ele>51.0</ele><time>2026-04-18T09:01:07.102Z</time></trkpt><trkpt lat="41.0258533" lon="14.3923133"><ele>51.0</ele><time>2026-04-18T09:01:08.102Z</time></trkpt><trkpt lat="41.025695" lon="14.39229"><ele>51.0</ele><time>2026-04-18T09:01:09.102Z</time></trkpt><trkpt lat="41.0255333" lon="14.3922667"><ele>51.0</ele><time>2026-04-18T09:01:10.102Z</time></trkpt><trkpt lat="41.025365" lon="14.3922633"><ele>51.0</ele><time>2026-04-18T09:01:11.103Z</time></trkpt><trkpt lat="41.0251933" lon="14.39226"><ele>51.0</ele><time>2026-04-18T09:01:12.102Z</time></trkpt><trkpt lat="41.0250083" lon="14.392265"><ele>51.0</ele><time>2026-04-18T09:01:13.102Z</time></trkpt><trkpt lat="41.024815" lon="14.3922633"><ele>50.33333333333333</ele><time>2026-04-18T09:01:14.102Z</time></trkpt><trkpt lat="41.02461" lon="14.3922567"><ele>49.666666666666664</ele><time>2026-04-18T09:01:15.101Z</time></trkpt><trkpt lat="41.0244183" lon="14.3922467"><ele>49.0</ele><time>2026-04-18T09:01:16.101Z</time></trkpt><trkpt lat="41.0242483" lon="14.392235"><ele>48.666666666666664</ele><time>2026-04-18T09:01:17.101Z</time></trkpt><trkpt lat="41.024085" lon="14.3922233"><ele>48.33333333333333</ele><time>2026-04-18T09:01:18.101Z</time></trkpt><trkpt lat="41.023935" lon="14.3922233"><ele>48.0</ele><time>2026-04-18T09:01:19.101Z</time></trkpt><trkpt lat="41.0237767" lon="14.3922117"><ele>48.0</ele><time>2026-04-18T09:01:20.101Z</time></trkpt><trkpt lat="41.0236233" lon="14.3921983"><ele>48.0</ele><time>2026-04-18T09:01:21.101Z</time></trkpt><trkpt lat="41.0234667" lon="14.3921867"><ele>48.0</ele><time>2026-04-18T09:01:22.101Z</time></trkpt><trkpt lat="41.02331" lon="14.3921883"><ele>48.0</ele><time>2026-04-18T09:01:23.101Z</time></trkpt><trkpt lat="41.02315" lon="14.3921917"><ele>48.0</ele><time>2026-04-18T09:01:24.101Z</time></trkpt><trkpt lat="41.02299" lon="14.3921917"><ele>48.0</ele><time>2026-04-18T09:01:25.101Z</time></trkpt><trkpt lat="41.0228367" lon="14.3922"><ele>48.0</ele><time>2026-04-18T09:01:26.101Z</time></trkpt><trkpt lat="41.0226783" lon="14.39221"><ele>48.0</ele><time>2026-04-18T09:01:27.101Z</time></trkpt><trkpt lat="41.0225217" lon="14.3922183"><ele>48.0</ele><time>2026-04-18T09:01:28.101Z</time></trkpt><trkpt lat="41.0223617" lon="14.3922217"><ele>47.666666666666664</ele><time>2026-04-18T09:01:29.101Z</time></trkpt><trkpt lat="41.0221933" lon="14.3922217"><ele>47.33333333333333</ele><time>2026-04-18T09:01:30.101Z</time></trkpt><trkpt lat="41.0220217" lon="14.3922183"><ele>47.0</ele><time>2026-04-18T09:01:31.101Z</time></trkpt><trkpt lat="41.0218467" lon="14.39222"><ele>47.0</ele><time>2026-04-18T09:01:32.101Z</time></trkpt><trkpt lat="41.0216617" lon="14.392225"><ele>47.0</ele><time>2026-04-18T09:01:33.101Z</time></trkpt><trkpt lat="41.02147" lon="14.3922417"><ele>47.0</ele><time>2026-04-18T09:01:34.101Z</time></trkpt><trkpt lat="41.0212633" lon="14.392255"><ele>46.666666666666664</ele><time>2026-04-18T09:01:35.101Z</time></trkpt><trkpt lat="41.021055" lon="14.3922567"><ele>46.333333333333336</ele><time>2026-04-18T09:01:36.101Z</time></trkpt><trkpt lat="41.0208617" lon="14.3922567"><ele>46.0</ele><time>2026-04-18T09:01:37.101Z</time></trkpt><trkpt lat="41.0206817" lon="14.392255"><ele>45.66666666666667</ele><time>2026-04-18T09:01:38.101Z</time></trkpt><trkpt lat="41.020505" lon="14.3922517"><ele>45.333333333333336</ele><time>2026-04-18T09:01:39.101Z</time></trkpt><trkpt lat="41.0203267" lon="14.39225"><ele>45.0</ele><time>2026-04-18T09:01:40.101Z</time></trkpt><trkpt lat="41.0201533" lon="14.3922483"><ele>44.0</ele><time>2026-04-18T09:01:41.101Z</time></trkpt><trkpt lat="41.0199833" lon="14.392245"><ele>43.0</ele><time>2026-04-18T09:01:42.101Z</time></trkpt><trkpt lat="41.0198133" lon="14.3922467"><ele>42.0</ele><time>2026-04-18T09:01:43.101Z</time></trkpt><trkpt lat="41.0196383" lon="14.3922433"><ele>42.0</ele><time>2026-04-18T09:01:44.101Z</time></trkpt><trkpt lat="41.019455" lon="14.3922417"><ele>42.0</ele><time>2026-04-18T09:01:45.101Z</time></trkpt><trkpt lat="41.01927" lon="14.3922433"><ele>42.0</ele><time>2026-04-18T09:01:46.101Z</time></trkpt><trkpt lat="41.0190783" lon="14.392245"><ele>42.0</ele><time>2026-04-18T09:01:47.101Z</time></trkpt><trkpt lat="41.0188867" lon="14.3922467"><ele>42.0</ele><time>2026-04-18T09:01:48.101Z</time></trkpt><trkpt lat="41.018705" lon="14.3922517"><ele>42.0</ele><time>2026-04-18T09:01:49.101Z</time></trkpt><trkpt lat="41.01853" lon="14.3922517"><ele>42.0</ele><time>2026-04-18T09:01:50.101Z</time></trkpt><trkpt lat="41.0183683" lon="14.3922517"><ele>42.0</ele><time>2026-04-18T09:01:51.102Z</time></trkpt><trkpt lat="41.0182033" lon="14.3922483"><ele>42.0</ele><time>2026-04-18T09:01:52.101Z</time></trkpt><trkpt lat="41.0180417" lon="14.3922483"><ele>42.0</ele><time>2026-04-18T09:01:53.101Z</time></trkpt><trkpt lat="41.0178817" lon="14.3922467"><ele>42.0</ele><time>2026-04-18T09:01:54.101Z</time></trkpt><trkpt lat="41.0177433" lon="14.3922383"><ele>42.0</ele><time>2026-04-18T09:01:55.101Z</time></trkpt><trkpt lat="41.0176017" lon="14.3922467"><ele>42.0</ele><time>2026-04-18T09:01:56.101Z</time></trkpt><trkpt lat="41.01747" lon="14.392255"><ele>42.25</ele><time>2026-04-18T09:01:57.101Z</time></trkpt><trkpt lat="41.0173317" lon="14.3922583"><ele>42.5</ele><time>2026-04-18T09:01:58.102Z</time></trkpt><trkpt lat="41.0171967" lon="14.3922533"><ele>42.75</ele><time>2026-04-18T09:01:59.101Z</time></trkpt><trkpt lat="41.0170733" lon="14.392245"><ele>43.0</ele><time>2026-04-18T09:02:00.101Z</time></trkpt><trkpt lat="41.0169517" lon="14.392225"><ele>43.0</ele><time>2026-04-18T09:02:01.101Z</time></trkpt><trkpt lat="41.0168483" lon="14.3922117"><ele>43.0</ele><time>2026-04-18T09:02:02.101Z</time></trkpt><trkpt lat="41.016755" lon="14.3922017"><ele>43.0</ele><time>2026-04-18T09:02:03.101Z</time></trkpt><trkpt lat="41.0166667" lon="14.39218"><ele>43.0</ele><time>2026-04-18T09:02:04.102Z</time></trkpt><trkpt lat="41.0165817" lon="14.39214"><ele>43.0</ele><time>2026-04-18T09:02:05.101Z</time></trkpt><trkpt lat="41.0164983" lon="14.3920967"><ele>42.199999999999996</ele><time>2026-04-18T09:02:06.101Z</time></trkpt><trkpt lat="41.0164133" lon="14.3920617"><ele>41.4</ele><time>2026-04-18T09:02:07.101Z</time></trkpt><trkpt lat="41.0163167" lon="14.3920383"><ele>40.599999999999994</ele><time>2026-04-18T09:02:08.101Z</time></trkpt><trkpt lat="41.0162067" lon="14.392015"><ele>39.8</ele><time>2026-04-18T09:02:09.101Z</time></trkpt><trkpt lat="41.0160783" lon="14.3920033"><ele>39.0</ele><time>2026-04-18T09:02:10.101Z</time></trkpt><trkpt lat="41.0159317" lon="14.391985"><ele>38.333333333333336</ele><time>2026-04-18T09:02:11.101Z</time></trkpt><trkpt lat="41.01577" lon="14.3919683"><ele>37.66666666666667</ele><time>2026-04-18T09:02:12.101Z</time></trkpt><trkpt lat="41.0155883" lon="14.3919583"><ele>37.0</ele><time>2026-04-18T09:02:13.102Z</time></trkpt><trkpt lat="41.0153967" lon="14.39194"><ele>37.0</ele><time>2026-04-18T09:02:14.101Z</time></trkpt><trkpt lat="41.0151983" lon="14.3919233"><ele>37.0</ele><time>2026-04-18T09:02:15.101Z</time></trkpt><trkpt lat="41.0150067" lon="14.3919133"><ele>37.0</ele><time>2026-04-18T09:02:16.101Z</time></trkpt><trkpt lat="41.0148267" lon="14.3919"><ele>37.333333333333336</ele><time>2026-04-18T09:02:17.101Z</time></trkpt><trkpt lat="41.014655" lon="14.3918917"><ele>37.666666666666664</ele><time>2026-04-18T09:02:18.101Z</time></trkpt><trkpt lat="41.01449" lon="14.391875"><ele>38.0</ele><time>2026-04-18T09:02:19.101Z</time></trkpt><trkpt lat="41.01432" lon="14.3918617"><ele>37.33333333333333</ele><time>2026-04-18T09:02:20.101Z</time></trkpt><trkpt lat="41.01414" lon="14.3918383"><ele>36.666666666666664</ele><time>2026-04-18T09:02:21.101Z</time></trkpt><trkpt lat="41.0139583" lon="14.3918167"><ele>36.0</ele><time>2026-04-18T09:02:22.101Z</time></trkpt><trkpt lat="41.01379" lon="14.391785"><ele>36.0</ele><time>2026-04-18T09:02:23.101Z</time></trkpt><trkpt lat="41.0136383" lon="14.3917717"><ele>36.0</ele><time>2026-04-18T09:02:24.101Z</time></trkpt><trkpt lat="41.0134917" lon="14.3917633"><ele>36.0</ele><time>2026-04-18T09:02:25.101Z</time></trkpt><trkpt lat="41.013355" lon="14.39178"><ele>36.0</ele><time>2026-04-18T09:02:26.101Z</time></trkpt><trkpt lat="41.0132217" lon="14.3918217"><ele>35.5</ele><time>2026-04-18T09:02:27.101Z</time></trkpt><trkpt lat="41.0130867" lon="14.3918717"><ele>35.0</ele><time>2026-04-18T09:02:28.101Z</time></trkpt><trkpt lat="41.0129567" lon="14.3919133"><ele>34.5</ele><time>2026-04-18T09:02:29.102Z</time></trkpt><trkpt lat="41.0128467" lon="14.3919283"><ele>34.0</ele><time>2026-04-18T09:02:30.102Z</time></trkpt><trkpt lat="41.0127517" lon="14.3919033"><ele>34.0</ele><time>2026-04-18T09:02:31.101Z</time></trkpt><trkpt lat="41.012675" lon="14.3918367"><ele>34.0</ele><time>2026-04-18T09:02:32.101Z</time></trkpt><trkpt lat="41.0126033" lon="14.3917417"><ele>34.0</ele><time>2026-04-18T09:02:33.101Z</time></trkpt><trkpt lat="41.0125267" lon="14.39163"><ele>34.0</ele><time>2026-04-18T09:02:34.101Z</time></trkpt><trkpt lat="41.01244" lon="14.3915083"><ele>34.0</ele><time>2026-04-18T09:02:35.101Z</time></trkpt><trkpt lat="41.0123383" lon="14.3913917"><ele>33.25</ele><time>2026-04-18T09:02:36.102Z</time></trkpt><trkpt lat="41.01223" lon="14.3912917"><ele>32.5</ele><time>2026-04-18T09:02:37.101Z</time></trkpt><trkpt lat="41.0121183" lon="14.3912183"><ele>31.75</ele><time>2026-04-18T09:02:38.101Z</time></trkpt><trkpt lat="41.011995" lon="14.3911883"><ele>31.0</ele><time>2026-04-18T09:02:39.101Z</time></trkpt><trkpt lat="41.0118633" lon="14.3911883"><ele>31.0</ele><time>2026-04-18T09:02:40.101Z</time></trkpt><trkpt lat="41.0117167" lon="14.391215"><ele>31.0</ele><time>2026-04-18T09:02:41.101Z</time></trkpt><trkpt lat="41.0115617" lon="14.3912667"><ele>31.0</ele><time>2026-04-18T09:02:42.101Z</time></trkpt><trkpt lat="41.011405" lon="14.3913217"><ele>31.0</ele><time>2026-04-18T09:02:43.101Z</time></trkpt><trkpt lat="41.0112517" lon="14.39139"><ele>31.0</ele><time>2026-04-18T09:02:44.101Z</time></trkpt><trkpt lat="41.0110917" lon="14.3914933"><ele>31.0</ele><time>2026-04-18T09:02:45.101Z</time></trkpt><trkpt lat="41.0109333" lon="14.3916117"><ele>30.666666666666668</ele><time>2026-04-18T09:02:46.101Z</time></trkpt><trkpt lat="41.0107783" lon="14.39172"><ele>30.333333333333336</ele><time>2026-04-18T09:02:47.101Z</time></trkpt><trkpt lat="41.010625" lon="14.3918133"><ele>30.0</ele><time>2026-04-18T09:02:48.101Z</time></trkpt><trkpt lat="41.010485" lon="14.3919483"><ele>30.0</ele><time>2026-04-18T09:02:49.101Z</time></trkpt><trkpt lat="41.01035" lon="14.3920367"><ele>30.0</ele><time>2026-04-18T09:02:50.101Z</time></trkpt><trkpt lat="41.0102167" lon="14.3921233"><ele>30.0</ele><time>2026-04-18T09:02:51.101Z</time></trkpt><trkpt lat="41.010085" lon="14.3921833"><ele>30.0</ele><time>2026-04-18T09:02:52.101Z</time></trkpt><trkpt lat="41.0099483" lon="14.3922133"><ele>30.0</ele><time>2026-04-18T09:02:53.101Z</time></trkpt><trkpt lat="41.0098067" lon="14.3922117"><ele>30.0</ele><time>2026-04-18T09:02:54.101Z</time></trkpt><trkpt lat="41.00967" lon="14.3921967"><ele>30.0</ele><time>2026-04-18T09:02:55.101Z</time></trkpt><trkpt lat="41.00954" lon="14.39218"><ele>30.0</ele><time>2026-04-18T09:02:56.101Z</time></trkpt><trkpt lat="41.0094167" lon="14.39217"><ele>30.25</ele><time>2026-04-18T09:02:57.101Z</time></trkpt><trkpt lat="41.0092933" lon="14.3921567"><ele>30.5</ele><time>2026-04-18T09:02:58.101Z</time></trkpt><trkpt lat="41.0091617" lon="14.392155"><ele>30.75</ele><time>2026-04-18T09:02:59.101Z</time></trkpt><trkpt lat="41.0090183" lon="14.3921467"><ele>31.0</ele><time>2026-04-18T09:03:00.101Z</time></trkpt><trkpt lat="41.0088883" lon="14.3921567"><ele>30.25</ele><time>2026-04-18T09:03:01.101Z</time></trkpt><trkpt lat="41.008755" lon="14.39218"><ele>29.5</ele><time>2026-04-18T09:03:02.101Z</time></trkpt><trkpt lat="41.008625" lon="14.3922067"><ele>28.75</ele><time>2026-04-18T09:03:03.101Z</time></trkpt><trkpt lat="41.0084833" lon="14.3922433"><ele>28.0</ele><time>2026-04-18T09:03:04.101Z</time></trkpt><trkpt lat="41.008335" lon="14.3922867"><ele>27.75</ele><time>2026-04-18T09:03:05.101Z</time></trkpt><trkpt lat="41.0081883" lon="14.3923317"><ele>27.5</ele><time>2026-04-18T09:03:06.101Z</time></trkpt><trkpt lat="41.0080433" lon="14.3923783"><ele>27.25</ele><time>2026-04-18T09:03:07.101Z</time></trkpt><trkpt lat="41.0079017" lon="14.3924267"><ele>27.0</ele><time>2026-04-18T09:03:08.101Z</time></trkpt><trkpt lat="41.0077633" lon="14.39247"><ele>27.0</ele><time>2026-04-18T09:03:09.101Z</time></trkpt><trkpt lat="41.0076283" lon="14.39252"><ele>27.0</ele><time>2026-04-18T09:03:10.101Z</time></trkpt><trkpt lat="41.0075" lon="14.3925633"><ele>27.0</ele><time>2026-04-18T09:03:11.101Z</time></trkpt><trkpt lat="41.0073783" lon="14.3926017"><ele>27.0</ele><time>2026-04-18T09:03:12.101Z</time></trkpt><trkpt lat="41.0072783" lon="14.3926367"><ele>27.166666666666668</ele><time>2026-04-18T09:03:13.101Z</time></trkpt><trkpt lat="41.0071867" lon="14.39266"><ele>27.333333333333336</ele><time>2026-04-18T09:03:14.101Z</time></trkpt><trkpt lat="41.0071033" lon="14.39268"><ele>27.5</ele><time>2026-04-18T09:03:15.101Z</time></trkpt><trkpt lat="41.007035" lon="14.3926983"><ele>27.666666666666668</ele><time>2026-04-18T09:03:16.101Z</time></trkpt><trkpt lat="41.006935" lon="14.3927133"><ele>27.833333333333336</ele><time>2026-04-18T09:03:18.102Z</time></trkpt><trkpt lat="41.006865" lon="14.392735"><ele>28.0</ele><time>2026-04-18T09:03:21.101Z</time></trkpt><trkpt lat="41.0067983" lon="14.3927617"><ele>28.000000000000004</ele><time>2026-04-18T09:04:30.101Z</time></trkpt><trkpt lat="41.006735" lon="14.3927767"><ele>28.0</ele><time>2026-04-18T09:04:31.101Z</time></trkpt><trkpt lat="41.0066567" lon="14.3927933"><ele>28.0</ele><time>2026-04-18T09:04:32.101Z</time></trkpt><trkpt lat="41.0065667" lon="14.3928083"><ele>28.0</ele><time>2026-04-18T09:04:33.101Z</time></trkpt><trkpt lat="41.0064733" lon="14.3928183"><ele>28.000000000000004</ele><time>2026-04-18T09:04:34.101Z</time></trkpt><trkpt lat="41.0063733" lon="14.3928317"><ele>28.0</ele><time>2026-04-18T09:04:35.101Z</time></trkpt><trkpt lat="41.006275" lon="14.3928483"><ele>27.799999999999997</ele><time>2026-04-18T09:04:36.102Z</time></trkpt><trkpt lat="41.00617" lon="14.3928667"><ele>27.599999999999998</ele><time>2026-04-18T09:04:37.101Z</time></trkpt><trkpt lat="41.00606" lon="14.3928867"><ele>27.400000000000002</ele><time>2026-04-18T09:04:38.101Z</time></trkpt><trkpt lat="41.005945" lon="14.3929017"><ele>27.200000000000003</ele><time>2026-04-18T09:04:39.101Z</time></trkpt><trkpt lat="41.005835" lon="14.3929167"><ele>27.0</ele><time>2026-04-18T09:04:40.101Z</time></trkpt><trkpt lat="41.00574" lon="14.39293"><ele>27.0</ele><time>2026-04-18T09:04:41.102Z</time></trkpt><trkpt lat="41.005655" lon="14.392935"><ele>27.0</ele><time>2026-04-18T09:04:42.101Z</time></trkpt><trkpt lat="41.0055817" lon="14.3929417"><ele>27.0</ele><time>2026-04-18T09:04:43.101Z</time></trkpt><trkpt lat="41.005465" lon="14.3929483"><ele>27.0</ele><time>2026-04-18T09:04:45.101Z</time></trkpt><trkpt lat="41.0053883" lon="14.3929483"><ele>27.0</ele><time>2026-04-18T09:04:47.101Z</time></trkpt><trkpt lat="41.00532" lon="14.3929617"><ele>27.0</ele><time>2026-04-18T09:07:04.101Z</time></trkpt><trkpt lat="41.0052467" lon="14.392975"><ele>27.0</ele><time>2026-04-18T09:07:05.101Z</time></trkpt><trkpt lat="41.005135" lon="14.3929933"><ele>27.0</ele><time>2026-04-18T09:07:06.101Z</time></trkpt><trkpt lat="41.005" lon="14.3930117"><ele>27.0</ele><time>2026-04-18T09:07:07.101Z</time></trkpt><trkpt lat="41.0048567" lon="14.393025"><ele>27.0</ele><time>2026-04-18T09:07:08.101Z</time></trkpt><trkpt lat="41.004705" lon="14.393035"><ele>27.666666666666664</ele><time>2026-04-18T09:07:09.102Z</time></trkpt><trkpt lat="41.00455" lon="14.393055"><ele>28.333333333333332</ele><time>2026-04-18T09:07:10.101Z</time></trkpt><trkpt lat="41.0043917" lon="14.3930817"><ele>29.0</ele><time>2026-04-18T09:07:11.101Z</time></trkpt><trkpt lat="41.0042317" lon="14.3930967"><ele>29.25</ele><time>2026-04-18T09:07:12.101Z</time></trkpt><trkpt lat="41.004085" lon="14.39311"><ele>29.5</ele><time>2026-04-18T09:07:13.101Z</time></trkpt><trkpt lat="41.003945" lon="14.393125"><ele>29.75</ele><time>2026-04-18T09:07:14.101Z</time></trkpt><trkpt lat="41.0038083" lon="14.3931367"><ele>30.0</ele><time>2026-04-18T09:07:15.102Z</time></trkpt><trkpt lat="41.0036733" lon="14.3931317"><ele>30.0</ele><time>2026-04-18T09:07:16.101Z</time></trkpt><trkpt lat="41.0035467" lon="14.39313"><ele>30.0</ele><time>2026-04-18T09:07:17.101Z</time></trkpt><trkpt lat="41.0034167" lon="14.39313"><ele>30.0</ele><time>2026-04-18T09:07:18.101Z</time></trkpt><trkpt lat="41.0032917" lon="14.3931317"><ele>30.0</ele><time>2026-04-18T09:07:19.101Z</time></trkpt><trkpt lat="41.003185" lon="14.39313"><ele>29.666666666666668</ele><time>2026-04-18T09:07:20.102Z</time></trkpt><trkpt lat="41.0030933" lon="14.39314"><ele>29.333333333333336</ele><time>2026-04-18T09:07:21.101Z</time></trkpt><trkpt lat="41.0030117" lon="14.3931683"><ele>29.0</ele><time>2026-04-18T09:07:22.101Z</time></trkpt><trkpt lat="41.0029383" lon="14.3932167"><ele>28.666666666666668</ele><time>2026-04-18T09:07:23.101Z</time></trkpt><trkpt lat="41.0028683" lon="14.393275"><ele>28.333333333333336</ele><time>2026-04-18T09:07:24.101Z</time></trkpt><trkpt lat="41.0027833" lon="14.39331"><ele>28.0</ele><time>2026-04-18T09:07:25.101Z</time></trkpt><trkpt lat="41.0026767" lon="14.3933383"><ele>28.0</ele><time>2026-04-18T09:07:26.102Z</time></trkpt><trkpt lat="41.0025567" lon="14.3933667"><ele>28.0</ele><time>2026-04-18T09:07:27.101Z</time></trkpt><trkpt lat="41.0024183" lon="14.3934067"><ele>28.0</ele><time>2026-04-18T09:07:28.101Z</time></trkpt><trkpt lat="41.002275" lon="14.3934717"><ele>28.0</ele><time>2026-04-18T09:07:29.101Z</time></trkpt><trkpt lat="41.002135" lon="14.393545"><ele>28.333333333333336</ele><time>2026-04-18T09:07:30.101Z</time></trkpt><trkpt lat="41.001995" lon="14.3936317"><ele>28.666666666666664</ele><time>2026-04-18T09:07:31.101Z</time></trkpt><trkpt lat="41.0018633" lon="14.393725"><ele>29.0</ele><time>2026-04-18T09:07:32.101Z</time></trkpt><trkpt lat="41.0017267" lon="14.3938233"><ele>29.0</ele><time>2026-04-18T09:07:33.101Z</time></trkpt><trkpt lat="41.0016" lon="14.3939217"><ele>29.0</ele><time>2026-04-18T09:07:34.101Z</time></trkpt><trkpt lat="41.0014733" lon="14.3940167"><ele>29.0</ele><time>2026-04-18T09:07:35.101Z</time></trkpt><trkpt lat="41.001345" lon="14.3941083"><ele>29.0</ele><time>2026-04-18T09:07:36.101Z</time></trkpt><trkpt lat="41.0012233" lon="14.3942017"><ele>29.0</ele><time>2026-04-18T09:07:37.101Z</time></trkpt><trkpt lat="41.0010933" lon="14.3942783"><ele>29.0</ele><time>2026-04-18T09:07:38.101Z</time></trkpt><trkpt lat="41.0009567" lon="14.3943417"><ele>29.0</ele><time>2026-04-18T09:07:39.101Z</time></trkpt><trkpt lat="41.0008183" lon="14.3944"><ele>29.0</ele><time>2026-04-18T09:07:40.102Z</time></trkpt><trkpt lat="41.0006533" lon="14.3944533"><ele>29.0</ele><time>2026-04-18T09:07:41.101Z</time></trkpt><trkpt lat="41.0004683" lon="14.39452"><ele>29.0</ele><time>2026-04-18T09:07:42.101Z</time></trkpt><trkpt lat="41.0002767" lon="14.39458"><ele>29.0</ele><time>2026-04-18T09:07:43.101Z</time></trkpt><trkpt lat="41.000075" lon="14.3946317"><ele>28.333333333333332</ele><time>2026-04-18T09:07:44.101Z</time></trkpt><trkpt lat="40.9998717" lon="14.3946917"><ele>27.666666666666664</ele><time>2026-04-18T09:07:45.101Z</time></trkpt><trkpt lat="40.9996583" lon="14.3947467"><ele>27.0</ele><time>2026-04-18T09:07:46.101Z</time></trkpt><trkpt lat="40.99945" lon="14.394795"><ele>27.0</ele><time>2026-04-18T09:07:47.101Z</time></trkpt><trkpt lat="40.9992317" lon="14.3948483"><ele>27.0</ele><time>2026-04-18T09:07:48.101Z</time></trkpt><trkpt lat="40.9990067" lon="14.3949117"><ele>27.5</ele><time>2026-04-18T09:07:49.101Z</time></trkpt><trkpt lat="40.9987817" lon="14.3949817"><ele>28.0</ele><time>2026-04-18T09:07:50.101Z</time></trkpt><trkpt lat="40.99855" lon="14.39505"><ele>27.5</ele><time>2026-04-18T09:07:51.101Z</time></trkpt><trkpt lat="40.9983217" lon="14.39512"><ele>27.0</ele><time>2026-04-18T09:07:52.101Z</time></trkpt><trkpt lat="40.9980983" lon="14.3951833"><ele>27.0</ele><time>2026-04-18T09:07:53.101Z</time></trkpt><trkpt lat="40.9978783" lon="14.3952467"><ele>27.0</ele><time>2026-04-18T09:07:54.101Z</time></trkpt><trkpt lat="40.9976667" lon="14.3953017"><ele>27.0</ele><time>2026-04-18T09:07:55.102Z</time></trkpt><trkpt lat="40.9974667" lon="14.395355"><ele>27.333333333333336</ele><time>2026-04-18T09:07:56.101Z</time></trkpt><trkpt lat="40.9972783" lon="14.395405"><ele>27.666666666666668</ele><time>2026-04-18T09:07:57.101Z</time></trkpt><trkpt lat="40.9970867" lon="14.3954567"><ele>28.0</ele><time>2026-04-18T09:07:58.101Z</time></trkpt><trkpt lat="40.9969017" lon="14.3955017"><ele>28.0</ele><time>2026-04-18T09:07:59.101Z</time></trkpt><trkpt lat="40.9967167" lon="14.395535"><ele>28.0</ele><time>2026-04-18T09:08:00.101Z</time></trkpt><trkpt lat="40.9965333" lon="14.3955667"><ele>28.0</ele><time>2026-04-18T09:08:01.101Z</time></trkpt><trkpt lat="40.9963483" lon="14.3956033"><ele>28.333333333333336</ele><time>2026-04-18T09:08:02.101Z</time></trkpt><trkpt lat="40.9961417" lon="14.395645"><ele>28.666666666666664</ele><time>2026-04-18T09:08:03.101Z</time></trkpt><trkpt lat="40.99594" lon="14.39568"><ele>29.0</ele><time>2026-04-18T09:08:04.101Z</time></trkpt><trkpt lat="40.99575" lon="14.39572"><ele>29.0</ele><time>2026-04-18T09:08:05.101Z</time></trkpt><trkpt lat="40.995565" lon="14.3957583"><ele>29.0</ele><time>2026-04-18T09:08:06.101Z</time></trkpt><trkpt lat="40.9953783" lon="14.3957917"><ele>29.0</ele><time>2026-04-18T09:08:07.101Z</time></trkpt><trkpt lat="40.9951917" lon="14.395835"><ele>29.0</ele><time>2026-04-18T09:08:08.101Z</time></trkpt><trkpt lat="40.99501" lon="14.3958833"><ele>29.0</ele><time>2026-04-18T09:08:09.101Z</time></trkpt><trkpt lat="40.9948183" lon="14.3959217"><ele>29.0</ele><time>2026-04-18T09:08:10.101Z</time></trkpt><trkpt lat="40.9946217" lon="14.3959617"><ele>29.333333333333332</ele><time>2026-04-18T09:08:11.101Z</time></trkpt><trkpt lat="40.9944233" lon="14.396005"><ele>29.666666666666664</ele><time>2026-04-18T09:08:12.101Z</time></trkpt><trkpt lat="40.9942267" lon="14.39604"><ele>30.0</ele><time>2026-04-18T09:08:13.101Z</time></trkpt><trkpt lat="40.9940267" lon="14.3960783"><ele>30.0</ele><time>2026-04-18T09:08:14.102Z</time></trkpt><trkpt lat="40.9938267" lon="14.3961217"><ele>30.0</ele><time>2026-04-18T09:08:15.101Z</time></trkpt><trkpt lat="40.99362" lon="14.3961667"><ele>30.0</ele><time>2026-04-18T09:08:16.101Z</time></trkpt><trkpt lat="40.993415" lon="14.3962117"><ele>29.666666666666664</ele><time>2026-04-18T09:08:17.101Z</time></trkpt><trkpt lat="40.9932083" lon="14.3962567"><ele>29.333333333333332</ele><time>2026-04-18T09:08:18.101Z</time></trkpt><trkpt lat="40.9930033" lon="14.396305"><ele>29.0</ele><time>2026-04-18T09:08:19.101Z</time></trkpt><trkpt lat="40.9928" lon="14.3963533"><ele>29.0</ele><time>2026-04-18T09:08:20.101Z</time></trkpt><trkpt lat="40.9926" lon="14.396405"><ele>29.0</ele><time>2026-04-18T09:08:21.101Z</time></trkpt><trkpt lat="40.9924017" lon="14.39645"><ele>29.0</ele><time>2026-04-18T09:08:22.101Z</time></trkpt><trkpt lat="40.9922033" lon="14.3964883"><ele>29.333333333333332</ele><time>2026-04-18T09:08:23.101Z</time></trkpt><trkpt lat="40.99201" lon="14.396535"><ele>29.666666666666664</ele><time>2026-04-18T09:08:24.101Z</time></trkpt><trkpt lat="40.9918267" lon="14.396585"><ele>30.0</ele><time>2026-04-18T09:08:25.102Z</time></trkpt><trkpt lat="40.991645" lon="14.3966317"><ele>29.333333333333336</ele><time>2026-04-18T09:08:26.101Z</time></trkpt><trkpt lat="40.991455" lon="14.3966867"><ele>28.666666666666668</ele><time>2026-04-18T09:08:27.101Z</time></trkpt><trkpt lat="40.9912617" lon="14.3967483"><ele>28.0</ele><time>2026-04-18T09:08:28.101Z</time></trkpt><trkpt lat="40.991065" lon="14.3968067"><ele>28.0</ele><time>2026-04-18T09:08:29.101Z</time></trkpt><trkpt lat="40.9908683" lon="14.3968667"><ele>28.0</ele><time>2026-04-18T09:08:30.101Z</time></trkpt><trkpt lat="40.9906683" lon="14.3969233"><ele>28.0</ele><time>2026-04-18T09:08:31.101Z</time></trkpt><trkpt lat="40.9904633" lon="14.3969817"><ele>28.0</ele><time>2026-04-18T09:08:32.102Z</time></trkpt><trkpt lat="40.9902683" lon="14.3970417"><ele>28.0</ele><time>2026-04-18T09:08:33.101Z</time></trkpt><trkpt lat="40.99006" lon="14.397105"><ele>28.0</ele><time>2026-04-18T09:08:34.101Z</time></trkpt><trkpt lat="40.9898483" lon="14.39717"><ele>29.0</ele><time>2026-04-18T09:08:35.101Z</time></trkpt><trkpt lat="40.98963" lon="14.3972383"><ele>30.0</ele><time>2026-04-18T09:08:36.101Z</time></trkpt><trkpt lat="40.9894" lon="14.3973067"><ele>29.5</ele><time>2026-04-18T09:08:37.102Z</time></trkpt><trkpt lat="40.9891733" lon="14.3973717"><ele>29.0</ele><time>2026-04-18T09:08:38.101Z</time></trkpt><trkpt lat="40.98894" lon="14.39745"><ele>29.0</ele><time>2026-04-18T09:08:39.101Z</time></trkpt><trkpt lat="40.988705" lon="14.3975283"><ele>29.0</ele><time>2026-04-18T09:08:40.101Z</time></trkpt><trkpt lat="40.9884767" lon="14.3976067"><ele>28.5</ele><time>2026-04-18T09:08:41.101Z</time></trkpt><trkpt lat="40.988245" lon="14.3976767"><ele>28.0</ele><time>2026-04-18T09:08:42.101Z</time></trkpt><trkpt lat="40.9880083" lon="14.3977417"><ele>28.0</ele><time>2026-04-18T09:08:43.101Z</time></trkpt><trkpt lat="40.9877633" lon="14.3978217"><ele>28.0</ele><time>2026-04-18T09:08:44.101Z</time></trkpt><trkpt lat="40.9874983" lon="14.3979017"><ele>28.0</ele><time>2026-04-18T09:08:45.101Z</time></trkpt><trkpt lat="40.9872333" lon="14.3979833"><ele>28.0</ele><time>2026-04-18T09:08:46.101Z</time></trkpt><trkpt lat="40.9869583" lon="14.3980733"><ele>28.0</ele><time>2026-04-18T09:08:47.101Z</time></trkpt><trkpt lat="40.9866983" lon="14.3981617"><ele>28.0</ele><time>2026-04-18T09:08:48.101Z</time></trkpt><trkpt lat="40.98645" lon="14.3982367"><ele>28.0</ele><time>2026-04-18T09:08:49.101Z</time></trkpt><trkpt lat="40.9862067" lon="14.3983083"><ele>28.0</ele><time>2026-04-18T09:08:50.101Z</time></trkpt><trkpt lat="40.9859733" lon="14.398385"><ele>27.666666666666668</ele><time>2026-04-18T09:08:51.101Z</time></trkpt><trkpt lat="40.9857533" lon="14.3984533"><ele>27.333333333333336</ele><time>2026-04-18T09:08:52.101Z</time></trkpt><trkpt lat="40.9855367" lon="14.39852"><ele>27.0</ele><time>2026-04-18T09:08:53.101Z</time></trkpt><trkpt lat="40.98531" lon="14.3985967"><ele>27.0</ele><time>2026-04-18T09:08:54.101Z</time></trkpt><trkpt lat="40.9850867" lon="14.3986717"><ele>27.0</ele><time>2026-04-18T09:08:55.101Z</time></trkpt><trkpt lat="40.9848633" lon="14.3987383"><ele>26.5</ele><time>2026-04-18T09:08:56.101Z</time></trkpt><trkpt lat="40.9846367" lon="14.398805"><ele>26.0</ele><time>2026-04-18T09:08:57.101Z</time></trkpt><trkpt lat="40.9844083" lon="14.3988733"><ele>26.0</ele><time>2026-04-18T09:08:58.101Z</time></trkpt><trkpt lat="40.98417" lon="14.3989483"><ele>26.0</ele><time>2026-04-18T09:08:59.101Z</time></trkpt><trkpt lat="40.9839317" lon="14.3990233"><ele>26.0</ele><time>2026-04-18T09:09:00.101Z</time></trkpt><trkpt lat="40.98369" lon="14.3990967"><ele>26.0</ele><time>2026-04-18T09:09:01.101Z</time></trkpt><trkpt lat="40.9834467" lon="14.3991717"><ele>26.0</ele><time>2026-04-18T09:09:02.101Z</time></trkpt><trkpt lat="40.9832083" lon="14.3992433"><ele>26.0</ele><time>2026-04-18T09:09:03.101Z</time></trkpt><trkpt lat="40.9829867" lon="14.3993067"><ele>26.0</ele><time>2026-04-18T09:09:04.101Z</time></trkpt><trkpt lat="40.982785" lon="14.3993617"><ele>26.0</ele><time>2026-04-18T09:09:05.101Z</time></trkpt><trkpt lat="40.9826017" lon="14.3994217"><ele>26.0</ele><time>2026-04-18T09:09:06.101Z</time></trkpt><trkpt lat="40.982445" lon="14.3994817"><ele>26.0</ele><time>2026-04-18T09:09:07.101Z</time></trkpt><trkpt lat="40.9823" lon="14.39956"><ele>26.0</ele><time>2026-04-18T09:09:08.102Z</time></trkpt><trkpt lat="40.9821683" lon="14.399665"><ele>26.0</ele><time>2026-04-18T09:09:09.101Z</time></trkpt><trkpt lat="40.982045" lon="14.3998067"><ele>26.666666666666664</ele><time>2026-04-18T09:09:10.101Z</time></trkpt><trkpt lat="40.981935" lon="14.39996"><ele>27.333333333333336</ele><time>2026-04-18T09:09:11.101Z</time></trkpt><trkpt lat="40.98183" lon="14.4001033"><ele>28.0</ele><time>2026-04-18T09:09:12.101Z</time></trkpt><trkpt lat="40.9817267" lon="14.400235"><ele>27.75</ele><time>2026-04-18T09:09:13.101Z</time></trkpt><trkpt lat="40.9816317" lon="14.400355"><ele>27.5</ele><time>2026-04-18T09:09:14.101Z</time></trkpt><trkpt lat="40.9815417" lon="14.4004683"><ele>27.25</ele><time>2026-04-18T09:09:15.101Z</time></trkpt><trkpt lat="40.9814633" lon="14.4005767"><ele>27.0</ele><time>2026-04-18T09:09:16.101Z</time></trkpt><trkpt lat="40.9813983" lon="14.4006683"><ele>27.0</ele><time>2026-04-18T09:09:17.101Z</time></trkpt><trkpt lat="40.9813383" lon="14.4007433"><ele>27.0</ele><time>2026-04-18T09:09:18.101Z</time></trkpt><trkpt lat="40.9812883" lon="14.4008"><ele>27.0</ele><time>2026-04-18T09:09:19.101Z</time></trkpt><trkpt lat="40.9811983" lon="14.400845"><ele>27.0</ele><time>2026-04-18T09:09:21.101Z</time></trkpt><trkpt lat="40.98111" lon="14.4007783"><ele>27.0</ele><time>2026-04-18T09:09:23.101Z</time></trkpt><trkpt lat="40.9810667" lon="14.400705"><ele>27.0</ele><time>2026-04-18T09:09:24.101Z</time></trkpt><trkpt lat="40.9810167" lon="14.40061"><ele>27.0</ele><time>2026-04-18T09:09:25.101Z</time></trkpt><trkpt lat="40.98095" lon="14.4005033"><ele>27.0</ele><time>2026-04-18T09:09:26.101Z</time></trkpt><trkpt lat="40.9808733" lon="14.4003867"><ele>27.0</ele><time>2026-04-18T09:09:27.101Z</time></trkpt><trkpt lat="40.9807867" lon="14.4002617"><ele>27.0</ele><time>2026-04-18T09:09:28.101Z</time></trkpt><trkpt lat="40.9806933" lon="14.4001117"><ele>27.0</ele><time>2026-04-18T09:09:29.101Z</time></trkpt><trkpt lat="40.9805933" lon="14.399955"><ele>27.0</ele><time>2026-04-18T09:09:30.101Z</time></trkpt><trkpt lat="40.9804867" lon="14.399795"><ele>27.0</ele><time>2026-04-18T09:09:31.101Z</time></trkpt><trkpt lat="40.9803783" lon="14.3996333"><ele>26.333333333333336</ele><time>2026-04-18T09:09:32.101Z</time></trkpt><trkpt lat="40.980265" lon="14.3994583"><ele>25.666666666666668</ele><time>2026-04-18T09:09:33.101Z</time></trkpt><trkpt lat="40.980145" lon="14.3992767"><ele>25.0</ele><time>2026-04-18T09:09:34.101Z</time></trkpt><trkpt lat="40.9800183" lon="14.3990917"><ele>25.333333333333336</ele><time>2026-04-18T09:09:35.101Z</time></trkpt><trkpt lat="40.9798917" lon="14.3989017"><ele>25.666666666666664</ele><time>2026-04-18T09:09:36.101Z</time></trkpt><trkpt lat="40.9797667" lon="14.3987033"><ele>26.0</ele><time>2026-04-18T09:09:37.101Z</time></trkpt><trkpt lat="40.9796467" lon="14.3985233"><ele>26.0</ele><time>2026-04-18T09:09:38.101Z</time></trkpt><trkpt lat="40.9795267" lon="14.3983533"><ele>26.0</ele><time>2026-04-18T09:09:39.101Z</time></trkpt><trkpt lat="40.9794117" lon="14.3981767"><ele>26.0</ele><time>2026-04-18T09:09:40.101Z</time></trkpt><trkpt lat="40.97929" lon="14.3979967"><ele>25.666666666666664</ele><time>2026-04-18T09:09:41.101Z</time></trkpt><trkpt lat="40.9791617" lon="14.3978067"><ele>25.333333333333336</ele><time>2026-04-18T09:09:42.101Z</time></trkpt><trkpt lat="40.9790233" lon="14.39761"><ele>25.0</ele><time>2026-04-18T09:09:43.101Z</time></trkpt><trkpt lat="40.9788733" lon="14.3974133"><ele>25.0</ele><time>2026-04-18T09:09:44.101Z</time></trkpt><trkpt lat="40.978715" lon="14.3972"><ele>25.0</ele><time>2026-04-18T09:09:45.101Z</time></trkpt><trkpt lat="40.9785867" lon="14.3969733"><ele>25.0</ele><time>2026-04-18T09:09:46.101Z</time></trkpt><trkpt lat="40.9784617" lon="14.3967767"><ele>25.666666666666668</ele><time>2026-04-18T09:09:47.101Z</time></trkpt><trkpt lat="40.9783417" lon="14.3965917"><ele>26.333333333333336</ele><time>2026-04-18T09:09:48.101Z</time></trkpt><trkpt lat="40.9782267" lon="14.3964267"><ele>27.0</ele><time>2026-04-18T09:09:49.102Z</time></trkpt><trkpt lat="40.9781283" lon="14.39628"><ele>27.0</ele><time>2026-04-18T09:09:50.101Z</time></trkpt><trkpt lat="40.9780467" lon="14.3961367"><ele>27.0</ele><time>2026-04-18T09:09:51.102Z</time></trkpt><trkpt lat="40.977955" lon="14.3959967"><ele>27.0</ele><time>2026-04-18T09:09:52.102Z</time></trkpt><trkpt lat="40.9778567" lon="14.3958567"><ele>27.0</ele><time>2026-04-18T09:09:53.102Z</time></trkpt><trkpt lat="40.9777467" lon="14.3956983"><ele>27.0</ele><time>2026-04-18T09:09:54.101Z</time></trkpt><trkpt lat="40.97762" lon="14.395515"><ele>27.0</ele><time>2026-04-18T09:09:55.101Z</time></trkpt><trkpt lat="40.9774883" lon="14.39531"><ele>27.0</ele><time>2026-04-18T09:09:56.102Z</time></trkpt><trkpt lat="40.9773483" lon="14.3950967"><ele>26.333333333333336</ele><time>2026-04-18T09:09:57.101Z</time></trkpt><trkpt lat="40.9772183" lon="14.3948817"><ele>25.666666666666668</ele><time>2026-04-18T09:09:58.101Z</time></trkpt><trkpt lat="40.97709" lon="14.3946733"><ele>25.0</ele><time>2026-04-18T09:09:59.101Z</time></trkpt><trkpt lat="40.9769583" lon="14.3944733"><ele>24.666666666666668</ele><time>2026-04-18T09:10:00.101Z</time></trkpt><trkpt lat="40.9768283" lon="14.3942767"><ele>24.333333333333336</ele><time>2026-04-18T09:10:01.101Z</time></trkpt><trkpt lat="40.9767" lon="14.394085"><ele>24.0</ele><time>2026-04-18T09:10:02.101Z</time></trkpt><trkpt lat="40.9765733" lon="14.39389"><ele>24.0</ele><time>2026-04-18T09:10:03.101Z</time></trkpt><trkpt lat="40.9764483" lon="14.393705"><ele>24.0</ele><time>2026-04-18T09:10:04.101Z</time></trkpt><trkpt lat="40.9763333" lon="14.39353"><ele>24.0</ele><time>2026-04-18T09:10:05.102Z</time></trkpt><trkpt lat="40.976225" lon="14.39337"><ele>24.0</ele><time>2026-04-18T09:10:06.102Z</time></trkpt><trkpt lat="40.97612" lon="14.3932083"><ele>24.0</ele><time>2026-04-18T09:10:07.101Z</time></trkpt><trkpt lat="40.9760183" lon="14.3930467"><ele>24.0</ele><time>2026-04-18T09:10:08.101Z</time></trkpt><trkpt lat="40.97591" lon="14.392895"><ele>23.75</ele><time>2026-04-18T09:10:09.101Z</time></trkpt><trkpt lat="40.97581" lon="14.3927417"><ele>23.5</ele><time>2026-04-18T09:10:10.101Z</time></trkpt><trkpt lat="40.9757167" lon="14.3925983"><ele>23.25</ele><time>2026-04-18T09:10:11.102Z</time></trkpt><trkpt lat="40.9756283" lon="14.39246"><ele>23.0</ele><time>2026-04-18T09:10:12.101Z</time></trkpt><trkpt lat="40.9755467" lon="14.39234"><ele>23.0</ele><time>2026-04-18T09:10:13.101Z</time></trkpt><trkpt lat="40.9754633" lon="14.392225"><ele>23.0</ele><time>2026-04-18T09:10:14.101Z</time></trkpt><trkpt lat="40.9753817" lon="14.3920983"><ele>23.0</ele><time>2026-04-18T09:10:15.101Z</time></trkpt><trkpt lat="40.9753067" lon="14.391975"><ele>23.0</ele><time>2026-04-18T09:10:16.101Z</time></trkpt><trkpt lat="40.97523" lon="14.391865"><ele>23.5</ele><time>2026-04-18T09:10:17.102Z</time></trkpt><trkpt lat="40.9751533" lon="14.3917517"><ele>24.0</ele><time>2026-04-18T09:10:18.101Z</time></trkpt><trkpt lat="40.9750717" lon="14.3916383"><ele>24.5</ele><time>2026-04-18T09:10:19.101Z</time></trkpt><trkpt lat="40.97499" lon="14.391525"><ele>25.0</ele><time>2026-04-18T09:10:20.101Z</time></trkpt><trkpt lat="40.9749067" lon="14.39143"><ele>25.166666666666668</ele><time>2026-04-18T09:10:21.101Z</time></trkpt><trkpt lat="40.974825" lon="14.3913467"><ele>25.333333333333336</ele><time>2026-04-18T09:10:22.101Z</time></trkpt><trkpt lat="40.97475" lon="14.3912767"><ele>25.5</ele><time>2026-04-18T09:10:23.101Z</time></trkpt><trkpt lat="40.9746817" lon="14.3912167"><ele>25.666666666666664</ele><time>2026-04-18T09:10:24.101Z</time></trkpt><trkpt lat="40.9746117" lon="14.3911633"><ele>25.833333333333332</ele><time>2026-04-18T09:10:25.101Z</time></trkpt><trkpt lat="40.9745533" lon="14.3911217"><ele>26.0</ele><time>2026-04-18T09:10:26.101Z</time></trkpt><trkpt lat="40.9744917" lon="14.39108"><ele>25.999999999999996</ele><time>2026-04-18T09:10:27.101Z</time></trkpt><trkpt lat="40.974425" lon="14.39103"><ele>26.0</ele><time>2026-04-18T09:10:28.102Z</time></trkpt><trkpt lat="40.974355" lon="14.3909867"><ele>26.0</ele><time>2026-04-18T09:10:29.101Z</time></trkpt><trkpt lat="40.9742933" lon="14.3909517"><ele>26.0</ele><time>2026-04-18T09:10:30.101Z</time></trkpt><trkpt lat="40.9741967" lon="14.3908917"><ele>25.999999999999996</ele><time>2026-04-18T09:10:32.101Z</time></trkpt><trkpt lat="40.974115" lon="14.3908517"><ele>26.0</ele><time>2026-04-18T09:10:34.101Z</time></trkpt><trkpt lat="40.97404" lon="14.3908233"><ele>26.166666666666664</ele><time>2026-04-18T09:10:36.101Z</time></trkpt><trkpt lat="40.9739733" lon="14.390785"><ele>26.333333333333332</ele><time>2026-04-18T09:10:38.101Z</time></trkpt><trkpt lat="40.9738967" lon="14.3907567"><ele>26.5</ele><time>2026-04-18T09:10:40.101Z</time></trkpt><trkpt lat="40.9738283" lon="14.39073"><ele>26.666666666666664</ele><time>2026-04-18T09:10:42.101Z</time></trkpt><trkpt lat="40.9737683" lon="14.3907"><ele>26.833333333333332</ele><time>2026-04-18T09:10:44.101Z</time></trkpt><trkpt lat="40.9736883" lon="14.3906567"><ele>27.0</ele><time>2026-04-18T09:10:47.101Z</time></trkpt><trkpt lat="40.9736167" lon="14.39062"><ele>27.0</ele><time>2026-04-18T09:10:51.101Z</time></trkpt><trkpt lat="40.97355" lon="14.39054"><ele>27.0</ele><time>2026-04-18T09:10:55.101Z</time></trkpt><trkpt lat="40.97349" lon="14.3904667"><ele>27.0</ele><time>2026-04-18T09:10:57.101Z</time></trkpt><trkpt lat="40.9733867" lon="14.3904167"><ele>27.0</ele><time>2026-04-18T09:10:59.101Z</time></trkpt><trkpt lat="40.97332" lon="14.390415"><ele>27.0</ele><time>2026-04-18T09:11:00.101Z</time></trkpt><trkpt lat="40.9732467" lon="14.390425"><ele>27.0</ele><time>2026-04-18T09:11:01.101Z</time></trkpt><trkpt lat="40.9731717" lon="14.3904283"><ele>26.8</ele><time>2026-04-18T09:11:02.101Z</time></trkpt><trkpt lat="40.9730817" lon="14.39041"><ele>26.6</ele><time>2026-04-18T09:11:03.101Z</time></trkpt><trkpt lat="40.9729767" lon="14.3903717"><ele>26.400000000000002</ele><time>2026-04-18T09:11:04.101Z</time></trkpt><trkpt lat="40.9728667" lon="14.3903217"><ele>26.200000000000003</ele><time>2026-04-18T09:11:05.101Z</time></trkpt><trkpt lat="40.9727717" lon="14.3902583"><ele>26.0</ele><time>2026-04-18T09:11:06.101Z</time></trkpt><trkpt lat="40.97267" lon="14.390195"><ele>26.0</ele><time>2026-04-18T09:11:07.101Z</time></trkpt><trkpt lat="40.9725617" lon="14.3901217"><ele>26.0</ele><time>2026-04-18T09:11:08.101Z</time></trkpt><trkpt lat="40.9724567" lon="14.3900367"><ele>26.0</ele><time>2026-04-18T09:11:09.101Z</time></trkpt><trkpt lat="40.9723467" lon="14.38994"><ele>26.0</ele><time>2026-04-18T09:11:10.101Z</time></trkpt><trkpt lat="40.972235" lon="14.3898383"><ele>26.333333333333332</ele><time>2026-04-18T09:11:11.101Z</time></trkpt><trkpt lat="40.9721217" lon="14.3897267"><ele>26.666666666666664</ele><time>2026-04-18T09:11:12.101Z</time></trkpt><trkpt lat="40.9720083" lon="14.3895983"><ele>27.0</ele><time>2026-04-18T09:11:13.101Z</time></trkpt><trkpt lat="40.9719017" lon="14.3894417"><ele>27.333333333333336</ele><time>2026-04-18T09:11:14.101Z</time></trkpt><trkpt lat="40.971795" lon="14.3892667"><ele>27.666666666666668</ele><time>2026-04-18T09:11:15.101Z</time></trkpt><trkpt lat="40.97169" lon="14.3890783"><ele>28.0</ele><time>2026-04-18T09:11:16.101Z</time></trkpt><trkpt lat="40.97158" lon="14.3888867"><ele>27.666666666666668</ele><time>2026-04-18T09:11:17.102Z</time></trkpt><trkpt lat="40.9714833" lon="14.38871"><ele>27.333333333333336</ele><time>2026-04-18T09:11:18.101Z</time></trkpt><trkpt lat="40.971385" lon="14.3885467"><ele>27.0</ele><time>2026-04-18T09:11:19.101Z</time></trkpt><trkpt lat="40.9712833" lon="14.388375"><ele>27.0</ele><time>2026-04-18T09:11:20.101Z</time></trkpt><trkpt lat="40.9711883" lon="14.38819"><ele>27.0</ele><time>2026-04-18T09:11:21.101Z</time></trkpt><trkpt lat="40.9710867" lon="14.38801"><ele>27.0</ele><time>2026-04-18T09:11:22.101Z</time></trkpt><trkpt lat="40.9709867" lon="14.38783"><ele>26.333333333333336</ele><time>2026-04-18T09:11:23.102Z</time></trkpt><trkpt lat="40.9708883" lon="14.3876417"><ele>25.666666666666668</ele><time>2026-04-18T09:11:24.101Z</time></trkpt><trkpt lat="40.9707833" lon="14.3874483"><ele>25.0</ele><time>2026-04-18T09:11:25.101Z</time></trkpt><trkpt lat="40.9706783" lon="14.387235"><ele>24.333333333333336</ele><time>2026-04-18T09:11:26.101Z</time></trkpt><trkpt lat="40.970575" lon="14.3870117"><ele>23.666666666666668</ele><time>2026-04-18T09:11:27.101Z</time></trkpt><trkpt lat="40.9704783" lon="14.3867683"><ele>23.0</ele><time>2026-04-18T09:11:28.101Z</time></trkpt><trkpt lat="40.970375" lon="14.386515"><ele>23.0</ele><time>2026-04-18T09:11:29.101Z</time></trkpt><trkpt lat="40.9702717" lon="14.3862667"><ele>23.0</ele><time>2026-04-18T09:11:30.101Z</time></trkpt><trkpt lat="40.97018" lon="14.3860367"><ele>23.0</ele><time>2026-04-18T09:11:31.101Z</time></trkpt><trkpt lat="40.970095" lon="14.38582"><ele>23.666666666666668</ele><time>2026-04-18T09:11:32.101Z</time></trkpt><trkpt lat="40.9700183" lon="14.3856183"><ele>24.333333333333336</ele><time>2026-04-18T09:11:33.101Z</time></trkpt><trkpt lat="40.9699383" lon="14.3854117"><ele>25.0</ele><time>2026-04-18T09:11:34.101Z</time></trkpt><trkpt lat="40.9698617" lon="14.3852117"><ele>25.0</ele><time>2026-04-18T09:11:35.1Z</time></trkpt><trkpt lat="40.9697817" lon="14.3850033"><ele>25.0</ele><time>2026-04-18T09:11:36.101Z</time></trkpt><trkpt lat="40.9697017" lon="14.38479"><ele>25.0</ele><time>2026-04-18T09:11:37.101Z</time></trkpt><trkpt lat="40.9696233" lon="14.3845833"><ele>24.333333333333336</ele><time>2026-04-18T09:11:38.101Z</time></trkpt><trkpt lat="40.9695433" lon="14.3843733"><ele>23.666666666666668</ele><time>2026-04-18T09:11:39.101Z</time></trkpt><trkpt lat="40.9694617" lon="14.3841667"><ele>23.0</ele><time>2026-04-18T09:11:40.101Z</time></trkpt><trkpt lat="40.969385" lon="14.3839633"><ele>23.666666666666668</ele><time>2026-04-18T09:11:41.101Z</time></trkpt><trkpt lat="40.9693133" lon="14.3837517"><ele>24.333333333333336</ele><time>2026-04-18T09:11:42.101Z</time></trkpt><trkpt lat="40.96924" lon="14.3835383"><ele>25.0</ele><time>2026-04-18T09:11:43.101Z</time></trkpt><trkpt lat="40.9691683" lon="14.3833317"><ele>25.333333333333336</ele><time>2026-04-18T09:11:44.101Z</time></trkpt><trkpt lat="40.969105" lon="14.3831167"><ele>25.666666666666664</ele><time>2026-04-18T09:11:45.101Z</time></trkpt><trkpt lat="40.9690317" lon="14.3828967"><ele>26.0</ele><time>2026-04-18T09:11:46.101Z</time></trkpt><trkpt lat="40.9689567" lon="14.3826667"><ele>26.0</ele><time>2026-04-18T09:11:47.101Z</time></trkpt><trkpt lat="40.9688833" lon="14.3824417"><ele>26.0</ele><time>2026-04-18T09:11:48.102Z</time></trkpt><trkpt lat="40.9688133" lon="14.382215"><ele>26.0</ele><time>2026-04-18T09:11:49.101Z</time></trkpt><trkpt lat="40.9687467" lon="14.38199"><ele>25.333333333333332</ele><time>2026-04-18T09:11:50.101Z</time></trkpt><trkpt lat="40.9686683" lon="14.3817517"><ele>24.666666666666664</ele><time>2026-04-18T09:11:51.101Z</time></trkpt><trkpt lat="40.968585" lon="14.3815017"><ele>24.0</ele><time>2026-04-18T09:11:52.101Z</time></trkpt><trkpt lat="40.9684983" lon="14.3812433"><ele>23.5</ele><time>2026-04-18T09:11:53.101Z</time></trkpt><trkpt lat="40.968405" lon="14.380955"><ele>23.0</ele><time>2026-04-18T09:11:54.101Z</time></trkpt><trkpt lat="40.9683117" lon="14.380655"><ele>24.0</ele><time>2026-04-18T09:11:55.102Z</time></trkpt><trkpt lat="40.968225" lon="14.3803667"><ele>25.0</ele><time>2026-04-18T09:11:56.101Z</time></trkpt><trkpt lat="40.968145" lon="14.3801"><ele>25.0</ele><time>2026-04-18T09:11:57.101Z</time></trkpt><trkpt lat="40.9680717" lon="14.3798433"><ele>25.0</ele><time>2026-04-18T09:11:58.101Z</time></trkpt><trkpt lat="40.9679967" lon="14.3796"><ele>25.0</ele><time>2026-04-18T09:11:59.101Z</time></trkpt><trkpt lat="40.9679333" lon="14.3793733"><ele>24.666666666666668</ele><time>2026-04-18T09:12:00.101Z</time></trkpt><trkpt lat="40.96787" lon="14.3791617"><ele>24.333333333333336</ele><time>2026-04-18T09:12:01.101Z</time></trkpt><trkpt lat="40.9678" lon="14.3789483"><ele>24.0</ele><time>2026-04-18T09:12:02.101Z</time></trkpt><trkpt lat="40.9677217" lon="14.3787183"><ele>23.333333333333332</ele><time>2026-04-18T09:12:03.101Z</time></trkpt><trkpt lat="40.9676367" lon="14.37846"><ele>22.666666666666664</ele><time>2026-04-18T09:12:04.101Z</time></trkpt><trkpt lat="40.9675517" lon="14.3781783"><ele>22.0</ele><time>2026-04-18T09:12:05.101Z</time></trkpt><trkpt lat="40.9674667" lon="14.3778767"><ele>22.0</ele><time>2026-04-18T09:12:06.101Z</time></trkpt><trkpt lat="40.967375" lon="14.37758"><ele>22.0</ele><time>2026-04-18T09:12:07.102Z</time></trkpt><trkpt lat="40.9672983" lon="14.3773017"><ele>22.0</ele><time>2026-04-18T09:12:08.101Z</time></trkpt><trkpt lat="40.967225" lon="14.3770417"><ele>22.0</ele><time>2026-04-18T09:12:09.101Z</time></trkpt><trkpt lat="40.9671517" lon="14.3767933"><ele>22.0</ele><time>2026-04-18T09:12:10.102Z</time></trkpt><trkpt lat="40.967075" lon="14.3765533"><ele>22.666666666666664</ele><time>2026-04-18T09:12:11.101Z</time></trkpt><trkpt lat="40.967005" lon="14.37633"><ele>23.333333333333332</ele><time>2026-04-18T09:12:12.101Z</time></trkpt><trkpt lat="40.9669333" lon="14.37613"><ele>24.0</ele><time>2026-04-18T09:12:13.101Z</time></trkpt><trkpt lat="40.9668633" lon="14.3759367"><ele>24.0</ele><time>2026-04-18T09:12:14.101Z</time></trkpt><trkpt lat="40.966785" lon="14.3757467"><ele>24.0</ele><time>2026-04-18T09:12:15.101Z</time></trkpt><trkpt lat="40.9667" lon="14.3755567"><ele>24.0</ele><time>2026-04-18T09:12:16.101Z</time></trkpt><trkpt lat="40.966605" lon="14.37537"><ele>24.666666666666664</ele><time>2026-04-18T09:12:17.101Z</time></trkpt><trkpt lat="40.9665017" lon="14.375185"><ele>25.333333333333332</ele><time>2026-04-18T09:12:18.101Z</time></trkpt><trkpt lat="40.9663817" lon="14.3749867"><ele>26.0</ele><time>2026-04-18T09:12:19.101Z</time></trkpt><trkpt lat="40.9662467" lon="14.37478"><ele>26.0</ele><time>2026-04-18T09:12:20.101Z</time></trkpt><trkpt lat="40.9661033" lon="14.37457"><ele>26.0</ele><time>2026-04-18T09:12:21.101Z</time></trkpt><trkpt lat="40.9659617" lon="14.3743633"><ele>26.0</ele><time>2026-04-18T09:12:22.101Z</time></trkpt><trkpt lat="40.9658217" lon="14.3741717"><ele>26.0</ele><time>2026-04-18T09:12:23.101Z</time></trkpt><trkpt lat="40.965685" lon="14.373995"><ele>26.0</ele><time>2026-04-18T09:12:24.101Z</time></trkpt><trkpt lat="40.9655517" lon="14.3738383"><ele>26.0</ele><time>2026-04-18T09:12:25.101Z</time></trkpt><trkpt lat="40.9654167" lon="14.3736983"><ele>26.333333333333332</ele><time>2026-04-18T09:12:26.101Z</time></trkpt><trkpt lat="40.9652783" lon="14.3735533"><ele>26.666666666666664</ele><time>2026-04-18T09:12:27.101Z</time></trkpt><trkpt lat="40.9651517" lon="14.3734017"><ele>27.0</ele><time>2026-04-18T09:12:28.101Z</time></trkpt><trkpt lat="40.965035" lon="14.3732483"><ele>27.0</ele><time>2026-04-18T09:12:29.101Z</time></trkpt><trkpt lat="40.96493" lon="14.373105"><ele>27.0</ele><time>2026-04-18T09:12:30.101Z</time></trkpt><trkpt lat="40.9648417" lon="14.372965"><ele>27.0</ele><time>2026-04-18T09:12:31.101Z</time></trkpt><trkpt lat="40.964725" lon="14.37284"><ele>27.0</ele><time>2026-04-18T09:12:32.102Z</time></trkpt><trkpt lat="40.96463" lon="14.3726883"><ele>27.0</ele><time>2026-04-18T09:12:33.102Z</time></trkpt><trkpt lat="40.9645217" lon="14.3725183"><ele>27.0</ele><time>2026-04-18T09:12:34.101Z</time></trkpt><trkpt lat="40.9644233" lon="14.37234"><ele>27.0</ele><time>2026-04-18T09:12:35.101Z</time></trkpt><trkpt lat="40.96433" lon="14.3721417"><ele>27.0</ele><time>2026-04-18T09:12:36.101Z</time></trkpt><trkpt lat="40.9642433" lon="14.371945"><ele>27.0</ele><time>2026-04-18T09:12:37.101Z</time></trkpt><trkpt lat="40.96416" lon="14.3717567"><ele>27.0</ele><time>2026-04-18T09:12:38.101Z</time></trkpt><trkpt lat="40.964085" lon="14.3715867"><ele>27.0</ele><time>2026-04-18T09:12:39.101Z</time></trkpt><trkpt lat="40.9640167" lon="14.3714367"><ele>27.0</ele><time>2026-04-18T09:12:40.101Z</time></trkpt><trkpt lat="40.963945" lon="14.3713"><ele>27.0</ele><time>2026-04-18T09:12:41.101Z</time></trkpt><trkpt lat="40.963885" lon="14.371175"><ele>27.0</ele><time>2026-04-18T09:12:42.102Z</time></trkpt><trkpt lat="40.9638317" lon="14.3710533"><ele>27.0</ele><time>2026-04-18T09:12:43.102Z</time></trkpt><trkpt lat="40.9637717" lon="14.3709217"><ele>27.000000000000004</ele><time>2026-04-18T09:12:44.101Z</time></trkpt><trkpt lat="40.96372" lon="14.370785"><ele>27.000000000000004</ele><time>2026-04-18T09:12:45.102Z</time></trkpt><trkpt lat="40.96367" lon="14.3706533"><ele>27.0</ele><time>2026-04-18T09:12:46.101Z</time></trkpt><trkpt lat="40.9636167" lon="14.3705333"><ele>27.0</ele><time>2026-04-18T09:12:47.101Z</time></trkpt><trkpt lat="40.96358" lon="14.3704117"><ele>26.8</ele><time>2026-04-18T09:12:48.101Z</time></trkpt><trkpt lat="40.9635367" lon="14.370285"><ele>26.6</ele><time>2026-04-18T09:12:49.102Z</time></trkpt><trkpt lat="40.9634867" lon="14.3701533"><ele>26.400000000000002</ele><time>2026-04-18T09:12:50.101Z</time></trkpt><trkpt lat="40.9634383" lon="14.37002"><ele>26.200000000000003</ele><time>2026-04-18T09:12:51.101Z</time></trkpt><trkpt lat="40.963405" lon="14.369895"><ele>26.0</ele><time>2026-04-18T09:12:52.101Z</time></trkpt><trkpt lat="40.963365" lon="14.3697783"><ele>25.999999999999996</ele><time>2026-04-18T09:12:53.101Z</time></trkpt><trkpt lat="40.9633283" lon="14.3696783"><ele>26.0</ele><time>2026-04-18T09:12:54.101Z</time></trkpt><trkpt lat="40.9632967" lon="14.3695783"><ele>26.0</ele><time>2026-04-18T09:12:55.101Z</time></trkpt><trkpt lat="40.963265" lon="14.3694983"><ele>26.0</ele><time>2026-04-18T09:12:56.101Z</time></trkpt><trkpt lat="40.9632367" lon="14.3694017"><ele>25.999999999999996</ele><time>2026-04-18T09:12:58.101Z</time></trkpt><trkpt lat="40.9631867" lon="14.3692833"><ele>26.0</ele><time>2026-04-18T09:13:00.101Z</time></trkpt><trkpt lat="40.9631417" lon="14.369185"><ele>26.0</ele><time>2026-04-18T09:13:01.102Z</time></trkpt><trkpt lat="40.9630933" lon="14.3690467"><ele>26.0</ele><time>2026-04-18T09:13:02.102Z</time></trkpt><trkpt lat="40.96303" lon="14.368885"><ele>26.0</ele><time>2026-04-18T09:13:03.101Z</time></trkpt><trkpt lat="40.96296" lon="14.3687133"><ele>26.0</ele><time>2026-04-18T09:13:04.101Z</time></trkpt><trkpt lat="40.9628717" lon="14.36852"><ele>26.0</ele><time>2026-04-18T09:13:05.101Z</time></trkpt><trkpt lat="40.9627867" lon="14.36832"><ele>26.0</ele><time>2026-04-18T09:13:06.101Z</time></trkpt><trkpt lat="40.9626917" lon="14.368115"><ele>26.0</ele><time>2026-04-18T09:13:07.101Z</time></trkpt><trkpt lat="40.9625967" lon="14.3679183"><ele>25.666666666666664</ele><time>2026-04-18T09:13:08.101Z</time></trkpt><trkpt lat="40.962505" lon="14.3677183"><ele>25.333333333333336</ele><time>2026-04-18T09:13:09.101Z</time></trkpt><trkpt lat="40.9624" lon="14.3675133"><ele>25.0</ele><time>2026-04-18T09:13:10.101Z</time></trkpt><trkpt lat="40.96229" lon="14.3673033"><ele>25.0</ele><time>2026-04-18T09:13:11.101Z</time></trkpt><trkpt lat="40.9621817" lon="14.36709"><ele>25.0</ele><time>2026-04-18T09:13:12.101Z</time></trkpt><trkpt lat="40.9620667" lon="14.3668783"><ele>25.0</ele><time>2026-04-18T09:13:13.101Z</time></trkpt><trkpt lat="40.961955" lon="14.3666683"><ele>25.0</ele><time>2026-04-18T09:13:14.101Z</time></trkpt><trkpt lat="40.9618417" lon="14.3664683"><ele>25.0</ele><time>2026-04-18T09:13:15.101Z</time></trkpt><trkpt lat="40.9617267" lon="14.3662733"><ele>25.0</ele><time>2026-04-18T09:13:16.101Z</time></trkpt><trkpt lat="40.9616" lon="14.36608"><ele>25.0</ele><time>2026-04-18T09:13:17.101Z</time></trkpt><trkpt lat="40.9614767" lon="14.365895"><ele>25.0</ele><time>2026-04-18T09:13:18.101Z</time></trkpt><trkpt lat="40.9613483" lon="14.3657183"><ele>25.0</ele><time>2026-04-18T09:13:19.101Z</time></trkpt><trkpt lat="40.9612133" lon="14.3655467"><ele>25.0</ele><time>2026-04-18T09:13:20.101Z</time></trkpt><trkpt lat="40.9610733" lon="14.3653867"><ele>25.0</ele><time>2026-04-18T09:13:21.101Z</time></trkpt><trkpt lat="40.9609383" lon="14.3652267"><ele>25.0</ele><time>2026-04-18T09:13:22.101Z</time></trkpt><trkpt lat="40.96082" lon="14.3650567"><ele>25.333333333333336</ele><time>2026-04-18T09:13:23.101Z</time></trkpt><trkpt lat="40.96071" lon="14.3648983"><ele>25.666666666666664</ele><time>2026-04-18T09:13:24.101Z</time></trkpt><trkpt lat="40.9606083" lon="14.364745"><ele>26.0</ele><time>2026-04-18T09:13:25.101Z</time></trkpt><trkpt lat="40.9605117" lon="14.3645917"><ele>25.5</ele><time>2026-04-18T09:13:26.101Z</time></trkpt><trkpt lat="40.96043" lon="14.36444"><ele>25.0</ele><time>2026-04-18T09:13:27.101Z</time></trkpt><trkpt lat="40.9603683" lon="14.3643"><ele>24.5</ele><time>2026-04-18T09:13:28.101Z</time></trkpt><trkpt lat="40.9603167" lon="14.364175"><ele>24.0</ele><time>2026-04-18T09:13:29.101Z</time></trkpt><trkpt lat="40.960275" lon="14.36407"><ele>24.0</ele><time>2026-04-18T09:13:30.102Z</time></trkpt><trkpt lat="40.9602333" lon="14.3639867"><ele>24.0</ele><time>2026-04-18T09:13:31.101Z</time></trkpt><trkpt lat="40.9601933" lon="14.3639017"><ele>24.0</ele><time>2026-04-18T09:13:33.101Z</time></trkpt><trkpt lat="40.9601567" lon="14.3638233"><ele>24.0</ele><time>2026-04-18T09:14:54.101Z</time></trkpt><trkpt lat="40.9601017" lon="14.3637067"><ele>24.0</ele><time>2026-04-18T09:14:56.101Z</time></trkpt><trkpt lat="40.9600333" lon="14.3635683"><ele>24.0</ele><time>2026-04-18T09:14:58.101Z</time></trkpt><trkpt lat="40.9599967" lon="14.3634933"><ele>24.0</ele><time>2026-04-18T09:14:59.101Z</time></trkpt><trkpt lat="40.9599567" lon="14.36342"><ele>24.0</ele><time>2026-04-18T09:15:00.102Z</time></trkpt><trkpt lat="40.9599183" lon="14.3633433"><ele>24.0</ele><time>2026-04-18T09:15:01.101Z</time></trkpt><trkpt lat="40.9598733" lon="14.3632733"><ele>24.0</ele><time>2026-04-18T09:15:02.101Z</time></trkpt><trkpt lat="40.9598283" lon="14.3632083"><ele>24.0</ele><time>2026-04-18T09:15:03.101Z</time></trkpt><trkpt lat="40.95976" lon="14.363105"><ele>24.0</ele><time>2026-04-18T09:15:05.101Z</time></trkpt><trkpt lat="40.9597083" lon="14.3630167"><ele>23.799999999999997</ele><time>2026-04-18T09:15:07.102Z</time></trkpt><trkpt lat="40.9596533" lon="14.3629367"><ele>23.599999999999998</ele><time>2026-04-18T09:15:10.101Z</time></trkpt><trkpt lat="40.959585" lon="14.3628683"><ele>23.4</ele><time>2026-04-18T09:15:33.101Z</time></trkpt><trkpt lat="40.9595" lon="14.36275"><ele>23.2</ele><time>2026-04-18T09:15:35.101Z</time></trkpt><trkpt lat="40.9594467" lon="14.3626683"><ele>23.0</ele><time>2026-04-18T09:15:36.101Z</time></trkpt><trkpt lat="40.9593933" lon="14.3625833"><ele>23.0</ele><time>2026-04-18T09:15:37.101Z</time></trkpt><trkpt lat="40.9593467" lon="14.362505"><ele>23.0</ele><time>2026-04-18T09:15:38.101Z</time></trkpt><trkpt lat="40.9593" lon="14.36242"><ele>23.0</ele><time>2026-04-18T09:15:39.101Z</time></trkpt><trkpt lat="40.959265" lon="14.3623217"><ele>23.0</ele><time>2026-04-18T09:15:40.101Z</time></trkpt><trkpt lat="40.9592367" lon="14.3622283"><ele>23.0</ele><time>2026-04-18T09:15:41.101Z</time></trkpt><trkpt lat="40.95922" lon="14.3621267"><ele>23.0</ele><time>2026-04-18T09:15:42.101Z</time></trkpt><trkpt lat="40.9592" lon="14.3620317"><ele>23.2</ele><time>2026-04-18T09:15:43.101Z</time></trkpt><trkpt lat="40.9591883" lon="14.3619467"><ele>23.4</ele><time>2026-04-18T09:15:44.101Z</time></trkpt><trkpt lat="40.9591633" lon="14.361815"><ele>23.599999999999998</ele><time>2026-04-18T09:15:46.101Z</time></trkpt><trkpt lat="40.9591267" lon="14.3616733"><ele>23.799999999999997</ele><time>2026-04-18T09:15:48.101Z</time></trkpt><trkpt lat="40.959085" lon="14.361525"><ele>24.0</ele><time>2026-04-18T09:15:50.101Z</time></trkpt><trkpt lat="40.9590633" lon="14.36144"><ele>24.0</ele><time>2026-04-18T09:15:51.101Z</time></trkpt><trkpt lat="40.9590167" lon="14.3613033"><ele>24.0</ele><time>2026-04-18T09:15:53.101Z</time></trkpt><trkpt lat="40.9589533" lon="14.3612317"><ele>24.0</ele><time>2026-04-18T09:15:55.101Z</time></trkpt><trkpt lat="40.9588683" lon="14.36123"><ele>24.0</ele><time>2026-04-18T09:15:57.101Z</time></trkpt><trkpt lat="40.9587417" lon="14.3612833"><ele>24.0</ele><time>2026-04-18T09:15:59.101Z</time></trkpt><trkpt lat="40.9586617" lon="14.3613117"><ele>24.0</ele><time>2026-04-18T09:16:00.101Z</time></trkpt><trkpt lat="40.9585767" lon="14.3613417"><ele>24.0</ele><time>2026-04-18T09:16:01.101Z</time></trkpt><trkpt lat="40.9584867" lon="14.3613767"><ele>24.0</ele><time>2026-04-18T09:16:02.101Z</time></trkpt><trkpt lat="40.9583967" lon="14.361425"><ele>24.0</ele><time>2026-04-18T09:16:03.101Z</time></trkpt><trkpt lat="40.9582983" lon="14.3614617"><ele>24.0</ele><time>2026-04-18T09:16:04.101Z</time></trkpt><trkpt lat="40.9582017" lon="14.3614883"><ele>24.4</ele><time>2026-04-18T09:16:05.101Z</time></trkpt><trkpt lat="40.958115" lon="14.3615217"><ele>24.799999999999997</ele><time>2026-04-18T09:16:06.101Z</time></trkpt><trkpt lat="40.9580217" lon="14.361555"><ele>25.200000000000003</ele><time>2026-04-18T09:16:07.101Z</time></trkpt><trkpt lat="40.9579333" lon="14.3615917"><ele>25.6</ele><time>2026-04-18T09:16:08.101Z</time></trkpt><trkpt lat="40.9578433" lon="14.3616233"><ele>26.0</ele><time>2026-04-18T09:16:09.101Z</time></trkpt><trkpt lat="40.9577533" lon="14.361665"><ele>26.0</ele><time>2026-04-18T09:16:10.101Z</time></trkpt><trkpt lat="40.9576667" lon="14.3617017"><ele>26.0</ele><time>2026-04-18T09:16:11.101Z</time></trkpt><trkpt lat="40.957585" lon="14.361735"><ele>26.0</ele><time>2026-04-18T09:16:12.101Z</time></trkpt><trkpt lat="40.9575" lon="14.3617717"><ele>26.0</ele><time>2026-04-18T09:16:13.101Z</time></trkpt><trkpt lat="40.9574133" lon="14.36181"><ele>26.0</ele><time>2026-04-18T09:16:14.101Z</time></trkpt><trkpt lat="40.9573233" lon="14.3618483"><ele>25.999999999999996</ele><time>2026-04-18T09:16:15.101Z</time></trkpt><trkpt lat="40.95724" lon="14.3618867"><ele>26.0</ele><time>2026-04-18T09:16:16.101Z</time></trkpt><trkpt lat="40.9571633" lon="14.3619233"><ele>26.0</ele><time>2026-04-18T09:16:17.101Z</time></trkpt><trkpt lat="40.9570767" lon="14.3619517"><ele>26.0</ele><time>2026-04-18T09:16:18.101Z</time></trkpt><trkpt lat="40.956995" lon="14.361985"><ele>25.999999999999996</ele><time>2026-04-18T09:16:19.101Z</time></trkpt><trkpt lat="40.9569067" lon="14.3620167"><ele>26.0</ele><time>2026-04-18T09:16:20.101Z</time></trkpt><trkpt lat="40.9568117" lon="14.3620483"><ele>26.0</ele><time>2026-04-18T09:16:21.101Z</time></trkpt><trkpt lat="40.9567267" lon="14.3620767"><ele>26.0</ele><time>2026-04-18T09:16:22.101Z</time></trkpt><trkpt lat="40.956635" lon="14.3621067"><ele>26.0</ele><time>2026-04-18T09:16:23.101Z</time></trkpt><trkpt lat="40.9565433" lon="14.3621433"><ele>26.0</ele><time>2026-04-18T09:16:24.101Z</time></trkpt><trkpt lat="40.9564433" lon="14.3621833"><ele>26.0</ele><time>2026-04-18T09:16:25.101Z</time></trkpt><trkpt lat="40.956355" lon="14.3622283"><ele>26.4</ele><time>2026-04-18T09:16:26.101Z</time></trkpt><trkpt lat="40.956265" lon="14.3622617"><ele>26.8</ele><time>2026-04-18T09:16:27.101Z</time></trkpt><trkpt lat="40.95618" lon="14.3623017"><ele>27.199999999999996</ele><time>2026-04-18T09:16:28.101Z</time></trkpt><trkpt lat="40.9561017" lon="14.3623283"><ele>27.599999999999998</ele><time>2026-04-18T09:16:29.101Z</time></trkpt><trkpt lat="40.9559867" lon="14.362365"><ele>28.0</ele><time>2026-04-18T09:16:31.101Z</time></trkpt><trkpt lat="40.9558767" lon="14.362405"><ele>27.799999999999997</ele><time>2026-04-18T09:16:33.101Z</time></trkpt><trkpt lat="40.9557783" lon="14.362445"><ele>27.599999999999998</ele><time>2026-04-18T09:16:35.101Z</time></trkpt><trkpt lat="40.9557117" lon="14.3624833"><ele>27.400000000000002</ele><time>2026-04-18T09:16:50.101Z</time></trkpt><trkpt lat="40.95559" lon="14.3625183"><ele>27.200000000000003</ele><time>2026-04-18T09:16:52.101Z</time></trkpt><trkpt lat="40.955505" lon="14.3625483"><ele>27.0</ele><time>2026-04-18T09:16:53.101Z</time></trkpt><trkpt lat="40.9553967" lon="14.3625783"><ele>27.0</ele><time>2026-04-18T09:16:54.101Z</time></trkpt><trkpt lat="40.9552917" lon="14.36262"><ele>27.0</ele><time>2026-04-18T09:16:55.102Z</time></trkpt><trkpt lat="40.9551867" lon="14.3626617"><ele>27.0</ele><time>2026-04-18T09:16:56.101Z</time></trkpt><trkpt lat="40.955075" lon="14.36271"><ele>27.0</ele><time>2026-04-18T09:16:57.101Z</time></trkpt><trkpt lat="40.9549567" lon="14.3627467"><ele>27.400000000000002</ele><time>2026-04-18T09:16:58.101Z</time></trkpt><trkpt lat="40.954845" lon="14.362795"><ele>27.800000000000004</ele><time>2026-04-18T09:16:59.101Z</time></trkpt><trkpt lat="40.9547533" lon="14.3628283"><ele>28.2</ele><time>2026-04-18T09:17:00.101Z</time></trkpt><trkpt lat="40.954675" lon="14.36286"><ele>28.6</ele><time>2026-04-18T09:17:01.101Z</time></trkpt><trkpt lat="40.9546" lon="14.362895"><ele>29.0</ele><time>2026-04-18T09:17:02.101Z</time></trkpt><trkpt lat="40.95452" lon="14.3629267"><ele>28.999999999999996</ele><time>2026-04-18T09:17:03.101Z</time></trkpt><trkpt lat="40.9544433" lon="14.362965"><ele>29.0</ele><time>2026-04-18T09:17:04.101Z</time></trkpt><trkpt lat="40.9543633" lon="14.3630017"><ele>29.0</ele><time>2026-04-18T09:17:05.101Z</time></trkpt><trkpt lat="40.9542767" lon="14.3630267"><ele>29.0</ele><time>2026-04-18T09:17:06.101Z</time></trkpt><trkpt lat="40.9541833" lon="14.3630633"><ele>28.999999999999996</ele><time>2026-04-18T09:17:07.101Z</time></trkpt><trkpt lat="40.9540917" lon="14.3631033"><ele>29.0</ele><time>2026-04-18T09:17:08.101Z</time></trkpt><trkpt lat="40.954005" lon="14.363145"><ele>28.799999999999997</ele><time>2026-04-18T09:17:09.101Z</time></trkpt><trkpt lat="40.9539" lon="14.3631767"><ele>28.599999999999998</ele><time>2026-04-18T09:17:10.101Z</time></trkpt><trkpt lat="40.9537983" lon="14.363215"><ele>28.4</ele><time>2026-04-18T09:17:11.101Z</time></trkpt><trkpt lat="40.9537" lon="14.3632533"><ele>28.2</ele><time>2026-04-18T09:17:12.101Z</time></trkpt><trkpt lat="40.9535983" lon="14.3632967"><ele>28.0</ele><time>2026-04-18T09:17:13.101Z</time></trkpt><trkpt lat="40.9535" lon="14.3633367"><ele>28.000000000000004</ele><time>2026-04-18T09:17:14.101Z</time></trkpt><trkpt lat="40.9534017" lon="14.3633767"><ele>28.0</ele><time>2026-04-18T09:17:15.101Z</time></trkpt><trkpt lat="40.9533133" lon="14.3634133"><ele>28.0</ele><time>2026-04-18T09:17:16.101Z</time></trkpt><trkpt lat="40.95325" lon="14.3634433"><ele>28.0</ele><time>2026-04-18T09:17:17.101Z</time></trkpt><trkpt lat="40.9531883" lon="14.3634667"><ele>28.000000000000004</ele><time>2026-04-18T09:17:18.101Z</time></trkpt><trkpt lat="40.9531167" lon="14.3634933"><ele>28.0</ele><time>2026-04-18T09:17:19.101Z</time></trkpt><trkpt lat="40.9530367" lon="14.3635217"><ele>28.0</ele><time>2026-04-18T09:17:20.101Z</time></trkpt><trkpt lat="40.9529433" lon="14.3635633"><ele>27.999999999999996</ele><time>2026-04-18T09:17:21.101Z</time></trkpt><trkpt lat="40.9528467" lon="14.3636117"><ele>27.999999999999996</ele><time>2026-04-18T09:17:22.101Z</time></trkpt><trkpt lat="40.9527433" lon="14.36365"><ele>28.0</ele><time>2026-04-18T09:17:23.101Z</time></trkpt><trkpt lat="40.952635" lon="14.3636883"><ele>28.0</ele><time>2026-04-18T09:17:24.101Z</time></trkpt><trkpt lat="40.952535" lon="14.363725"><ele>28.0</ele><time>2026-04-18T09:17:25.101Z</time></trkpt><trkpt lat="40.952435" lon="14.363775"><ele>27.999999999999996</ele><time>2026-04-18T09:17:26.101Z</time></trkpt><trkpt lat="40.952335" lon="14.3638133"><ele>27.999999999999996</ele><time>2026-04-18T09:17:27.101Z</time></trkpt><trkpt lat="40.9522467" lon="14.3638467"><ele>28.0</ele><time>2026-04-18T09:17:28.101Z</time></trkpt><trkpt lat="40.9521617" lon="14.3638817"><ele>28.0</ele><time>2026-04-18T09:17:29.101Z</time></trkpt><trkpt lat="40.9520867" lon="14.3639217"><ele>28.000000000000004</ele><time>2026-04-18T09:17:30.102Z</time></trkpt><trkpt lat="40.9520183" lon="14.3639383"><ele>28.0</ele><time>2026-04-18T09:17:31.101Z</time></trkpt><trkpt lat="40.9519517" lon="14.3639667"><ele>28.0</ele><time>2026-04-18T09:17:32.101Z</time></trkpt><trkpt lat="40.9518783" lon="14.364"><ele>28.0</ele><time>2026-04-18T09:17:33.101Z</time></trkpt><trkpt lat="40.9518" lon="14.3640383"><ele>28.000000000000004</ele><time>2026-04-18T09:17:34.101Z</time></trkpt><trkpt lat="40.9517217" lon="14.3640683"><ele>28.0</ele><time>2026-04-18T09:17:35.101Z</time></trkpt><trkpt lat="40.9516483" lon="14.36409"><ele>28.166666666666668</ele><time>2026-04-18T09:17:36.101Z</time></trkpt><trkpt lat="40.9515817" lon="14.364115"><ele>28.333333333333336</ele><time>2026-04-18T09:17:37.101Z</time></trkpt><trkpt lat="40.95152" lon="14.3641417"><ele>28.5</ele><time>2026-04-18T09:17:38.101Z</time></trkpt><trkpt lat="40.9514567" lon="14.36416"><ele>28.666666666666664</ele><time>2026-04-18T09:17:39.101Z</time></trkpt><trkpt lat="40.9513433" lon="14.3642083"><ele>28.833333333333332</ele><time>2026-04-18T09:17:41.101Z</time></trkpt><trkpt lat="40.9512367" lon="14.3642517"><ele>29.0</ele><time>2026-04-18T09:17:43.101Z</time></trkpt><trkpt lat="40.951145" lon="14.3643117"><ele>29.0</ele><time>2026-04-18T09:17:45.101Z</time></trkpt><trkpt lat="40.9510633" lon="14.3643617"><ele>29.0</ele><time>2026-04-18T09:17:47.101Z</time></trkpt><trkpt lat="40.9509833" lon="14.3643983"><ele>29.0</ele><time>2026-04-18T09:17:50.101Z</time></trkpt><trkpt lat="40.950915" lon="14.3644367"><ele>29.0</ele><time>2026-04-18T09:17:53.101Z</time></trkpt><trkpt lat="40.9508367" lon="14.3644883"><ele>29.0</ele><time>2026-04-18T09:17:56.101Z</time></trkpt><trkpt lat="40.95071" lon="14.36451"><ele>28.999999999999996</ele><time>2026-04-18T09:18:14.101Z</time></trkpt><trkpt lat="40.9506267" lon="14.3645583"><ele>29.0</ele><time>2026-04-18T09:18:16.101Z</time></trkpt><trkpt lat="40.9505683" lon="14.3645983"><ele>29.0</ele><time>2026-04-18T09:18:18.101Z</time></trkpt><trkpt lat="40.9504733" lon="14.3646483"><ele>29.0</ele><time>2026-04-18T09:18:29.101Z</time></trkpt><trkpt lat="40.950395" lon="14.364685"><ele>28.999999999999996</ele><time>2026-04-18T09:18:31.101Z</time></trkpt><trkpt lat="40.9503333" lon="14.3647283"><ele>29.0</ele><time>2026-04-18T09:18:34.101Z</time></trkpt><trkpt lat="40.9502717" lon="14.3647533"><ele>29.2</ele><time>2026-04-18T09:18:41.101Z</time></trkpt><trkpt lat="40.950185" lon="14.36481"><ele>29.4</ele><time>2026-04-18T09:18:44.101Z</time></trkpt><trkpt lat="40.9501283" lon="14.3648567"><ele>29.6</ele><time>2026-04-18T09:18:46.101Z</time></trkpt><trkpt lat="40.9500433" lon="14.3649"><ele>29.8</ele><time>2026-04-18T09:18:49.101Z</time></trkpt><trkpt lat="40.9499817" lon="14.3649267"><ele>30.0</ele><time>2026-04-18T09:18:51.101Z</time></trkpt><trkpt lat="40.9498533" lon="14.3649717"><ele>30.0</ele><time>2026-04-18T09:19:00.101Z</time></trkpt><trkpt lat="40.949775" lon="14.3650133"><ele>30.0</ele><time>2026-04-18T09:19:02.101Z</time></trkpt><trkpt lat="40.9496683" lon="14.3650667"><ele>30.0</ele><time>2026-04-18T09:19:04.101Z</time></trkpt><trkpt lat="40.9495683" lon="14.3651017"><ele>30.0</ele><time>2026-04-18T09:19:06.101Z</time></trkpt><trkpt lat="40.9494983" lon="14.3651517"><ele>30.0</ele><time>2026-04-18T09:19:08.101Z</time></trkpt><trkpt lat="40.9494183" lon="14.365185"><ele>30.0</ele><time>2026-04-18T09:19:10.101Z</time></trkpt><trkpt lat="40.9493283" lon="14.3652433"><ele>30.0</ele><time>2026-04-18T09:19:12.101Z</time></trkpt><trkpt lat="40.9492683" lon="14.3652983"><ele>30.0</ele><time>2026-04-18T09:19:15.101Z</time></trkpt><trkpt lat="40.949205" lon="14.3653283"><ele>30.0</ele><time>2026-04-18T09:19:20.101Z</time></trkpt><trkpt lat="40.9491383" lon="14.3653617"><ele>30.0</ele><time>2026-04-18T09:19:23.101Z</time></trkpt><trkpt lat="40.949065" lon="14.365375"><ele>30.0</ele><time>2026-04-18T09:19:26.101Z</time></trkpt><trkpt lat="40.949" lon="14.365325"><ele>29.666666666666668</ele><time>2026-04-18T09:19:28.101Z</time></trkpt><trkpt lat="40.9489617" lon="14.3651867"><ele>29.333333333333336</ele><time>2026-04-18T09:19:30.101Z</time></trkpt><trkpt lat="40.9489617" lon="14.36508"><ele>29.0</ele><time>2026-04-18T09:19:31.101Z</time></trkpt><trkpt lat="40.948965" lon="14.3649683"><ele>28.666666666666668</ele><time>2026-04-18T09:19:32.101Z</time></trkpt><trkpt lat="40.9489733" lon="14.36486"><ele>28.333333333333336</ele><time>2026-04-18T09:19:33.101Z</time></trkpt><trkpt lat="40.9489783" lon="14.3647567"><ele>28.0</ele><time>2026-04-18T09:19:34.101Z</time></trkpt><trkpt lat="40.948985" lon="14.3646417"><ele>28.0</ele><time>2026-04-18T09:19:35.101Z</time></trkpt><trkpt lat="40.9489917" lon="14.3645167"><ele>27.999999999999996</ele><time>2026-04-18T09:19:36.101Z</time></trkpt><trkpt lat="40.9489967" lon="14.3643967"><ele>27.999999999999996</ele><time>2026-04-18T09:19:37.101Z</time></trkpt><trkpt lat="40.9490033" lon="14.36428"><ele>28.0</ele><time>2026-04-18T09:19:38.101Z</time></trkpt><trkpt lat="40.9490033" lon="14.3641533"><ele>28.0</ele><time>2026-04-18T09:19:39.101Z</time></trkpt><trkpt lat="40.94901" lon="14.3640167"><ele>28.0</ele><time>2026-04-18T09:19:40.101Z</time></trkpt><trkpt lat="40.949015" lon="14.3638817"><ele>27.999999999999996</ele><time>2026-04-18T09:19:41.101Z</time></trkpt><trkpt lat="40.9490183" lon="14.36373"><ele>27.999999999999996</ele><time>2026-04-18T09:19:42.101Z</time></trkpt><trkpt lat="40.9490267" lon="14.3635883"><ele>28.0</ele><time>2026-04-18T09:19:43.101Z</time></trkpt><trkpt lat="40.9490417" lon="14.3634667"><ele>28.0</ele><time>2026-04-18T09:19:44.101Z</time></trkpt><trkpt lat="40.9490467" lon="14.36335"><ele>27.799999999999997</ele><time>2026-04-18T09:19:45.101Z</time></trkpt><trkpt lat="40.9490483" lon="14.3632283"><ele>27.599999999999998</ele><time>2026-04-18T09:19:46.101Z</time></trkpt><trkpt lat="40.9490483" lon="14.3630967"><ele>27.400000000000002</ele><time>2026-04-18T09:19:47.101Z</time></trkpt><trkpt lat="40.94905" lon="14.3629633"><ele>27.200000000000003</ele><time>2026-04-18T09:19:48.101Z</time></trkpt><trkpt lat="40.9490483" lon="14.3628517"><ele>27.0</ele><time>2026-04-18T09:19:49.101Z</time></trkpt><trkpt lat="40.9490433" lon="14.362755"><ele>27.200000000000003</ele><time>2026-04-18T09:19:50.101Z</time></trkpt><trkpt lat="40.9490367" lon="14.3626567"><ele>27.400000000000002</ele><time>2026-04-18T09:19:51.101Z</time></trkpt><trkpt lat="40.9490217" lon="14.3625483"><ele>27.599999999999998</ele><time>2026-04-18T09:19:52.101Z</time></trkpt><trkpt lat="40.9490017" lon="14.3624283"><ele>27.799999999999997</ele><time>2026-04-18T09:19:53.101Z</time></trkpt><trkpt lat="40.94898" lon="14.3622967"><ele>28.0</ele><time>2026-04-18T09:19:54.101Z</time></trkpt><trkpt lat="40.9489567" lon="14.3621583"><ele>28.0</ele><time>2026-04-18T09:19:55.101Z</time></trkpt><trkpt lat="40.9489133" lon="14.3620333"><ele>27.999999999999996</ele><time>2026-04-18T09:19:56.101Z</time></trkpt><trkpt lat="40.9488667" lon="14.361925"><ele>27.999999999999996</ele><time>2026-04-18T09:19:57.102Z</time></trkpt><trkpt lat="40.9488233" lon="14.3618233"><ele>28.0</ele><time>2026-04-18T09:19:58.101Z</time></trkpt><trkpt lat="40.9487683" lon="14.3617317"><ele>28.0</ele><time>2026-04-18T09:19:59.101Z</time></trkpt><trkpt lat="40.9487033" lon="14.3616383"><ele>28.0</ele><time>2026-04-18T09:20:00.101Z</time></trkpt><trkpt lat="40.9486283" lon="14.3615417"><ele>27.999999999999996</ele><time>2026-04-18T09:20:01.101Z</time></trkpt><trkpt lat="40.9485483" lon="14.3614417"><ele>27.999999999999996</ele><time>2026-04-18T09:20:02.101Z</time></trkpt><trkpt lat="40.9484683" lon="14.3613467"><ele>28.0</ele><time>2026-04-18T09:20:03.101Z</time></trkpt><trkpt lat="40.9483967" lon="14.3612567"><ele>28.0</ele><time>2026-04-18T09:20:04.101Z</time></trkpt><trkpt lat="40.948325" lon="14.3611683"><ele>28.0</ele><time>2026-04-18T09:20:05.101Z</time></trkpt><trkpt lat="40.948255" lon="14.3610717"><ele>28.0</ele><time>2026-04-18T09:20:06.101Z</time></trkpt><trkpt lat="40.9481783" lon="14.3609683"><ele>28.0</ele><time>2026-04-18T09:20:07.101Z</time></trkpt><trkpt lat="40.9480917" lon="14.3608583"><ele>28.0</ele><time>2026-04-18T09:20:08.101Z</time></trkpt><trkpt lat="40.9479967" lon="14.3607433"><ele>28.0</ele><time>2026-04-18T09:20:09.101Z</time></trkpt><trkpt lat="40.9479" lon="14.3606333"><ele>28.0</ele><time>2026-04-18T09:20:10.101Z</time></trkpt><trkpt lat="40.9478017" lon="14.36052"><ele>28.0</ele><time>2026-04-18T09:20:11.101Z</time></trkpt><trkpt lat="40.94772" lon="14.3604033"><ele>28.0</ele><time>2026-04-18T09:20:12.101Z</time></trkpt><trkpt lat="40.9476483" lon="14.3603033"><ele>28.166666666666668</ele><time>2026-04-18T09:20:13.101Z</time></trkpt><trkpt lat="40.9475983" lon="14.36022"><ele>28.333333333333336</ele><time>2026-04-18T09:20:14.101Z</time></trkpt><trkpt lat="40.947555" lon="14.3601417"><ele>28.5</ele><time>2026-04-18T09:20:15.101Z</time></trkpt><trkpt lat="40.94751" lon="14.3600667"><ele>28.666666666666664</ele><time>2026-04-18T09:20:16.101Z</time></trkpt><trkpt lat="40.947465" lon="14.3599917"><ele>28.833333333333332</ele><time>2026-04-18T09:20:17.101Z</time></trkpt><trkpt lat="40.9474267" lon="14.3599067"><ele>29.0</ele><time>2026-04-18T09:20:18.102Z</time></trkpt><trkpt lat="40.9473867" lon="14.3598183"><ele>28.666666666666664</ele><time>2026-04-18T09:20:19.101Z</time></trkpt><trkpt lat="40.9473533" lon="14.359735"><ele>28.333333333333332</ele><time>2026-04-18T09:20:20.101Z</time></trkpt><trkpt lat="40.9473133" lon="14.3596283"><ele>28.0</ele><time>2026-04-18T09:20:22.102Z</time></trkpt><trkpt lat="40.947285" lon="14.3595467"><ele>27.666666666666664</ele><time>2026-04-18T09:20:26.101Z</time></trkpt><trkpt lat="40.947255" lon="14.3594467"><ele>27.333333333333332</ele><time>2026-04-18T09:20:30.101Z</time></trkpt><trkpt lat="40.9472283" lon="14.3593533"><ele>27.0</ele><time>2026-04-18T09:20:34.101Z</time></trkpt><trkpt lat="40.9472067" lon="14.35927"><ele>26.8</ele><time>2026-04-18T09:20:36.101Z</time></trkpt><trkpt lat="40.94719" lon="14.359155"><ele>26.6</ele><time>2026-04-18T09:20:38.101Z</time></trkpt><trkpt lat="40.9471583" lon="14.35901"><ele>26.400000000000002</ele><time>2026-04-18T09:20:40.101Z</time></trkpt><trkpt lat="40.94714" lon="14.3588517"><ele>26.200000000000003</ele><time>2026-04-18T09:20:42.101Z</time></trkpt><trkpt lat="40.9471433" lon="14.3587683"><ele>26.0</ele><time>2026-04-18T09:20:43.101Z</time></trkpt><trkpt lat="40.947135" lon="14.35868"><ele>26.166666666666664</ele><time>2026-04-18T09:20:44.101Z</time></trkpt><trkpt lat="40.94713" lon="14.3585733"><ele>26.333333333333332</ele><time>2026-04-18T09:20:45.101Z</time></trkpt><trkpt lat="40.947135" lon="14.35846"><ele>26.5</ele><time>2026-04-18T09:20:46.101Z</time></trkpt><trkpt lat="40.9471517" lon="14.3583533"><ele>26.666666666666664</ele><time>2026-04-18T09:20:47.101Z</time></trkpt><trkpt lat="40.947165" lon="14.35827"><ele>26.833333333333332</ele><time>2026-04-18T09:20:48.101Z</time></trkpt><trkpt lat="40.9471817" lon="14.358105"><ele>27.0</ele><time>2026-04-18T09:20:50.101Z</time></trkpt><trkpt lat="40.9471933" lon="14.35799"><ele>27.0</ele><time>2026-04-18T09:20:51.101Z</time></trkpt><trkpt lat="40.9472133" lon="14.3578433"><ele>27.0</ele><time>2026-04-18T09:20:52.102Z</time></trkpt><trkpt lat="40.9472317" lon="14.35767"><ele>27.0</ele><time>2026-04-18T09:20:53.101Z</time></trkpt><trkpt lat="40.9472467" lon="14.3574833"><ele>27.0</ele><time>2026-04-18T09:20:54.101Z</time></trkpt><trkpt lat="40.9472633" lon="14.3572933"><ele>26.75</ele><time>2026-04-18T09:20:55.101Z</time></trkpt><trkpt lat="40.9472833" lon="14.3570967"><ele>26.5</ele><time>2026-04-18T09:20:56.101Z</time></trkpt><trkpt lat="40.947305" lon="14.3569083"><ele>26.25</ele><time>2026-04-18T09:20:57.101Z</time></trkpt><trkpt lat="40.9473233" lon="14.356715"><ele>26.0</ele><time>2026-04-18T09:20:58.101Z</time></trkpt><trkpt lat="40.9473567" lon="14.35652"><ele>26.0</ele><time>2026-04-18T09:20:59.101Z</time></trkpt><trkpt lat="40.9474033" lon="14.3563167"><ele>26.0</ele><time>2026-04-18T09:21:00.101Z</time></trkpt><trkpt lat="40.94746" lon="14.3560967"><ele>26.0</ele><time>2026-04-18T09:21:01.101Z</time></trkpt><trkpt lat="40.9475217" lon="14.3558617"><ele>26.333333333333332</ele><time>2026-04-18T09:21:02.101Z</time></trkpt><trkpt lat="40.9475833" lon="14.3556383"><ele>26.666666666666664</ele><time>2026-04-18T09:21:03.102Z</time></trkpt><trkpt lat="40.9476417" lon="14.355415"><ele>27.0</ele><time>2026-04-18T09:21:04.101Z</time></trkpt><trkpt lat="40.947695" lon="14.3551933"><ele>27.333333333333336</ele><time>2026-04-18T09:21:05.101Z</time></trkpt><trkpt lat="40.9477367" lon="14.354965"><ele>27.666666666666668</ele><time>2026-04-18T09:21:06.102Z</time></trkpt><trkpt lat="40.9477767" lon="14.3547333"><ele>28.0</ele><time>2026-04-18T09:21:07.102Z</time></trkpt><trkpt lat="40.94782" lon="14.3545083"><ele>28.0</ele><time>2026-04-18T09:21:08.101Z</time></trkpt><trkpt lat="40.9478533" lon="14.3542767"><ele>28.0</ele><time>2026-04-18T09:21:09.102Z</time></trkpt><trkpt lat="40.9478783" lon="14.3540417"><ele>28.0</ele><time>2026-04-18T09:21:10.101Z</time></trkpt><trkpt lat="40.9479083" lon="14.3538067"><ele>28.0</ele><time>2026-04-18T09:21:11.101Z</time></trkpt><trkpt lat="40.947935" lon="14.3535683"><ele>28.0</ele><time>2026-04-18T09:21:12.101Z</time></trkpt><trkpt lat="40.9479683" lon="14.3533367"><ele>28.0</ele><time>2026-04-18T09:21:13.102Z</time></trkpt><trkpt lat="40.9479933" lon="14.3530917"><ele>28.0</ele><time>2026-04-18T09:21:14.101Z</time></trkpt><trkpt lat="40.9480233" lon="14.352855"><ele>28.0</ele><time>2026-04-18T09:21:15.101Z</time></trkpt><trkpt lat="40.9480417" lon="14.352625"><ele>28.0</ele><time>2026-04-18T09:21:16.101Z</time></trkpt><trkpt lat="40.9480633" lon="14.3523983"><ele>27.666666666666668</ele><time>2026-04-18T09:21:17.101Z</time></trkpt><trkpt lat="40.9480867" lon="14.3521717"><ele>27.333333333333336</ele><time>2026-04-18T09:21:18.101Z</time></trkpt><trkpt lat="40.9481233" lon="14.351955"><ele>27.0</ele><time>2026-04-18T09:21:19.101Z</time></trkpt><trkpt lat="40.9481633" lon="14.3517367"><ele>27.0</ele><time>2026-04-18T09:21:20.101Z</time></trkpt><trkpt lat="40.9482083" lon="14.351535"><ele>27.0</ele><time>2026-04-18T09:21:21.101Z</time></trkpt><trkpt lat="40.94827" lon="14.3513317"><ele>27.0</ele><time>2026-04-18T09:21:22.101Z</time></trkpt><trkpt lat="40.94835" lon="14.3511233"><ele>27.0</ele><time>2026-04-18T09:21:23.101Z</time></trkpt><trkpt lat="40.94844" lon="14.350915"><ele>27.0</ele><time>2026-04-18T09:21:24.101Z</time></trkpt><trkpt lat="40.94854" lon="14.3507017"><ele>27.0</ele><time>2026-04-18T09:21:25.101Z</time></trkpt><trkpt lat="40.9486433" lon="14.3504817"><ele>27.0</ele><time>2026-04-18T09:21:26.101Z</time></trkpt><trkpt lat="40.9487467" lon="14.3502667"><ele>27.0</ele><time>2026-04-18T09:21:27.101Z</time></trkpt><trkpt lat="40.9488483" lon="14.3500517"><ele>27.0</ele><time>2026-04-18T09:21:28.101Z</time></trkpt><trkpt lat="40.9489383" lon="14.3498533"><ele>26.333333333333336</ele><time>2026-04-18T09:21:29.101Z</time></trkpt><trkpt lat="40.9490233" lon="14.3496733"><ele>25.666666666666668</ele><time>2026-04-18T09:21:30.101Z</time></trkpt><trkpt lat="40.9491083" lon="14.3494917"><ele>25.0</ele><time>2026-04-18T09:21:31.101Z</time></trkpt><trkpt lat="40.9491967" lon="14.3493183"><ele>25.0</ele><time>2026-04-18T09:21:32.101Z</time></trkpt><trkpt lat="40.949285" lon="14.3491483"><ele>25.0</ele><time>2026-04-18T09:21:33.101Z</time></trkpt><trkpt lat="40.94939" lon="14.3489867"><ele>25.0</ele><time>2026-04-18T09:21:34.101Z</time></trkpt><trkpt lat="40.9494983" lon="14.348845"><ele>25.0</ele><time>2026-04-18T09:21:35.101Z</time></trkpt><trkpt lat="40.9496117" lon="14.3487267"><ele>25.0</ele><time>2026-04-18T09:21:36.101Z</time></trkpt><trkpt lat="40.9497367" lon="14.3486267"><ele>25.0</ele><time>2026-04-18T09:21:37.101Z</time></trkpt><trkpt lat="40.949865" lon="14.34852"><ele>25.0</ele><time>2026-04-18T09:21:38.102Z</time></trkpt><trkpt lat="40.9499967" lon="14.3484317"><ele>25.25</ele><time>2026-04-18T09:21:39.101Z</time></trkpt><trkpt lat="40.9501183" lon="14.3483483"><ele>25.5</ele><time>2026-04-18T09:21:40.101Z</time></trkpt><trkpt lat="40.9502217" lon="14.3482633"><ele>25.75</ele><time>2026-04-18T09:21:41.101Z</time></trkpt><trkpt lat="40.9503083" lon="14.34818"><ele>26.0</ele><time>2026-04-18T09:21:42.101Z</time></trkpt><trkpt lat="40.950375" lon="14.3481"><ele>26.0</ele><time>2026-04-18T09:21:43.102Z</time></trkpt><trkpt lat="40.9504367" lon="14.3480133"><ele>26.0</ele><time>2026-04-18T09:21:44.101Z</time></trkpt><trkpt lat="40.9504767" lon="14.34793"><ele>26.0</ele><time>2026-04-18T09:21:45.101Z</time></trkpt><trkpt lat="40.9505167" lon="14.347825"><ele>26.0</ele><time>2026-04-18T09:21:46.101Z</time></trkpt><trkpt lat="40.9505467" lon="14.3477"><ele>26.0</ele><time>2026-04-18T09:21:47.101Z</time></trkpt><trkpt lat="40.950565" lon="14.3475567"><ele>26.0</ele><time>2026-04-18T09:21:48.101Z</time></trkpt><trkpt lat="40.9505667" lon="14.3473983"><ele>26.0</ele><time>2026-04-18T09:21:49.101Z</time></trkpt><trkpt lat="40.950565" lon="14.3472267"><ele>26.0</ele><time>2026-04-18T09:21:50.101Z</time></trkpt><trkpt lat="40.9505633" lon="14.3470417"><ele>26.0</ele><time>2026-04-18T09:21:51.101Z</time></trkpt><trkpt lat="40.9505667" lon="14.3468483"><ele>25.666666666666664</ele><time>2026-04-18T09:21:52.101Z</time></trkpt><trkpt lat="40.9505783" lon="14.3466317"><ele>25.333333333333336</ele><time>2026-04-18T09:21:53.101Z</time></trkpt><trkpt lat="40.9505967" lon="14.3464017"><ele>25.0</ele><time>2026-04-18T09:21:54.101Z</time></trkpt><trkpt lat="40.95063" lon="14.346165"><ele>25.0</ele><time>2026-04-18T09:21:55.101Z</time></trkpt><trkpt lat="40.95067" lon="14.3459333"><ele>25.0</ele><time>2026-04-18T09:21:56.101Z</time></trkpt><trkpt lat="40.9507283" lon="14.3456967"><ele>25.0</ele><time>2026-04-18T09:21:57.101Z</time></trkpt><trkpt lat="40.9508133" lon="14.3454683"><ele>25.0</ele><time>2026-04-18T09:21:58.101Z</time></trkpt><trkpt lat="40.9509167" lon="14.345245"><ele>25.0</ele><time>2026-04-18T09:21:59.1Z</time></trkpt><trkpt lat="40.95103" lon="14.3450233"><ele>25.0</ele><time>2026-04-18T09:22:00.1Z</time></trkpt><trkpt lat="40.9511567" lon="14.3447933"><ele>25.0</ele><time>2026-04-18T09:22:01.1Z</time></trkpt><trkpt lat="40.9512933" lon="14.344565"><ele>25.0</ele><time>2026-04-18T09:22:02.1Z</time></trkpt><trkpt lat="40.9514283" lon="14.3443367"><ele>25.0</ele><time>2026-04-18T09:22:03.1Z</time></trkpt><trkpt lat="40.951565" lon="14.344105"><ele>24.333333333333336</ele><time>2026-04-18T09:22:04.1Z</time></trkpt><trkpt lat="40.9517033" lon="14.3438717"><ele>23.666666666666668</ele><time>2026-04-18T09:22:05.1Z</time></trkpt><trkpt lat="40.9518383" lon="14.34365"><ele>23.0</ele><time>2026-04-18T09:22:06.1Z</time></trkpt><trkpt lat="40.951965" lon="14.34345"><ele>23.0</ele><time>2026-04-18T09:22:07.1Z</time></trkpt><trkpt lat="40.952085" lon="14.3432633"><ele>23.0</ele><time>2026-04-18T09:22:08.1Z</time></trkpt><trkpt lat="40.952195" lon="14.3430833"><ele>23.0</ele><time>2026-04-18T09:22:09.1Z</time></trkpt><trkpt lat="40.9523" lon="14.3429083"><ele>23.333333333333336</ele><time>2026-04-18T09:22:10.1Z</time></trkpt><trkpt lat="40.9524017" lon="14.342745"><ele>23.666666666666668</ele><time>2026-04-18T09:22:11.1Z</time></trkpt><trkpt lat="40.9525" lon="14.3425917"><ele>24.0</ele><time>2026-04-18T09:22:12.1Z</time></trkpt><trkpt lat="40.9525933" lon="14.3424417"><ele>23.25</ele><time>2026-04-18T09:22:13.1Z</time></trkpt><trkpt lat="40.9526817" lon="14.342295"><ele>22.5</ele><time>2026-04-18T09:22:14.1Z</time></trkpt><trkpt lat="40.9527583" lon="14.3421583"><ele>21.75</ele><time>2026-04-18T09:22:15.1Z</time></trkpt><trkpt lat="40.952835" lon="14.3420217"><ele>21.0</ele><time>2026-04-18T09:22:16.1Z</time></trkpt><trkpt lat="40.9529167" lon="14.3419"><ele>21.0</ele><time>2026-04-18T09:22:17.1Z</time></trkpt><trkpt lat="40.95301" lon="14.3418133"><ele>21.0</ele><time>2026-04-18T09:22:18.1Z</time></trkpt><trkpt lat="40.9531067" lon="14.3417683"><ele>21.0</ele><time>2026-04-18T09:22:19.1Z</time></trkpt><trkpt lat="40.9532017" lon="14.3417617"><ele>21.0</ele><time>2026-04-18T09:22:20.1Z</time></trkpt><trkpt lat="40.953285" lon="14.3417583"><ele>21.0</ele><time>2026-04-18T09:22:21.1Z</time></trkpt><trkpt lat="40.953355" lon="14.3417483"><ele>20.833333333333332</ele><time>2026-04-18T09:22:22.1Z</time></trkpt><trkpt lat="40.9534417" lon="14.34175"><ele>20.666666666666668</ele><time>2026-04-18T09:22:24.1Z</time></trkpt><trkpt lat="40.953515" lon="14.3417217"><ele>20.5</ele><time>2026-04-18T09:22:27.1Z</time></trkpt><trkpt lat="40.953565" lon="14.3415983"><ele>20.333333333333336</ele><time>2026-04-18T09:22:30.101Z</time></trkpt><trkpt lat="40.95357" lon="14.34151"><ele>20.166666666666668</ele><time>2026-04-18T09:22:31.1Z</time></trkpt><trkpt lat="40.9535683" lon="14.341395"><ele>20.0</ele><time>2026-04-18T09:22:32.1Z</time></trkpt><trkpt lat="40.95357" lon="14.341255"><ele>20.0</ele><time>2026-04-18T09:22:33.1Z</time></trkpt><trkpt lat="40.9535733" lon="14.341105"><ele>20.0</ele><time>2026-04-18T09:22:34.1Z</time></trkpt><trkpt lat="40.9535767" lon="14.3409583"><ele>20.0</ele><time>2026-04-18T09:22:35.101Z</time></trkpt><trkpt lat="40.9535917" lon="14.3408083"><ele>20.0</ele><time>2026-04-18T09:22:36.1Z</time></trkpt><trkpt lat="40.9536" lon="14.3406483"><ele>20.25</ele><time>2026-04-18T09:22:37.1Z</time></trkpt><trkpt lat="40.9536067" lon="14.340485"><ele>20.5</ele><time>2026-04-18T09:22:38.1Z</time></trkpt><trkpt lat="40.9536183" lon="14.3403133"><ele>20.75</ele><time>2026-04-18T09:22:39.1Z</time></trkpt><trkpt lat="40.95363" lon="14.3401433"><ele>21.0</ele><time>2026-04-18T09:22:40.1Z</time></trkpt><trkpt lat="40.95364" lon="14.3399633"><ele>21.0</ele><time>2026-04-18T09:22:41.1Z</time></trkpt><trkpt lat="40.9536483" lon="14.3397783"><ele>21.0</ele><time>2026-04-18T09:22:42.1Z</time></trkpt><trkpt lat="40.9536617" lon="14.3395917"><ele>21.0</ele><time>2026-04-18T09:22:43.1Z</time></trkpt><trkpt lat="40.9536783" lon="14.33941"><ele>21.0</ele><time>2026-04-18T09:22:44.1Z</time></trkpt><trkpt lat="40.9536933" lon="14.3392233"><ele>21.0</ele><time>2026-04-18T09:22:45.1Z</time></trkpt><trkpt lat="40.95371" lon="14.339035"><ele>21.0</ele><time>2026-04-18T09:22:46.1Z</time></trkpt><trkpt lat="40.953725" lon="14.3388383"><ele>21.0</ele><time>2026-04-18T09:22:47.1Z</time></trkpt><trkpt lat="40.9537383" lon="14.3386433"><ele>21.0</ele><time>2026-04-18T09:22:48.1Z</time></trkpt><trkpt lat="40.9537467" lon="14.3384417"><ele>21.0</ele><time>2026-04-18T09:22:49.1Z</time></trkpt><trkpt lat="40.95376" lon="14.338245"><ele>21.0</ele><time>2026-04-18T09:22:50.1Z</time></trkpt><trkpt lat="40.953775" lon="14.338045"><ele>21.0</ele><time>2026-04-18T09:22:51.1Z</time></trkpt><trkpt lat="40.9537917" lon="14.3378433"><ele>21.5</ele><time>2026-04-18T09:22:52.1Z</time></trkpt><trkpt lat="40.9538017" lon="14.337655"><ele>22.0</ele><time>2026-04-18T09:22:53.1Z</time></trkpt><trkpt lat="40.953815" lon="14.337475"><ele>22.5</ele><time>2026-04-18T09:22:54.1Z</time></trkpt><trkpt lat="40.95383" lon="14.3373117"><ele>23.0</ele><time>2026-04-18T09:22:55.1Z</time></trkpt><trkpt lat="40.95383" lon="14.337155"><ele>23.0</ele><time>2026-04-18T09:22:56.1Z</time></trkpt><trkpt lat="40.9538383" lon="14.33702"><ele>23.0</ele><time>2026-04-18T09:22:57.1Z</time></trkpt><trkpt lat="40.953855" lon="14.3368883"><ele>23.0</ele><time>2026-04-18T09:22:58.1Z</time></trkpt><trkpt lat="40.9538617" lon="14.33676"><ele>23.0</ele><time>2026-04-18T09:22:59.1Z</time></trkpt><trkpt lat="40.9538633" lon="14.3366383"><ele>23.0</ele><time>2026-04-18T09:23:00.1Z</time></trkpt><trkpt lat="40.95387" lon="14.33653"><ele>23.0</ele><time>2026-04-18T09:23:01.101Z</time></trkpt><trkpt lat="40.9538933" lon="14.3364317"><ele>23.0</ele><time>2026-04-18T09:23:02.1Z</time></trkpt><trkpt lat="40.9539267" lon="14.3363517"><ele>23.0</ele><time>2026-04-18T09:23:03.1Z</time></trkpt><trkpt lat="40.9539717" lon="14.3362883"><ele>23.0</ele><time>2026-04-18T09:23:04.1Z</time></trkpt><trkpt lat="40.9540367" lon="14.3362367"><ele>23.0</ele><time>2026-04-18T09:23:05.1Z</time></trkpt><trkpt lat="40.9541" lon="14.3361867"><ele>23.0</ele><time>2026-04-18T09:23:06.1Z</time></trkpt><trkpt lat="40.9541533" lon="14.3361283"><ele>23.0</ele><time>2026-04-18T09:23:07.1Z</time></trkpt><trkpt lat="40.9541883" lon="14.335985"><ele>22.833333333333336</ele><time>2026-04-18T09:23:09.101Z</time></trkpt><trkpt lat="40.9541633" lon="14.3359"><ele>22.666666666666668</ele><time>2026-04-18T09:23:10.1Z</time></trkpt><trkpt lat="40.954115" lon="14.3358167"><ele>22.5</ele><time>2026-04-18T09:23:11.1Z</time></trkpt><trkpt lat="40.954065" lon="14.3357267"><ele>22.333333333333332</ele><time>2026-04-18T09:23:12.1Z</time></trkpt><trkpt lat="40.9540233" lon="14.3356217"><ele>22.166666666666664</ele><time>2026-04-18T09:23:13.1Z</time></trkpt><trkpt lat="40.9540133" lon="14.3355017"><ele>22.0</ele><time>2026-04-18T09:23:14.1Z</time></trkpt><trkpt lat="40.9540233" lon="14.3353533"><ele>22.0</ele><time>2026-04-18T09:23:15.1Z</time></trkpt><trkpt lat="40.9540517" lon="14.33517"><ele>22.0</ele><time>2026-04-18T09:23:16.1Z</time></trkpt><trkpt lat="40.9541" lon="14.3349483"><ele>22.0</ele><time>2026-04-18T09:23:17.1Z</time></trkpt><trkpt lat="40.9541583" lon="14.33469"><ele>21.666666666666664</ele><time>2026-04-18T09:23:18.1Z</time></trkpt><trkpt lat="40.9542183" lon="14.33442"><ele>21.333333333333332</ele><time>2026-04-18T09:23:19.101Z</time></trkpt><trkpt lat="40.9542783" lon="14.3341367"><ele>21.0</ele><time>2026-04-18T09:23:20.1Z</time></trkpt><trkpt lat="40.954335" lon="14.333855"><ele>21.0</ele><time>2026-04-18T09:23:21.1Z</time></trkpt><trkpt lat="40.9543917" lon="14.3335683"><ele>21.0</ele><time>2026-04-18T09:23:22.1Z</time></trkpt><trkpt lat="40.9544383" lon="14.33329"><ele>21.0</ele><time>2026-04-18T09:23:23.1Z</time></trkpt><trkpt lat="40.9544833" lon="14.3330167"><ele>21.333333333333332</ele><time>2026-04-18T09:23:24.1Z</time></trkpt><trkpt lat="40.9545283" lon="14.3327483"><ele>21.666666666666664</ele><time>2026-04-18T09:23:25.1Z</time></trkpt><trkpt lat="40.9545633" lon="14.332485"><ele>22.0</ele><time>2026-04-18T09:23:26.1Z</time></trkpt><trkpt lat="40.9546" lon="14.3322267"><ele>22.0</ele><time>2026-04-18T09:23:27.1Z</time></trkpt><trkpt lat="40.95464" lon="14.331965"><ele>22.0</ele><time>2026-04-18T09:23:28.101Z</time></trkpt><trkpt lat="40.954685" lon="14.3317067"><ele>22.0</ele><time>2026-04-18T09:23:29.1Z</time></trkpt><trkpt lat="40.9547283" lon="14.3314467"><ele>22.333333333333332</ele><time>2026-04-18T09:23:30.1Z</time></trkpt><trkpt lat="40.9547783" lon="14.33119"><ele>22.666666666666668</ele><time>2026-04-18T09:23:31.1Z</time></trkpt><trkpt lat="40.954835" lon="14.3309367"><ele>23.0</ele><time>2026-04-18T09:23:32.1Z</time></trkpt><trkpt lat="40.9548917" lon="14.3306867"><ele>22.333333333333336</ele><time>2026-04-18T09:23:33.1Z</time></trkpt><trkpt lat="40.9549433" lon="14.33045"><ele>21.666666666666668</ele><time>2026-04-18T09:23:34.1Z</time></trkpt><trkpt lat="40.95499" lon="14.3302417"><ele>21.0</ele><time>2026-04-18T09:23:35.1Z</time></trkpt><trkpt lat="40.955045" lon="14.33003"><ele>21.0</ele><time>2026-04-18T09:23:36.1Z</time></trkpt><trkpt lat="40.9550867" lon="14.3298183"><ele>21.0</ele><time>2026-04-18T09:23:37.1Z</time></trkpt><trkpt lat="40.955115" lon="14.3296"><ele>21.0</ele><time>2026-04-18T09:23:38.1Z</time></trkpt><trkpt lat="40.9551217" lon="14.329375"><ele>21.0</ele><time>2026-04-18T09:23:39.1Z</time></trkpt><trkpt lat="40.955115" lon="14.329135"><ele>21.0</ele><time>2026-04-18T09:23:40.1Z</time></trkpt><trkpt lat="40.9550983" lon="14.3288867"><ele>21.0</ele><time>2026-04-18T09:23:41.1Z</time></trkpt><trkpt lat="40.9550883" lon="14.3286333"><ele>21.666666666666668</ele><time>2026-04-18T09:23:42.1Z</time></trkpt><trkpt lat="40.9550867" lon="14.328365"><ele>22.333333333333336</ele><time>2026-04-18T09:23:43.1Z</time></trkpt><trkpt lat="40.955095" lon="14.3281017"><ele>23.0</ele><time>2026-04-18T09:23:44.1Z</time></trkpt><trkpt lat="40.9551183" lon="14.3278183"><ele>23.0</ele><time>2026-04-18T09:23:45.101Z</time></trkpt><trkpt lat="40.955145" lon="14.3275367"><ele>23.0</ele><time>2026-04-18T09:23:46.1Z</time></trkpt><trkpt lat="40.9551733" lon="14.327275"><ele>23.0</ele><time>2026-04-18T09:23:47.1Z</time></trkpt><trkpt lat="40.9551933" lon="14.3270333"><ele>22.666666666666668</ele><time>2026-04-18T09:23:48.1Z</time></trkpt><trkpt lat="40.95521" lon="14.3267883"><ele>22.333333333333332</ele><time>2026-04-18T09:23:49.1Z</time></trkpt><trkpt lat="40.95522" lon="14.32654"><ele>22.0</ele><time>2026-04-18T09:23:50.101Z</time></trkpt><trkpt lat="40.9552233" lon="14.3262817"><ele>22.0</ele><time>2026-04-18T09:23:51.1Z</time></trkpt><trkpt lat="40.95523" lon="14.3260233"><ele>22.0</ele><time>2026-04-18T09:23:52.1Z</time></trkpt><trkpt lat="40.9552333" lon="14.3257717"><ele>22.0</ele><time>2026-04-18T09:23:53.1Z</time></trkpt><trkpt lat="40.9552417" lon="14.3255383"><ele>22.333333333333332</ele><time>2026-04-18T09:23:54.1Z</time></trkpt><trkpt lat="40.955245" lon="14.32531"><ele>22.666666666666668</ele><time>2026-04-18T09:23:55.1Z</time></trkpt><trkpt lat="40.9552517" lon="14.3250783"><ele>23.0</ele><time>2026-04-18T09:23:56.1Z</time></trkpt><trkpt lat="40.9552583" lon="14.32485"><ele>22.666666666666668</ele><time>2026-04-18T09:23:57.1Z</time></trkpt><trkpt lat="40.9552733" lon="14.324635"><ele>22.333333333333332</ele><time>2026-04-18T09:23:58.1Z</time></trkpt><trkpt lat="40.9553" lon="14.324445"><ele>22.0</ele><time>2026-04-18T09:23:59.1Z</time></trkpt><trkpt lat="40.9553467" lon="14.3242633"><ele>22.0</ele><time>2026-04-18T09:24:00.1Z</time></trkpt><trkpt lat="40.9553917" lon="14.3241"><ele>22.0</ele><time>2026-04-18T09:24:01.1Z</time></trkpt><trkpt lat="40.9554583" lon="14.3239367"><ele>22.0</ele><time>2026-04-18T09:24:02.1Z</time></trkpt><trkpt lat="40.9555383" lon="14.32378"><ele>22.0</ele><time>2026-04-18T09:24:03.1Z</time></trkpt><trkpt lat="40.9556283" lon="14.3236283"><ele>22.5</ele><time>2026-04-18T09:24:04.1Z</time></trkpt><trkpt lat="40.9557183" lon="14.3234733"><ele>23.0</ele><time>2026-04-18T09:24:05.1Z</time></trkpt><trkpt lat="40.9557933" lon="14.323325"><ele>23.5</ele><time>2026-04-18T09:24:06.1Z</time></trkpt><trkpt lat="40.955855" lon="14.323175"><ele>24.0</ele><time>2026-04-18T09:24:07.101Z</time></trkpt><trkpt lat="40.9559117" lon="14.3229983"><ele>24.5</ele><time>2026-04-18T09:24:08.1Z</time></trkpt><trkpt lat="40.9559567" lon="14.322815"><ele>25.0</ele><time>2026-04-18T09:24:09.1Z</time></trkpt><trkpt lat="40.95599" lon="14.32263"><ele>25.5</ele><time>2026-04-18T09:24:10.101Z</time></trkpt><trkpt lat="40.9560233" lon="14.32245"><ele>26.0</ele><time>2026-04-18T09:24:11.1Z</time></trkpt><trkpt lat="40.95605" lon="14.32229"><ele>25.75</ele><time>2026-04-18T09:24:12.1Z</time></trkpt><trkpt lat="40.9560783" lon="14.3221333"><ele>25.5</ele><time>2026-04-18T09:24:13.101Z</time></trkpt><trkpt lat="40.9561" lon="14.3219817"><ele>25.25</ele><time>2026-04-18T09:24:14.1Z</time></trkpt><trkpt lat="40.95611" lon="14.3218233"><ele>25.0</ele><time>2026-04-18T09:24:15.1Z</time></trkpt><trkpt lat="40.9560983" lon="14.32166"><ele>25.0</ele><time>2026-04-18T09:24:16.1Z</time></trkpt><trkpt lat="40.9560733" lon="14.3214967"><ele>25.0</ele><time>2026-04-18T09:24:17.1Z</time></trkpt><trkpt lat="40.95603" lon="14.3213183"><ele>25.0</ele><time>2026-04-18T09:24:18.1Z</time></trkpt><trkpt lat="40.955975" lon="14.3211183"><ele>25.0</ele><time>2026-04-18T09:24:19.1Z</time></trkpt><trkpt lat="40.9559133" lon="14.32092"><ele>24.75</ele><time>2026-04-18T09:24:20.1Z</time></trkpt><trkpt lat="40.9558667" lon="14.32074"><ele>24.5</ele><time>2026-04-18T09:24:21.101Z</time></trkpt><trkpt lat="40.9558233" lon="14.32057"><ele>24.25</ele><time>2026-04-18T09:24:22.1Z</time></trkpt><trkpt lat="40.9557733" lon="14.3204033"><ele>24.0</ele><time>2026-04-18T09:24:23.1Z</time></trkpt><trkpt lat="40.9557317" lon="14.3202317"><ele>23.75</ele><time>2026-04-18T09:24:24.1Z</time></trkpt><trkpt lat="40.95568" lon="14.3200533"><ele>23.5</ele><time>2026-04-18T09:24:25.1Z</time></trkpt><trkpt lat="40.9556333" lon="14.3198767"><ele>23.25</ele><time>2026-04-18T09:24:26.1Z</time></trkpt><trkpt lat="40.95559" lon="14.3196983"><ele>23.0</ele><time>2026-04-18T09:24:27.1Z</time></trkpt><trkpt lat="40.9555567" lon="14.3195233"><ele>23.0</ele><time>2026-04-18T09:24:28.1Z</time></trkpt><trkpt lat="40.9555233" lon="14.3193433"><ele>23.0</ele><time>2026-04-18T09:24:29.101Z</time></trkpt><trkpt lat="40.9554967" lon="14.3191583"><ele>23.0</ele><time>2026-04-18T09:24:30.1Z</time></trkpt><trkpt lat="40.9554733" lon="14.3189717"><ele>23.0</ele><time>2026-04-18T09:24:31.101Z</time></trkpt><trkpt lat="40.95545" lon="14.3187817"><ele>23.0</ele><time>2026-04-18T09:24:32.1Z</time></trkpt><trkpt lat="40.955435" lon="14.318585"><ele>23.0</ele><time>2026-04-18T09:24:33.1Z</time></trkpt><trkpt lat="40.955425" lon="14.3183917"><ele>23.0</ele><time>2026-04-18T09:24:34.1Z</time></trkpt><trkpt lat="40.9554167" lon="14.3182017"><ele>23.0</ele><time>2026-04-18T09:24:35.1Z</time></trkpt><trkpt lat="40.9554133" lon="14.3180133"><ele>23.0</ele><time>2026-04-18T09:24:36.1Z</time></trkpt><trkpt lat="40.95541" lon="14.317825"><ele>23.0</ele><time>2026-04-18T09:24:37.1Z</time></trkpt><trkpt lat="40.955415" lon="14.3176533"><ele>23.0</ele><time>2026-04-18T09:24:38.101Z</time></trkpt><trkpt lat="40.9554233" lon="14.31748"><ele>23.0</ele><time>2026-04-18T09:24:39.1Z</time></trkpt><trkpt lat="40.9554383" lon="14.317305"><ele>23.0</ele><time>2026-04-18T09:24:40.1Z</time></trkpt><trkpt lat="40.955465" lon="14.317135"><ele>23.0</ele><time>2026-04-18T09:24:41.1Z</time></trkpt><trkpt lat="40.9555017" lon="14.3169583"><ele>23.0</ele><time>2026-04-18T09:24:42.1Z</time></trkpt><trkpt lat="40.9555317" lon="14.316785"><ele>23.0</ele><time>2026-04-18T09:24:43.1Z</time></trkpt><trkpt lat="40.9555633" lon="14.31662"><ele>23.0</ele><time>2026-04-18T09:24:44.1Z</time></trkpt><trkpt lat="40.9555967" lon="14.3164683"><ele>23.0</ele><time>2026-04-18T09:24:45.1Z</time></trkpt><trkpt lat="40.95563" lon="14.316315"><ele>23.0</ele><time>2026-04-18T09:24:46.1Z</time></trkpt><trkpt lat="40.9556583" lon="14.3161583"><ele>23.0</ele><time>2026-04-18T09:24:47.1Z</time></trkpt><trkpt lat="40.9556783" lon="14.31601"><ele>23.4</ele><time>2026-04-18T09:24:48.1Z</time></trkpt><trkpt lat="40.9557" lon="14.3158633"><ele>23.799999999999997</ele><time>2026-04-18T09:24:49.1Z</time></trkpt><trkpt lat="40.9557133" lon="14.3157167"><ele>24.2</ele><time>2026-04-18T09:24:50.1Z</time></trkpt><trkpt lat="40.9557267" lon="14.3155717"><ele>24.6</ele><time>2026-04-18T09:24:51.1Z</time></trkpt><trkpt lat="40.95574" lon="14.3154233"><ele>25.0</ele><time>2026-04-18T09:24:52.1Z</time></trkpt><trkpt lat="40.9557517" lon="14.3152867"><ele>25.000000000000004</ele><time>2026-04-18T09:24:53.1Z</time></trkpt><trkpt lat="40.95576" lon="14.3151617"><ele>25.0</ele><time>2026-04-18T09:24:54.1Z</time></trkpt><trkpt lat="40.9557633" lon="14.3150417"><ele>25.0</ele><time>2026-04-18T09:24:55.101Z</time></trkpt><trkpt lat="40.955765" lon="14.3149333"><ele>25.0</ele><time>2026-04-18T09:24:56.1Z</time></trkpt><trkpt lat="40.955765" lon="14.3148433"><ele>25.000000000000004</ele><time>2026-04-18T09:24:57.1Z</time></trkpt><trkpt lat="40.9557617" lon="14.3147017"><ele>25.0</ele><time>2026-04-18T09:24:59.1Z</time></trkpt><trkpt lat="40.9557467" lon="14.3145783"><ele>25.0</ele><time>2026-04-18T09:25:01.1Z</time></trkpt><trkpt lat="40.9557533" lon="14.3144"><ele>25.0</ele><time>2026-04-18T09:25:03.1Z</time></trkpt><trkpt lat="40.955765" lon="14.3142617"><ele>25.0</ele><time>2026-04-18T09:25:04.1Z</time></trkpt><trkpt lat="40.9557883" lon="14.31409"><ele>25.0</ele><time>2026-04-18T09:25:05.1Z</time></trkpt><trkpt lat="40.9558183" lon="14.313895"><ele>25.0</ele><time>2026-04-18T09:25:06.101Z</time></trkpt><trkpt lat="40.9558667" lon="14.31369"><ele>25.0</ele><time>2026-04-18T09:25:07.1Z</time></trkpt><trkpt lat="40.95591" lon="14.3134817"><ele>25.0</ele><time>2026-04-18T09:25:08.1Z</time></trkpt><trkpt lat="40.9559533" lon="14.313265"><ele>25.333333333333336</ele><time>2026-04-18T09:25:09.1Z</time></trkpt><trkpt lat="40.9560217" lon="14.3130433"><ele>25.666666666666664</ele><time>2026-04-18T09:25:10.1Z</time></trkpt><trkpt lat="40.95608" lon="14.3128367"><ele>26.0</ele><time>2026-04-18T09:25:11.1Z</time></trkpt><trkpt lat="40.956135" lon="14.3126383"><ele>26.0</ele><time>2026-04-18T09:25:12.1Z</time></trkpt><trkpt lat="40.956175" lon="14.312445"><ele>26.0</ele><time>2026-04-18T09:25:13.101Z</time></trkpt><trkpt lat="40.9561867" lon="14.312255"><ele>26.0</ele><time>2026-04-18T09:25:14.1Z</time></trkpt><trkpt lat="40.956195" lon="14.312035"><ele>26.0</ele><time>2026-04-18T09:25:15.101Z</time></trkpt><trkpt lat="40.9561983" lon="14.311815"><ele>26.0</ele><time>2026-04-18T09:25:16.1Z</time></trkpt><trkpt lat="40.9562017" lon="14.311595"><ele>26.0</ele><time>2026-04-18T09:25:17.1Z</time></trkpt><trkpt lat="40.9562117" lon="14.3113783"><ele>26.5</ele><time>2026-04-18T09:25:18.1Z</time></trkpt><trkpt lat="40.9562167" lon="14.3111883"><ele>27.0</ele><time>2026-04-18T09:25:19.1Z</time></trkpt><trkpt lat="40.95621" lon="14.3110067"><ele>27.5</ele><time>2026-04-18T09:25:20.1Z</time></trkpt><trkpt lat="40.95622" lon="14.3108317"><ele>28.0</ele><time>2026-04-18T09:25:21.1Z</time></trkpt><trkpt lat="40.9562317" lon="14.310655"><ele>28.0</ele><time>2026-04-18T09:25:22.1Z</time></trkpt><trkpt lat="40.956245" lon="14.3104967"><ele>28.0</ele><time>2026-04-18T09:25:23.1Z</time></trkpt><trkpt lat="40.9562433" lon="14.3103483"><ele>28.0</ele><time>2026-04-18T09:25:24.1Z</time></trkpt><trkpt lat="40.9562467" lon="14.3101967"><ele>28.0</ele><time>2026-04-18T09:25:25.1Z</time></trkpt><trkpt lat="40.956255" lon="14.31006"><ele>28.000000000000004</ele><time>2026-04-18T09:25:26.1Z</time></trkpt><trkpt lat="40.9562517" lon="14.3099167"><ele>28.0</ele><time>2026-04-18T09:25:27.1Z</time></trkpt><trkpt lat="40.9562583" lon="14.3097983"><ele>28.0</ele><time>2026-04-18T09:25:28.1Z</time></trkpt><trkpt lat="40.9562617" lon="14.3097017"><ele>28.0</ele><time>2026-04-18T09:25:29.1Z</time></trkpt><trkpt lat="40.95626" lon="14.3095983"><ele>28.000000000000004</ele><time>2026-04-18T09:25:31.1Z</time></trkpt><trkpt lat="40.9561967" lon="14.30951"><ele>28.0</ele><time>2026-04-18T09:25:36.1Z</time></trkpt><trkpt lat="40.9560617" lon="14.3094817"><ele>27.666666666666668</ele><time>2026-04-18T09:25:38.1Z</time></trkpt><trkpt lat="40.9559767" lon="14.30948"><ele>27.333333333333336</ele><time>2026-04-18T09:25:39.1Z</time></trkpt><trkpt lat="40.955895" lon="14.3094867"><ele>27.0</ele><time>2026-04-18T09:25:40.1Z</time></trkpt><trkpt lat="40.9558183" lon="14.3094883"><ele>26.666666666666664</ele><time>2026-04-18T09:25:41.1Z</time></trkpt><trkpt lat="40.955745" lon="14.309495"><ele>26.333333333333332</ele><time>2026-04-18T09:25:42.101Z</time></trkpt><trkpt lat="40.9556683" lon="14.3094933"><ele>26.0</ele><time>2026-04-18T09:25:43.1Z</time></trkpt><trkpt lat="40.9555483" lon="14.309485"><ele>25.999999999999996</ele><time>2026-04-18T09:25:45.1Z</time></trkpt><trkpt lat="40.9554383" lon="14.309485"><ele>26.0</ele><time>2026-04-18T09:25:47.1Z</time></trkpt><trkpt lat="40.9553283" lon="14.3094817"><ele>26.0</ele><time>2026-04-18T09:25:49.101Z</time></trkpt><trkpt lat="40.9552633" lon="14.3094817"><ele>26.0</ele><time>2026-04-18T09:25:50.1Z</time></trkpt><trkpt lat="40.9551983" lon="14.3094783"><ele>25.999999999999996</ele><time>2026-04-18T09:25:51.1Z</time></trkpt><trkpt lat="40.955135" lon="14.30948"><ele>26.0</ele><time>2026-04-18T09:25:52.1Z</time></trkpt><trkpt lat="40.9550467" lon="14.3094767"><ele>26.0</ele><time>2026-04-18T09:25:54.1Z</time></trkpt><trkpt lat="40.9550033" lon="14.30939"><ele>26.0</ele><time>2026-04-18T09:25:56.1Z</time></trkpt><trkpt lat="40.9549917" lon="14.309265"><ele>26.0</ele><time>2026-04-18T09:25:58.1Z</time></trkpt><trkpt lat="40.9550167" lon="14.3091217"><ele>26.0</ele><time>2026-04-18T09:26:00.1Z</time></trkpt><trkpt lat="40.9550333" lon="14.3089833"><ele>26.0</ele><time>2026-04-18T09:26:02.1Z</time></trkpt><trkpt lat="40.9550417" lon="14.3088817"><ele>26.4</ele><time>2026-04-18T09:26:04.1Z</time></trkpt><trkpt lat="40.9550633" lon="14.3087983"><ele>26.8</ele><time>2026-04-18T09:26:06.1Z</time></trkpt><trkpt lat="40.955085" lon="14.3086783"><ele>27.199999999999996</ele><time>2026-04-18T09:26:08.1Z</time></trkpt><trkpt lat="40.9550933" lon="14.308535"><ele>27.599999999999998</ele><time>2026-04-18T09:26:10.1Z</time></trkpt><trkpt lat="40.95511" lon="14.308395"><ele>28.0</ele><time>2026-04-18T09:26:12.1Z</time></trkpt><trkpt lat="40.95513" lon="14.30827"><ele>28.000000000000004</ele><time>2026-04-18T09:26:14.1Z</time></trkpt><trkpt lat="40.9551333" lon="14.308175"><ele>28.0</ele><time>2026-04-18T09:26:16.1Z</time></trkpt><trkpt lat="40.9551483" lon="14.3080783"><ele>28.0</ele><time>2026-04-18T09:26:18.1Z</time></trkpt><trkpt lat="40.9551567" lon="14.3079383"><ele>28.0</ele><time>2026-04-18T09:26:20.1Z</time></trkpt><trkpt lat="40.95517" lon="14.3077817"><ele>28.000000000000004</ele><time>2026-04-18T09:26:22.1Z</time></trkpt><trkpt lat="40.9551717" lon="14.3076983"><ele>28.0</ele><time>2026-04-18T09:26:23.1Z</time></trkpt><trkpt lat="40.9551933" lon="14.30755"><ele>28.0</ele><time>2026-04-18T09:26:25.1Z</time></trkpt><trkpt lat="40.955205" lon="14.3074133"><ele>27.999999999999996</ele><time>2026-04-18T09:26:27.1Z</time></trkpt><trkpt lat="40.9552033" lon="14.3072867"><ele>27.999999999999996</ele><time>2026-04-18T09:26:29.1Z</time></trkpt><trkpt lat="40.95519" lon="14.3071517"><ele>28.0</ele><time>2026-04-18T09:26:31.1Z</time></trkpt><trkpt lat="40.9552067" lon="14.3070117"><ele>28.0</ele><time>2026-04-18T09:26:33.1Z</time></trkpt><trkpt lat="40.95523" lon="14.3068733"><ele>27.799999999999997</ele><time>2026-04-18T09:26:35.1Z</time></trkpt><trkpt lat="40.9552583" lon="14.3067367"><ele>27.599999999999998</ele><time>2026-04-18T09:26:37.1Z</time></trkpt><trkpt lat="40.955255" lon="14.306615"><ele>27.400000000000002</ele><time>2026-04-18T09:26:39.1Z</time></trkpt><trkpt lat="40.9552667" lon="14.3065317"><ele>27.200000000000003</ele><time>2026-04-18T09:26:41.1Z</time></trkpt><trkpt lat="40.9552867" lon="14.306425"><ele>27.0</ele><time>2026-04-18T09:26:45.1Z</time></trkpt><trkpt lat="40.9552933" lon="14.30628"><ele>26.833333333333332</ele><time>2026-04-18T09:26:48.1Z</time></trkpt><trkpt lat="40.9553017" lon="14.3061"><ele>26.666666666666664</ele><time>2026-04-18T09:26:50.1Z</time></trkpt><trkpt lat="40.955305" lon="14.3059983"><ele>26.5</ele><time>2026-04-18T09:26:51.101Z</time></trkpt><trkpt lat="40.9553067" lon="14.3058967"><ele>26.333333333333332</ele><time>2026-04-18T09:26:52.1Z</time></trkpt><trkpt lat="40.9553133" lon="14.30579"><ele>26.166666666666664</ele><time>2026-04-18T09:26:53.1Z</time></trkpt><trkpt lat="40.9553233" lon="14.30569"><ele>26.0</ele><time>2026-04-18T09:26:54.1Z</time></trkpt><trkpt lat="40.9553333" lon="14.3055967"><ele>26.333333333333332</ele><time>2026-04-18T09:26:55.1Z</time></trkpt><trkpt lat="40.9553333" lon="14.3055067"><ele>26.666666666666664</ele><time>2026-04-18T09:26:56.1Z</time></trkpt><trkpt lat="40.95534" lon="14.30541"><ele>27.0</ele><time>2026-04-18T09:26:57.1Z</time></trkpt><trkpt lat="40.9553417" lon="14.3053067"><ele>27.333333333333336</ele><time>2026-04-18T09:26:58.101Z</time></trkpt><trkpt lat="40.95536" lon="14.3052233"><ele>27.666666666666668</ele><time>2026-04-18T09:26:59.1Z</time></trkpt><trkpt lat="40.9553933" lon="14.3050717"><ele>28.0</ele><time>2026-04-18T09:27:01.1Z</time></trkpt><trkpt lat="40.95541" lon="14.304985"><ele>28.0</ele><time>2026-04-18T09:27:02.1Z</time></trkpt><trkpt lat="40.95543" lon="14.30489"><ele>27.999999999999996</ele><time>2026-04-18T09:27:03.1Z</time></trkpt><trkpt lat="40.955445" lon="14.3047983"><ele>27.999999999999996</ele><time>2026-04-18T09:27:04.1Z</time></trkpt><trkpt lat="40.9554533" lon="14.3046483"><ele>28.0</ele><time>2026-04-18T09:27:06.1Z</time></trkpt><trkpt lat="40.955475" lon="14.3045217"><ele>28.0</ele><time>2026-04-18T09:27:09.1Z</time></trkpt><trkpt lat="40.95541" lon="14.3044167"><ele>28.000000000000004</ele><time>2026-04-18T09:27:19.1Z</time></trkpt><trkpt lat="40.955345" lon="14.304405"><ele>28.0</ele><time>2026-04-18T09:27:21.1Z</time></trkpt><trkpt lat="40.95527" lon="14.3043883"><ele>28.0</ele><time>2026-04-18T09:27:23.1Z</time></trkpt><trkpt lat="40.9551817" lon="14.30437"><ele>28.0</ele><time>2026-04-18T09:27:25.1Z</time></trkpt><trkpt lat="40.9551183" lon="14.3043383"><ele>28.000000000000004</ele><time>2026-04-18T09:27:27.1Z</time></trkpt><trkpt lat="40.95504" lon="14.3043083"><ele>28.0</ele><time>2026-04-18T09:27:30.1Z</time></trkpt><trkpt lat="40.9549383" lon="14.3042783"><ele>28.0</ele><time>2026-04-18T09:27:33.101Z</time></trkpt><trkpt lat="40.9548567" lon="14.3042167"><ele>27.999999999999996</ele><time>2026-04-18T09:27:36.1Z</time></trkpt><trkpt lat="40.954795" lon="14.3041817"><ele>27.999999999999996</ele><time>2026-04-18T09:27:38.1Z</time></trkpt><trkpt lat="40.95472" lon="14.304165"><ele>28.0</ele><time>2026-04-18T09:27:40.1Z</time></trkpt><trkpt lat="40.9546117" lon="14.30413"><ele>28.0</ele><time>2026-04-18T09:27:42.1Z</time></trkpt><trkpt lat="40.9545117" lon="14.3040583"><ele>28.000000000000004</ele><time>2026-04-18T09:27:44.1Z</time></trkpt><trkpt lat="40.9544283" lon="14.304025"><ele>28.0</ele><time>2026-04-18T09:27:46.1Z</time></trkpt><trkpt lat="40.9543617" lon="14.30402"><ele>28.0</ele><time>2026-04-18T09:27:48.1Z</time></trkpt><trkpt lat="40.9542867" lon="14.3040083"><ele>28.0</ele><time>2026-04-18T09:27:51.1Z</time></trkpt><trkpt lat="40.9542933" lon="14.3038717"><ele>28.000000000000004</ele><time>2026-04-18T09:27:54.1Z</time></trkpt><trkpt lat="40.9543167" lon="14.3037817"><ele>28.0</ele><time>2026-04-18T09:27:56.1Z</time></trkpt><trkpt lat="40.95432" lon="14.303675"><ele>29.0</ele><time>2026-04-18T09:27:59.1Z</time></trkpt><trkpt lat="40.9543" lon="14.3038133"><ele>29.0</ele><time>2026-04-18T09:29:28.1Z</time></trkpt><trkpt lat="40.9543" lon="14.3037183"><ele>29.0</ele><time>2026-04-18T09:29:30.1Z</time></trkpt><trkpt lat="40.9542717" lon="14.30364"><ele>29.0</ele><time>2026-04-18T09:29:32.1Z</time></trkpt></trkseg></trk></gpx>